
Distance (Route):
Temperature : 11.1°C
Humidity : 66.3%
Pressure : 0hPa| Receiver | Frames | First received | Last received |
|---|---|---|---|
| OE3MUC-15 | 681 | 2026-09-05 23:37:46 | 2026-09-06 01:10:16 |
| OE5MMP-10 | 383 | 2026-09-05 23:27:48 | 2026-09-06 01:06:18 |
| DO3MHA-11 | 341 | 2026-09-05 23:29:21 | 2026-09-06 01:03:10 |
| PETON7-10 | 196 | 2026-09-05 23:40:13 | 2026-09-06 01:09:30 |
| OK1ALN | 172 | 2026-09-05 23:18:21 | 2026-09-06 01:08:06 |
| PG1ADW-2 | 145 | 2026-09-05 23:33:57 | 2026-09-06 01:05:40 |
| OE5DRO-10 | 133 | 2026-09-05 23:34:20 | 2026-09-06 01:05:14 |
| OE3JTB-15 | 104 | 2026-09-05 23:22:00 | 2026-09-06 01:10:33 |
| EDDB2-11 | 94 | 2026-09-05 23:37:56 | 2026-09-06 01:00:43 |
| OE5DXL-15 | 86 | 2026-09-05 23:39:32 | 2026-09-06 01:05:16 |
| HA6NAB-11 | 83 | 2026-09-05 23:59:00 | 2026-09-06 00:56:34 |
| NBG1-10 | 81 | 2026-09-05 23:30:29 | 2026-09-06 00:58:32 |
| SONDE2-11 | 67 | 2026-09-06 00:03:24 | 2026-09-06 00:59:15 |
| OK1SLM-15 | 64 | 2026-09-05 23:53:22 | 2026-09-06 01:00:38 |
| EDDB2-12 | 63 | 2026-09-06 00:04:11 | 2026-09-06 01:00:04 |
| ANDY1245 | 62 | 2026-09-05 23:26:45 | 2026-09-06 00:41:40 |
| S52SK | 58 | 2026-09-05 23:41:26 | 2026-09-06 00:59:37 |
| SP3BTT-10 | 40 | 2026-09-05 23:32:25 | 2026-09-06 00:53:25 |
| AA1-15 | 33 | 2026-09-06 00:43:27 | 2026-09-06 00:50:15 |
| HARRO8 | 30 | 2026-09-06 00:10:23 | 2026-09-06 00:52:28 |
| DB0ND-19 | 25 | 2026-09-06 00:05:36 | 2026-09-06 00:52:14 |
| DL6DJ-15 | 25 | 2026-09-06 00:26:10 | 2026-09-06 00:45:51 |
| DB0UT-7 | 21 | 2026-09-06 00:06:23 | 2026-09-06 00:52:39 |
| OM5KV | 15 | 2026-09-06 00:50:13 | 2026-09-06 00:51:43 |
| DC4HF-4 | 12 | 2026-09-06 00:33:29 | 2026-09-06 00:44:54 |
| OE5WHR-10 | 10 | 2026-09-05 23:41:17 | 2026-09-06 00:57:44 |
| DF3TZ-5 | 10 | 2026-09-06 00:08:40 | 2026-09-06 00:30:55 |
| OE8JPQ-2 | 4 | 2026-09-06 00:28:58 | 2026-09-06 00:30:23 |
| DL2RXE-15 | 3 | 2026-09-05 23:51:24 | 2026-09-05 23:56:35 |
| Receiver | Date | Latitude | Longitude | Direction | Speed | Altitude | Climb | Temperature | Humidity | Pressure | Voltage | Killtimer | Uptime | BKT | XDATA |
|---|---|---|---|---|---|---|---|---|---|---|---|---|---|---|---|
| OE3JTB-15 | 2026-09-06 01:10:33 | 49.27273 | 16.07869 | 142° | 51km/h | 1033m | -13.3m/s | 11.1°C | 66.3% | 0hPa | 2.6V | 00:00:00 | 00:00:00 | 00:00:00 | |
| OE3MUC-15 | 2026-09-06 01:10:16 | 49.27442 | 16.07659 | 138° | 51km/h | 1268m | -13.8m/s | 9.1°C | 71.4% | 0hPa | 2.6V | 00:00:00 | 00:00:00 | 00:00:00 | |
| OE3MUC-15 | 2026-09-06 01:10:12 | 49.27482 | 16.07604 | 138° | 53km/h | 1325m | -14.3m/s | 8.7°C | 71.6% | 0hPa | 2.6V | 08:07:00 | 00:00:00 | 00:00:00 | |
| OE3MUC-15 | 2026-09-06 01:10:08 | 49.27520 | 16.07548 | 135° | 53km/h | 1380m | -13.7m/s | 8.2°C | 71.5% | 0hPa | 2.6V | 00:00:00 | 00:00:00 | 00:00:00 | |
| OE3MUC-15 | 2026-09-06 01:10:04 | 49.27559 | 16.07489 | 136° | 53km/h | 1436m | -14.8m/s | 7.7°C | 71.8% | 0hPa | 2.6V | 00:00:00 | 00:00:00 | 00:00:00 | |
| OE3JTB-15 | 2026-09-06 01:10:03 | 49.27569 | 16.07475 | 135° | 53km/h | 1450m | -14.2m/s | 7.6°C | 71.9% | 0hPa | 2.6V | 00:00:00 | 02:23:59 | 00:00:00 | |
| OE3MUC-15 | 2026-09-06 01:10:00 | 49.27597 | 16.07430 | 136° | 53km/h | 1492m | -14.1m/s | 7.2°C | 72.6% | 0hPa | 2.6V | 00:00:00 | 00:00:00 | 00:00:00 | |
| OE3MUC-15 | 2026-09-06 01:09:56 | 49.27637 | 16.07373 | 138° | 55km/h | 1547m | -14.5m/s | 6.8°C | 73.9% | 0hPa | 2.6V | 00:00:00 | 00:00:00 | 00:00:00 | |
| OE3JTB-15 | 2026-09-06 01:09:54 | 49.27657 | 16.07345 | 140° | 57km/h | 1576m | -14.4m/s | 6.6°C | 77.0% | 0hPa | 2.6V | 08:07:00 | 00:00:00 | 00:00:00 | |
| OE3MUC-15 | 2026-09-06 01:09:52 | 49.27678 | 16.07316 | 135° | 53km/h | 1604m | -14.9m/s | 6.3°C | 79.9% | 0hPa | 2.5V | 00:00:00 | 00:00:00 | 00:00:00 | |
| OE3JTB-15 | 2026-09-06 01:09:51 | 49.27688 | 16.07301 | 135° | 53km/h | 1619m | -13.6m/s | 6.2°C | 80.6% | 0hPa | 2.5V | 00:00:00 | 00:00:00 | 00:00:00 | |
| OE3MUC-15 | 2026-09-06 01:09:48 | 49.27716 | 16.07257 | 136° | 53km/h | 1662m | -14.3m/s | 5.9°C | 80.6% | 0hPa | 2.5V | 00:00:00 | 00:00:00 | 00:00:00 | |
| OE3JTB-15 | 2026-09-06 01:09:47 | 49.27725 | 16.07242 | 134° | 53km/h | 1676m | -14.2m/s | 5.8°C | 81.3% | 0hPa | 2.5V | 00:00:00 | 00:00:00 | 00:00:00 | |
| OE3JTB-15 | 2026-09-06 01:09:45 | 49.27744 | 16.07213 | 135° | 53km/h | 1703m | -14.2m/s | 5.5°C | 82.4% | 0hPa | 2.5V | 00:00:00 | 00:00:00 | 00:00:00 | |
| OE3MUC-15 | 2026-09-06 01:09:44 | 49.27753 | 16.07198 | 134° | 53km/h | 1716m | -14.0m/s | 5.4°C | 82.7% | 0hPa | 2.5V | 00:00:00 | 00:00:00 | 00:00:00 | |
| OE3JTB-15 | 2026-09-06 01:09:43 | 49.27762 | 16.07183 | 135° | 53km/h | 1730m | -14.5m/s | 5.3°C | 82.7% | 0hPa | 2.5V | 00:00:00 | 02:23:39 | 00:00:00 | |
| OE3JTB-15 | 2026-09-06 01:09:41 | 49.27781 | 16.07153 | 132° | 55km/h | 1758m | -13.3m/s | 5.1°C | 81.5% | 0hPa | 2.5V | 00:00:00 | 00:00:00 | 00:00:00 | |
| OE3JTB-15 | 2026-09-06 01:09:39 | 49.27799 | 16.07122 | 132° | 55km/h | 1784m | -13.8m/s | 4.9°C | 82.2% | 0hPa | 2.6V | 00:00:00 | 00:00:00 | 00:00:00 | |
| OE3JTB-15 | 2026-09-06 01:09:37 | 49.27818 | 16.07090 | 130° | 55km/h | 1811m | -13.9m/s | 4.7°C | 81.7% | 0hPa | 2.6V | 00:00:00 | 02:23:33 | 00:00:00 | |
| OE3JTB-15 | 2026-09-06 01:09:35 | 49.27836 | 16.07057 | 131° | 57km/h | 1838m | -13.7m/s | 4.5°C | 80.2% | 0hPa | 2.6V | 08:07:00 | 00:00:00 | 00:00:00 | |
| OE3JTB-15 | 2026-09-06 01:09:33 | 49.27855 | 16.07025 | 130° | 55km/h | 1866m | -14.3m/s | 4.5°C | 75.3% | 0hPa | 2.6V | 00:00:00 | 00:00:00 | 00:00:00 | |
| OE3JTB-15 | 2026-09-06 01:09:32 | 49.27873 | 16.06991 | 129° | 57km/h | 1893m | -13.9m/s | 4.3°C | 74.8% | 0hPa | 2.6V | 00:00:00 | 02:23:27 | 00:00:00 | |
| OE3JTB-15 | 2026-09-06 01:09:30 | 49.27891 | 16.06956 | 127° | 57km/h | 1920m | -14.1m/s | 4.2°C | 74.4% | 0hPa | 2.6V | 00:00:00 | 00:00:00 | 00:00:00 | |
| PETON7-10 | 2026-09-06 01:09:30 | 49.27891 | 16.06956 | 127° | 58km/h | 1920m | -14.1m/s | 4.2°C | 74.4% | 0hPa | 2.6V | 08:07:00 | 00:00:00 | 00:00:00 | |
| OE3JTB-15 | 2026-09-06 01:09:28 | 49.27908 | 16.06922 | 128° | 57km/h | 1948m | -14.7m/s | 4.1°C | 73.3% | 0hPa | 2.5V | 00:00:00 | 00:00:00 | 00:00:00 | |
| OE3JTB-15 | 2026-09-06 01:09:25 | 49.27925 | 16.06887 | 127° | 58km/h | 1977m | -14.3m/s | 3.8°C | 73.4% | 0hPa | 2.5V | 00:00:00 | 02:23:21 | 00:00:00 | |
| OE3MUC-15 | 2026-09-06 01:09:20 | 49.27970 | 16.06797 | 126° | 58km/h | 2047m | -14.3m/s | 3.3°C | 72.3% | 0hPa | 2.5V | 00:00:00 | 00:00:00 | 00:00:00 | |
| OE3MUC-15 | 2026-09-06 01:09:16 | 49.28005 | 16.06723 | 123° | 60km/h | 2104m | -15.2m/s | 2.9°C | 72.1% | 0hPa | 2.5V | 00:00:00 | 00:00:00 | 00:00:00 | |
| OE3MUC-15 | 2026-09-06 01:09:12 | 49.28038 | 16.06645 | 125° | 58km/h | 2163m | -15.0m/s | 2.4°C | 76.3% | 0hPa | 2.5V | 00:00:00 | 00:00:00 | 00:00:00 | |
| PETON7-10 | 2026-09-06 01:09:09 | 49.28063 | 16.06586 | 120° | 62km/h | 2207m | -15.1m/s | 2.1°C | 78.1% | 0hPa | 2.6V | 00:00:00 | 02:23:05 | 00:00:00 | |
| OE3MUC-15 | 2026-09-06 01:09:08 | 49.28071 | 16.06566 | 119° | 60km/h | 2222m | -14.8m/s | 2.0°C | 80.4% | 0hPa | 2.6V | 00:00:00 | 00:00:00 | 00:00:00 | |
| OE3JTB-15 | 2026-09-06 01:09:07 | 49.28078 | 16.06546 | 119° | 64km/h | 2236m | -14.9m/s | 1.8°C | 81.2% | 0hPa | 2.6V | 00:00:00 | 00:00:00 | 00:00:00 | |
| OE3MUC-15 | 2026-09-06 01:09:04 | 49.28101 | 16.06484 | 118° | 62km/h | 2280m | -14.7m/s | 1.4°C | 84.5% | 0hPa | 2.6V | 00:00:00 | 00:00:00 | 00:00:00 | |
| OE3MUC-15 | 2026-09-06 01:09:00 | 49.28131 | 16.06399 | 117° | 66km/h | 2337m | -14.5m/s | 1.0°C | 87.6% | 0hPa | 2.6V | 08:08:00 | 00:00:00 | 00:00:00 | |
| PETON7-10 | 2026-09-06 01:08:59 | 49.28138 | 16.06376 | 117° | 68km/h | 2352m | -14.2m/s | 0.9°C | 88.5% | 0hPa | 2.6V | 00:00:00 | 00:00:00 | 00:00:00 | |
| OE3JTB-15 | 2026-09-06 01:08:58 | 49.28145 | 16.06353 | 116° | 69km/h | 2366m | -14.5m/s | 0.8°C | 89.3% | 0hPa | 2.6V | 00:00:00 | 02:22:54 | 00:00:00 | |
| OE3MUC-15 | 2026-09-06 01:08:56 | 49.28160 | 16.06306 | 115° | 68km/h | 2394m | -14.4m/s | 0.9°C | 85.1% | 0hPa | 2.6V | 00:00:00 | 00:00:00 | 00:00:00 | |
| OE3MUC-15 | 2026-09-06 01:08:52 | 49.28188 | 16.06210 | 114° | 73km/h | 2451m | -14.0m/s | 0.7°C | 81.0% | 0hPa | 2.6V | 00:00:00 | 00:00:00 | 00:00:00 | |
| PETON7-10 | 2026-09-06 01:08:49 | 49.28209 | 16.06133 | 110° | 82km/h | 2493m | -14.6m/s | 0.6°C | 73.9% | 0hPa | 2.6V | 00:00:00 | 00:00:00 | 00:00:00 | |
| OE3MUC-15 | 2026-09-06 01:08:48 | 49.28215 | 16.06106 | 111° | 77km/h | 2508m | -14.5m/s | 0.6°C | 71.0% | 0hPa | 2.6V | 00:00:00 | 00:00:00 | 00:00:00 | |
| OE3MUC-15 | 2026-09-06 01:08:44 | 49.28243 | 16.05996 | 112° | 82km/h | 2564m | -14.3m/s | 0.5°C | 63.7% | 0hPa | 2.6V | 00:00:00 | 00:00:00 | 00:00:00 | |
| OE3MUC-15 | 2026-09-06 01:08:40 | 49.28275 | 16.05877 | 113° | 89km/h | 2619m | -14.2m/s | 0.5°C | 55.6% | 0hPa | 2.6V | 00:00:00 | 00:00:00 | 00:00:00 | |
| OE3JTB-15 | 2026-09-06 01:08:37 | 49.28301 | 16.05782 | 115° | 86km/h | 2661m | -15.2m/s | 1.2°C | 41.4% | 0hPa | 2.6V | 00:00:00 | 00:00:00 | 00:00:00 | |
| OE3MUC-15 | 2026-09-06 01:08:36 | 49.28310 | 16.05750 | 115° | 89km/h | 2675m | -15.1m/s | 1.4°C | 34.9% | 0hPa | 2.6V | 00:00:00 | 00:00:00 | 00:00:00 | |
| PETON7-10 | 2026-09-06 01:08:35 | 49.28320 | 16.05719 | 114° | 86km/h | 2690m | -15.1m/s | 1.5°C | 34.9% | 0hPa | 2.5V | 00:00:00 | 02:22:31 | 00:00:00 | |
| OE3MUC-15 | 2026-09-06 01:08:32 | 49.28347 | 16.05625 | 113° | 86km/h | 2734m | -15.3m/s | 1.8°C | 25.9% | 0hPa | 2.5V | 00:00:00 | 00:00:00 | 00:00:00 | |
| OE3MUC-15 | 2026-09-06 01:08:28 | 49.28381 | 16.05501 | 113° | 88km/h | 2794m | -15.2m/s | 1.8°C | 22.9% | 0hPa | 2.5V | 00:00:00 | 00:00:00 | 00:00:00 | |
| OE3MUC-15 | 2026-09-06 01:08:24 | 49.28415 | 16.05377 | 114° | 84km/h | 2853m | -15.3m/s | 1.4°C | 22.5% | 0hPa | 2.5V | 08:09:00 | 00:00:00 | 00:00:00 | |
| PETON7-10 | 2026-09-06 01:08:20 | 49.28448 | 16.05259 | 112° | 82km/h | 2913m | -15.3m/s | 0.9°C | 22.3% | 0hPa | 2.6V | 00:00:00 | 00:00:00 | 00:00:00 | |
| OE3JTB-15 | 2026-09-06 01:08:18 | 49.28464 | 16.05200 | 113° | 82km/h | 2943m | -14.1m/s | 0.7°C | 22.9% | 0hPa | 2.5V | 00:00:00 | 02:22:14 | 00:00:00 | |
| OE3MUC-15 | 2026-09-06 01:08:16 | 49.28479 | 16.05140 | 112° | 84km/h | 2971m | -14.1m/s | 0.4°C | 24.4% | 0hPa | 2.5V | 00:00:00 | 00:00:00 | 00:00:00 | |
| OE3MUC-15 | 2026-09-06 01:08:08 | 49.28539 | 16.04903 | 112° | 82km/h | 3085m | -14.6m/s | -0.2°C | 29.5% | 0hPa | 2.5V | 00:00:00 | 00:00:00 | 00:00:00 | |
| OK1ALN | 2026-09-06 01:08:06 | 49.28546 | 16.04873 | 113° | 82km/h | 3100m | -15.0m/s | -0.3°C | 29.4% | 0hPa | 2.5V | 00:00:00 | 00:00:00 | 00:00:00 | |
| PETON7-10 | 2026-09-06 01:08:05 | 49.28563 | 16.04815 | 115° | 84km/h | 3128m | -14.7m/s | -0.3°C | 26.8% | 0hPa | 2.5V | 00:00:00 | 00:00:00 | 00:00:00 | |
| OE3MUC-15 | 2026-09-06 01:08:04 | 49.28571 | 16.04786 | 115° | 82km/h | 3143m | -15.9m/s | -0.4°C | 26.8% | 0hPa | 2.5V | 00:00:00 | 00:00:00 | 00:00:00 | |
| OE3MUC-15 | 2026-09-06 01:08:00 | 49.28606 | 16.04669 | 117° | 82km/h | 3202m | -15.5m/s | -0.9°C | 25.2% | 0hPa | 2.5V | 00:00:00 | 00:00:00 | 00:00:00 | |
| OE3JTB-15 | 2026-09-06 01:07:59 | 49.28615 | 16.04640 | 117° | 84km/h | 3217m | -15.4m/s | -0.9°C | 24.3% | 0hPa | 2.5V | 00:00:00 | 00:00:00 | 00:00:00 | |
| OE3MUC-15 | 2026-09-06 01:07:56 | 49.28642 | 16.04553 | 115° | 84km/h | 3261m | -14.6m/s | -1.2°C | 23.8% | 0hPa | 2.5V | 00:00:00 | 00:00:00 | 00:00:00 | |
| OE3MUC-15 | 2026-09-06 01:07:52 | 49.28679 | 16.04436 | 117° | 82km/h | 3318m | -14.9m/s | -1.5°C | 22.7% | 0hPa | 2.5V | 00:00:00 | 00:00:00 | 00:00:00 | |
| PETON7-10 | 2026-09-06 01:07:50 | 49.28697 | 16.04379 | 117° | 84km/h | 3347m | -14.8m/s | -1.9°C | 28.5% | 0hPa | 2.5V | 00:00:00 | 02:21:46 | 00:00:00 | |
| OE3MUC-15 | 2026-09-06 01:07:48 | 49.28716 | 16.04322 | 119° | 82km/h | 3376m | -14.4m/s | -2.1°C | 31.5% | 0hPa | 2.5V | 08:09:00 | 00:00:00 | 00:00:00 | |
| OE3MUC-15 | 2026-09-06 01:07:44 | 49.28755 | 16.04210 | 119° | 84km/h | 3434m | -15.0m/s | -2.7°C | 33.4% | 0hPa | 2.5V | 00:00:00 | 00:00:00 | 00:00:00 | |
| OE3JTB-15 | 2026-09-06 01:07:40 | 49.28793 | 16.04094 | 118° | 93km/h | 3492m | -15.4m/s | -3.2°C | 33.1% | 0hPa | 2.5V | 00:00:00 | 00:00:00 | 00:00:00 | |
| PETON7-10 | 2026-09-06 01:07:35 | 49.28843 | 16.03945 | 118° | 95km/h | 3566m | -14.8m/s | -3.1°C | 26.5% | 0hPa | 2.5V | 08:09:00 | 00:00:00 | 00:00:00 | |
| OK1ALN | 2026-09-06 01:07:34 | 49.28844 | 16.03945 | 119° | 88km/h | 3566m | -14.9m/s | -3.1°C | 26.2% | 0hPa | 2.5V | 08:10:00 | 00:00:00 | 00:00:00 | |
| PETON7-10 | 2026-09-06 01:07:20 | 49.29000 | 16.03454 | 115° | 95km/h | 3785m | -15.0m/s | -1.7°C | 2.3% | 0hPa | 2.5V | 00:00:00 | 00:00:00 | 00:00:00 | |
| OE3MUC-15 | 2026-09-06 01:07:16 | 49.29041 | 16.03321 | 115° | 93km/h | 3844m | -14.9m/s | -1.9°C | 3.0% | 0hPa | 2.5V | 00:00:00 | 00:00:00 | 00:00:00 | |
| OE3MUC-15 | 2026-09-06 01:07:12 | 49.29082 | 16.03192 | 118° | 97km/h | 3902m | -15.0m/s | -2.2°C | 3.0% | 0hPa | 2.5V | 08:10:00 | 00:00:00 | 00:00:00 | |
| OE3JTB-15 | 2026-09-06 01:07:11 | 49.29093 | 16.03160 | 119° | 104km/h | 3917m | -15.0m/s | -2.3°C | 3.0% | 0hPa | 2.5V | 00:00:00 | 02:21:07 | 00:00:00 | |
| OE3MUC-15 | 2026-09-06 01:07:08 | 49.29127 | 16.03060 | 118° | 100km/h | 3960m | -15.1m/s | -2.2°C | 2.3% | 0hPa | 2.5V | 00:00:00 | 00:00:00 | 00:00:00 | |
| PETON7-10 | 2026-09-06 01:07:05 | 49.29166 | 16.02960 | 122° | 104km/h | 4003m | -15.4m/s | -2.1°C | 2.0% | 0hPa | 2.5V | 00:00:00 | 02:21:01 | 00:00:00 | |
| OE3MUC-15 | 2026-09-06 01:07:04 | 49.29179 | 16.02927 | 121° | 104km/h | 4018m | -14.8m/s | -2.1°C | 2.1% | 0hPa | 2.5V | 00:00:00 | 00:00:00 | 00:00:00 | |
| OE3MUC-15 | 2026-09-06 01:07:00 | 49.29234 | 16.02790 | 121° | 102km/h | 4076m | -16.0m/s | -2.4°C | 7.2% | 0hPa | 2.5V | 00:00:00 | 00:00:00 | 00:00:00 | |
| OE3MUC-15 | 2026-09-06 01:06:56 | 49.29289 | 16.02654 | 122° | 104km/h | 4135m | -15.3m/s | -2.6°C | 5.9% | 0hPa | 2.5V | 00:00:00 | 00:00:00 | 00:00:00 | |
| OE3MUC-15 | 2026-09-06 01:06:52 | 49.29347 | 16.02517 | 123° | 108km/h | 4194m | -14.8m/s | -2.9°C | 5.3% | 0hPa | 2.5V | 00:00:00 | 00:00:00 | 00:00:00 | |
| PETON7-10 | 2026-09-06 01:06:50 | 49.29376 | 16.02446 | 121° | 110km/h | 4223m | -15.1m/s | -3.0°C | 5.1% | 0hPa | 2.5V | 00:00:00 | 00:00:00 | 00:00:00 | |
| OE3MUC-15 | 2026-09-06 01:06:48 | 49.29404 | 16.02373 | 121° | 108km/h | 4251m | -15.8m/s | -3.1°C | 4.9% | 0hPa | 2.5V | 00:00:00 | 00:00:00 | 00:00:00 | |
| OE3MUC-15 | 2026-09-06 01:06:44 | 49.29460 | 16.02231 | 121° | 111km/h | 4313m | -14.6m/s | -3.2°C | 2.4% | 0hPa | 2.5V | 00:00:00 | 00:00:00 | 00:00:00 | |
| OE3MUC-15 | 2026-09-06 01:06:40 | 49.29518 | 16.02082 | 120° | 115km/h | 4371m | -15.0m/s | -3.5°C | 3.4% | 0hPa | 2.5V | 00:00:00 | 00:00:00 | 00:00:00 | |
| OE3MUC-15 | 2026-09-06 01:06:36 | 49.29575 | 16.01928 | 121° | 111km/h | 4431m | -15.7m/s | -3.8°C | 4.8% | 0hPa | 2.5V | 08:10:00 | 00:00:00 | 00:00:00 | |
| PETON7-10 | 2026-09-06 01:06:35 | 49.29590 | 16.01890 | 122° | 111km/h | 4446m | -15.6m/s | -3.9°C | 4.8% | 0hPa | 2.5V | 00:00:00 | 00:00:00 | 00:00:00 | |
| OE3MUC-15 | 2026-09-06 01:06:32 | 49.29635 | 16.01778 | 121° | 113km/h | 4490m | -15.2m/s | -4.1°C | 4.5% | 0hPa | 2.5V | 00:00:00 | 02:20:28 | 00:00:00 | |
| OE3MUC-15 | 2026-09-06 01:06:28 | 49.29694 | 16.01625 | 121° | 110km/h | 4550m | -15.3m/s | -4.4°C | 4.1% | 0hPa | 2.5V | 00:00:00 | 00:00:00 | 00:00:00 | |
| OE3MUC-15 | 2026-09-06 01:06:24 | 49.29752 | 16.01479 | 123° | 110km/h | 4610m | -15.9m/s | -4.7°C | 3.7% | 0hPa | 2.5V | 00:00:00 | 00:00:00 | 00:00:00 | |
| OK1ALN | 2026-09-06 01:06:23 | 49.29751 | 16.01480 | 123° | 110km/h | 4610m | -16.0m/s | -4.8°C | 3.6% | 0hPa | 2.4V | 00:00:00 | 00:00:00 | 00:00:00 | |
| PETON7-10 | 2026-09-06 01:06:20 | 49.29810 | 16.01336 | 122° | 110km/h | 4671m | -15.0m/s | -5.0°C | 3.2% | 0hPa | 2.4V | 00:00:00 | 02:20:16 | 00:00:00 | |
| OE5MMP-10 | 2026-09-06 01:06:18 | 49.29839 | 16.01262 | 121° | 110km/h | 4700m | -15.1m/s | -5.1°C | 2.8% | 0hPa | 2.4V | 00:00:00 | 02:20:14 | 00:00:00 | |
| OE3MUC-15 | 2026-09-06 01:06:16 | 49.29868 | 16.01188 | 121° | 106km/h | 4729m | -15.5m/s | -5.2°C | 2.6% | 0hPa | 2.4V | 00:00:00 | 00:00:00 | 00:00:00 | |
| OE3MUC-15 | 2026-09-06 01:06:12 | 49.29925 | 16.01048 | 123° | 110km/h | 4789m | -15.4m/s | -5.5°C | 2.6% | 0hPa | 2.4V | 00:00:00 | 00:00:00 | 00:00:00 | |
| OE3JTB-15 | 2026-09-06 01:06:11 | 49.29940 | 16.01012 | 122° | 108km/h | 4804m | -15.7m/s | -5.6°C | 2.6% | 0hPa | 2.5V | 00:00:00 | 00:00:00 | 00:00:00 | |
| OE3MUC-15 | 2026-09-06 01:06:08 | 49.29984 | 16.00903 | 121° | 108km/h | 4849m | -16.1m/s | -5.7°C | 2.5% | 0hPa | 2.5V | 00:00:00 | 00:00:00 | 00:00:00 | |
| PETON7-10 | 2026-09-06 01:06:05 | 49.30027 | 16.00795 | 121° | 110km/h | 4894m | -15.7m/s | -5.9°C | 2.4% | 0hPa | 2.5V | 00:00:00 | 00:00:00 | 00:00:00 | |
| OE3MUC-15 | 2026-09-06 01:06:04 | 49.30040 | 16.00758 | 121° | 108km/h | 4908m | -15.7m/s | -5.9°C | 2.3% | 0hPa | 2.5V | 00:00:00 | 00:00:00 | 00:00:00 | |
| OK1ALN | 2026-09-06 01:06:02 | 49.30055 | 16.00721 | 121° | 111km/h | 4923m | -15.6m/s | -6.0°C | 2.1% | 0hPa | 2.5V | 08:11:00 | 00:00:00 | 00:00:00 | |
| OE3MUC-15 | 2026-09-06 01:06:00 | 49.30096 | 16.00613 | 123° | 108km/h | 4968m | -15.4m/s | -6.2°C | 2.1% | 0hPa | 2.5V | 08:11:00 | 00:00:00 | 00:00:00 | |
| OE3MUC-15 | 2026-09-06 01:05:56 | 49.30152 | 16.00468 | 121° | 108km/h | 5029m | -15.9m/s | -6.5°C | 2.2% | 0hPa | 2.5V | 00:00:00 | 00:00:00 | 00:00:00 | |
| OE5MMP-10 | 2026-09-06 01:05:54 | 49.30180 | 16.00397 | 121° | 108km/h | 5058m | -14.9m/s | -6.7°C | 2.2% | 0hPa | 2.5V | 00:00:00 | 02:19:50 | 00:00:00 | |
| OE3MUC-15 | 2026-09-06 01:05:52 | 49.30208 | 16.00324 | 120° | 110km/h | 5087m | -16.1m/s | -6.9°C | 2.3% | 0hPa | 2.5V | 00:00:00 | 00:00:00 | 00:00:00 | |
| PETON7-10 | 2026-09-06 01:05:50 | 49.30236 | 16.00249 | 121° | 111km/h | 5117m | -15.7m/s | -7.1°C | 2.5% | 0hPa | 2.5V | 00:00:00 | 00:00:00 | 00:00:00 | |
| OE3MUC-15 | 2026-09-06 01:05:48 | 49.30265 | 16.00177 | 122° | 110km/h | 5147m | -16.3m/s | -7.2°C | 2.6% | 0hPa | 2.5V | 00:00:00 | 00:00:00 | 00:00:00 | |
| OE3MUC-15 | 2026-09-06 01:05:44 | 49.30325 | 16.00032 | 122° | 111km/h | 5207m | -16.4m/s | -7.4°C | 3.8% | 0hPa | 2.4V | 00:00:00 | 00:00:00 | 00:00:00 | |
| OE3JTB-15 | 2026-09-06 01:05:42 | 49.30355 | 15.99959 | 123° | 115km/h | 5237m | -16.1m/s | -7.5°C | 5.9% | 0hPa | 2.4V | 00:00:00 | 02:19:38 | 00:00:00 | |
| OK1ALN | 2026-09-06 01:05:41 | 49.30355 | 15.99959 | 124° | 113km/h | 5237m | -16.2m/s | -7.6°C | 5.7% | 0hPa | 2.4V | 08:11:00 | 00:00:00 | 00:00:00 | |
| PG1ADW-2 | 2026-09-06 01:05:40 | 49.30385 | 15.99884 | 121° | 115km/h | 5267m | -16.2m/s | -7.6°C | 6.4% | 0hPa | 2.4V | 00:00:00 | 00:00:00 | 00:00:00 | |
| PETON7-10 | 2026-09-06 01:05:35 | 49.30460 | 15.99698 | 121° | 115km/h | 5341m | -14.7m/s | -8.0°C | 6.2% | 0hPa | 2.4V | 00:00:00 | 02:19:31 | 00:00:00 | |
| OE5MMP-10 | 2026-09-06 01:05:21 | 49.30673 | 15.99162 | 121° | 117km/h | 5549m | -17.1m/s | -9.6°C | 7.9% | 0hPa | 2.4V | 00:00:00 | 02:19:17 | 00:00:00 | |
| OE3MUC-15 | 2026-09-06 01:05:20 | 49.30689 | 15.99124 | 123° | 115km/h | 5565m | -16.0m/s | -9.7°C | 7.9% | 0hPa | 2.4V | 00:00:00 | 00:00:00 | 00:00:00 | |
| OE5DXL-15 | 2026-09-06 01:05:16 | 49.30751 | 15.98969 | 122° | 115km/h | 5626m | -16.2m/s | -10.1°C | 8.0% | 0hPa | 2.4V | 00:00:00 | 00:00:00 | 00:00:00 | |
| OE3MUC-15 | 2026-09-06 01:05:15 | 49.30766 | 15.98931 | 121° | 115km/h | 5642m | -16.3m/s | -10.3°C | 8.1% | 0hPa | 2.4V | 00:00:00 | 00:00:00 | 00:00:00 | |
| OE5DRO-10 | 2026-09-06 01:05:14 | 49.30781 | 15.98892 | 120° | 115km/h | 5657m | -16.5m/s | -10.4°C | 8.1% | 0hPa | 2.4V | 08:12:00 | 00:00:00 | 00:00:00 | |
| OE3JTB-15 | 2026-09-06 01:05:13 | 49.30796 | 15.98853 | 121° | 115km/h | 5673m | -16.1m/s | -10.6°C | 8.2% | 0hPa | 2.4V | 08:12:00 | 00:00:00 | 00:00:00 | |
| OE3MUC-15 | 2026-09-06 01:05:11 | 49.30826 | 15.98777 | 122° | 115km/h | 5704m | -15.5m/s | -10.8°C | 8.3% | 0hPa | 2.5V | 00:00:00 | 00:00:00 | 00:00:00 | |
| OE5MMP-10 | 2026-09-06 01:05:09 | 49.30855 | 15.98699 | 119° | 117km/h | 5734m | -15.4m/s | -11.0°C | 8.8% | 0hPa | 2.5V | 00:00:00 | 02:19:05 | 00:00:00 | |
| OE3MUC-15 | 2026-09-06 01:05:06 | 49.30897 | 15.98582 | 119° | 117km/h | 5779m | -15.9m/s | -11.4°C | 9.0% | 0hPa | 2.5V | 00:00:00 | 00:00:00 | 00:00:00 | |
| PETON7-10 | 2026-09-06 01:05:05 | 49.30912 | 15.98542 | 119° | 115km/h | 5794m | -15.3m/s | -11.5°C | 9.1% | 0hPa | 2.5V | 00:00:00 | 00:00:00 | 00:00:00 | |
| PG1ADW-2 | 2026-09-06 01:05:00 | 49.30979 | 15.98341 | 118° | 113km/h | 5870m | -16.7m/s | -12.0°C | 8.6% | 0hPa | 2.5V | 00:00:00 | 02:18:56 | 00:00:00 | |
| OE5MMP-10 | 2026-09-06 01:04:59 | 49.30992 | 15.98301 | 116° | 115km/h | 5885m | -16.0m/s | -12.1°C | 8.4% | 0hPa | 2.5V | 08:12:00 | 02:18:55 | 00:00:00 | |
| OE3MUC-15 | 2026-09-06 01:04:58 | 49.31005 | 15.98259 | 116° | 115km/h | 5900m | -16.3m/s | -12.2°C | 8.5% | 0hPa | 2.5V | 00:00:00 | 00:00:00 | 00:00:00 | |
| OE5DRO-10 | 2026-09-06 01:04:55 | 49.31045 | 15.98141 | 120° | 113km/h | 5947m | -17.4m/s | -12.6°C | 8.6% | 0hPa | 2.5V | 00:00:00 | 00:00:00 | 00:00:00 | |
| OE3MUC-15 | 2026-09-06 01:04:54 | 49.31059 | 15.98102 | 119° | 113km/h | 5962m | -16.6m/s | -12.7°C | 8.4% | 0hPa | 2.5V | 00:00:00 | 00:00:00 | 00:00:00 | |
| PETON7-10 | 2026-09-06 01:04:50 | 49.31117 | 15.97967 | 121° | 113km/h | 6025m | -16.8m/s | -13.2°C | 7.6% | 0hPa | 2.5V | 00:00:00 | 02:18:46 | 00:00:00 | |
| OE5MMP-10 | 2026-09-06 01:04:49 | 49.31132 | 15.97912 | 122° | 113km/h | 6041m | -16.3m/s | -13.3°C | 7.5% | 0hPa | 2.5V | 00:00:00 | 02:18:45 | 00:00:00 | |
| OE3MUC-15 | 2026-09-06 01:04:46 | 49.31180 | 15.97803 | 124° | 113km/h | 6088m | -16.0m/s | -13.6°C | 8.2% | 0hPa | 2.5V | 08:12:00 | 00:00:00 | 00:00:00 | |
| OE3JTB-15 | 2026-09-06 01:04:44 | 49.31212 | 15.97731 | 126° | 117km/h | 6119m | -15.9m/s | -13.9°C | 9.6% | 0hPa | 2.4V | 00:00:00 | 00:00:00 | 00:00:00 | |
| OE3MUC-15 | 2026-09-06 01:04:42 | 49.31245 | 15.97659 | 125° | 115km/h | 6150m | -15.7m/s | -14.1°C | 12.8% | 0hPa | 2.4V | 00:00:00 | 00:00:00 | 00:00:00 | |
| PG1ADW-2 | 2026-09-06 01:04:40 | 49.31279 | 15.97587 | 127° | 117km/h | 6179m | -15.8m/s | -14.3°C | 18.4% | 0hPa | 2.4V | 00:00:00 | 00:00:00 | 00:00:00 | |
| OE5MMP-10 | 2026-09-06 01:04:39 | 49.31296 | 15.97550 | 124° | 117km/h | 6194m | -16.5m/s | -14.4°C | 20.6% | 0hPa | 2.4V | 00:00:00 | 02:18:35 | 00:00:00 | |
| OE3MUC-15 | 2026-09-06 01:04:38 | 49.31312 | 15.97512 | 124° | 117km/h | 6210m | -17.0m/s | -14.6°C | 21.2% | 0hPa | 2.4V | 00:00:00 | 00:00:00 | 00:00:00 | |
| PETON7-10 | 2026-09-06 01:04:35 | 49.31362 | 15.97400 | 124° | 119km/h | 6257m | -15.7m/s | -15.0°C | 22.6% | 0hPa | 2.4V | 00:00:00 | 00:00:00 | 00:00:00 | |
| OE3MUC-15 | 2026-09-06 01:04:34 | 49.31379 | 15.97362 | 123° | 117km/h | 6271m | -15.6m/s | -15.1°C | 23.0% | 0hPa | 2.5V | 00:00:00 | 00:00:00 | 00:00:00 | |
| OE3MUC-15 | 2026-09-06 01:04:30 | 49.31443 | 15.97209 | 122° | 117km/h | 6333m | -16.3m/s | -15.7°C | 25.2% | 0hPa | 2.4V | 00:00:00 | 00:00:00 | 00:00:00 | |
| OE5MMP-10 | 2026-09-06 01:04:29 | 49.31458 | 15.97171 | 123° | 119km/h | 6349m | -15.2m/s | -15.8°C | 25.9% | 0hPa | 2.4V | 00:00:00 | 02:18:25 | 00:00:00 | |
| OE3MUC-15 | 2026-09-06 01:04:26 | 49.31506 | 15.97053 | 122° | 119km/h | 6393m | -16.6m/s | -16.2°C | 26.8% | 0hPa | 2.5V | 00:00:00 | 00:00:00 | 00:00:00 | |
| OE3MUC-15 | 2026-09-06 01:04:22 | 49.31570 | 15.96896 | 123° | 120km/h | 6454m | -16.5m/s | -16.8°C | 26.2% | 0hPa | 2.5V | 00:00:00 | 00:00:00 | 00:00:00 | |
| PETON7-10 | 2026-09-06 01:04:20 | 49.31602 | 15.96817 | 122° | 119km/h | 6485m | -16.7m/s | -17.1°C | 26.9% | 0hPa | 2.5V | 00:00:00 | 00:00:00 | 00:00:00 | |
| OE5MMP-10 | 2026-09-06 01:04:19 | 49.31618 | 15.96777 | 123° | 119km/h | 6500m | -15.6m/s | -17.2°C | 27.3% | 0hPa | 2.5V | 00:00:00 | 02:18:15 | 00:00:00 | |
| OK1ALN | 2026-09-06 01:04:18 | 49.31618 | 15.96777 | 124° | 119km/h | 6500m | -15.6m/s | -17.2°C | 26.3% | 0hPa | 2.5V | 08:13:00 | 00:00:00 | 00:00:00 | |
| OE5DRO-10 | 2026-09-06 01:04:17 | 49.31650 | 15.96698 | 121° | 120km/h | 6531m | -16.7m/s | -17.5°C | 28.7% | 0hPa | 2.5V | 00:00:00 | 00:00:00 | 00:00:00 | |
| OE5DXL-15 | 2026-09-06 01:04:16 | 49.31666 | 15.96658 | 122° | 122km/h | 6546m | -16.5m/s | -17.6°C | 29.1% | 0hPa | 2.5V | 00:00:00 | 00:00:00 | 00:00:00 | |
| OE3JTB-15 | 2026-09-06 01:04:15 | 49.31682 | 15.96619 | 121° | 122km/h | 6562m | -16.7m/s | -17.7°C | 29.2% | 0hPa | 2.5V | 00:00:00 | 02:18:11 | 00:00:00 | |
| OE3MUC-15 | 2026-09-06 01:04:14 | 49.31698 | 15.96579 | 121° | 119km/h | 6578m | -17.8m/s | -17.9°C | 28.7% | 0hPa | 2.5V | 00:00:00 | 00:00:00 | 00:00:00 | |
| OE3MUC-15 | 2026-09-06 01:04:10 | 49.31759 | 15.96419 | 121° | 120km/h | 6641m | -16.3m/s | -18.4°C | 26.5% | 0hPa | 2.5V | 08:13:00 | 00:00:00 | 00:00:00 | |
| OE5MMP-10 | 2026-09-06 01:04:09 | 49.31775 | 15.96380 | 122° | 120km/h | 6657m | -17.3m/s | -18.5°C | 28.1% | 0hPa | 2.5V | 00:00:00 | 02:18:05 | 00:00:00 | |
| OE3MUC-15 | 2026-09-06 01:04:06 | 49.31822 | 15.96259 | 122° | 120km/h | 6703m | -15.6m/s | -18.9°C | 31.4% | 0hPa | 2.5V | 00:00:00 | 00:00:00 | 00:00:00 | |
| PETON7-10 | 2026-09-06 01:04:05 | 49.31838 | 15.96219 | 123° | 122km/h | 6719m | -16.0m/s | -19.1°C | 27.9% | 0hPa | 2.5V | 00:00:00 | 02:18:01 | 00:00:00 | |
| OE3MUC-15 | 2026-09-06 01:04:02 | 49.31887 | 15.96099 | 123° | 120km/h | 6764m | -16.1m/s | -19.3°C | 16.8% | 0hPa | 2.5V | 00:00:00 | 00:00:00 | 00:00:00 | |
| PG1ADW-2 | 2026-09-06 01:04:00 | 49.31920 | 15.96019 | 123° | 124km/h | 6795m | -15.9m/s | -19.5°C | 19.5% | 0hPa | 2.5V | 00:00:00 | 00:00:00 | 00:00:00 | |
| OE3MUC-15 | 2026-09-06 01:03:59 | 49.31953 | 15.95940 | 122° | 122km/h | 6825m | -15.8m/s | -19.7°C | 24.1% | 0hPa | 2.4V | 00:00:00 | 00:00:00 | 00:00:00 | |
| OK1ALN | 2026-09-06 01:03:57 | 49.31953 | 15.95940 | 122° | 122km/h | 6825m | -15.9m/s | -19.7°C | 23.1% | 0hPa | 2.4V | 08:13:00 | 00:00:00 | 00:00:00 | |
| OE3MUC-15 | 2026-09-06 01:03:54 | 49.32020 | 15.95781 | 122° | 124km/h | 6886m | -16.2m/s | -20.2°C | 34.9% | 0hPa | 2.4V | 00:00:00 | 00:00:00 | 00:00:00 | |
| OE3MUC-15 | 2026-09-06 01:03:50 | 49.32090 | 15.95620 | 125° | 124km/h | 6946m | -15.3m/s | -20.7°C | 52.7% | 0hPa | 2.4V | 00:00:00 | 00:00:00 | 00:00:00 | |
| OE5MMP-10 | 2026-09-06 01:03:49 | 49.32108 | 15.95581 | 126° | 128km/h | 6961m | -16.4m/s | -20.7°C | 57.5% | 0hPa | 2.4V | 00:00:00 | 02:17:45 | 00:00:00 | |
| OE3MUC-15 | 2026-09-06 01:03:46 | 49.32164 | 15.95462 | 126° | 126km/h | 7007m | -16.4m/s | -20.8°C | 59.5% | 0hPa | 2.4V | 00:00:00 | 00:00:00 | 00:00:00 | |
| PG1ADW-2 | 2026-09-06 01:03:40 | 49.32283 | 15.95227 | 131° | 131km/h | 7096m | -16.0m/s | -21.1°C | 59.2% | 0hPa | 2.4V | 00:00:00 | 02:17:36 | 00:00:00 | |
| OE5DRO-10 | 2026-09-06 01:03:39 | 49.32305 | 15.95188 | 130° | 131km/h | 7111m | -16.3m/s | -21.2°C | 59.4% | 0hPa | 2.4V | 00:00:00 | 00:00:00 | 00:00:00 | |
| OK1ALN | 2026-09-06 01:03:36 | 49.32347 | 15.95112 | 133° | 126km/h | 7141m | -15.5m/s | -21.4°C | 57.1% | 0hPa | 2.4V | 08:14:00 | 00:00:00 | 00:00:00 | |
| PETON7-10 | 2026-09-06 01:03:35 | 49.32391 | 15.95037 | 133° | 133km/h | 7172m | -16.4m/s | -21.3°C | 56.6% | 0hPa | 2.4V | 00:00:00 | 00:00:00 | 00:00:00 | |
| OE5MMP-10 | 2026-09-06 01:03:29 | 49.32532 | 15.94818 | 135° | 135km/h | 7264m | -16.0m/s | -21.4°C | 52.4% | 0hPa | 2.4V | 08:13:00 | 02:17:25 | 00:00:00 | |
| PETON7-10 | 2026-09-06 01:03:20 | 49.32751 | 15.94490 | 137° | 141km/h | 7399m | -16.2m/s | -22.2°C | 52.1% | 0hPa | 2.4V | 00:00:00 | 02:17:16 | 00:00:00 | |
| OE3MUC-15 | 2026-09-06 01:03:18 | 49.32802 | 15.94418 | 138° | 137km/h | 7430m | -16.2m/s | -22.4°C | 51.6% | 0hPa | 2.4V | 00:00:00 | 00:00:00 | 00:00:00 | |
| OE5MMP-10 | 2026-09-06 01:03:17 | 49.32827 | 15.94382 | 138° | 141km/h | 7445m | -15.6m/s | -22.4°C | 51.5% | 0hPa | 2.4V | 00:00:00 | 02:17:13 | 00:00:00 | |
| OE5DXL-15 | 2026-09-06 01:03:16 | 49.32853 | 15.94345 | 138° | 148km/h | 7459m | -16.1m/s | -22.5°C | 51.7% | 0hPa | 2.4V | 00:00:00 | 00:00:00 | 00:00:00 | |
| OK1ALN | 2026-09-06 01:03:15 | 49.32853 | 15.94345 | 138° | 137km/h | 7459m | -16.2m/s | -22.6°C | 49.8% | 0hPa | 2.4V | 08:14:00 | 00:00:00 | 00:00:00 | |
| OE3MUC-15 | 2026-09-06 01:03:14 | 49.32906 | 15.94274 | 138° | 141km/h | 7491m | -16.5m/s | -22.6°C | 50.6% | 0hPa | 2.4V | 00:00:00 | 00:00:00 | 00:00:00 | |
| DO3MHA-11 | 2026-09-06 01:03:10 | 49.33015 | 15.94131 | 139° | 146km/h | 7553m | -16.2m/s | -23.0°C | 51.3% | 0hPa | 2.4V | 00:00:00 | 02:17:06 | 00:00:00 | |
| PETON7-10 | 2026-09-06 01:03:05 | 49.33154 | 15.93946 | 140° | 150km/h | 7629m | -16.3m/s | -23.3°C | 50.3% | 0hPa | 2.4V | 08:14:00 | 00:00:00 | 00:00:00 | |
| OE5DRO-10 | 2026-09-06 01:03:01 | 49.33266 | 15.93792 | 138° | 153km/h | 7691m | -15.8m/s | -23.6°C | 46.6% | 0hPa | 2.5V | 00:00:00 | 00:00:00 | 00:00:00 | |
| DO3MHA-11 | 2026-09-06 01:03:00 | 49.33293 | 15.93753 | 137° | 151km/h | 7706m | -16.7m/s | -23.7°C | 45.6% | 0hPa | 2.5V | 00:00:00 | 02:16:56 | 00:00:00 | |
| OE5MMP-10 | 2026-09-06 01:02:57 | 49.33378 | 15.93632 | 137° | 153km/h | 7752m | -16.9m/s | -23.8°C | 39.7% | 0hPa | 2.4V | 00:00:00 | 02:16:53 | 00:00:00 | |
| OK1ALN | 2026-09-06 01:02:55 | 49.33434 | 15.93551 | 138° | 153km/h | 7783m | -16.5m/s | -24.0°C | 37.0% | 0hPa | 2.4V | 08:14:00 | 00:00:00 | 00:00:00 | |
| PETON7-10 | 2026-09-06 01:02:50 | 49.33573 | 15.93345 | 136° | 157km/h | 7860m | -16.3m/s | -24.4°C | 35.4% | 0hPa | 2.4V | 00:00:00 | 00:00:00 | 00:00:00 | |
| OE5MMP-10 | 2026-09-06 01:02:47 | 49.33656 | 15.93218 | 134° | 157km/h | 7905m | -16.3m/s | -24.6°C | 31.9% | 0hPa | 2.4V | 00:00:00 | 02:16:43 | 00:00:00 | |
| OE5DXL-15 | 2026-09-06 01:02:46 | 49.33684 | 15.93175 | 136° | 162km/h | 7920m | -16.0m/s | -24.6°C | 30.8% | 0hPa | 2.4V | 00:00:00 | 00:00:00 | 00:00:00 | |
| OE3MUC-15 | 2026-09-06 01:02:45 | 49.33712 | 15.93132 | 135° | 155km/h | 7936m | -16.6m/s | -24.7°C | 30.7% | 0hPa | 2.5V | 00:00:00 | 00:00:00 | 00:00:00 | |
| OE5DRO-10 | 2026-09-06 01:02:42 | 49.33796 | 15.93004 | 136° | 161km/h | 7981m | -16.2m/s | -25.0°C | 29.8% | 0hPa | 2.5V | 00:00:00 | 00:00:00 | 00:00:00 | |
| OE3MUC-15 | 2026-09-06 01:02:41 | 49.33825 | 15.92961 | 135° | 159km/h | 7997m | -16.8m/s | -25.1°C | 29.7% | 0hPa | 2.5V | 00:00:00 | 00:00:00 | 00:00:00 | |
| PG1ADW-2 | 2026-09-06 01:02:40 | 49.33853 | 15.92918 | 135° | 162km/h | 8013m | -16.5m/s | -25.2°C | 29.4% | 0hPa | 2.5V | 00:00:00 | 00:00:00 | 00:00:00 | |
| OE5MMP-10 | 2026-09-06 01:02:37 | 49.33939 | 15.92786 | 135° | 162km/h | 8059m | -16.2m/s | -25.5°C | 27.9% | 0hPa | 2.5V | 00:00:00 | 02:16:33 | 00:00:00 | |
| PETON7-10 | 2026-09-06 01:02:35 | 49.33997 | 15.92699 | 135° | 164km/h | 8090m | -16.5m/s | -25.7°C | 27.6% | 0hPa | 2.5V | 00:00:00 | 02:16:31 | 00:00:00 | |
| DO3MHA-11 | 2026-09-06 01:02:33 | 49.34056 | 15.92610 | 135° | 164km/h | 8120m | -15.9m/s | -25.9°C | 27.8% | 0hPa | 2.5V | 00:00:00 | 02:16:29 | 00:00:00 | |
| OE3MUC-15 | 2026-09-06 01:02:32 | 49.34085 | 15.92565 | 136° | 162km/h | 8135m | -16.0m/s | -26.0°C | 28.0% | 0hPa | 2.5V | 00:00:00 | 00:00:00 | 00:00:00 | |
| OE5MMP-10 | 2026-09-06 01:02:27 | 49.34234 | 15.92344 | 136° | 164km/h | 8212m | -14.9m/s | -26.6°C | 26.0% | 0hPa | 2.5V | 00:00:00 | 02:16:23 | 00:00:00 | |
| OE3MUC-15 | 2026-09-06 01:02:26 | 49.34264 | 15.92299 | 136° | 166km/h | 8226m | -15.3m/s | -26.6°C | 25.0% | 0hPa | 2.4V | 00:00:00 | 00:00:00 | 00:00:00 | |
| DO3MHA-11 | 2026-09-06 01:02:23 | 49.34354 | 15.92165 | 137° | 166km/h | 8270m | -16.3m/s | -26.8°C | 21.0% | 0hPa | 2.4V | 00:00:00 | 02:16:19 | 00:00:00 | |
| OE3MUC-15 | 2026-09-06 01:02:22 | 49.34384 | 15.92121 | 136° | 166km/h | 8285m | -16.1m/s | -26.8°C | 19.7% | 0hPa | 2.4V | 00:00:00 | 00:00:00 | 00:00:00 | |
| PG1ADW-2 | 2026-09-06 01:02:20 | 49.34445 | 15.92032 | 137° | 162km/h | 8316m | -16.3m/s | -26.9°C | 17.3% | 0hPa | 2.5V | 00:00:00 | 02:16:16 | 00:00:00 | |
| OE3MUC-15 | 2026-09-06 01:02:18 | 49.34506 | 15.91942 | 137° | 166km/h | 8348m | -16.0m/s | -27.1°C | 16.7% | 0hPa | 2.5V | 00:00:00 | 00:00:00 | 00:00:00 | |
| OE5MMP-10 | 2026-09-06 01:02:17 | 49.34536 | 15.91897 | 136° | 164km/h | 8362m | -15.8m/s | -27.2°C | 16.6% | 0hPa | 2.5V | 00:00:00 | 02:16:13 | 00:00:00 | |
| OE5DXL-15 | 2026-09-06 01:02:16 | 49.34566 | 15.91853 | 137° | 162km/h | 8378m | -16.5m/s | -27.3°C | 16.6% | 0hPa | 2.5V | 00:00:00 | 00:00:00 | 00:00:00 | |
| OE3MUC-15 | 2026-09-06 01:02:14 | 49.34626 | 15.91763 | 137° | 162km/h | 8409m | -16.0m/s | -27.6°C | 16.5% | 0hPa | 2.5V | 00:00:00 | 00:00:00 | 00:00:00 | |
| DO3MHA-11 | 2026-09-06 01:02:13 | 49.34656 | 15.91719 | 136° | 162km/h | 8424m | -16.5m/s | -27.7°C | 16.5% | 0hPa | 2.5V | 08:15:00 | 02:16:09 | 00:00:00 | |
| OK1ALN | 2026-09-06 01:02:12 | 49.34656 | 15.91719 | 136° | 162km/h | 8424m | -16.5m/s | -27.8°C | 15.2% | 0hPa | 2.4V | 08:15:00 | 00:00:00 | 00:00:00 | |
| OE3MUC-15 | 2026-09-06 01:02:10 | 49.34745 | 15.91587 | 136° | 161km/h | 8471m | -15.9m/s | -28.1°C | 16.1% | 0hPa | 2.4V | 00:00:00 | 00:00:00 | 00:00:00 | |
| OE5MMP-10 | 2026-09-06 01:02:07 | 49.34833 | 15.91456 | 137° | 161km/h | 8516m | -15.9m/s | -28.4°C | 14.2% | 0hPa | 2.4V | 00:00:00 | 02:16:03 | 00:00:00 | |
| OE3MUC-15 | 2026-09-06 01:02:06 | 49.34862 | 15.91413 | 136° | 161km/h | 8531m | -16.1m/s | -28.5°C | 13.9% | 0hPa | 2.4V | 00:00:00 | 00:00:00 | 00:00:00 | |
| PETON7-10 | 2026-09-06 01:02:05 | 49.34892 | 15.91369 | 138° | 162km/h | 8547m | -16.2m/s | -28.6°C | 13.9% | 0hPa | 2.4V | 00:00:00 | 00:00:00 | 00:00:00 | |
| OE5DRO-10 | 2026-09-06 01:02:04 | 49.34921 | 15.91326 | 136° | 162km/h | 8562m | -16.5m/s | -28.8°C | 13.9% | 0hPa | 2.4V | 00:00:00 | 00:00:00 | 00:00:00 | |
| DO3MHA-11 | 2026-09-06 01:02:03 | 49.34951 | 15.91283 | 138° | 162km/h | 8577m | -15.1m/s | -28.9°C | 13.9% | 0hPa | 2.4V | 00:00:00 | 02:15:59 | 00:00:00 | |
| OE3MUC-15 | 2026-09-06 01:02:02 | 49.34981 | 15.91240 | 136° | 162km/h | 8592m | -15.7m/s | -29.0°C | 13.9% | 0hPa | 2.4V | 00:00:00 | 00:00:00 | 00:00:00 | |
| PG1ADW-2 | 2026-09-06 01:02:00 | 49.35040 | 15.91154 | 136° | 164km/h | 8622m | -15.9m/s | -29.3°C | 13.9% | 0hPa | 2.4V | 00:00:00 | 00:00:00 | 00:00:00 | |
| OE3MUC-15 | 2026-09-06 01:01:58 | 49.35100 | 15.91067 | 137° | 162km/h | 8652m | -16.6m/s | -29.6°C | 13.4% | 0hPa | 2.4V | 08:15:00 | 00:00:00 | 00:00:00 | |
| OE5MMP-10 | 2026-09-06 01:01:57 | 49.35130 | 15.91024 | 138° | 162km/h | 8668m | -15.9m/s | -29.7°C | 12.9% | 0hPa | 2.5V | 08:15:00 | 02:15:53 | 00:00:00 | |
| DO3MHA-11 | 2026-09-06 01:01:53 | 49.35250 | 15.90850 | 137° | 164km/h | 8729m | -16.3m/s | -30.1°C | 10.9% | 0hPa | 2.5V | 00:00:00 | 02:15:49 | 00:00:00 | |
| OK1ALN | 2026-09-06 01:01:51 | 49.35280 | 15.90806 | 137° | 161km/h | 8744m | -16.9m/s | -30.2°C | 9.3% | 0hPa | 2.5V | 08:16:00 | 00:00:00 | 00:00:00 | |
| OE3MUC-15 | 2026-09-06 01:01:50 | 49.35340 | 15.90719 | 137° | 164km/h | 8775m | -16.5m/s | -30.4°C | 9.7% | 0hPa | 2.5V | 00:00:00 | 00:00:00 | 00:00:00 | |
| OE3JTB-15 | 2026-09-06 01:01:49 | 49.35371 | 15.90675 | 136° | 166km/h | 8791m | -16.0m/s | -30.4°C | 9.5% | 0hPa | 2.5V | 00:00:00 | 00:00:00 | 00:00:00 | |
| OE5MMP-10 | 2026-09-06 01:01:47 | 49.35431 | 15.90586 | 136° | 166km/h | 8822m | -16.3m/s | -30.7°C | 9.8% | 0hPa | 2.5V | 00:00:00 | 02:15:43 | 00:00:00 | |
| OE5DXL-15 | 2026-09-06 01:01:46 | 49.35461 | 15.90542 | 137° | 166km/h | 8837m | -16.2m/s | -30.8°C | 9.8% | 0hPa | 2.5V | 00:00:00 | 00:00:00 | 00:00:00 | |
| OE5DRO-10 | 2026-09-06 01:01:45 | 49.35492 | 15.90497 | 135° | 166km/h | 8853m | -16.2m/s | -31.0°C | 9.9% | 0hPa | 2.5V | 00:00:00 | 00:00:00 | 00:00:00 | |
| DO3MHA-11 | 2026-09-06 01:01:43 | 49.35552 | 15.90406 | 135° | 166km/h | 8883m | -16.1m/s | -31.2°C | 9.8% | 0hPa | 2.5V | 00:00:00 | 02:15:39 | 00:00:00 | |
| PG1ADW-2 | 2026-09-06 01:01:40 | 49.35642 | 15.90270 | 135° | 166km/h | 8929m | -16.1m/s | -31.7°C | 10.1% | 0hPa | 2.4V | 00:00:00 | 00:00:00 | 00:00:00 | |
| OE5MMP-10 | 2026-09-06 01:01:37 | 49.35733 | 15.90132 | 135° | 166km/h | 8975m | -15.6m/s | -32.1°C | 10.5% | 0hPa | 2.4V | 00:00:00 | 02:15:33 | 00:00:00 | |
| PETON7-10 | 2026-09-06 01:01:35 | 49.35793 | 15.90040 | 135° | 166km/h | 9005m | -16.6m/s | -32.4°C | 10.9% | 0hPa | 2.4V | 00:00:00 | 00:00:00 | 00:00:00 | |
| DO3MHA-11 | 2026-09-06 01:01:33 | 49.35853 | 15.89948 | 135° | 166km/h | 9035m | -17.1m/s | -32.7°C | 11.1% | 0hPa | 2.4V | 00:00:00 | 02:15:29 | 00:00:00 | |
| OK1ALN | 2026-09-06 01:01:31 | 49.35913 | 15.89856 | 136° | 164km/h | 9067m | -16.3m/s | -33.1°C | 10.1% | 0hPa | 2.4V | 08:16:00 | 00:00:00 | 00:00:00 | |
| OE5MMP-10 | 2026-09-06 01:01:27 | 49.36031 | 15.89674 | 136° | 166km/h | 9128m | -16.2m/s | -33.6°C | 12.1% | 0hPa | 2.4V | 00:00:00 | 02:15:23 | 00:00:00 | |
| OE5DRO-10 | 2026-09-06 01:01:26 | 49.36060 | 15.89629 | 135° | 166km/h | 9143m | -16.3m/s | -33.7°C | 12.2% | 0hPa | 2.4V | 00:00:00 | 00:00:00 | 00:00:00 | |
| DO3MHA-11 | 2026-09-06 01:01:23 | 49.36150 | 15.89492 | 136° | 166km/h | 9188m | -16.2m/s | -34.2°C | 12.7% | 0hPa | 2.4V | 00:00:00 | 02:15:19 | 00:00:00 | |
| OE3MUC-15 | 2026-09-06 01:01:21 | 49.36210 | 15.89401 | 136° | 164km/h | 9219m | -16.9m/s | -34.5°C | 13.0% | 0hPa | 2.4V | 00:00:00 | 00:00:00 | 00:00:00 | |
| OE3JTB-15 | 2026-09-06 01:01:20 | 49.36240 | 15.89356 | 135° | 166km/h | 9235m | -16.2m/s | -34.6°C | 13.2% | 0hPa | 2.4V | 00:00:00 | 02:15:16 | 00:00:00 | |
| OE5MMP-10 | 2026-09-06 01:01:17 | 49.36329 | 15.89220 | 136° | 166km/h | 9281m | -16.2m/s | -35.0°C | 13.2% | 0hPa | 2.4V | 00:00:00 | 02:15:13 | 00:00:00 | |
| OE5DXL-15 | 2026-09-06 01:01:16 | 49.36359 | 15.89175 | 137° | 166km/h | 9296m | -16.9m/s | -35.1°C | 13.3% | 0hPa | 2.4V | 08:16:00 | 00:00:00 | 00:00:00 | |
| OE3MUC-15 | 2026-09-06 01:01:13 | 49.36450 | 15.89040 | 136° | 166km/h | 9343m | -16.2m/s | -35.6°C | 13.4% | 0hPa | 2.5V | 00:00:00 | 00:00:00 | 00:00:00 | |
| DO3MHA-11 | 2026-09-06 01:01:12 | 49.36480 | 15.88995 | 136° | 168km/h | 9359m | -16.0m/s | -35.7°C | 13.4% | 0hPa | 2.5V | 00:00:00 | 02:15:08 | 00:00:00 | |
| OK1ALN | 2026-09-06 01:01:10 | 49.36510 | 15.88949 | 137° | 164km/h | 9374m | -16.1m/s | -35.9°C | 11.8% | 0hPa | 2.5V | 08:17:00 | 00:00:00 | 00:00:00 | |
| OE3MUC-15 | 2026-09-06 01:01:09 | 49.36571 | 15.88859 | 137° | 166km/h | 9405m | -16.5m/s | -36.1°C | 13.6% | 0hPa | 2.5V | 00:00:00 | 00:00:00 | 00:00:00 | |
| OE5MMP-10 | 2026-09-06 01:01:07 | 49.36632 | 15.88769 | 137° | 166km/h | 9436m | -16.5m/s | -36.4°C | 14.0% | 0hPa | 2.5V | 00:00:00 | 02:15:03 | 00:00:00 | |
| PETON7-10 | 2026-09-06 01:01:05 | 49.36693 | 15.88680 | 136° | 166km/h | 9467m | -15.5m/s | -36.7°C | 14.5% | 0hPa | 2.5V | 00:00:00 | 02:15:01 | 00:00:00 | |
| OE3MUC-15 | 2026-09-06 01:01:01 | 49.36816 | 15.88500 | 137° | 166km/h | 9528m | -16.5m/s | -37.3°C | 15.6% | 0hPa | 2.5V | 00:00:00 | 00:00:00 | 00:00:00 | |
| DO3MHA-11 | 2026-09-06 01:01:00 | 49.36846 | 15.88455 | 137° | 166km/h | 9543m | -16.5m/s | -37.5°C | 15.9% | 0hPa | 2.5V | 00:00:00 | 02:14:56 | 00:00:00 | |
| OE3MUC-15 | 2026-09-06 01:00:53 | 49.37059 | 15.88142 | 137° | 166km/h | 9650m | -16.1m/s | -38.4°C | 19.4% | 0hPa | 2.5V | 00:00:00 | 00:00:00 | 00:00:00 | |
| OE3JTB-15 | 2026-09-06 01:00:51 | 49.37120 | 15.88051 | 137° | 166km/h | 9680m | -16.1m/s | -38.7°C | 20.3% | 0hPa | 2.5V | 08:16:00 | 00:00:00 | 00:00:00 | |
| OK1ALN | 2026-09-06 01:00:50 | 49.37151 | 15.88006 | 136° | 166km/h | 9696m | -16.5m/s | -38.9°C | 18.6% | 0hPa | 2.4V | 08:17:00 | 00:00:00 | 00:00:00 | |
| OE5DRO-10 | 2026-09-06 01:00:49 | 49.37210 | 15.87915 | 135° | 164km/h | 9727m | -16.8m/s | -39.1°C | 21.6% | 0hPa | 2.4V | 00:00:00 | 00:00:00 | 00:00:00 | |
| OE5MMP-10 | 2026-09-06 01:00:47 | 49.37240 | 15.87869 | 135° | 166km/h | 9743m | -16.1m/s | -39.2°C | 22.0% | 0hPa | 2.4V | 00:00:00 | 02:14:43 | 00:00:00 | |
| OE5DXL-15 | 2026-09-06 01:00:46 | 49.37270 | 15.87823 | 135° | 166km/h | 9758m | -16.2m/s | -39.4°C | 22.5% | 0hPa | 2.4V | 00:00:00 | 00:00:00 | 00:00:00 | |
| OE3MUC-15 | 2026-09-06 01:00:45 | 49.37299 | 15.87777 | 135° | 166km/h | 9774m | -15.3m/s | -39.5°C | 22.8% | 0hPa | 2.4V | 00:00:00 | 00:00:00 | 00:00:00 | |
| EDDB2-11 | 2026-09-06 01:00:43 | 49.37358 | 15.87685 | 133° | 166km/h | 9804m | -16.0m/s | -39.8°C | 20.9% | -1.0hPa | 2.4V | 00:00:00 | 00:00:00 | 00:00:00 | |
| OE3MUC-15 | 2026-09-06 01:00:41 | 49.37416 | 15.87591 | 134° | 166km/h | 9835m | -15.8m/s | -40.1°C | 24.5% | 0hPa | 2.4V | 08:16:00 | 00:00:00 | 00:00:00 | |
| DO3MHA-11 | 2026-09-06 01:00:40 | 49.37445 | 15.87544 | 134° | 164km/h | 9850m | -16.2m/s | -40.2°C | 24.9% | 0hPa | 2.4V | 08:16:00 | 02:14:36 | 00:00:00 | |
| OK1SLM-15 | 2026-09-06 01:00:38 | 49.37474 | 15.87497 | 134° | 166km/h | 9865m | -15.6m/s | -40.4°C | 22.9% | 0hPa | 2.4V | 00:00:00 | 00:00:00 | 00:00:00 | |
| OE5MMP-10 | 2026-09-06 01:00:37 | 49.37532 | 15.87403 | 133° | 164km/h | 9896m | -15.6m/s | -40.6°C | 26.8% | 0hPa | 2.4V | 00:00:00 | 02:14:33 | 00:00:00 | |
| PETON7-10 | 2026-09-06 01:00:35 | 49.37588 | 15.87310 | 133° | 166km/h | 9927m | -16.1m/s | -40.8°C | 28.3% | 0hPa | 2.4V | 00:00:00 | 00:00:00 | 00:00:00 | |
| OE3MUC-15 | 2026-09-06 01:00:32 | 49.37673 | 15.87168 | 133° | 166km/h | 9972m | -15.7m/s | -41.3°C | 28.9% | 0hPa | 2.4V | 00:00:00 | 00:00:00 | 00:00:00 | |
| DO3MHA-11 | 2026-09-06 01:00:30 | 49.37730 | 15.87074 | 133° | 168km/h | 10002m | -16.1m/s | -41.6°C | 29.1% | 0hPa | 2.4V | 00:00:00 | 02:14:26 | 00:00:00 | |
| OE5DRO-10 | 2026-09-06 01:00:29 | 49.37759 | 15.87027 | 133° | 168km/h | 10018m | -15.7m/s | -41.7°C | 28.9% | 0hPa | 2.4V | 00:00:00 | 00:00:00 | 00:00:00 | |
| OE5MMP-10 | 2026-09-06 01:00:27 | 49.37816 | 15.86932 | 133° | 168km/h | 10048m | -15.6m/s | -42.0°C | 27.8% | 0hPa | 2.4V | 08:17:00 | 02:14:23 | 00:00:00 | |
| OE3MUC-15 | 2026-09-06 01:00:26 | 49.37845 | 15.86885 | 135° | 168km/h | 10063m | -15.8m/s | -42.1°C | 26.9% | 0hPa | 2.4V | 00:00:00 | 00:00:00 | 00:00:00 | |
| OE3JTB-15 | 2026-09-06 01:00:22 | 49.37962 | 15.86696 | 134° | 170km/h | 10122m | -16.5m/s | -42.3°C | 23.9% | 0hPa | 2.5V | 00:00:00 | 00:00:00 | 00:00:00 | |
| DO3MHA-11 | 2026-09-06 01:00:20 | 49.38021 | 15.86600 | 134° | 168km/h | 10153m | -16.7m/s | -42.5°C | 23.6% | 0hPa | 2.5V | 00:00:00 | 02:14:16 | 00:00:00 | |
| OE5MMP-10 | 2026-09-06 01:00:18 | 49.38109 | 15.86458 | 133° | 170km/h | 10199m | -16.2m/s | -42.9°C | 23.6% | 0hPa | 2.5V | 00:00:00 | 02:14:13 | 00:00:00 | |
| OE5DXL-15 | 2026-09-06 01:00:17 | 49.38138 | 15.86410 | 134° | 170km/h | 10214m | -15.5m/s | -43.0°C | 23.7% | 0hPa | 2.5V | 00:00:00 | 00:00:00 | 00:00:00 | |
| OE3MUC-15 | 2026-09-06 01:00:11 | 49.38283 | 15.86169 | 133° | 170km/h | 10292m | -16.7m/s | -43.7°C | 24.8% | 0hPa | 2.5V | 00:00:00 | 00:00:00 | 00:00:00 | |
| DO3MHA-11 | 2026-09-06 01:00:10 | 49.38312 | 15.86120 | 132° | 170km/h | 10307m | -16.0m/s | -43.8°C | 25.1% | 0hPa | 2.5V | 00:00:00 | 02:14:06 | 00:00:00 | |
| OK1ALN | 2026-09-06 01:00:09 | 49.38312 | 15.86120 | 132° | 172km/h | 10307m | -16.0m/s | -43.9°C | 22.1% | 0hPa | 2.4V | 08:17:00 | 00:00:00 | 00:00:00 | |
| OE5MMP-10 | 2026-09-06 01:00:07 | 49.38398 | 15.85972 | 133° | 170km/h | 10354m | -16.5m/s | -44.2°C | 25.9% | 0hPa | 2.4V | 00:00:00 | 02:14:03 | 00:00:00 | |
| PETON7-10 | 2026-09-06 01:00:05 | 49.38456 | 15.85874 | 132° | 170km/h | 10386m | -15.8m/s | -44.5°C | 26.2% | 0hPa | 2.4V | 00:00:00 | 00:00:00 | 00:00:00 | |
| EDDB2-12 | 2026-09-06 01:00:04 | 49.38485 | 15.85825 | 131° | 166km/h | 10400m | -16.5m/s | -44.7°C | 23.0% | -1.0hPa | 2.4V | 00:00:00 | 00:00:00 | 00:00:00 | |
| DO3MHA-11 | 2026-09-06 01:00:00 | 49.38599 | 15.85628 | 132° | 170km/h | 10462m | -16.3m/s | -45.2°C | 26.8% | 0hPa | 2.4V | 00:00:00 | 02:13:56 | 00:00:00 | |
| OE3MUC-15 | 2026-09-06 00:59:59 | 49.38627 | 15.85579 | 132° | 170km/h | 10478m | -16.7m/s | -45.3°C | 26.9% | 0hPa | 2.4V | 08:17:00 | 00:00:00 | 00:00:00 | |
| OE5MMP-10 | 2026-09-06 00:59:57 | 49.38684 | 15.85481 | 132° | 170km/h | 10509m | -16.3m/s | -45.5°C | 27.5% | 0hPa | 2.5V | 00:00:00 | 02:13:53 | 00:00:00 | |
| OE3MUC-15 | 2026-09-06 00:59:55 | 49.38741 | 15.85383 | 132° | 170km/h | 10540m | -15.6m/s | -45.8°C | 28.7% | 0hPa | 2.4V | 00:00:00 | 00:00:00 | 00:00:00 | |
| OE3JTB-15 | 2026-09-06 00:59:53 | 49.38798 | 15.85284 | 132° | 172km/h | 10570m | -16.3m/s | -46.1°C | 29.6% | 0hPa | 2.4V | 00:00:00 | 02:13:49 | 00:00:00 | |
| OE3MUC-15 | 2026-09-06 00:59:51 | 49.38855 | 15.85184 | 132° | 172km/h | 10602m | -16.5m/s | -46.3°C | 30.5% | 0hPa | 2.4V | 00:00:00 | 00:00:00 | 00:00:00 | |
| DO3MHA-11 | 2026-09-06 00:59:50 | 49.38884 | 15.85134 | 131° | 172km/h | 10617m | -15.8m/s | -46.5°C | 31.2% | 0hPa | 2.4V | 00:00:00 | 02:13:46 | 00:00:00 | |
| OK1ALN | 2026-09-06 00:59:49 | 49.38884 | 15.85134 | 131° | 172km/h | 10617m | -15.9m/s | -46.5°C | 27.5% | 0hPa | 2.4V | 08:17:00 | 00:00:00 | 00:00:00 | |
| OE3MUC-15 | 2026-09-06 00:59:47 | 49.38969 | 15.84983 | 131° | 172km/h | 10664m | -16.6m/s | -46.9°C | 32.9% | 0hPa | 2.4V | 00:00:00 | 00:00:00 | 00:00:00 | |
| OE5DXL-15 | 2026-09-06 00:59:46 | 49.38998 | 15.84933 | 132° | 170km/h | 10680m | -16.7m/s | -47.1°C | 33.5% | 0hPa | 2.4V | 00:00:00 | 00:00:00 | 00:00:00 | |
| OE3MUC-15 | 2026-09-06 00:59:43 | 49.39084 | 15.84782 | 131° | 172km/h | 10729m | -16.9m/s | -47.5°C | 35.2% | 0hPa | 2.4V | 00:00:00 | 00:00:00 | 00:00:00 | |
| EDDB2-11 | 2026-09-06 00:59:41 | 49.39142 | 15.84681 | 131° | 168km/h | 10761m | -16.3m/s | -47.9°C | 31.8% | -1.0hPa | 2.4V | 00:00:00 | 00:00:00 | 00:00:00 | |
| DO3MHA-11 | 2026-09-06 00:59:40 | 49.39170 | 15.84631 | 131° | 172km/h | 10777m | -16.2m/s | -48.0°C | 36.5% | 0hPa | 2.4V | 00:00:00 | 02:13:36 | 00:00:00 | |
| S52SK | 2026-09-06 00:59:37 | 49.39256 | 15.84480 | 132° | 173km/h | 10824m | -16.7m/s | -48.5°C | 32.9% | 0hPa | 2.4V | 08:17:00 | 00:00:00 | 00:00:00 | |
| PETON7-10 | 2026-09-06 00:59:35 | 49.39314 | 15.84381 | 131° | 172km/h | 10857m | -16.8m/s | -48.7°C | 37.5% | 0hPa | 2.4V | 00:00:00 | 02:13:31 | 00:00:00 | |
| EDDB2-12 | 2026-09-06 00:59:33 | 49.39371 | 15.84280 | 130° | 172km/h | 10889m | -16.5m/s | -49.0°C | 33.5% | -1.0hPa | 2.4V | 00:00:00 | 00:00:00 | 00:00:00 | |
| OE5DRO-10 | 2026-09-06 00:59:32 | 49.39400 | 15.84229 | 132° | 168km/h | 10905m | -16.8m/s | -49.1°C | 38.3% | 0hPa | 2.4V | 08:17:00 | 00:00:00 | 00:00:00 | |
| OK1SLM-15 | 2026-09-06 00:59:30 | 49.39458 | 15.84129 | 132° | 173km/h | 10937m | -16.7m/s | -49.4°C | 34.0% | 0hPa | 2.5V | 00:00:00 | 00:00:00 | 00:00:00 | |
| OK1ALN | 2026-09-06 00:59:29 | 49.39487 | 15.84079 | 133° | 170km/h | 10953m | -16.8m/s | -49.5°C | 34.0% | 0hPa | 2.5V | 08:18:00 | 00:00:00 | 00:00:00 | |
| OE5MMP-10 | 2026-09-06 00:59:27 | 49.39545 | 15.83980 | 133° | 168km/h | 10985m | -16.8m/s | -49.7°C | 39.1% | 0hPa | 2.5V | 00:00:00 | 02:13:23 | 00:00:00 | |
| OK1SLM-15 | 2026-09-06 00:59:24 | 49.39631 | 15.83834 | 134° | 170km/h | 11033m | -17.1m/s | -50.2°C | 35.1% | 0hPa | 2.5V | 00:00:00 | 00:00:00 | 00:00:00 | |
| OE3MUC-15 | 2026-09-06 00:59:21 | 49.39718 | 15.83689 | 133° | 168km/h | 11080m | -16.4m/s | -50.6°C | 41.1% | 0hPa | 2.5V | 08:18:00 | 00:00:00 | 00:00:00 | |
| PETON7-10 | 2026-09-06 00:59:20 | 49.39747 | 15.83642 | 133° | 166km/h | 11096m | -16.5m/s | -50.8°C | 41.3% | 0hPa | 2.5V | 00:00:00 | 00:00:00 | 00:00:00 | |
| OE5MMP-10 | 2026-09-06 00:59:17 | 49.39833 | 15.83499 | 134° | 166km/h | 11143m | -17.0m/s | -51.2°C | 42.0% | 0hPa | 2.4V | 00:00:00 | 02:13:13 | 00:00:00 | |
| OE5DXL-15 | 2026-09-06 00:59:16 | 49.39862 | 15.83452 | 133° | 166km/h | 11159m | -16.7m/s | -51.3°C | 42.4% | 0hPa | 2.4V | 00:00:00 | 00:00:00 | 00:00:00 | |
| SONDE2-11 | 2026-09-06 00:59:15 | 49.39919 | 15.83357 | 132° | 168km/h | 11191m | -16.1m/s | -51.7°C | 37.5% | -1.0hPa | 2.4V | 00:00:00 | 00:00:00 | 00:00:00 | |
| OE3MUC-15 | 2026-09-06 00:59:13 | 49.39948 | 15.83309 | 133° | 166km/h | 11207m | -16.6m/s | -51.8°C | 43.2% | 0hPa | 2.4V | 00:00:00 | 00:00:00 | 00:00:00 | |
| DO3MHA-11 | 2026-09-06 00:59:10 | 49.40034 | 15.83168 | 133° | 166km/h | 11255m | -17.2m/s | -52.2°C | 44.3% | 0hPa | 2.4V | 08:18:00 | 02:13:06 | 00:00:00 | |
| OE3MUC-15 | 2026-09-06 00:59:09 | 49.40063 | 15.83120 | 133° | 166km/h | 11272m | -16.9m/s | -52.4°C | 44.7% | 0hPa | 2.4V | 00:00:00 | 00:00:00 | 00:00:00 | |
| OK1ALN | 2026-09-06 00:59:08 | 49.40063 | 15.83120 | 133° | 168km/h | 11272m | -17.0m/s | -52.5°C | 39.5% | 0hPa | 2.4V | 08:18:00 | 00:00:00 | 00:00:00 | |
| OE5MMP-10 | 2026-09-06 00:59:07 | 49.40121 | 15.83025 | 134° | 166km/h | 11304m | -16.7m/s | -52.7°C | 45.4% | 0hPa | 2.4V | 00:00:00 | 02:13:03 | 00:00:00 | |
| OE3MUC-15 | 2026-09-06 00:59:05 | 49.40178 | 15.82931 | 132° | 168km/h | 11336m | -16.2m/s | -53.0°C | 45.7% | 0hPa | 2.4V | 00:00:00 | 00:00:00 | 00:00:00 | |
| OE3MUC-15 | 2026-09-06 00:59:01 | 49.40295 | 15.82741 | 134° | 166km/h | 11400m | -16.8m/s | -53.6°C | 46.4% | 0hPa | 2.4V | 00:00:00 | 00:00:00 | 00:00:00 | |
| DO3MHA-11 | 2026-09-06 00:59:00 | 49.40323 | 15.82694 | 133° | 166km/h | 11416m | -16.5m/s | -53.8°C | 46.8% | 0hPa | 2.4V | 00:00:00 | 02:12:56 | 00:00:00 | |
| OE3MUC-15 | 2026-09-06 00:58:57 | 49.40410 | 15.82552 | 134° | 166km/h | 11464m | -16.9m/s | -54.3°C | 47.0% | 0hPa | 2.4V | 00:00:00 | 00:00:00 | 00:00:00 | |
| OE3JTB-15 | 2026-09-06 00:58:55 | 49.40468 | 15.82459 | 133° | 164km/h | 11496m | -17.4m/s | -54.6°C | 47.2% | 0hPa | 2.5V | 00:00:00 | 00:00:00 | 00:00:00 | |
| OE5DRO-10 | 2026-09-06 00:58:54 | 49.40496 | 15.82411 | 133° | 166km/h | 11513m | -16.8m/s | -54.7°C | 47.3% | 0hPa | 2.5V | 00:00:00 | 00:00:00 | 00:00:00 | |
| OE3MUC-15 | 2026-09-06 00:58:53 | 49.40525 | 15.82363 | 133° | 164km/h | 11529m | -17.0m/s | -54.9°C | 47.6% | 0hPa | 2.5V | 00:00:00 | 00:00:00 | 00:00:00 | |
| DO3MHA-11 | 2026-09-06 00:58:50 | 49.40611 | 15.82223 | 133° | 166km/h | 11578m | -16.9m/s | -55.3°C | 48.2% | 0hPa | 2.5V | 00:00:00 | 02:12:46 | 00:00:00 | |
| OE3MUC-15 | 2026-09-06 00:58:49 | 49.40639 | 15.82176 | 132° | 166km/h | 11595m | -16.5m/s | -55.5°C | 48.4% | 0hPa | 2.5V | 00:00:00 | 00:00:00 | 00:00:00 | |
| OE5MMP-10 | 2026-09-06 00:58:47 | 49.40697 | 15.82080 | 134° | 164km/h | 11627m | -17.1m/s | -55.8°C | 49.1% | 0hPa | 2.5V | 00:00:00 | 02:12:43 | 00:00:00 | |
| OE5DXL-15 | 2026-09-06 00:58:46 | 49.40725 | 15.82034 | 134° | 164km/h | 11643m | -17.0m/s | -56.0°C | 49.3% | 0hPa | 2.5V | 00:00:00 | 00:00:00 | 00:00:00 | |
| OE3MUC-15 | 2026-09-06 00:58:45 | 49.40754 | 15.81988 | 133° | 164km/h | 11660m | -16.9m/s | -56.1°C | 49.3% | 0hPa | 2.5V | 08:18:00 | 00:00:00 | 00:00:00 | |
| SONDE2-11 | 2026-09-06 00:58:44 | 49.40810 | 15.81893 | 131° | 166km/h | 11693m | -16.7m/s | -56.5°C | 43.1% | -1.0hPa | 2.5V | 00:00:00 | 00:00:00 | 00:00:00 | |
| OE3MUC-15 | 2026-09-06 00:58:41 | 49.40868 | 15.81798 | 134° | 164km/h | 11725m | -17.1m/s | -56.7°C | 49.9% | 0hPa | 2.5V | 00:00:00 | 00:00:00 | 00:00:00 | |
| DO3MHA-11 | 2026-09-06 00:58:40 | 49.40896 | 15.81752 | 134° | 164km/h | 11741m | -17.0m/s | -56.9°C | 50.2% | 0hPa | 2.5V | 00:00:00 | 02:12:36 | 00:00:00 | |
| EDDB2-11 | 2026-09-06 00:58:39 | 49.40924 | 15.81706 | 131° | 162km/h | 11758m | -17.4m/s | -57.1°C | 43.7% | -1.0hPa | 2.4V | 00:00:00 | 00:00:00 | 00:00:00 | |
| OE5MMP-10 | 2026-09-06 00:58:37 | 49.40980 | 15.81610 | 133° | 164km/h | 11791m | -16.8m/s | -57.4°C | 50.8% | 0hPa | 2.4V | 00:00:00 | 02:12:33 | 00:00:00 | |
| PETON7-10 | 2026-09-06 00:58:35 | 49.41036 | 15.81516 | 132° | 164km/h | 11823m | -17.7m/s | -57.7°C | 50.8% | 0hPa | 2.4V | 08:18:00 | 00:00:00 | 00:00:00 | |
| OE3MUC-15 | 2026-09-06 00:58:33 | 49.41092 | 15.81420 | 131° | 164km/h | 11858m | -17.1m/s | -58.0°C | 50.6% | 0hPa | 2.5V | 00:00:00 | 00:00:00 | 00:00:00 | |
| NBG1-10 | 2026-09-06 00:58:32 | 49.41119 | 15.81372 | 132° | 168km/h | 11874m | -17.0m/s | -58.1°C | 50.4% | 0hPa | 2.4V | 00:00:00 | 02:12:28 | 00:00:00 | |
| EDDB2-12 | 2026-09-06 00:58:31 | 49.41147 | 15.81324 | 131° | 162km/h | 11890m | -17.3m/s | -58.3°C | 43.0% | -1.0hPa | 2.4V | 00:00:00 | 00:00:00 | 00:00:00 | |
| DO3MHA-11 | 2026-09-06 00:58:30 | 49.41174 | 15.81276 | 131° | 164km/h | 11907m | -17.7m/s | -58.3°C | 49.9% | 0hPa | 2.4V | 00:00:00 | 02:12:26 | 00:00:00 | |
| OE3MUC-15 | 2026-09-06 00:58:29 | 49.41201 | 15.81227 | 130° | 164km/h | 11924m | -17.5m/s | -58.5°C | 49.9% | 0hPa | 2.4V | 00:00:00 | 00:00:00 | 00:00:00 | |
| OK1ALN | 2026-09-06 00:58:27 | 49.41255 | 15.81129 | 132° | 164km/h | 11957m | -17.9m/s | -58.8°C | 42.8% | 0hPa | 2.4V | 08:19:00 | 00:00:00 | 00:00:00 | |
| OE3JTB-15 | 2026-09-06 00:58:26 | 49.41282 | 15.81080 | 130° | 170km/h | 11974m | -17.7m/s | -58.8°C | 49.7% | 0hPa | 2.4V | 00:00:00 | 02:12:22 | 00:00:00 | |
| OE3MUC-15 | 2026-09-06 00:58:25 | 49.41308 | 15.81031 | 129° | 164km/h | 11991m | -17.6m/s | -59.0°C | 49.9% | 0hPa | 2.4V | 00:00:00 | 00:00:00 | 00:00:00 | |
| OK1SLM-15 | 2026-09-06 00:58:24 | 49.41308 | 15.81031 | 130° | 162km/h | 11991m | -17.6m/s | -59.0°C | 42.8% | 0hPa | 2.4V | 00:00:00 | 00:00:00 | 00:00:00 | |
| OE3MUC-15 | 2026-09-06 00:58:21 | 49.41412 | 15.80832 | 128° | 164km/h | 12058m | -17.7m/s | -59.4°C | 49.5% | 0hPa | 2.4V | 00:00:00 | 00:00:00 | 00:00:00 | |
| OK1SLM-15 | 2026-09-06 00:58:20 | 49.41437 | 15.80782 | 128° | 166km/h | 12076m | -17.0m/s | -59.6°C | 42.0% | 0hPa | 2.4V | 00:00:00 | 00:00:00 | 00:00:00 | |
| OE3MUC-15 | 2026-09-06 00:58:17 | 49.41514 | 15.80629 | 127° | 166km/h | 12125m | -17.8m/s | -60.0°C | 48.3% | 0hPa | 2.4V | 00:00:00 | 00:00:00 | 00:00:00 | |
| OE5DXL-15 | 2026-09-06 00:58:16 | 49.41538 | 15.80578 | 126° | 177km/h | 12143m | -17.2m/s | -60.1°C | 48.0% | 0hPa | 2.4V | 00:00:00 | 00:00:00 | 00:00:00 | |
| SONDE2-11 | 2026-09-06 00:58:13 | 49.41640 | 15.80370 | 126° | 170km/h | 12211m | -17.3m/s | -60.6°C | 40.0% | -1.0hPa | 2.5V | 00:00:00 | 00:00:00 | 00:00:00 | |
| DO3MHA-11 | 2026-09-06 00:58:10 | 49.41692 | 15.80264 | 127° | 173km/h | 12244m | -17.5m/s | -60.5°C | 46.6% | 0hPa | 2.5V | 00:00:00 | 02:12:06 | 00:00:00 | |
| OE3MUC-15 | 2026-09-06 00:58:09 | 49.41718 | 15.80212 | 127° | 172km/h | 12261m | -17.4m/s | -60.5°C | 46.3% | 0hPa | 2.4V | 08:19:00 | 00:00:00 | 00:00:00 | |
| EDDB2-11 | 2026-09-06 00:58:08 | 49.41744 | 15.80159 | 127° | 168km/h | 12277m | -17.5m/s | -60.6°C | 38.2% | -1.0hPa | 2.5V | 00:00:00 | 00:00:00 | 00:00:00 | |
| OE5MMP-10 | 2026-09-06 00:58:07 | 49.41770 | 15.80106 | 127° | 177km/h | 12294m | -17.6m/s | -60.5°C | 45.3% | 0hPa | 2.5V | 00:00:00 | 02:12:03 | 00:00:00 | |
| OK1ALN | 2026-09-06 00:58:06 | 49.41770 | 15.80106 | 128° | 173km/h | 12294m | -17.6m/s | -60.6°C | 38.0% | 0hPa | 2.5V | 08:19:00 | 00:00:00 | 00:00:00 | |
| PETON7-10 | 2026-09-06 00:58:05 | 49.41824 | 15.80001 | 128° | 179km/h | 12328m | -17.7m/s | -60.5°C | 43.6% | 0hPa | 2.5V | 00:00:00 | 02:12:01 | 00:00:00 | |
| S52SK | 2026-09-06 00:58:04 | 49.41824 | 15.80000 | 129° | 175km/h | 12328m | -17.8m/s | -60.5°C | 36.5% | 0hPa | 2.5V | 00:00:00 | 00:00:00 | 00:00:00 | |
| OE3MUC-15 | 2026-09-06 00:58:01 | 49.41938 | 15.79790 | 129° | 179km/h | 12398m | -17.6m/s | -60.4°C | 39.7% | 0hPa | 2.5V | 00:00:00 | 00:00:00 | 00:00:00 | |
| DO3MHA-11 | 2026-09-06 00:58:00 | 49.41967 | 15.79736 | 130° | 181km/h | 12415m | -17.8m/s | -60.3°C | 38.6% | 0hPa | 2.5V | 00:00:00 | 02:11:56 | 00:00:00 | |
| NBG1-10 | 2026-09-06 00:57:59 | 49.41997 | 15.79682 | 131° | 184km/h | 12432m | -18.1m/s | -60.3°C | 37.2% | 0hPa | 2.5V | 00:00:00 | 02:11:55 | 00:00:00 | |
| S52SK | 2026-09-06 00:57:58 | 49.41997 | 15.79682 | 132° | 181km/h | 12432m | -18.1m/s | -60.3°C | 30.5% | 0hPa | 2.4V | 00:00:00 | 00:00:00 | 00:00:00 | |
| OE5MMP-10 | 2026-09-06 00:57:57 | 49.42056 | 15.79577 | 130° | 183km/h | 12467m | -18.2m/s | -60.3°C | 35.6% | 0hPa | 2.4V | 00:00:00 | 02:11:53 | 00:00:00 | |
| OE3MUC-15 | 2026-09-06 00:57:53 | 49.42173 | 15.79361 | 128° | 183km/h | 12537m | -18.1m/s | -59.8°C | 31.0% | 0hPa | 2.5V | 00:00:00 | 00:00:00 | 00:00:00 | |
| DO3MHA-11 | 2026-09-06 00:57:50 | 49.42260 | 15.79193 | 129° | 184km/h | 12588m | -18.2m/s | -60.2°C | 29.7% | 0hPa | 2.5V | 00:00:00 | 02:11:46 | 00:00:00 | |
| OE3MUC-15 | 2026-09-06 00:57:49 | 49.42289 | 15.79138 | 128° | 184km/h | 12606m | -18.5m/s | -60.3°C | 29.3% | 0hPa | 2.5V | 00:00:00 | 00:00:00 | 00:00:00 | |
| OE5MMP-10 | 2026-09-06 00:57:47 | 49.42345 | 15.79026 | 127° | 186km/h | 12641m | -17.9m/s | -60.6°C | 28.6% | 0hPa | 2.5V | 00:00:00 | 02:11:43 | 00:00:00 | |
| OE5DXL-15 | 2026-09-06 00:57:46 | 49.42374 | 15.78968 | 128° | 183km/h | 12658m | -18.2m/s | -60.8°C | 28.3% | 0hPa | 2.5V | 00:00:00 | 00:00:00 | 00:00:00 | |
| OE3MUC-15 | 2026-09-06 00:57:45 | 49.42403 | 15.78912 | 128° | 184km/h | 12676m | -18.3m/s | -60.9°C | 28.0% | 0hPa | 2.5V | 00:00:00 | 00:00:00 | 00:00:00 | |
| OE5WHR-10 | 2026-09-06 00:57:44 | 49.42431 | 15.78855 | 128° | 177km/h | 12693m | -18.1m/s | -61.1°C | 27.8% | 0hPa | 2.5V | 00:00:00 | 00:00:00 | 00:00:00 | |
| SONDE2-11 | 2026-09-06 00:57:42 | 49.42516 | 15.78685 | 126° | 186km/h | 12747m | -18.5m/s | -61.6°C | 20.9% | -1.0hPa | 2.5V | 00:00:00 | 00:00:00 | 00:00:00 | |
| DO3MHA-11 | 2026-09-06 00:57:40 | 49.42545 | 15.78627 | 127° | 186km/h | 12765m | -18.4m/s | -61.7°C | 27.0% | 0hPa | 2.5V | 08:19:00 | 02:11:36 | 00:00:00 | |
| OE5DRO-10 | 2026-09-06 00:57:38 | 49.42602 | 15.78511 | 128° | 183km/h | 12800m | -18.2m/s | -62.0°C | 26.3% | 0hPa | 2.5V | 00:00:00 | 00:00:00 | 00:00:00 | |
| OE5MMP-10 | 2026-09-06 00:57:37 | 49.42631 | 15.78454 | 128° | 186km/h | 12817m | -18.5m/s | -62.2°C | 26.1% | 0hPa | 2.5V | 00:00:00 | 02:11:33 | 00:00:00 | |
| PETON7-10 | 2026-09-06 00:57:35 | 49.42688 | 15.78338 | 127° | 183km/h | 12854m | -18.2m/s | -62.5°C | 25.2% | 0hPa | 2.5V | 00:00:00 | 00:00:00 | 00:00:00 | |
| DO3MHA-11 | 2026-09-06 00:57:30 | 49.42832 | 15.78050 | 128° | 179km/h | 12942m | -18.5m/s | -63.2°C | 22.5% | 0hPa | 2.5V | 00:00:00 | 02:11:26 | 00:00:00 | |
| EDDB2-12 | 2026-09-06 00:57:29 | 49.42861 | 15.77993 | 128° | 184km/h | 12960m | -18.6m/s | -63.3°C | 15.6% | -1.0hPa | 2.5V | 00:00:00 | 00:00:00 | 00:00:00 | |
| OE3JTB-15 | 2026-09-06 00:57:28 | 49.42890 | 15.77937 | 128° | 159km/h | 12978m | -18.3m/s | -63.4°C | 21.6% | 0hPa | 2.5V | 00:00:00 | 00:00:00 | 00:00:00 | |
| OE5MMP-10 | 2026-09-06 00:57:27 | 49.42919 | 15.77882 | 129° | 175km/h | 12995m | -18.2m/s | -63.4°C | 21.3% | 0hPa | 2.5V | 08:20:00 | 02:11:23 | 00:00:00 | |
| NBG1-10 | 2026-09-06 00:57:26 | 49.42948 | 15.77826 | 130° | 151km/h | 13013m | -18.7m/s | -63.4°C | 21.0% | 0hPa | 2.5V | 00:00:00 | 02:11:22 | 00:00:00 | |
| OK1ALN | 2026-09-06 00:57:24 | 49.42977 | 15.77772 | 131° | 177km/h | 13032m | -18.8m/s | -63.3°C | 14.9% | 0hPa | 2.5V | 08:20:00 | 00:00:00 | 00:00:00 | |
| OK1SLM-15 | 2026-09-06 00:57:22 | 49.43036 | 15.77668 | 132° | 177km/h | 13068m | -18.8m/s | -62.3°C | 13.1% | 0hPa | 2.5V | 00:00:00 | 00:00:00 | 00:00:00 | |
| OE3MUC-15 | 2026-09-06 00:57:21 | 49.43094 | 15.77567 | 133° | 170km/h | 13105m | -18.8m/s | -61.7°C | 16.9% | 0hPa | 2.5V | 00:00:00 | 00:00:00 | 00:00:00 | |
| PETON7-10 | 2026-09-06 00:57:20 | 49.43123 | 15.77518 | 132° | 155km/h | 13123m | -18.4m/s | -61.7°C | 16.6% | 0hPa | 2.5V | 00:00:00 | 02:11:16 | 00:00:00 | |
| OE5DRO-10 | 2026-09-06 00:57:19 | 49.43153 | 15.77469 | 134° | 150km/h | 13141m | -19.1m/s | -61.7°C | 16.2% | 0hPa | 2.5V | 00:00:00 | 00:00:00 | 00:00:00 | |
| OK1SLM-15 | 2026-09-06 00:57:17 | 49.43211 | 15.77376 | 134° | 168km/h | 13177m | -18.1m/s | -61.8°C | 10.4% | 0hPa | 2.5V | 00:00:00 | 00:00:00 | 00:00:00 | |
| OE5DXL-15 | 2026-09-06 00:57:16 | 49.43241 | 15.77330 | 136° | 141km/h | 13195m | -18.8m/s | -61.8°C | 15.1% | 0hPa | 2.5V | 00:00:00 | 00:00:00 | 00:00:00 | |
| OE3MUC-15 | 2026-09-06 00:57:13 | 49.43327 | 15.77199 | 135° | 153km/h | 13250m | -18.4m/s | -62.0°C | 14.0% | 0hPa | 2.5V | 00:00:00 | 00:00:00 | 00:00:00 | |
| SONDE2-11 | 2026-09-06 00:57:11 | 49.43410 | 15.77074 | 136° | 144km/h | 13304m | -18.9m/s | -61.6°C | 7.6% | -1.0hPa | 2.5V | 00:00:00 | 00:00:00 | 00:00:00 | |
| DO3MHA-11 | 2026-09-06 00:57:10 | 49.43410 | 15.77074 | 137° | 139km/h | 13304m | -18.9m/s | -61.6°C | 12.4% | 0hPa | 2.5V | 00:00:00 | 02:11:06 | 00:00:00 | |
| OE3MUC-15 | 2026-09-06 00:57:09 | 49.43437 | 15.77035 | 136° | 142km/h | 13322m | -18.3m/s | -60.9°C | 11.1% | 0hPa | 2.5V | 00:00:00 | 00:00:00 | 00:00:00 | |
| OE5MMP-10 | 2026-09-06 00:57:07 | 49.43490 | 15.76959 | 137° | 133km/h | 13359m | -19.1m/s | -60.6°C | 10.0% | 0hPa | 2.5V | 00:00:00 | 02:11:03 | 00:00:00 | |
| EDDB2-11 | 2026-09-06 00:57:06 | 49.43543 | 15.76886 | 136° | 133km/h | 13396m | -19.4m/s | -60.4°C | 5.1% | -1.0hPa | 2.5V | 00:00:00 | 00:00:00 | 00:00:00 | |
| OK1ALN | 2026-09-06 00:57:05 | 49.43542 | 15.76886 | 138° | 135km/h | 13396m | -19.4m/s | -60.4°C | 5.4% | 0hPa | 2.5V | 08:20:00 | 00:00:00 | 00:00:00 | |
| EDDB2-12 | 2026-09-06 00:56:58 | 49.43706 | 15.76628 | 130° | 131km/h | 13525m | -18.7m/s | -60.2°C | 3.5% | -1.0hPa | 2.5V | 00:00:00 | 00:00:00 | 00:00:00 | |
| OE3MUC-15 | 2026-09-06 00:56:57 | 49.43728 | 15.76589 | 132° | 131km/h | 13543m | -18.9m/s | -60.2°C | 7.1% | 0hPa | 2.5V | 08:20:00 | 00:00:00 | 00:00:00 | |
| NBG1-10 | 2026-09-06 00:56:53 | 49.43813 | 15.76432 | 130° | 122km/h | 13617m | -19.4m/s | -60.5°C | 6.6% | 0hPa | 2.5V | 00:00:00 | 02:10:49 | 00:00:00 | |
| DO3MHA-11 | 2026-09-06 00:56:50 | 49.43877 | 15.76312 | 128° | 133km/h | 13671m | -18.8m/s | -60.8°C | 6.4% | 0hPa | 2.5V | 00:00:00 | 02:10:46 | 00:00:00 | |
| OE3MUC-15 | 2026-09-06 00:56:49 | 49.43898 | 15.76271 | 128° | 135km/h | 13690m | -19.3m/s | -60.8°C | 6.1% | 0hPa | 2.5V | 00:00:00 | 00:00:00 | 00:00:00 | |
| OE5DXL-15 | 2026-09-06 00:56:46 | 49.43962 | 15.76147 | 129° | 119km/h | 13746m | -19.6m/s | -60.7°C | 5.9% | 0hPa | 2.5V | 08:20:00 | 00:00:00 | 00:00:00 | |
| OK1ALN | 2026-09-06 00:56:45 | 49.43983 | 15.76107 | 128° | 135km/h | 13765m | -19.1m/s | -60.7°C | 2.2% | 0hPa | 2.5V | 08:21:00 | 00:00:00 | 00:00:00 | |
| OE3MUC-15 | 2026-09-06 00:56:41 | 49.44062 | 15.75944 | 124° | 130km/h | 13841m | -19.9m/s | -59.9°C | 5.1% | 0hPa | 2.5V | 00:00:00 | 00:00:00 | 00:00:00 | |
| SONDE2-11 | 2026-09-06 00:56:40 | 49.44098 | 15.75860 | 123° | 128km/h | 13879m | -18.9m/s | -60.2°C | 1.6% | -1.0hPa | 2.5V | 00:00:00 | 00:00:00 | 00:00:00 | |
| S52SK | 2026-09-06 00:56:37 | 49.44134 | 15.75777 | 124° | 126km/h | 13916m | -20.3m/s | -60.4°C | 1.7% | 0hPa | 2.5V | 00:00:00 | 00:00:00 | 00:00:00 | |
| PETON7-10 | 2026-09-06 00:56:35 | 49.44168 | 15.75696 | 121° | 115km/h | 13955m | -19.6m/s | -60.0°C | 5.1% | 0hPa | 2.5V | 00:00:00 | 02:10:31 | 00:00:00 | |
| HA6NAB-11 | 2026-09-06 00:56:34 | 49.44168 | 15.75696 | 122° | 122km/h | 13955m | -19.7m/s | -60.0°C | 1.7% | 0hPa | 2.5V | 08:21:00 | 00:00:00 | 00:00:00 | |
| OE3MUC-15 | 2026-09-06 00:56:33 | 49.44200 | 15.75615 | 122° | 119km/h | 13993m | -19.6m/s | -59.4°C | 4.8% | 0hPa | 2.5V | 00:00:00 | 00:00:00 | 00:00:00 | |
| DO3MHA-11 | 2026-09-06 00:56:30 | 49.44249 | 15.75499 | 122° | 111km/h | 14051m | -19.7m/s | -57.9°C | 4.3% | 0hPa | 2.4V | 00:00:00 | 02:10:26 | 00:00:00 | |
| OE3MUC-15 | 2026-09-06 00:56:29 | 49.44264 | 15.75461 | 121° | 113km/h | 14070m | -18.8m/s | -57.4°C | 4.0% | 0hPa | 2.4V | 00:00:00 | 00:00:00 | 00:00:00 | |
| HA6NAB-11 | 2026-09-06 00:56:28 | 49.44264 | 15.75461 | 122° | 117km/h | 14070m | -18.9m/s | -57.4°C | 1.2% | 0hPa | 2.4V | 08:21:00 | 00:00:00 | 00:00:00 | |
| OE5MMP-10 | 2026-09-06 00:56:27 | 49.44295 | 15.75386 | 123° | 108km/h | 14107m | -20.1m/s | -57.0°C | 3.9% | 0hPa | 2.4V | 00:00:00 | 02:10:23 | 00:00:00 | |
| OE3MUC-15 | 2026-09-06 00:56:25 | 49.44325 | 15.75314 | 122° | 108km/h | 14147m | -20.4m/s | -56.8°C | 3.8% | 0hPa | 2.5V | 00:00:00 | 00:00:00 | 00:00:00 | |
| OK1ALN | 2026-09-06 00:56:24 | 49.44325 | 15.75314 | 122° | 106km/h | 14147m | -20.4m/s | -56.9°C | 1.2% | 0hPa | 2.5V | 08:21:00 | 00:00:00 | 00:00:00 | |
| OE5DRO-10 | 2026-09-06 00:56:22 | 49.44366 | 15.75206 | 119° | 104km/h | 14204m | -18.8m/s | -56.7°C | 3.8% | 0hPa | 2.5V | 00:00:00 | 00:00:00 | 00:00:00 | |
| OK1SLM-15 | 2026-09-06 00:56:21 | 49.44379 | 15.75169 | 120° | 106km/h | 14223m | -19.2m/s | -56.6°C | 1.2% | 0hPa | 2.5V | 08:21:00 | 00:00:00 | 00:00:00 | |
| DO3MHA-11 | 2026-09-06 00:56:20 | 49.44392 | 15.75133 | 119° | 106km/h | 14242m | -19.8m/s | -56.4°C | 3.7% | 0hPa | 2.5V | 00:00:00 | 02:10:16 | 00:00:00 | |
| HA6NAB-11 | 2026-09-06 00:56:19 | 49.44392 | 15.75133 | 120° | 106km/h | 14242m | -19.8m/s | -56.5°C | 1.2% | 0hPa | 2.5V | 08:21:00 | 00:00:00 | 00:00:00 | |
| OE3MUC-15 | 2026-09-06 00:56:17 | 49.44430 | 15.75025 | 116° | 106km/h | 14300m | -20.6m/s | -56.2°C | 3.6% | 0hPa | 2.5V | 00:00:00 | 00:00:00 | 00:00:00 | |
| OE5DXL-15 | 2026-09-06 00:56:16 | 49.44442 | 15.74989 | 115° | 104km/h | 14320m | -20.4m/s | -56.2°C | 3.5% | 0hPa | 2.5V | 00:00:00 | 00:00:00 | 00:00:00 | |
| OK1SLM-15 | 2026-09-06 00:56:15 | 49.44453 | 15.74952 | 115° | 106km/h | 14341m | -20.1m/s | -56.4°C | 1.1% | 0hPa | 2.5V | 08:21:00 | 00:00:00 | 00:00:00 | |
| HA6NAB-11 | 2026-09-06 00:56:14 | 49.44464 | 15.74914 | 114° | 108km/h | 14360m | -19.8m/s | -56.3°C | 1.1% | 0hPa | 2.5V | 08:21:00 | 00:00:00 | 00:00:00 | |
| OE3MUC-15 | 2026-09-06 00:56:12 | 49.44486 | 15.74838 | 114° | 104km/h | 14398m | -20.3m/s | -56.1°C | 3.5% | 0hPa | 2.5V | 00:00:00 | 00:00:00 | 00:00:00 | |
| DO3MHA-11 | 2026-09-06 00:56:10 | 49.44507 | 15.74764 | 113° | 104km/h | 14437m | -20.5m/s | -55.9°C | 3.4% | 0hPa | 2.5V | 08:21:00 | 02:10:06 | 00:00:00 | |
| OK1SLM-15 | 2026-09-06 00:56:09 | 49.44517 | 15.74727 | 112° | 100km/h | 14457m | -21.1m/s | -56.1°C | 1.1% | 0hPa | 2.5V | 08:21:00 | 00:00:00 | 00:00:00 | |
| OE5MMP-10 | 2026-09-06 00:56:07 | 49.44536 | 15.74654 | 111° | 104km/h | 14498m | -21.1m/s | -56.0°C | 3.4% | 0hPa | 2.5V | 00:00:00 | 02:10:03 | 00:00:00 | |
| HA6NAB-11 | 2026-09-06 00:56:05 | 49.44554 | 15.74579 | 111° | 106km/h | 14540m | -21.0m/s | -56.1°C | 1.0% | 0hPa | 2.5V | 08:22:00 | 00:00:00 | 00:00:00 | |
| OE3MUC-15 | 2026-09-06 00:56:04 | 49.44564 | 15.74541 | 110° | 106km/h | 14561m | -20.7m/s | -56.2°C | 3.4% | 0hPa | 2.5V | 00:00:00 | 00:00:00 | 00:00:00 | |
| OE5DRO-10 | 2026-09-06 00:56:03 | 49.44573 | 15.74502 | 110° | 104km/h | 14581m | -20.6m/s | -56.3°C | 3.4% | 0hPa | 2.5V | 00:00:00 | 00:00:00 | 00:00:00 | |
| OK1SLM-15 | 2026-09-06 00:56:02 | 49.44573 | 15.74502 | 111° | 106km/h | 14581m | -20.7m/s | -56.4°C | 0.9% | 0hPa | 2.5V | 00:00:00 | 00:00:00 | 00:00:00 | |
| EDDB2-12 | 2026-09-06 00:55:56 | 49.44637 | 15.74233 | 110° | 106km/h | 14722m | -21.0m/s | -57.2°C | 0.9% | -1.0hPa | 2.5V | 00:00:00 | 00:00:00 | 00:00:00 | |
| OE3MUC-15 | 2026-09-06 00:55:54 | 49.44666 | 15.74120 | 112° | 104km/h | 14781m | -20.8m/s | -57.5°C | 3.7% | 0hPa | 2.5V | 00:00:00 | 00:00:00 | 00:00:00 | |
| DO3MHA-11 | 2026-09-06 00:55:50 | 49.44694 | 15.74007 | 110° | 104km/h | 14843m | -20.8m/s | -57.8°C | 3.8% | 0hPa | 2.5V | 00:00:00 | 02:09:46 | 00:00:00 | |
| OE3MUC-15 | 2026-09-06 00:55:48 | 49.44713 | 15.73930 | 111° | 104km/h | 14882m | -21.1m/s | -58.1°C | 3.8% | 0hPa | 2.5V | 00:00:00 | 00:00:00 | 00:00:00 | |
| OE5MMP-10 | 2026-09-06 00:55:47 | 49.44723 | 15.73892 | 112° | 104km/h | 14903m | -21.7m/s | -58.2°C | 3.9% | 0hPa | 2.5V | 00:00:00 | 02:09:43 | 00:00:00 | |
| HA6NAB-11 | 2026-09-06 00:55:46 | 49.44733 | 15.73854 | 113° | 104km/h | 14924m | -21.8m/s | -58.3°C | 1.1% | 0hPa | 2.5V | 08:22:00 | 00:00:00 | 00:00:00 | |
| OE5DRO-10 | 2026-09-06 00:55:44 | 49.44754 | 15.73780 | 113° | 104km/h | 14966m | -21.8m/s | -58.5°C | 4.0% | 0hPa | 2.5V | 00:00:00 | 00:00:00 | 00:00:00 | |
| OK1ALN | 2026-09-06 00:55:43 | 49.44764 | 15.73745 | 112° | 100km/h | 14987m | -22.0m/s | -58.6°C | 1.1% | 0hPa | 2.4V | 08:22:00 | 00:00:00 | 00:00:00 | |
| DO3MHA-11 | 2026-09-06 00:55:40 | 49.44793 | 15.73633 | 112° | 108km/h | 15051m | -21.3m/s | -58.5°C | 3.9% | 0hPa | 2.4V | 00:00:00 | 02:09:36 | 00:00:00 | |
| HA6NAB-11 | 2026-09-06 00:55:39 | 49.44793 | 15.73633 | 112° | 108km/h | 15051m | -21.3m/s | -58.6°C | 1.1% | 0hPa | 2.4V | 08:22:00 | 00:00:00 | 00:00:00 | |
| SONDE2-11 | 2026-09-06 00:55:38 | 49.44823 | 15.73517 | 112° | 108km/h | 15113m | -21.5m/s | -58.8°C | 0.8% | -1.0hPa | 2.4V | 00:00:00 | 00:00:00 | 00:00:00 | |
| OE5MMP-10 | 2026-09-06 00:55:37 | 49.44823 | 15.73517 | 113° | 106km/h | 15113m | -21.4m/s | -58.7°C | 4.0% | 0hPa | 2.4V | 00:00:00 | 02:09:33 | 00:00:00 | |
| OE3JTB-15 | 2026-09-06 00:55:36 | 49.44834 | 15.73478 | 115° | 89km/h | 15133m | -20.9m/s | -58.8°C | 3.9% | 0hPa | 2.4V | 08:21:00 | 00:00:00 | 00:00:00 | |
| PETON7-10 | 2026-09-06 00:55:35 | 49.44846 | 15.73440 | 116° | 102km/h | 15153m | -21.7m/s | -58.7°C | 3.9% | 0hPa | 2.4V | 00:00:00 | 00:00:00 | 00:00:00 | |
| HA6NAB-11 | 2026-09-06 00:55:34 | 49.44846 | 15.73440 | 116° | 108km/h | 15153m | -21.8m/s | -58.7°C | 1.0% | 0hPa | 2.4V | 08:22:00 | 00:00:00 | 00:00:00 | |
| EDDB2-11 | 2026-09-06 00:55:33 | 49.44880 | 15.73328 | 114° | 106km/h | 15216m | -21.9m/s | -58.7°C | 0.8% | -1.0hPa | 2.4V | 00:00:00 | 00:00:00 | 00:00:00 | |
| DO3MHA-11 | 2026-09-06 00:55:30 | 49.44904 | 15.73253 | 118° | 99km/h | 15258m | -21.7m/s | -58.5°C | 3.9% | 0hPa | 2.4V | 00:00:00 | 02:09:26 | 00:00:00 | |
| HA6NAB-11 | 2026-09-06 00:55:29 | 49.44917 | 15.73217 | 121° | 106km/h | 15280m | -22.4m/s | -58.3°C | 0.9% | 0hPa | 2.4V | 08:22:00 | 00:00:00 | 00:00:00 | |
| OE5MMP-10 | 2026-09-06 00:55:27 | 49.44944 | 15.73149 | 122° | 95km/h | 15323m | -21.8m/s | -58.0°C | 3.7% | 0hPa | 2.4V | 00:00:00 | 02:09:23 | 00:00:00 | |
| OK1ALN | 2026-09-06 00:55:21 | 49.45010 | 15.72990 | 124° | 95km/h | 15429m | -22.3m/s | -58.1°C | 0.8% | 0hPa | 2.5V | 08:22:00 | 00:00:00 | 00:00:00 | |
| OE3MUC-15 | 2026-09-06 00:55:20 | 49.45036 | 15.72929 | 123° | 91km/h | 15473m | -22.4m/s | -58.0°C | 3.6% | 0hPa | 2.5V | 00:00:00 | 00:00:00 | 00:00:00 | |
| OE5MMP-10 | 2026-09-06 00:55:17 | 49.45071 | 15.72839 | 119° | 91km/h | 15537m | -22.1m/s | -58.4°C | 3.7% | 0hPa | 2.4V | 00:00:00 | 02:09:13 | 00:00:00 | |
| OE3MUC-15 | 2026-09-06 00:55:16 | 49.45082 | 15.72808 | 119° | 86km/h | 15559m | -22.2m/s | -58.5°C | 3.6% | 0hPa | 2.4V | 00:00:00 | 00:00:00 | 00:00:00 | |
| NBG1-10 | 2026-09-06 00:55:14 | 49.45106 | 15.72747 | 120° | 84km/h | 15602m | -21.9m/s | -58.7°C | 3.8% | 0hPa | 2.4V | 00:00:00 | 02:09:10 | 00:00:00 | |
| HA6NAB-11 | 2026-09-06 00:55:13 | 49.45117 | 15.72717 | 121° | 91km/h | 15624m | -22.2m/s | -58.8°C | 0.8% | 0hPa | 2.4V | 00:00:00 | 00:00:00 | 00:00:00 | |
| DO3MHA-11 | 2026-09-06 00:55:10 | 49.45153 | 15.72624 | 124° | 89km/h | 15688m | -22.0m/s | -58.4°C | 3.7% | 0hPa | 2.4V | 00:00:00 | 02:09:06 | 00:00:00 | |
| OE5MMP-10 | 2026-09-06 00:55:07 | 49.45191 | 15.72534 | 124° | 88km/h | 15752m | -22.2m/s | -57.8°C | 3.6% | 0hPa | 2.4V | 00:00:00 | 02:09:03 | 00:00:00 | |
| SONDE2-11 | 2026-09-06 00:55:06 | 49.45204 | 15.72505 | 124° | 91km/h | 15774m | -22.4m/s | -57.5°C | 0.5% | -1.0hPa | 2.4V | 00:00:00 | 00:00:00 | 00:00:00 | |
| OK1SLM-15 | 2026-09-06 00:55:05 | 49.45218 | 15.72476 | 127° | 89km/h | 15796m | -22.5m/s | -57.5°C | 0.7% | 0hPa | 2.4V | 00:00:00 | 00:00:00 | 00:00:00 | |
| OK1ALN | 2026-09-06 00:55:01 | 49.45257 | 15.72393 | 125° | 84km/h | 15861m | -22.9m/s | -58.0°C | 0.7% | 0hPa | 2.4V | 08:23:00 | 00:00:00 | 00:00:00 | |
| EDDB2-12 | 2026-09-06 00:54:54 | 49.45357 | 15.72151 | 117° | 78km/h | 16061m | -22.3m/s | -57.7°C | 0.4% | -1.0hPa | 2.4V | 00:00:00 | 00:00:00 | 00:00:00 | |
| PETON7-10 | 2026-09-06 00:54:50 | 49.45385 | 15.72070 | 117° | 77km/h | 16126m | -23.3m/s | -57.3°C | 3.4% | 0hPa | 2.4V | 00:00:00 | 00:00:00 | 00:00:00 | |
| HA6NAB-11 | 2026-09-06 00:54:48 | 49.45394 | 15.72043 | 117° | 77km/h | 16149m | -23.8m/s | -57.2°C | 0.5% | 0hPa | 2.5V | 00:00:00 | 00:00:00 | 00:00:00 | |
| OE5MMP-10 | 2026-09-06 00:54:47 | 49.45411 | 15.71989 | 113° | 77km/h | 16194m | -23.4m/s | -57.1°C | 3.3% | 0hPa | 2.5V | 00:00:00 | 02:08:43 | 00:00:00 | |
| OE5DXL-15 | 2026-09-06 00:54:46 | 49.45419 | 15.71961 | 113° | 77km/h | 16217m | -23.2m/s | -57.0°C | 3.3% | 0hPa | 2.5V | 00:00:00 | 00:00:00 | 00:00:00 | |
| HA6NAB-11 | 2026-09-06 00:54:43 | 49.45442 | 15.71877 | 116° | 78km/h | 16285m | -23.6m/s | -57.1°C | 0.5% | 0hPa | 2.5V | 00:00:00 | 00:00:00 | 00:00:00 | |
| OK1ALN | 2026-09-06 00:54:41 | 49.45460 | 15.71824 | 115° | 75km/h | 16329m | -23.6m/s | -56.8°C | 0.5% | 0hPa | 2.5V | 08:23:00 | 00:00:00 | 00:00:00 | |
| DO3MHA-11 | 2026-09-06 00:54:40 | 49.45468 | 15.71798 | 113° | 78km/h | 16352m | -23.4m/s | -56.5°C | 3.2% | 0hPa | 2.5V | 08:22:00 | 02:08:36 | 00:00:00 | |
| HA6NAB-11 | 2026-09-06 00:54:37 | 49.45492 | 15.71717 | 117° | 80km/h | 16421m | -24.0m/s | -55.9°C | 0.2% | 0hPa | 2.4V | 00:00:00 | 00:00:00 | 00:00:00 | |
| OE3JTB-15 | 2026-09-06 00:54:36 | 49.45501 | 15.71689 | 119° | 71km/h | 16444m | -23.3m/s | -55.7°C | 3.0% | 0hPa | 2.4V | 00:00:00 | 00:00:00 | 00:00:00 | |
| PETON7-10 | 2026-09-06 00:54:35 | 49.45512 | 15.71662 | 121° | 78km/h | 16467m | -23.6m/s | -55.8°C | 2.9% | 0hPa | 2.4V | 00:00:00 | 00:00:00 | 00:00:00 | |
| OE3MUC-15 | 2026-09-06 00:54:33 | 49.45532 | 15.71609 | 121° | 78km/h | 16511m | -23.6m/s | -56.0°C | 3.0% | 0hPa | 2.4V | 00:00:00 | 00:00:00 | 00:00:00 | |
| EDDB2-11 | 2026-09-06 00:54:31 | 49.45564 | 15.71531 | 125° | 80km/h | 16581m | -23.9m/s | -56.1°C | 0.2% | -1.0hPa | 2.4V | 00:00:00 | 00:00:00 | 00:00:00 | |
| OE3MUC-15 | 2026-09-06 00:54:30 | 49.45576 | 15.71507 | 128° | 78km/h | 16604m | -23.8m/s | -55.9°C | 3.0% | 0hPa | 2.4V | 00:00:00 | 00:00:00 | 00:00:00 | |
| OE5DRO-10 | 2026-09-06 00:54:28 | 49.45588 | 15.71483 | 127° | 73km/h | 16627m | -23.3m/s | -56.0°C | 3.0% | 0hPa | 2.4V | 00:00:00 | 00:00:00 | 00:00:00 | |
| OE5MMP-10 | 2026-09-06 00:54:27 | 49.45601 | 15.71458 | 130° | 75km/h | 16650m | -23.6m/s | -56.0°C | 3.1% | 0hPa | 2.4V | 08:23:00 | 02:08:23 | 00:00:00 | |
| OE3MUC-15 | 2026-09-06 00:54:25 | 49.45627 | 15.71413 | 133° | 77km/h | 16695m | -23.3m/s | -55.8°C | 3.1% | 0hPa | 2.4V | 00:00:00 | 00:00:00 | 00:00:00 | |
| EDDB2-12 | 2026-09-06 00:54:23 | 49.45653 | 15.71370 | 131° | 75km/h | 16741m | -23.7m/s | -56.0°C | 0.2% | -1.0hPa | 2.4V | 00:00:00 | 00:00:00 | 00:00:00 | |
| OE3MUC-15 | 2026-09-06 00:54:21 | 49.45680 | 15.71325 | 133° | 73km/h | 16788m | -23.5m/s | -56.1°C | 3.2% | 0hPa | 2.4V | 08:23:00 | 00:00:00 | 00:00:00 | |
| OK1ALN | 2026-09-06 00:54:20 | 49.45693 | 15.71303 | 135° | 77km/h | 16811m | -23.8m/s | -56.2°C | 0.4% | 0hPa | 2.5V | 08:23:00 | 00:00:00 | 00:00:00 | |
| OE3MUC-15 | 2026-09-06 00:54:17 | 49.45730 | 15.71241 | 128° | 69km/h | 16882m | -23.4m/s | -55.9°C | 3.2% | 0hPa | 2.5V | 00:00:00 | 00:00:00 | 00:00:00 | |
| DO3MHA-11 | 2026-09-06 00:54:16 | 49.45741 | 15.71219 | 130° | 66km/h | 16905m | -24.1m/s | -55.9°C | 3.1% | 0hPa | 2.5V | 00:00:00 | 02:08:12 | 00:00:00 | |
| OE3MUC-15 | 2026-09-06 00:54:13 | 49.45773 | 15.71157 | 128° | 66km/h | 16974m | -23.4m/s | -55.9°C | 3.2% | 0hPa | 2.5V | 00:00:00 | 00:00:00 | 00:00:00 | |
| OE3MUC-15 | 2026-09-06 00:54:09 | 49.45814 | 15.71074 | 125° | 62km/h | 17068m | -24.7m/s | -55.2°C | 3.1% | 0hPa | 2.5V | 00:00:00 | 00:00:00 | 00:00:00 | |
| NBG1-10 | 2026-09-06 00:54:08 | 49.45822 | 15.71054 | 124° | 44km/h | 17093m | -25.5m/s | -55.0°C | 3.0% | 0hPa | 2.4V | 00:00:00 | 02:08:04 | 00:00:00 | |
| OE5MMP-10 | 2026-09-06 00:54:07 | 49.45831 | 15.71034 | 122° | 49km/h | 17118m | -24.9m/s | -54.8°C | 2.9% | 0hPa | 2.4V | 00:00:00 | 02:08:03 | 00:00:00 | |
| DO3MHA-11 | 2026-09-06 00:54:06 | 49.45840 | 15.71014 | 123° | 44km/h | 17142m | -24.5m/s | -54.8°C | 2.9% | 0hPa | 2.4V | 00:00:00 | 02:08:02 | 00:00:00 | |
| PETON7-10 | 2026-09-06 00:54:05 | 49.45848 | 15.70994 | 126° | 40km/h | 17165m | -24.7m/s | -54.7°C | 2.9% | 0hPa | 2.5V | 08:23:00 | 00:00:00 | 00:00:00 | |
| SONDE2-11 | 2026-09-06 00:54:04 | 49.45857 | 15.70976 | 125° | 55km/h | 17189m | -25.5m/s | -54.5°C | 0.2% | -1.0hPa | 2.5V | 00:00:00 | 00:00:00 | 00:00:00 | |
| OK1SLM-15 | 2026-09-06 00:54:03 | 49.45857 | 15.70976 | 127° | 55km/h | 17190m | -25.5m/s | -54.5°C | 0.3% | 0hPa | 2.5V | 00:00:00 | 00:00:00 | 00:00:00 | |
| EDDB2-11 | 2026-09-06 00:54:00 | 49.45889 | 15.70905 | 119° | 37km/h | 17312m | -25.4m/s | -53.8°C | 0.1% | -1.0hPa | 2.5V | 00:00:00 | 00:00:00 | 00:00:00 | |
| EDDB2-12 | 2026-09-06 00:53:52 | 49.45913 | 15.70806 | 96° | 33km/h | 17512m | -26.0m/s | -52.3°C | 0.1% | -1.0hPa | 2.5V | 00:00:00 | 00:00:00 | 00:00:00 | |
| PETON7-10 | 2026-09-06 00:53:50 | 49.45914 | 15.70793 | 96° | 44km/h | 17537m | -26.2m/s | -52.3°C | 2.3% | 0hPa | 2.5V | 00:00:00 | 00:00:00 | 00:00:00 | |
| OE3MUC-15 | 2026-09-06 00:53:49 | 49.45916 | 15.70778 | 93° | 40km/h | 17563m | -26.0m/s | -52.3°C | 2.3% | 0hPa | 2.5V | 00:00:00 | 00:00:00 | 00:00:00 | |
| OK1SLM-15 | 2026-09-06 00:53:47 | 49.45917 | 15.70748 | 95° | 42km/h | 17615m | -26.6m/s | -52.7°C | 0.2% | 0hPa | 2.5V | 00:00:00 | 00:00:00 | 00:00:00 | |
| OE5DXL-15 | 2026-09-06 00:53:46 | 49.45918 | 15.70732 | 96° | 51km/h | 17641m | -26.4m/s | -52.9°C | 2.4% | 0hPa | 2.5V | 00:00:00 | 00:00:00 | 00:00:00 | |
| OE3MUC-15 | 2026-09-06 00:53:45 | 49.45920 | 15.70715 | 97° | 44km/h | 17666m | -26.2m/s | -53.1°C | 2.4% | 0hPa | 2.5V | 08:23:00 | 00:00:00 | 00:00:00 | |
| DO3MHA-11 | 2026-09-06 00:53:42 | 49.45926 | 15.70666 | 102° | 49km/h | 17743m | -26.1m/s | -53.6°C | 2.5% | 0hPa | 2.4V | 00:00:00 | 02:07:38 | 00:00:00 | |
| PG1ADW-2 | 2026-09-06 00:53:40 | 49.45931 | 15.70631 | 99° | 55km/h | 17793m | -26.6m/s | -53.2°C | 2.4% | 0hPa | 2.4V | 00:00:00 | 00:00:00 | 00:00:00 | |
| OK1ALN | 2026-09-06 00:53:39 | 49.45934 | 15.70613 | 99° | 47km/h | 17819m | -26.6m/s | -53.0°C | 0.2% | 0hPa | 2.4V | 08:23:00 | 00:00:00 | 00:00:00 | |
| OE5MMP-10 | 2026-09-06 00:53:37 | 49.45938 | 15.70576 | 99° | 55km/h | 17870m | -27.2m/s | -53.2°C | 2.4% | 0hPa | 2.4V | 00:00:00 | 02:07:33 | 00:00:00 | |
| OE3JTB-15 | 2026-09-06 00:53:36 | 49.45940 | 15.70557 | 100° | 47km/h | 17897m | -27.0m/s | -53.4°C | 2.5% | 0hPa | 2.4V | 00:00:00 | 00:00:00 | 00:00:00 | |
| PETON7-10 | 2026-09-06 00:53:35 | 49.45943 | 15.70537 | 102° | 57km/h | 17924m | -26.8m/s | -53.6°C | 2.5% | 0hPa | 2.5V | 00:00:00 | 02:07:31 | 00:00:00 | |
| SONDE2-11 | 2026-09-06 00:53:33 | 49.45950 | 15.70496 | 105° | 55km/h | 17976m | -27.3m/s | -54.1°C | 0.1% | -1.0hPa | 2.5V | 00:00:00 | 00:00:00 | 00:00:00 | |
| DO3MHA-11 | 2026-09-06 00:53:32 | 49.45954 | 15.70475 | 109° | 57km/h | 18002m | -27.5m/s | -54.2°C | 2.7% | 0hPa | 2.5V | 00:00:00 | 02:07:28 | 00:00:00 | |
| EDDB2-11 | 2026-09-06 00:53:29 | 49.45974 | 15.70395 | 111° | 55km/h | 18108m | -27.8m/s | -54.3°C | 0.1% | -1.0hPa | 2.5V | 00:00:00 | 00:00:00 | 00:00:00 | |
| OE5MMP-10 | 2026-09-06 00:53:27 | 49.45980 | 15.70375 | 112° | 55km/h | 18135m | -27.7m/s | -54.3°C | 2.7% | 0hPa | 2.5V | 00:00:00 | 02:07:23 | 00:00:00 | |
| SP3BTT-10 | 2026-09-06 00:53:25 | 49.45991 | 15.70334 | 112° | 35km/h | 18190m | -28.1m/s | -54.7°C | 2.8% | 0hPa | 2.5V | 00:00:00 | 00:00:00 | 00:00:00 | |
| DO3MHA-11 | 2026-09-06 00:53:22 | 49.46009 | 15.70271 | 115° | 47km/h | 18270m | -26.2m/s | -55.1°C | 2.9% | 0hPa | 2.5V | 00:00:00 | 02:07:18 | 00:00:00 | |
| EDDB2-12 | 2026-09-06 00:53:21 | 49.46020 | 15.70232 | 111° | 51km/h | 18322m | -27.4m/s | -55.5°C | 0.1% | -1.0hPa | 2.5V | 00:00:00 | 00:00:00 | 00:00:00 | |
| PETON7-10 | 2026-09-06 00:53:20 | 49.46020 | 15.70232 | 112° | 40km/h | 18322m | -27.4m/s | -55.4°C | 2.9% | 0hPa | 2.5V | 00:00:00 | 00:00:00 | 00:00:00 | |
| OE5MMP-10 | 2026-09-06 00:53:17 | 49.46035 | 15.70176 | 112° | 38km/h | 18400m | -26.7m/s | -55.6°C | 3.0% | 0hPa | 2.5V | 00:00:00 | 02:07:13 | 00:00:00 | |
| OE5DXL-15 | 2026-09-06 00:53:16 | 49.46039 | 15.70160 | 108° | 42km/h | 18426m | -25.5m/s | -55.5°C | 3.0% | 0hPa | 2.5V | 00:00:00 | 00:00:00 | 00:00:00 | |
| OE3MUC-15 | 2026-09-06 00:53:13 | 49.46048 | 15.70111 | 104° | 37km/h | 18503m | -27.1m/s | -55.1°C | 2.9% | 0hPa | 2.5V | 00:00:00 | 00:00:00 | 00:00:00 | |
| OE5DRO-10 | 2026-09-06 00:53:12 | 49.46051 | 15.70095 | 108° | 38km/h | 18529m | -27.3m/s | -54.5°C | 2.8% | 0hPa | 2.5V | 00:00:00 | 00:00:00 | 00:00:00 | |
| S52SK | 2026-09-06 00:53:10 | 49.46054 | 15.70082 | 107° | 33km/h | 18556m | -26.7m/s | -54.1°C | 0.2% | 0hPa | 2.5V | 00:00:00 | 00:00:00 | 00:00:00 | |
| OE3MUC-15 | 2026-09-06 00:53:09 | 49.46058 | 15.70058 | 103° | 31km/h | 18608m | -27.0m/s | -54.1°C | 2.6% | 0hPa | 2.5V | 08:24:00 | 00:00:00 | 00:00:00 | |
| OE5MMP-10 | 2026-09-06 00:53:07 | 49.46063 | 15.70035 | 107° | 40km/h | 18662m | -28.2m/s | -54.4°C | 2.7% | 0hPa | 2.5V | 00:00:00 | 02:07:03 | 00:00:00 | |
| S52SK | 2026-09-06 00:53:05 | 49.46067 | 15.70012 | 107° | 33km/h | 18718m | -29.0m/s | -54.7°C | 0.2% | 0hPa | 2.5V | 00:00:00 | 00:00:00 | 00:00:00 | |
| NBG1-10 | 2026-09-06 00:53:02 | 49.46077 | 15.69969 | 114° | 46km/h | 18800m | -27.1m/s | -54.0°C | 2.6% | 0hPa | 2.5V | 00:00:00 | 02:06:58 | 00:00:00 | |
| EDDB2-11 | 2026-09-06 00:52:58 | 49.46100 | 15.69891 | 111° | 47km/h | 18936m | -28.2m/s | -54.5°C | 0.1% | -1.0hPa | 2.5V | 00:00:00 | 00:00:00 | 00:00:00 | |
| EDDB2-12 | 2026-09-06 00:52:50 | 49.46123 | 15.69753 | 94° | 46km/h | 19160m | -27.4m/s | -54.9°C | 0.1% | -1.0hPa | 2.5V | 00:00:00 | 00:00:00 | 00:00:00 | |
| OE3MUC-15 | 2026-09-06 00:52:49 | 49.46123 | 15.69753 | 95° | 47km/h | 19160m | -27.3m/s | -54.8°C | 2.8% | 0hPa | 2.5V | 00:00:00 | 00:00:00 | 00:00:00 | |
| OK1SLM-15 | 2026-09-06 00:52:48 | 49.46123 | 15.69753 | 96° | 47km/h | 19160m | -27.4m/s | -54.9°C | 0.2% | 0hPa | 2.5V | 00:00:00 | 00:00:00 | 00:00:00 | |
| OE5MMP-10 | 2026-09-06 00:52:47 | 49.46125 | 15.69717 | 98° | 47km/h | 19215m | -28.4m/s | -55.0°C | 2.9% | 0hPa | 2.5V | 00:00:00 | 02:06:43 | 00:00:00 | |
| OE5DXL-15 | 2026-09-06 00:52:46 | 49.46127 | 15.69698 | 92° | 44km/h | 19243m | -28.6m/s | -55.2°C | 3.0% | 0hPa | 2.5V | 00:00:00 | 00:00:00 | 00:00:00 | |
| OE3MUC-15 | 2026-09-06 00:52:45 | 49.46127 | 15.69680 | 95° | 46km/h | 19272m | -28.4m/s | -55.4°C | 3.0% | 0hPa | 2.5V | 00:00:00 | 00:00:00 | 00:00:00 | |
| OK1SLM-15 | 2026-09-06 00:52:43 | 49.46128 | 15.69662 | 95° | 46km/h | 19299m | -29.2m/s | -55.6°C | 0.2% | 0hPa | 2.5V | 00:00:00 | 00:00:00 | 00:00:00 | |
| OE3MUC-15 | 2026-09-06 00:52:41 | 49.46133 | 15.69608 | 102° | 49km/h | 19385m | -29.0m/s | -55.3°C | 3.1% | 0hPa | 2.5V | 00:00:00 | 00:00:00 | 00:00:00 | |
| DO3MHA-11 | 2026-09-06 00:52:40 | 49.46136 | 15.69590 | 104° | 46km/h | 19413m | -28.4m/s | -55.2°C | 3.1% | 0hPa | 2.5V | 00:00:00 | 02:06:36 | 00:00:00 | |
| DB0UT-7 | 2026-09-06 00:52:39 | 49.46139 | 15.69572 | 106° | 22km/h | 19441m | -28.3m/s | -55.2°C | 3.0% | 0hPa | 2.5V | 00:00:00 | 02:06:35 | 00:00:00 | |
| OE3JTB-15 | 2026-09-06 00:52:38 | 49.46143 | 15.69554 | 111° | 37km/h | 19469m | -28.9m/s | -55.2°C | 3.1% | 0hPa | 2.5V | 00:00:00 | 02:06:34 | 00:00:00 | |
| OE5MMP-10 | 2026-09-06 00:52:37 | 49.46147 | 15.69536 | 112° | 46km/h | 19497m | -29.7m/s | -55.3°C | 3.1% | 0hPa | 2.5V | 00:00:00 | 02:06:33 | 00:00:00 | |
| PETON7-10 | 2026-09-06 00:52:35 | 49.46157 | 15.69503 | 113° | 42km/h | 19555m | -30.2m/s | -55.2°C | 3.1% | 0hPa | 2.5V | 00:00:00 | 00:00:00 | 00:00:00 | |
| OE5DRO-10 | 2026-09-06 00:52:34 | 49.46162 | 15.69487 | 115° | 38km/h | 19586m | -30.5m/s | -55.3°C | 3.1% | 0hPa | 2.5V | 00:00:00 | 00:00:00 | 00:00:00 | |
| SONDE2-11 | 2026-09-06 00:52:31 | 49.46175 | 15.69440 | 110° | 46km/h | 19675m | -29.9m/s | -54.9°C | 0.0% | -1.0hPa | 2.5V | 00:00:00 | 00:00:00 | 00:00:00 | |
| DO3MHA-11 | 2026-09-06 00:52:30 | 49.46180 | 15.69424 | 114° | 42km/h | 19704m | -28.0m/s | -54.6°C | 3.0% | 0hPa | 2.5V | 00:00:00 | 02:06:26 | 00:00:00 | |
| OE3MUC-15 | 2026-09-06 00:52:29 | 49.46184 | 15.69409 | 119° | 44km/h | 19732m | -28.6m/s | -54.4°C | 2.9% | 0hPa | 2.5V | 00:00:00 | 00:00:00 | 00:00:00 | |
| HARRO8 | 2026-09-06 00:52:28 | 49.46196 | 15.69381 | 124° | 42km/h | 19790m | -29.7m/s | -54.2°C | 0.1% | -1.0hPa | 2.5V | 00:00:00 | 00:00:00 | 00:00:00 | |
| OE5MMP-10 | 2026-09-06 00:52:27 | 49.46196 | 15.69381 | 125° | 37km/h | 19790m | -29.6m/s | -54.2°C | 2.8% | 0hPa | 2.5V | 00:00:00 | 02:06:23 | 00:00:00 | |
| EDDB2-11 | 2026-09-06 00:52:26 | 49.46202 | 15.69367 | 128° | 42km/h | 19820m | -30.6m/s | -54.1°C | 0.0% | -1.0hPa | 2.5V | 00:00:00 | 00:00:00 | 00:00:00 | |
| OE3MUC-15 | 2026-09-06 00:52:25 | 49.46209 | 15.69355 | 133° | 40km/h | 19849m | -30.3m/s | -53.9°C | 2.7% | 0hPa | 2.5V | 00:00:00 | 00:00:00 | 00:00:00 | |
| OE3MUC-15 | 2026-09-06 00:52:21 | 49.46237 | 15.69312 | 144° | 33km/h | 19965m | -30.0m/s | -52.8°C | 2.4% | 0hPa | 2.5V | 00:00:00 | 00:00:00 | 00:00:00 | |
| DO3MHA-11 | 2026-09-06 00:52:20 | 49.46245 | 15.69304 | 149° | 24km/h | 19995m | -31.6m/s | -52.6°C | 2.4% | 0hPa | 2.5V | 00:00:00 | 02:06:16 | 00:00:00 | |
| EDDB2-12 | 2026-09-06 00:52:19 | 49.46260 | 15.69295 | 162° | 26km/h | 20057m | -31.1m/s | -51.5°C | 0.0% | -1.0hPa | 2.5V | 00:00:00 | 00:00:00 | 00:00:00 | |
| OE3MUC-15 | 2026-09-06 00:52:17 | 49.46267 | 15.69293 | 166° | 24km/h | 20088m | -30.9m/s | -51.2°C | 2.1% | 0hPa | 2.5V | 00:00:00 | 00:00:00 | 00:00:00 | |
| OE5DXL-15 | 2026-09-06 00:52:16 | 49.46273 | 15.69291 | 169° | 20km/h | 20119m | -30.3m/s | -51.2°C | 2.1% | 0hPa | 2.5V | 08:25:00 | 00:00:00 | 00:00:00 | |
| OE5DRO-10 | 2026-09-06 00:52:15 | 49.46279 | 15.69290 | 177° | 13km/h | 20148m | -30.4m/s | -51.4°C | 2.1% | 0hPa | 2.4V | 00:00:00 | 00:00:00 | 00:00:00 | |
| DB0ND-19 | 2026-09-06 00:52:14 | 49.46290 | 15.69292 | 186° | 16km/h | 20209m | -31.9m/s | -51.5°C | -1.0% | -1.0hPa | 2.4V | 00:00:00 | 00:00:00 | 00:00:00 | |
| OE3MUC-15 | 2026-09-06 00:52:13 | 49.46290 | 15.69292 | 187° | 16km/h | 20209m | -31.8m/s | -51.4°C | 2.1% | 0hPa | 2.4V | 00:00:00 | 00:00:00 | 00:00:00 | |
| DO3MHA-11 | 2026-09-06 00:52:10 | 49.46303 | 15.69299 | 222° | 11km/h | 20306m | -34.4m/s | -52.1°C | 2.3% | 0hPa | 2.4V | 00:00:00 | 02:06:06 | 00:00:00 | |
| OE3MUC-15 | 2026-09-06 00:52:09 | 49.46306 | 15.69303 | 217° | 15km/h | 20340m | -33.5m/s | -52.4°C | 2.3% | 0hPa | 2.4V | 00:00:00 | 00:00:00 | 00:00:00 | |
| OE5MMP-10 | 2026-09-06 00:52:07 | 49.46313 | 15.69311 | 217° | 9km/h | 20406m | -32.7m/s | -52.9°C | 2.4% | 0hPa | 2.5V | 00:00:00 | 02:06:03 | 00:00:00 | |
| PETON7-10 | 2026-09-06 00:52:05 | 49.46318 | 15.69318 | 235° | 16km/h | 20470m | -32.1m/s | -53.4°C | 2.5% | 0hPa | 2.5V | 00:00:00 | 02:06:01 | 00:00:00 | |
| SONDE2-11 | 2026-09-06 00:52:00 | 49.46321 | 15.69318 | 55° | 7km/h | 20637m | -35.0m/s | -54.6°C | 0.0% | -1.0hPa | 2.5V | 00:00:00 | 00:00:00 | 00:00:00 | |
| EDDB2-11 | 2026-09-06 00:51:55 | 49.46309 | 15.69291 | 60° | 22km/h | 20813m | -34.4m/s | -54.0°C | 0.0% | -1.0hPa | 2.5V | 00:00:00 | 00:00:00 | 00:00:00 | |
| EDDB2-12 | 2026-09-06 00:51:48 | 49.46282 | 15.69218 | 77° | 31km/h | 21092m | -37.5m/s | -54.6°C | 0.0% | -1.0hPa | 2.5V | 00:00:00 | 00:00:00 | 00:00:00 | |
| OE5MMP-10 | 2026-09-06 00:51:47 | 49.46282 | 15.69218 | 78° | 38km/h | 21092m | -37.4m/s | -54.5°C | 2.9% | 0hPa | 2.5V | 00:00:00 | 02:05:43 | 00:00:00 | |
| OE3MUC-15 | 2026-09-06 00:51:45 | 49.46280 | 15.69190 | 92° | 42km/h | 21166m | -36.5m/s | -53.7°C | 2.8% | 0hPa | 2.5V | 00:00:00 | 00:00:00 | 00:00:00 | |
| OE5DXL-15 | 2026-09-06 00:51:44 | 49.46281 | 15.69174 | 93° | 29km/h | 21201m | -35.8m/s | -53.6°C | 2.7% | 0hPa | 2.5V | 00:00:00 | 00:00:00 | 00:00:00 | |
| OM5KV | 2026-09-06 00:51:43 | 49.46281 | 15.69174 | 94° | 42km/h | 21201m | -35.9m/s | -53.7°C | 0.1% | 0hPa | 2.5V | 08:26:00 | 00:00:00 | 00:00:00 | |
| HA6NAB-11 | 2026-09-06 00:51:42 | 49.46282 | 15.69142 | 94° | 46km/h | 21272m | -35.8m/s | -53.7°C | 0.1% | 0hPa | 2.5V | 00:00:00 | 00:00:00 | 00:00:00 | |
| OM5KV | 2026-09-06 00:51:41 | 49.46282 | 15.69142 | 94° | 46km/h | 21272m | -35.8m/s | -53.7°C | 0.1% | 0hPa | 2.5V | 08:26:00 | 00:00:00 | 00:00:00 | |
| OK1SLM-15 | 2026-09-06 00:51:40 | 49.46284 | 15.69111 | 98° | 38km/h | 21343m | -36.4m/s | -53.5°C | 0.0% | 0hPa | 2.5V | 00:00:00 | 00:00:00 | 00:00:00 | |
| OM5KV | 2026-09-06 00:51:38 | 49.46286 | 15.69097 | 101° | 35km/h | 21378m | -37.0m/s | -53.3°C | 0.1% | 0hPa | 2.5V | 08:26:00 | 00:00:00 | 00:00:00 | |
| OE5MMP-10 | 2026-09-06 00:51:37 | 49.46290 | 15.69073 | 103° | 27km/h | 21450m | -36.1m/s | -52.8°C | 2.6% | 0hPa | 2.5V | 00:00:00 | 02:05:33 | 00:00:00 | |
| OK1ALN | 2026-09-06 00:51:35 | 49.46294 | 15.69052 | 109° | 31km/h | 21520m | -35.6m/s | -52.7°C | 0.1% | 0hPa | 2.5V | 08:26:00 | 00:00:00 | 00:00:00 | |
| S52SK | 2026-09-06 00:51:33 | 49.46296 | 15.69040 | 107° | 31km/h | 21555m | -37.0m/s | -52.6°C | 0.0% | 0hPa | 2.5V | 00:00:00 | 00:00:00 | 00:00:00 | |
| OM5KV | 2026-09-06 00:51:31 | 49.46303 | 15.69009 | 106° | 27km/h | 21667m | -37.6m/s | -52.7°C | 0.1% | 0hPa | 2.5V | 08:26:00 | 00:00:00 | 00:00:00 | |
| HA6NAB-11 | 2026-09-06 00:51:30 | 49.46305 | 15.68999 | 100° | 22km/h | 21704m | -38.5m/s | -52.5°C | 0% | 0hPa | 2.5V | 00:00:00 | 00:00:00 | 00:00:00 | |
| SONDE2-11 | 2026-09-06 00:51:29 | 49.46307 | 15.68990 | 97° | 26km/h | 21742m | -37.8m/s | -52.5°C | 0.0% | -1.0hPa | 2.5V | 00:00:00 | 00:00:00 | 00:00:00 | |
| S52SK | 2026-09-06 00:51:28 | 49.46306 | 15.68990 | 98° | 26km/h | 21742m | -37.8m/s | -52.5°C | 0.0% | 0hPa | 2.5V | 00:00:00 | 00:00:00 | 00:00:00 | |
| OE5MMP-10 | 2026-09-06 00:51:27 | 49.46309 | 15.68973 | 101° | 24km/h | 21813m | -37.3m/s | -52.2°C | 2.4% | 0hPa | 2.5V | 08:26:00 | 02:05:23 | 00:00:00 | |
| EDDB2-11 | 2026-09-06 00:51:24 | 49.46314 | 15.68951 | 119° | 22km/h | 21923m | -37.2m/s | -52.1°C | 0.0% | -1.0hPa | 2.5V | 00:00:00 | 00:00:00 | 00:00:00 | |
| NBG1-10 | 2026-09-06 00:51:22 | 49.46322 | 15.68936 | 131° | 18km/h | 21998m | -38.1m/s | -52.1°C | 2.4% | 0hPa | 2.5V | 00:00:00 | 02:05:18 | 00:00:00 | |
| OE3MUC-15 | 2026-09-06 00:51:21 | 49.46326 | 15.68929 | 135° | 26km/h | 22035m | -37.9m/s | -52.1°C | 2.4% | 0hPa | 2.5V | 08:26:00 | 00:00:00 | 00:00:00 | |
| DO3MHA-11 | 2026-09-06 00:51:20 | 49.46331 | 15.68922 | 138° | 22km/h | 22073m | -38.6m/s | -52.1°C | 2.4% | 0hPa | 2.6V | 00:00:00 | 02:05:16 | 00:00:00 | |
| OE5DRO-10 | 2026-09-06 00:51:18 | 49.46342 | 15.68910 | 151° | 16km/h | 22149m | -39.4m/s | -51.8°C | 2.3% | 0hPa | 2.6V | 00:00:00 | 00:00:00 | 00:00:00 | |
| OE5MMP-10 | 2026-09-06 00:51:17 | 49.46348 | 15.68905 | 152° | 16km/h | 22187m | -39.1m/s | -51.8°C | 2.3% | 0hPa | 2.6V | 00:00:00 | 02:05:13 | 00:00:00 | |
| EDDB2-12 | 2026-09-06 00:51:16 | 49.46354 | 15.68901 | 151° | 26km/h | 22226m | -39.7m/s | -52.0°C | 0.0% | -1.0hPa | 2.6V | 00:00:00 | 00:00:00 | 00:00:00 | |
| OM5KV | 2026-09-06 00:51:15 | 49.46354 | 15.68901 | 153° | 26km/h | 22227m | -39.7m/s | -51.9°C | 0.1% | 0hPa | 2.6V | 08:26:00 | 00:00:00 | 00:00:00 | |
| OE5DXL-15 | 2026-09-06 00:51:14 | 49.46364 | 15.68893 | 152° | 16km/h | 22304m | -38.2m/s | -52.1°C | 2.4% | 0hPa | 2.6V | 00:00:00 | 02:05:10 | 00:00:00 | |
| OE3MUC-15 | 2026-09-06 00:51:13 | 49.46369 | 15.68890 | 152° | 15km/h | 22342m | -38.4m/s | -52.1°C | 2.3% | 0hPa | 2.6V | 00:00:00 | 00:00:00 | 00:00:00 | |
| OM5KV | 2026-09-06 00:51:12 | 49.46372 | 15.68888 | 159° | 15km/h | 22380m | -38.2m/s | -51.9°C | 0.0% | 0hPa | 2.6V | 08:26:00 | 00:00:00 | 00:00:00 | |
| DO3MHA-11 | 2026-09-06 00:51:10 | 49.46379 | 15.68884 | 158° | 13km/h | 22458m | -41.0m/s | -51.9°C | 2.3% | 0hPa | 2.6V | 00:00:00 | 02:05:06 | 00:00:00 | |
| OE3MUC-15 | 2026-09-06 00:51:09 | 49.46381 | 15.68882 | 132° | 9km/h | 22499m | -41.5m/s | -52.1°C | 2.4% | 0hPa | 2.6V | 00:00:00 | 00:00:00 | 00:00:00 | |
| OM5KV | 2026-09-06 00:51:07 | 49.46384 | 15.68877 | 126° | 11km/h | 22581m | -40.6m/s | -52.5°C | 0.0% | 0hPa | 2.5V | 08:26:00 | 00:00:00 | 00:00:00 | |
| PETON7-10 | 2026-09-06 00:51:05 | 49.46388 | 15.68873 | 134° | 20km/h | 22659m | -39.2m/s | -52.7°C | 2.5% | 0hPa | 2.5V | 00:00:00 | 00:00:00 | 00:00:00 | |
| OM5KV | 2026-09-06 00:51:04 | 49.46388 | 15.68873 | 135° | 9km/h | 22659m | -39.3m/s | -52.7°C | 0.1% | 0hPa | 2.6V | 08:26:00 | 00:00:00 | 00:00:00 | |
| OM5KV | 2026-09-06 00:51:03 | 49.46390 | 15.68869 | 128° | 15km/h | 22697m | -39.4m/s | -52.9°C | 0.1% | 0hPa | 2.6V | 08:26:00 | 00:00:00 | 00:00:00 | |
| SONDE2-11 | 2026-09-06 00:50:58 | 49.46414 | 15.68839 | 144° | 26km/h | 22937m | -40.2m/s | -53.1°C | 0.0% | -1.0hPa | 2.6V | 00:00:00 | 00:00:00 | 00:00:00 | |
| EDDB2-11 | 2026-09-06 00:50:53 | 49.46441 | 15.68817 | 149° | 20km/h | 23137m | -40.9m/s | -52.6°C | 0.0% | -1.0hPa | 2.6V | 00:00:00 | 00:00:00 | 00:00:00 | |
| EDDB2-12 | 2026-09-06 00:50:46 | 49.46474 | 15.68799 | 168° | 15km/h | 23445m | -39.5m/s | -52.6°C | 0.0% | -1.0hPa | 2.6V | 00:00:00 | 00:00:00 | 00:00:00 | |
| OE3MUC-15 | 2026-09-06 00:50:45 | 49.46474 | 15.68799 | 169° | 15km/h | 23445m | -39.5m/s | -52.5°C | 2.6% | 0hPa | 2.6V | 08:26:00 | 00:00:00 | 00:00:00 | |
| OE5DXL-15 | 2026-09-06 00:50:44 | 49.46478 | 15.68799 | 181° | 13km/h | 23483m | -38.1m/s | -52.2°C | 2.6% | 0hPa | 2.5V | 00:00:00 | 00:00:00 | 00:00:00 | |
| OM5KV | 2026-09-06 00:50:43 | 49.46478 | 15.68799 | 181° | 18km/h | 23483m | -38.2m/s | -52.3°C | 0% | 0hPa | 2.6V | 08:27:00 | 00:00:00 | 00:00:00 | |
| OM5KV | 2026-09-06 00:50:42 | 49.46482 | 15.68799 | 191° | 15km/h | 23521m | -38.7m/s | -51.9°C | 0.0% | 0hPa | 2.6V | 08:27:00 | 00:00:00 | 00:00:00 | |
| OE3MUC-15 | 2026-09-06 00:50:41 | 49.46490 | 15.68801 | 175° | 9km/h | 23597m | -37.5m/s | -51.5°C | 2.4% | 0hPa | 2.6V | 00:00:00 | 00:00:00 | 00:00:00 | |
| DO3MHA-11 | 2026-09-06 00:50:40 | 49.46492 | 15.68801 | 183° | 7km/h | 23634m | -37.9m/s | -51.5°C | 2.4% | 0hPa | 2.6V | 00:00:00 | 02:04:36 | 00:00:00 | |
| OM5KV | 2026-09-06 00:50:38 | 49.46498 | 15.68802 | 163° | 7km/h | 23709m | -40.5m/s | -51.5°C | 0.0% | 0hPa | 2.6V | 08:27:00 | 00:00:00 | 00:00:00 | |
| OE5MMP-10 | 2026-09-06 00:50:37 | 49.46499 | 15.68801 | 165° | 5km/h | 23751m | -42.3m/s | -51.5°C | 2.4% | 0hPa | 2.6V | 00:00:00 | 02:04:33 | 00:00:00 | |
| OK1SLM-15 | 2026-09-06 00:50:36 | 49.46499 | 15.68801 | 165° | 7km/h | 23751m | -42.3m/s | -51.6°C | 0% | 0hPa | 2.6V | 00:00:00 | 00:00:00 | 00:00:00 | |
| PETON7-10 | 2026-09-06 00:50:35 | 49.46504 | 15.68801 | 169° | 11km/h | 23834m | -42.0m/s | -51.6°C | 2.4% | 0hPa | 2.6V | 00:00:00 | 02:04:31 | 00:00:00 | |
| OM5KV | 2026-09-06 00:50:34 | 49.46504 | 15.68801 | 169° | 9km/h | 23834m | -42.0m/s | -51.6°C | 0% | 0hPa | 2.6V | 08:27:00 | 00:00:00 | 00:00:00 | |
| OE3MUC-15 | 2026-09-06 00:50:33 | 49.46508 | 15.68800 | 179° | 5km/h | 23919m | -44.0m/s | -51.3°C | 2.3% | 0hPa | 2.6V | 00:00:00 | 00:00:00 | 00:00:00 | |
| OK1ALN | 2026-09-06 00:50:32 | 49.46508 | 15.68800 | 179° | 7km/h | 23919m | -44.0m/s | -51.3°C | 0% | 0hPa | 2.6V | 08:27:00 | 00:00:00 | 00:00:00 | |
| AA1-15 | 2026-09-06 00:50:15 | 49.46459 | 15.68804 | 60° | 20km/h | 24692m | -44.1m/s | -51.4°C | 0% | 0hPa | 2.6V | 08:28:08 | 02:04:11 | 00:00:00 | |
| OM5KV | 2026-09-06 00:50:14 | 49.46457 | 15.68798 | 66° | 16km/h | 24735m | -42.6m/s | 0°C | 0% | 0hPa | 2.5V | 08:27:00 | 00:00:00 | 00:00:00 | |
| OM5KV | 2026-09-06 00:50:13 | 49.46457 | 15.68798 | 66° | 16km/h | 24735m | -42.6m/s | 0°C | 0% | 0hPa | 2.5V | 08:27:00 | 00:00:00 | 00:00:00 | |
| AA1-15 | 2026-09-06 00:49:57 | 49.46448 | 15.68715 | 63° | 16km/h | 25550m | -49.6m/s | -49.8°C | 0% | 0hPa | 2.5V | 08:28:08 | 02:03:52 | 00:00:00 | |
| AA1-15 | 2026-09-06 00:49:46 | 49.46441 | 15.68658 | 108° | 15km/h | 26041m | -44.8m/s | -49.8°C | 0% | 0hPa | 2.6V | 08:28:08 | 02:03:41 | 00:00:00 | |
| AA1-15 | 2026-09-06 00:49:35 | 49.46477 | 15.68587 | 136° | 16km/h | 26539m | -45.6m/s | -49.8°C | 0% | 0hPa | 2.5V | 08:28:08 | 02:03:30 | 00:00:00 | |
| AA1-15 | 2026-09-06 00:49:24 | 49.46500 | 15.68538 | 147° | 20km/h | 27018m | -46.9m/s | -48.9°C | 0% | 0hPa | 2.5V | 08:28:08 | 02:03:20 | 00:00:00 | |
| AA1-15 | 2026-09-06 00:49:14 | 49.46555 | 15.68533 | 176° | 7km/h | 27612m | -51.2m/s | -46.5°C | 0% | 0hPa | 2.5V | 08:29:50 | 02:03:08 | 00:00:00 | |
| AA1-15 | 2026-09-06 00:49:02 | 49.46578 | 15.68518 | 141° | 11km/h | 28110m | -49.4m/s | -46.2°C | 0% | 0hPa | 2.6V | 08:29:50 | 02:02:58 | 00:00:00 | |
| AA1-15 | 2026-09-06 00:48:52 | 49.46611 | 15.68487 | 145° | 16km/h | 28677m | -54.5m/s | -45.9°C | 0% | 0hPa | 2.6V | 08:29:50 | 02:02:47 | 00:00:00 | |
| HARRO8 | 2026-09-06 00:48:50 | 49.46615 | 15.68483 | 149° | 16km/h | 28731m | -53.9m/s | -45.8°C | 0.0% | -1.0hPa | 2.5V | 00:00:00 | 00:00:00 | 00:00:00 | |
| EDDB2-11 | 2026-09-06 00:48:49 | 49.46620 | 15.68479 | 155° | 20km/h | 28786m | -54.5m/s | -45.8°C | 0.0% | -1.0hPa | 2.5V | 00:00:00 | 00:00:00 | 00:00:00 | |
| AA1-15 | 2026-09-06 00:48:40 | 49.46667 | 15.68456 | 169° | 20km/h | 29230m | -48.2m/s | -45.7°C | 0% | 0hPa | 2.5V | 08:29:50 | 02:02:36 | 00:00:00 | |
| AA1-15 | 2026-09-06 00:48:29 | 49.46696 | 15.68426 | 106° | 13km/h | 29799m | -54.8m/s | -44.4°C | 0% | 0hPa | 2.5V | 08:29:50 | 02:02:25 | 00:00:00 | |
| AA1-15 | 2026-09-06 00:48:14 | 49.46719 | 15.68383 | 129° | 7km/h | 30671m | -60.7m/s | -41.7°C | 0% | 0hPa | 2.6V | 08:29:50 | 02:02:10 | 00:00:00 | |
| AA1-15 | 2026-09-06 00:48:03 | 49.46709 | 15.68348 | 67° | 20km/h | 31273m | -51.5m/s | -43.1°C | 0% | 0hPa | 2.6V | 08:29:50 | 02:01:59 | 00:00:00 | |
| AA1-15 | 2026-09-06 00:47:53 | 49.46715 | 15.68287 | 95° | 13km/h | 31761m | -50.7m/s | -43°C | 0% | 0hPa | 2.5V | 08:29:50 | 02:01:49 | 00:00:00 | |
| SONDE2-11 | 2026-09-06 00:47:52 | 49.46714 | 15.68277 | 64° | 13km/h | 31862m | -50.7m/s | -42.9°C | 0.0% | -1.0hPa | 2.5V | 00:00:00 | 00:00:00 | 00:00:00 | |
| HARRO8 | 2026-09-06 00:47:48 | 49.46710 | 15.68260 | 62° | 15km/h | 32017m | -55.1m/s | -42.3°C | 0.0% | -1.0hPa | 2.5V | 00:00:00 | 00:00:00 | 00:00:00 | |
| EDDB2-11 | 2026-09-06 00:47:47 | 49.46705 | 15.68249 | 55° | 18km/h | 32125m | -53.8m/s | -42.5°C | 0.0% | -1.0hPa | 2.5V | 00:00:00 | 00:00:00 | 00:00:00 | |
| AA1-15 | 2026-09-06 00:47:42 | 49.46681 | 15.68212 | 49° | 27km/h | 32455m | -57.1m/s | -42.1°C | 0% | 0hPa | 2.5V | 08:29:50 | 02:01:36 | 00:00:00 | |
| AA1-15 | 2026-09-06 00:47:30 | 49.46641 | 15.68101 | 62° | 35km/h | 32976m | -42.1m/s | -42.1°C | 0% | 0hPa | 2.5V | 18:12:15 | 02:01:26 | 00:00:00 | |
| AA1-15 | 2026-09-06 00:47:19 | 49.46596 | 15.68006 | 54° | 16km/h | 33345m | -31.9m/s | -42.3°C | 0% | 0hPa | 2.6V | 18:12:15 | 02:01:15 | 00:00:00 | |
| AA1-15 | 2026-09-06 00:47:09 | 49.46558 | 15.67984 | 349° | 20km/h | 33590m | -22.2m/s | -41.8°C | 0% | 0hPa | 2.6V | 18:12:15 | 02:01:04 | 00:00:00 | |
| AA1-15 | 2026-09-06 00:46:57 | 49.46507 | 15.67923 | 43° | 31km/h | 33861m | -0.2m/s | -41.6°C | 0% | 0hPa | 2.6V | 18:12:15 | 02:00:53 | 00:00:00 | |
| AA1-15 | 2026-09-06 00:46:46 | 49.46436 | 15.67864 | 61° | 44km/h | 33793m | 7.4m/s | -41.7°C | 0% | 0hPa | 2.5V | 18:12:15 | 02:00:42 | 00:00:00 | |
| EDDB2-11 | 2026-09-06 00:46:45 | 49.46429 | 15.67839 | 69° | 26km/h | 33778m | 5.5m/s | -41.8°C | 0.0% | -1.0hPa | 2.5V | 00:00:00 | 00:00:00 | 00:00:00 | |
| AA1-15 | 2026-09-06 00:46:36 | 49.46392 | 15.67835 | 343° | 18km/h | 33725m | 6.3m/s | -42°C | 0% | 0hPa | 2.5V | 18:12:15 | 02:00:32 | 00:00:00 | |
| AA1-15 | 2026-09-06 00:46:25 | 49.46341 | 15.67795 | 317° | 18km/h | 33657m | 5.9m/s | -42.3°C | 0% | 0hPa | 2.6V | 18:12:15 | 02:00:21 | 00:00:00 | |
| AA1-15 | 2026-09-06 00:46:14 | 49.46283 | 15.67773 | 10° | 18km/h | 33583m | 6.4m/s | -42.3°C | 0% | 0hPa | 2.6V | 18:12:15 | 02:00:10 | 00:00:00 | |
| AA1-15 | 2026-09-06 00:46:03 | 49.46239 | 15.67730 | 40° | 27km/h | 33511m | 6.9m/s | -42.5°C | 0% | 0hPa | 2.6V | 18:12:15 | 01:59:59 | 00:00:00 | |
| AA1-15 | 2026-09-06 00:45:53 | 49.46185 | 15.67643 | 45° | 37km/h | 33413m | 6.3m/s | -42.8°C | 0% | 0hPa | 2.6V | 18:12:15 | 01:59:45 | 00:00:00 | |
| DL6DJ-15 | 2026-09-06 00:45:51 | 49.46191 | 15.67654 | 52° | 35km/h | 33421m | 8.5m/s | -42.8°C | 0.0% | -1.0hPa | 2.6V | 00:00:00 | 00:00:00 | 00:00:00 | |
| SONDE2-11 | 2026-09-06 00:45:48 | 49.46172 | 15.67627 | 33° | 26km/h | 33402m | 6.6m/s | -42.8°C | 0.0% | -1.0hPa | 2.6V | 00:00:00 | 00:00:00 | 00:00:00 | |
| HARRO8 | 2026-09-06 00:45:44 | 49.46161 | 15.67617 | 39° | 9km/h | 33379m | 6.2m/s | -42.8°C | 0.0% | -1.0hPa | 2.6V | 00:00:00 | 00:00:00 | 00:00:00 | |
| AA1-15 | 2026-09-06 00:45:39 | 49.46149 | 15.67585 | 69° | 26km/h | 33344m | 7.9m/s | -42.8°C | 0% | 0hPa | 2.6V | 18:12:15 | 01:59:35 | 00:00:00 | |
| AA1-15 | 2026-09-06 00:45:28 | 49.46108 | 15.67493 | 101° | 24km/h | 33267m | 4.6m/s | -42.8°C | 0% | 0hPa | 2.5V | 18:12:15 | 01:59:24 | 00:00:00 | |
| AA1-15 | 2026-09-06 00:45:18 | 49.46073 | 15.67361 | 67° | 37km/h | 33192m | 8m/s | -43°C | 0% | 0hPa | 2.5V | 18:12:15 | 01:59:13 | 00:00:00 | |
| AA1-15 | 2026-09-06 00:45:08 | 49.46023 | 15.67243 | 42° | 40km/h | 33116m | 7.6m/s | 0°C | 0% | 0hPa | 2.5V | 18:12:15 | 01:59:02 | 00:00:00 | |
| AA1-15 | 2026-09-06 00:44:55 | 49.45997 | 15.67106 | 68° | 29km/h | 33038m | 5.7m/s | 0°C | 0% | 0hPa | 2.6V | 18:12:15 | 01:58:51 | 00:00:00 | |
| DC4HF-4 | 2026-09-06 00:44:54 | 49.45993 | 15.67095 | 58° | 33km/h | 33032m | 6.9m/s | -42.6°C | 0.0% | -1.0hPa | 2.6V | 00:00:00 | 00:00:00 | 00:00:00 | |
| DL6DJ-15 | 2026-09-06 00:44:49 | 49.45956 | 15.67017 | 72° | 31km/h | 32990m | 7.2m/s | -42.5°C | 0.0% | -1.0hPa | 2.6V | 00:00:00 | 00:00:00 | 00:00:00 | |
| SONDE2-11 | 2026-09-06 00:44:45 | 49.45956 | 15.66978 | 99° | 38km/h | 32967m | 7.9m/s | -42.4°C | 0.0% | -1.0hPa | 2.6V | 00:00:00 | 00:00:00 | 00:00:00 | |
| AA1-15 | 2026-09-06 00:44:43 | 49.45959 | 15.66946 | 93° | 42km/h | 32955m | 4.8m/s | 0°C | 0% | 0hPa | 2.6V | 18:12:15 | 01:58:39 | 00:00:00 | |
| OE3MUC-15 | 2026-09-06 00:44:43 | 49.45959 | 15.66945 | 94° | 37km/h | 32955m | 4.8m/s | -42.3°C | 1.5% | 0hPa | 2.6V | 00:00:00 | 00:00:00 | 08:30:00 | |
| HARRO8 | 2026-09-06 00:44:42 | 49.45959 | 15.66930 | 89° | 37km/h | 32950m | 6.0m/s | -42.3°C | 0.0% | -1.0hPa | 2.6V | 00:00:00 | 00:00:00 | 00:00:00 | |
| EDDB2-11 | 2026-09-06 00:44:41 | 49.45957 | 15.66904 | 69° | 29km/h | 32935m | 7.9m/s | -42.3°C | 0.0% | -1.0hPa | 2.6V | 00:00:00 | 00:00:00 | 00:00:00 | |
| OE3MUC-15 | 2026-09-06 00:44:39 | 49.45953 | 15.66894 | 58° | 37km/h | 32927m | 7.2m/s | -42.3°C | 1.5% | 0hPa | 2.6V | 00:00:00 | 00:00:00 | 00:00:00 | |
| OK1ALN | 2026-09-06 00:44:38 | 49.45949 | 15.66884 | 54° | 35km/h | 32920m | 6.8m/s | -42.3°C | 0% | 0hPa | 2.6V | 00:00:00 | 00:00:00 | 00:00:00 | |
| OE5MMP-10 | 2026-09-06 00:44:37 | 49.45943 | 15.66873 | 54° | 33km/h | 32913m | 7.7m/s | -42.3°C | 1.5% | 0hPa | 2.6V | 00:00:00 | 01:58:33 | 00:00:00 | |
| SP3BTT-10 | 2026-09-06 00:44:36 | 49.45937 | 15.66859 | 59° | 29km/h | 32906m | 7.5m/s | -42.4°C | 1.4% | 0hPa | 2.6V | 00:00:00 | 00:00:00 | 00:00:00 | |
| DO3MHA-11 | 2026-09-06 00:44:35 | 49.45932 | 15.66843 | 65° | 33km/h | 32899m | 6.0m/s | -42.4°C | 1.5% | 0hPa | 2.6V | 00:00:00 | 01:58:31 | 00:00:00 | |
| EDDB2-12 | 2026-09-06 00:44:33 | 49.45924 | 15.66811 | 74° | 40km/h | 32887m | 6.4m/s | -42.6°C | 0.0% | -1.0hPa | 2.6V | 00:00:00 | 00:00:00 | 00:00:00 | |
| OE3MUC-15 | 2026-09-06 00:44:31 | 49.45920 | 15.66784 | 79° | 24km/h | 32873m | 7.7m/s | 0°C | 0% | 0hPa | 2.6V | 00:00:00 | 01:58:27 | 00:00:00 | |
| AA1-15 | 2026-09-06 00:44:14 | 49.45847 | 15.66615 | 45° | 27km/h | 32746m | 7.3m/s | 0°C | 0% | 0hPa | 2.6V | 18:12:15 | 01:58:09 | 00:00:00 | |
| NBG1-10 | 2026-09-06 00:44:13 | 49.45847 | 15.66615 | 45° | 20km/h | 32746m | 7.2m/s | -42.8°C | 1.5% | 0hPa | 2.5V | 00:00:00 | 01:58:09 | 00:00:00 | |
| OE3MUC-15 | 2026-09-06 00:44:11 | 49.45838 | 15.66601 | 47° | 31km/h | 32733m | 5.7m/s | -42.9°C | 1.5% | 0hPa | 2.5V | 00:00:00 | 00:00:00 | 00:00:00 | |
| AA1-15 | 2026-09-06 00:43:53 | 49.45782 | 15.66477 | 95° | 13km/h | 32608m | 7.5m/s | 0°C | 0% | 0hPa | 2.5V | 18:12:15 | 01:57:49 | 00:00:00 | |
| OE3MUC-15 | 2026-09-06 00:43:51 | 49.45781 | 15.66464 | 70° | 15km/h | 32593m | 5.3m/s | -43.0°C | 1.5% | 0hPa | 2.6V | 00:00:00 | 00:00:00 | 00:00:00 | |
| PETON7-10 | 2026-09-06 00:43:50 | 49.45779 | 15.66458 | 59° | 15km/h | 32588m | 5.3m/s | -43.0°C | 1.5% | 0hPa | 2.6V | 00:00:00 | 01:57:46 | 00:00:00 | |
| OE3JTB-15 | 2026-09-06 00:43:49 | 49.45777 | 15.66454 | 38° | 20km/h | 32581m | 8.0m/s | -43.0°C | 1.5% | 0hPa | 2.6V | 00:00:00 | 00:00:00 | 08:30:00 | |
| OE5MMP-10 | 2026-09-06 00:43:46 | 49.45768 | 15.66458 | 333° | 16km/h | 32559m | 5.7m/s | -43.1°C | 1.5% | 0hPa | 2.6V | 00:00:00 | 01:57:42 | 00:00:00 | |
| DO3MHA-11 | 2026-09-06 00:43:45 | 49.45763 | 15.66460 | 342° | 16km/h | 32552m | 6.9m/s | -43.1°C | 1.5% | 0hPa | 2.6V | 00:00:00 | 01:57:41 | 08:30:00 | |
| AA1-15 | 2026-09-06 00:43:27 | 49.45710 | 15.66393 | 47° | 24km/h | 32426m | 7.6m/s | 0°C | 0% | 0hPa | 2.6V | 18:12:15 | 01:57:23 | 00:00:00 | |
| OE5MMP-10 | 2026-09-06 00:43:26 | 49.45706 | 15.66385 | 66° | 27km/h | 32419m | 7.1m/s | -43.6°C | 1.6% | 0hPa | 2.6V | 00:00:00 | 01:57:22 | 00:00:00 | |
| DO3MHA-11 | 2026-09-06 00:43:25 | 49.45704 | 15.66375 | 79° | 27km/h | 32412m | 7.5m/s | -43.6°C | 1.6% | 0hPa | 2.5V | 00:00:00 | 01:57:21 | 00:00:00 | |
| HA6NAB-11 | 2026-09-06 00:43:23 | 49.45704 | 15.66356 | 100° | 24km/h | 32397m | 6.6m/s | -43.7°C | 0% | 0hPa | 2.5V | 00:00:00 | 00:00:00 | 00:00:00 | |
| OE5DRO-10 | 2026-09-06 00:43:22 | 49.45705 | 15.66347 | 99° | 26km/h | 32391m | 6.0m/s | -43.6°C | 1.6% | 0hPa | 2.5V | 00:00:00 | 00:00:00 | 00:00:00 | |
| PETON7-10 | 2026-09-06 00:43:20 | 49.45703 | 15.66329 | 68° | 27km/h | 32378m | 7.0m/s | -43.6°C | 1.6% | 0hPa | 2.6V | 00:00:00 | 00:00:00 | 00:00:00 | |
| OE3MUC-15 | 2026-09-06 00:43:19 | 49.45700 | 15.66319 | 55° | 33km/h | 32371m | 7.5m/s | -43.6°C | 1.6% | 0hPa | 2.6V | 00:00:00 | 00:00:00 | 00:00:00 | |
| HA6NAB-11 | 2026-09-06 00:43:17 | 49.45687 | 15.66302 | 33° | 35km/h | 32358m | 5.8m/s | -43.7°C | 0% | 0hPa | 2.6V | 00:00:00 | 00:00:00 | 00:00:00 | |
| OE5MMP-10 | 2026-09-06 00:43:16 | 49.45680 | 15.66297 | 23° | 26km/h | 32351m | 7.2m/s | -43.6°C | 1.6% | 0hPa | 2.6V | 00:00:00 | 01:57:12 | 00:00:00 | |
| DO3MHA-11 | 2026-09-06 00:43:15 | 49.45673 | 15.66293 | 12° | 24km/h | 32343m | 8.8m/s | -43.6°C | 1.6% | 0hPa | 2.6V | 00:00:00 | 01:57:11 | 00:00:00 | |
| SONDE2-11 | 2026-09-06 00:43:12 | 49.45656 | 15.66289 | 20° | 18km/h | 32322m | 6.1m/s | -43.7°C | 0.0% | -1.0hPa | 2.6V | 00:00:00 | 00:00:00 | 00:00:00 | |
| OE3MUC-15 | 2026-09-06 00:43:11 | 49.45652 | 15.66285 | 39° | 26km/h | 32315m | 7.9m/s | -43.7°C | 1.6% | 0hPa | 2.6V | 00:00:00 | 00:00:00 | 00:00:00 | |
| HARRO8 | 2026-09-06 00:43:10 | 49.45642 | 15.66259 | 74° | 27km/h | 32294m | 6.7m/s | -43.7°C | 0.0% | -1.0hPa | 2.6V | 00:00:00 | 00:00:00 | 00:00:00 | |
| EDDB2-11 | 2026-09-06 00:43:08 | 49.45641 | 15.66248 | 79° | 26km/h | 32286m | 8.0m/s | -43.7°C | 0.0% | -1.0hPa | 2.6V | 00:00:00 | 00:00:00 | 00:00:00 | |
| OE3MUC-15 | 2026-09-06 00:43:07 | 49.45640 | 15.66248 | 80° | 22km/h | 32286m | 7.9m/s | -43.6°C | 1.6% | 0hPa | 2.6V | 00:00:00 | 00:00:00 | 00:00:00 | |
| DC4HF-4 | 2026-09-06 00:43:06 | 49.45638 | 15.66232 | 67° | 18km/h | 32272m | 5.9m/s | -43.7°C | 0.0% | -1.0hPa | 2.6V | 00:00:00 | 00:00:00 | 00:00:00 | |
| DO3MHA-11 | 2026-09-06 00:43:05 | 49.45638 | 15.66232 | 68° | 20km/h | 32272m | 5.8m/s | -43.6°C | 1.6% | 0hPa | 2.6V | 00:00:00 | 01:57:01 | 00:00:00 | |
| OE5DRO-10 | 2026-09-06 00:43:03 | 49.45632 | 15.66221 | 38° | 20km/h | 32258m | 8.4m/s | -43.6°C | 1.6% | 0hPa | 2.6V | 00:00:00 | 00:00:00 | 00:00:00 | |
| OK1SLM-15 | 2026-09-06 00:43:01 | 49.45626 | 15.66216 | 29° | 26km/h | 32250m | 7.3m/s | -43.6°C | 0% | 0hPa | 2.6V | 00:00:00 | 00:00:00 | 00:00:00 | |
| EDDB2-12 | 2026-09-06 00:43:00 | 49.45608 | 15.66205 | 18° | 20km/h | 32231m | 6.7m/s | -43.6°C | 0.0% | -1.0hPa | 2.6V | 00:00:00 | 00:00:00 | 00:00:00 | |
| OE3MUC-15 | 2026-09-06 00:42:59 | 49.45608 | 15.66205 | 19° | 15km/h | 32231m | 6.6m/s | -43.5°C | 1.6% | 0hPa | 2.6V | 00:00:00 | 00:00:00 | 00:00:00 | |
| PG1ADW-2 | 2026-09-06 00:42:57 | 49.45602 | 15.66200 | 63° | 18km/h | 32216m | 7.1m/s | -43.5°C | 1.6% | 0hPa | 2.6V | 00:00:00 | 00:00:00 | 00:00:00 | |
| OE5MMP-10 | 2026-09-06 00:42:56 | 49.45601 | 15.66196 | 94° | 20km/h | 32209m | 6.7m/s | -43.5°C | 1.6% | 0hPa | 2.6V | 00:00:00 | 01:56:52 | 00:00:00 | |
| DO3MHA-11 | 2026-09-06 00:42:55 | 49.45602 | 15.66189 | 96° | 20km/h | 32203m | 6.7m/s | -43.5°C | 1.6% | 0hPa | 2.6V | 00:00:00 | 01:56:51 | 00:00:00 | |
| OE3MUC-15 | 2026-09-06 00:42:51 | 49.45601 | 15.66146 | 83° | 18km/h | 32178m | 5.1m/s | -43.4°C | 1.6% | 0hPa | 2.6V | 00:00:00 | 00:00:00 | 00:00:00 | |
| PETON7-10 | 2026-09-06 00:42:50 | 49.45600 | 15.66136 | 83° | 16km/h | 32171m | 7.7m/s | -43.4°C | 1.5% | 0hPa | 2.6V | 00:00:00 | 00:00:00 | 08:30:00 | |
| OE3MUC-15 | 2026-09-06 00:42:47 | 49.45597 | 15.66125 | 1° | 13km/h | 32149m | 6.2m/s | -43.5°C | 1.6% | 0hPa | 2.6V | 00:00:00 | 00:00:00 | 00:00:00 | |
| OE5MMP-10 | 2026-09-06 00:42:46 | 49.45594 | 15.66125 | 354° | 16km/h | 32141m | 7.3m/s | -43.5°C | 1.6% | 0hPa | 2.6V | 00:00:00 | 01:56:42 | 00:00:00 | |
| DO3MHA-11 | 2026-09-06 00:42:45 | 49.45591 | 15.66125 | 2° | 18km/h | 32134m | 7.4m/s | -43.5°C | 1.6% | 0hPa | 2.6V | 00:00:00 | 01:56:41 | 00:00:00 | |
| OE5DRO-10 | 2026-09-06 00:42:44 | 49.45586 | 15.66125 | 16° | 15km/h | 32128m | 5.3m/s | -43.5°C | 1.6% | 0hPa | 2.6V | 00:00:00 | 00:00:00 | 00:00:00 | |
| OE3MUC-15 | 2026-09-06 00:42:43 | 49.45583 | 15.66122 | 33° | 13km/h | 32123m | 5.2m/s | -43.5°C | 1.6% | 0hPa | 2.6V | 00:00:00 | 00:00:00 | 00:00:00 | |
| SONDE2-11 | 2026-09-06 00:42:41 | 49.45580 | 15.66115 | 99° | 9km/h | 32109m | 8.4m/s | -43.5°C | 0.0% | -1.0hPa | 2.6V | 00:00:00 | 00:00:00 | 00:00:00 | |
| OE3MUC-15 | 2026-09-06 00:42:39 | 49.45585 | 15.66104 | 126° | 24km/h | 32095m | 5.7m/s | -43.4°C | 1.6% | 0hPa | 2.6V | 00:00:00 | 00:00:00 | 00:00:00 | |
| OE5DXL-15 | 2026-09-06 00:42:37 | 49.45592 | 15.66078 | 96° | 18km/h | 32074m | 6.3m/s | -43.3°C | 1.5% | 0hPa | 2.6V | 00:00:00 | 00:00:00 | 00:00:00 | |
| OK1ALN | 2026-09-06 00:42:36 | 49.45592 | 15.66078 | 96° | 24km/h | 32074m | 6.3m/s | -43.3°C | 0% | 0hPa | 2.6V | 00:00:00 | 00:00:00 | 00:00:00 | |
| DO3MHA-11 | 2026-09-06 00:42:35 | 49.45592 | 15.66070 | 82° | 9km/h | 32068m | 5.3m/s | -43.2°C | 1.5% | 0hPa | 2.6V | 00:00:00 | 01:56:31 | 00:00:00 | |
| NBG1-10 | 2026-09-06 00:42:34 | 49.45591 | 15.66064 | 70° | 18km/h | 32063m | 5.9m/s | -43.2°C | 1.5% | 0hPa | 2.6V | 00:00:00 | 01:56:30 | 00:00:00 | |
| OE3MUC-15 | 2026-09-06 00:42:31 | 49.45588 | 15.66062 | 280° | 7km/h | 32041m | 6.3m/s | -43.2°C | 1.5% | 0hPa | 2.6V | 00:00:00 | 00:00:00 | 00:00:00 | |
| DC4HF-4 | 2026-09-06 00:42:30 | 49.45587 | 15.66069 | 294° | 7km/h | 32028m | 7.1m/s | -43.4°C | 0.0% | -1.0hPa | 2.6V | 00:00:00 | 00:00:00 | 00:00:00 | |
| EDDB2-12 | 2026-09-06 00:42:29 | 49.45586 | 15.66071 | 357° | 4km/h | 32022m | 6.3m/s | -43.3°C | 0.0% | -1.0hPa | 2.6V | 00:00:00 | 00:00:00 | 00:00:00 | |
| OE3MUC-15 | 2026-09-06 00:42:27 | 49.45586 | 15.66069 | 94° | 18km/h | 32016m | 5.1m/s | -43.2°C | 1.5% | 0hPa | 2.6V | 00:00:00 | 00:00:00 | 00:00:00 | |
| OE5MMP-10 | 2026-09-06 00:42:26 | 49.45587 | 15.66065 | 117° | 22km/h | 32011m | 5.5m/s | -43.3°C | 1.5% | 0hPa | 2.6V | 00:00:00 | 01:56:22 | 08:30:00 | |
| DO3MHA-11 | 2026-09-06 00:42:25 | 49.45589 | 15.66059 | 130° | 20km/h | 32004m | 8.2m/s | -43.3°C | 1.5% | 0hPa | 2.6V | 00:00:00 | 01:56:21 | 00:00:00 | |
| OE3MUC-15 | 2026-09-06 00:42:23 | 49.45600 | 15.66045 | 144° | 27km/h | 31987m | 6.8m/s | -43.4°C | 1.5% | 0hPa | 2.6V | 00:00:00 | 00:00:00 | 00:00:00 | |
| OE3JTB-15 | 2026-09-06 00:42:22 | 49.45606 | 15.66038 | 145° | 22km/h | 31981m | 5.2m/s | -43.5°C | 1.6% | 0hPa | 2.6V | 00:00:00 | 00:00:00 | 00:00:00 | |
| PETON7-10 | 2026-09-06 00:42:20 | 49.45616 | 15.66025 | 125° | 20km/h | 31969m | 7.6m/s | -43.7°C | 1.6% | 0hPa | 2.5V | 00:00:00 | 01:56:16 | 00:00:00 | |
| OE3MUC-15 | 2026-09-06 00:42:19 | 49.45617 | 15.66020 | 85° | 13km/h | 31961m | 8.4m/s | -43.8°C | 1.6% | 0hPa | 2.5V | 00:00:00 | 00:00:00 | 08:30:00 | |
| PG1ADW-2 | 2026-09-06 00:42:17 | 49.45612 | 15.66014 | 12° | 20km/h | 31947m | 5.4m/s | -43.8°C | 1.6% | 0hPa | 2.6V | 00:00:00 | 01:56:13 | 00:00:00 | |
| OE5MMP-10 | 2026-09-06 00:42:16 | 49.45609 | 15.66013 | 4° | 24km/h | 31942m | 6.1m/s | -43.9°C | 1.6% | 0hPa | 2.6V | 00:00:00 | 01:56:12 | 00:00:00 | |
| DO3MHA-11 | 2026-09-06 00:42:15 | 49.45608 | 15.66013 | 3° | 24km/h | 31935m | 6.9m/s | -43.9°C | 1.6% | 0hPa | 2.6V | 00:00:00 | 01:56:11 | 08:30:00 | |
| DL6DJ-15 | 2026-09-06 00:42:13 | 49.45612 | 15.66012 | 163° | 18km/h | 31921m | 6.2m/s | -44.0°C | 0.0% | -1.0hPa | 2.5V | 00:00:00 | 00:00:00 | 00:00:00 | |
| OK1ALN | 2026-09-06 00:42:12 | 49.45617 | 15.66009 | 157° | 27km/h | 31915m | 5.8m/s | -43.9°C | 0% | 0hPa | 2.5V | 00:00:00 | 00:00:00 | 00:00:00 | |
| OE3MUC-15 | 2026-09-06 00:42:11 | 49.45624 | 15.66003 | 150° | 35km/h | 31909m | 6.4m/s | -43.9°C | 1.6% | 0hPa | 2.5V | 00:00:00 | 00:00:00 | 00:00:00 | |
| SONDE2-11 | 2026-09-06 00:42:10 | 49.45631 | 15.65996 | 140° | 35km/h | 31901m | 7.7m/s | -43.9°C | 0.0% | -1.0hPa | 2.5V | 00:00:00 | 00:00:00 | 00:00:00 | |
| HARRO8 | 2026-09-06 00:42:07 | 49.45648 | 15.65956 | 112° | 22km/h | 31875m | 5.6m/s | -43.9°C | 0.0% | -1.0hPa | 2.5V | 00:00:00 | 00:00:00 | 00:00:00 | |
| OE5MMP-10 | 2026-09-06 00:42:06 | 49.45647 | 15.65956 | 113° | 20km/h | 31876m | 5.6m/s | -43.8°C | 1.6% | 0hPa | 2.5V | 00:00:00 | 01:56:02 | 00:00:00 | |
| PETON7-10 | 2026-09-06 00:42:05 | 49.45650 | 15.65949 | 123° | 24km/h | 31869m | 7.1m/s | -43.8°C | 1.6% | 0hPa | 2.5V | 00:00:00 | 00:00:00 | 00:00:00 | |
| OE3MUC-15 | 2026-09-06 00:42:03 | 49.45656 | 15.65943 | 174° | 16km/h | 31854m | 7.1m/s | -43.8°C | 1.6% | 0hPa | 2.5V | 00:00:00 | 00:00:00 | 00:00:00 | |
| EDDB2-12 | 2026-09-06 00:41:58 | 49.45678 | 15.65913 | 122° | 33km/h | 31815m | 6.1m/s | -43.7°C | 0.0% | -1.0hPa | 2.5V | 00:00:00 | 00:00:00 | 00:00:00 | |
| DC4HF-4 | 2026-09-06 00:41:54 | 49.45696 | 15.65873 | 114° | 26km/h | 31789m | 5.3m/s | -43.8°C | 0.0% | -1.0hPa | 2.5V | 00:00:00 | 00:00:00 | 00:00:00 | |
| DB0ND-19 | 2026-09-06 00:41:50 | 49.45696 | 15.65840 | 67° | 15km/h | 31761m | 6.9m/s | -44.0°C | 0.0% | -1.0hPa | 2.5V | 00:00:00 | 00:00:00 | 00:00:00 | |
| OE3MUC-15 | 2026-09-06 00:41:47 | 49.45695 | 15.65832 | 108° | 11km/h | 31746m | 7.3m/s | -44.0°C | 1.6% | 0hPa | 2.5V | 00:00:00 | 00:00:00 | 00:00:00 | |
| OE5MMP-10 | 2026-09-06 00:41:46 | 49.45696 | 15.65830 | 144° | 27km/h | 31739m | 5.0m/s | -44.0°C | 1.6% | 0hPa | 2.5V | 00:00:00 | 01:55:42 | 00:00:00 | |
| S52SK | 2026-09-06 00:41:45 | 49.45698 | 15.65827 | 134° | 13km/h | 31734m | 5.1m/s | -44.1°C | 0% | 0hPa | 2.5V | 00:00:00 | 00:00:00 | 00:00:00 | |
| OE3MUC-15 | 2026-09-06 00:41:43 | 49.45703 | 15.65815 | 114° | 35km/h | 31720m | 8.1m/s | -44.1°C | 1.6% | 0hPa | 2.5V | 00:00:00 | 00:00:00 | 08:30:00 | |
| DL6DJ-15 | 2026-09-06 00:41:42 | 49.45706 | 15.65804 | 109° | 35km/h | 31712m | 7.3m/s | -44.2°C | 0.0% | -1.0hPa | 2.5V | 00:00:00 | 00:00:00 | 00:00:00 | |
| ANDY1245 | 2026-09-06 00:41:40 | 49.45708 | 15.65790 | 109° | 38km/h | 31705m | 6.9m/s | -44.2°C | 0.2% | 0hPa | 2.5V | 00:00:00 | 00:00:00 | 00:00:00 | |
| SONDE2-11 | 2026-09-06 00:41:39 | 49.45715 | 15.65761 | 107° | 35km/h | 31690m | 6.8m/s | -44.2°C | 0.0% | -1.0hPa | 2.5V | 00:00:00 | 00:00:00 | 00:00:00 | |
| PG1ADW-2 | 2026-09-06 00:41:37 | 49.45719 | 15.65737 | 97° | 22km/h | 31678m | 6.5m/s | -44.2°C | 1.7% | 0hPa | 2.5V | 00:00:00 | 00:00:00 | 00:00:00 | |
| HARRO8 | 2026-09-06 00:41:36 | 49.45718 | 15.65716 | 75° | 26km/h | 31662m | 7.2m/s | -44.2°C | 0.0% | -1.0hPa | 2.5V | 00:00:00 | 00:00:00 | 00:00:00 | |
| DO3MHA-11 | 2026-09-06 00:41:35 | 49.45718 | 15.65716 | 76° | 18km/h | 31662m | 7.2m/s | -44.2°C | 1.7% | 0hPa | 2.5V | 00:00:00 | 01:55:31 | 00:00:00 | |
| EDDB2-11 | 2026-09-06 00:41:34 | 49.45716 | 15.65707 | 67° | 22km/h | 31656m | 5.9m/s | -44.3°C | 0.0% | -1.0hPa | 2.5V | 00:00:00 | 00:00:00 | 00:00:00 | |
| S52SK | 2026-09-06 00:41:33 | 49.45716 | 15.65707 | 68° | 22km/h | 31656m | 5.9m/s | -44.3°C | 0% | 0hPa | 2.5V | 00:00:00 | 00:00:00 | 00:00:00 | |
| NBG1-10 | 2026-09-06 00:41:28 | 49.45714 | 15.65682 | 109° | 20km/h | 31618m | 7.1m/s | -44.2°C | 1.6% | 0hPa | 2.5V | 00:00:00 | 01:55:24 | 00:00:00 | |
| EDDB2-12 | 2026-09-06 00:41:27 | 49.45717 | 15.65659 | 95° | 37km/h | 31602m | 6.4m/s | -44.3°C | 0.0% | -1.0hPa | 2.6V | 00:00:00 | 00:00:00 | 00:00:00 | |
| OE5MMP-10 | 2026-09-06 00:41:26 | 49.45717 | 15.65659 | 96° | 24km/h | 31603m | 6.3m/s | -44.2°C | 1.6% | 0hPa | 2.6V | 00:00:00 | 01:55:22 | 00:00:00 | |
| DO3MHA-11 | 2026-09-06 00:41:25 | 49.45717 | 15.65644 | 92° | 22km/h | 31597m | 4.6m/s | -44.3°C | 1.7% | 0hPa | 2.6V | 00:00:00 | 01:55:21 | 00:00:00 | |
| OE3JTB-15 | 2026-09-06 00:41:24 | 49.45718 | 15.65629 | 91° | 18km/h | 31592m | 5.8m/s | -44.2°C | 1.7% | 0hPa | 2.6V | 00:00:00 | 01:55:20 | 00:00:00 | |
| PETON7-10 | 2026-09-06 00:41:20 | 49.45716 | 15.65593 | 71° | 18km/h | 31563m | 7.1m/s | -44.2°C | 1.6% | 0hPa | 2.6V | 00:00:00 | 00:00:00 | 00:00:00 | |
| OE3MUC-15 | 2026-09-06 00:41:19 | 49.45714 | 15.65588 | 64° | 15km/h | 31555m | 8.4m/s | -44.2°C | 1.7% | 0hPa | 2.6V | 00:00:00 | 00:00:00 | 00:00:00 | |
| DC4HF-4 | 2026-09-06 00:41:18 | 49.45710 | 15.65577 | 57° | 13km/h | 31542m | 5.8m/s | -44.3°C | 0.0% | -1.0hPa | 2.6V | 00:00:00 | 00:00:00 | 00:00:00 | |
| PG1ADW-2 | 2026-09-06 00:41:17 | 49.45710 | 15.65577 | 58° | 18km/h | 31542m | 5.8m/s | -44.2°C | 1.7% | 0hPa | 2.6V | 00:00:00 | 00:00:00 | 00:00:00 | |
| OE5MMP-10 | 2026-09-06 00:41:16 | 49.45709 | 15.65573 | 54° | 20km/h | 31535m | 7.0m/s | -44.2°C | 1.7% | 0hPa | 2.6V | 00:00:00 | 01:55:12 | 00:00:00 | |
| DO3MHA-11 | 2026-09-06 00:41:15 | 49.45707 | 15.65570 | 47° | 20km/h | 31528m | 8.0m/s | -44.2°C | 1.7% | 0hPa | 2.6V | 00:00:00 | 01:55:11 | 00:00:00 | |
| HA6NAB-11 | 2026-09-06 00:41:14 | 49.45705 | 15.65567 | 52° | 11km/h | 31521m | 5.8m/s | -44.2°C | 0% | 0hPa | 2.6V | 00:00:00 | 00:00:00 | 00:00:00 | |
| OE3MUC-15 | 2026-09-06 00:41:11 | 49.45700 | 15.65545 | 77° | 29km/h | 31500m | 7.6m/s | -44.1°C | 1.6% | 0hPa | 2.6V | 00:00:00 | 00:00:00 | 00:00:00 | |
| OE5DRO-10 | 2026-09-06 00:41:09 | 49.45697 | 15.65520 | 79° | 16km/h | 31488m | 5.1m/s | -44.1°C | 1.6% | 0hPa | 2.6V | 00:00:00 | 00:00:00 | 00:00:00 | |
| SONDE2-11 | 2026-09-06 00:41:08 | 49.45694 | 15.65502 | 71° | 15km/h | 31473m | 8.3m/s | -44.2°C | 0.0% | -1.0hPa | 2.6V | 00:00:00 | 00:00:00 | 00:00:00 | |
| OE3MUC-15 | 2026-09-06 00:41:07 | 49.45694 | 15.65502 | 72° | 11km/h | 31474m | 8.3m/s | -44.1°C | 1.6% | 0hPa | 2.6V | 00:00:00 | 00:00:00 | 08:30:00 | |
| OE5MMP-10 | 2026-09-06 00:41:06 | 49.45693 | 15.65498 | 49° | 15km/h | 31466m | 6.9m/s | -44.1°C | 1.7% | 0hPa | 2.5V | 00:00:00 | 01:55:02 | 00:00:00 | |
| HARRO8 | 2026-09-06 00:41:05 | 49.45689 | 15.65497 | 7° | 9km/h | 31453m | 7.6m/s | -44.1°C | 0.0% | -1.0hPa | 2.5V | 00:00:00 | 00:00:00 | 00:00:00 | |
| HA6NAB-11 | 2026-09-06 00:41:03 | 49.45686 | 15.65496 | 14° | 15km/h | 31445m | 7.3m/s | -44.1°C | 0% | 0hPa | 2.5V | 00:00:00 | 00:00:00 | 00:00:00 | |
| EDDB2-12 | 2026-09-06 00:40:56 | 49.45658 | 15.65470 | 76° | 24km/h | 31388m | 7.1m/s | -43.9°C | 0.0% | -1.0hPa | 2.5V | 00:00:00 | 00:00:00 | 00:00:00 | |
| DO3MHA-11 | 2026-09-06 00:40:55 | 49.45658 | 15.65470 | 77° | 16km/h | 31388m | 7.1m/s | -43.9°C | 1.6% | 0hPa | 2.5V | 00:00:00 | 01:54:51 | 00:00:00 | |
| OK1SLM-15 | 2026-09-06 00:40:52 | 49.45656 | 15.65453 | 82° | 16km/h | 31377m | 5.4m/s | -43.9°C | 0% | 0hPa | 2.5V | 00:00:00 | 00:00:00 | 00:00:00 | |
| OE3MUC-15 | 2026-09-06 00:40:51 | 49.45653 | 15.65447 | 349° | 16km/h | 31362m | 8.0m/s | -43.8°C | 1.6% | 0hPa | 2.5V | 00:00:00 | 00:00:00 | 00:00:00 | |
| PETON7-10 | 2026-09-06 00:40:50 | 49.45651 | 15.65449 | 328° | 15km/h | 31355m | 5.9m/s | -43.8°C | 1.6% | 0hPa | 2.5V | 00:00:00 | 01:54:46 | 00:00:00 | |
| OK1SLM-15 | 2026-09-06 00:40:48 | 49.45642 | 15.65456 | 348° | 20km/h | 31343m | 6.9m/s | -43.9°C | 0% | 0hPa | 2.5V | 00:00:00 | 00:00:00 | 00:00:00 | |
| OE3MUC-15 | 2026-09-06 00:40:47 | 49.45638 | 15.65456 | 7° | 15km/h | 31336m | 6.0m/s | -43.9°C | 1.6% | 0hPa | 2.5V | 00:00:00 | 00:00:00 | 00:00:00 | |
| HA6NAB-11 | 2026-09-06 00:40:46 | 49.45634 | 15.65454 | 33° | 15km/h | 31330m | 5.2m/s | -44.0°C | 0% | 0hPa | 2.5V | 00:00:00 | 00:00:00 | 00:00:00 | |
| DO3MHA-11 | 2026-09-06 00:40:45 | 49.45632 | 15.65451 | 68° | 13km/h | 31324m | 6.8m/s | -43.9°C | 1.6% | 0hPa | 2.5V | 00:00:00 | 01:54:41 | 08:30:00 | |
| OE3MUC-15 | 2026-09-06 00:40:43 | 49.45633 | 15.65442 | 130° | 18km/h | 31307m | 8.1m/s | -43.9°C | 1.6% | 0hPa | 2.6V | 00:00:00 | 00:00:00 | 00:00:00 | |
| DC4HF-4 | 2026-09-06 00:40:42 | 49.45640 | 15.65431 | 125° | 20km/h | 31294m | 6.7m/s | -43.9°C | 0.0% | -1.0hPa | 2.6V | 00:00:00 | 00:00:00 | 00:00:00 | |
| DL6DJ-15 | 2026-09-06 00:40:40 | 49.45642 | 15.65424 | 114° | 18km/h | 31287m | 7.8m/s | -43.9°C | 0.0% | -1.0hPa | 2.6V | 00:00:00 | 00:00:00 | 00:00:00 | |
| OE3MUC-15 | 2026-09-06 00:40:39 | 49.45643 | 15.65418 | 100° | 7km/h | 31279m | 5.3m/s | -43.8°C | 1.6% | 0hPa | 2.6V | 00:00:00 | 00:00:00 | 00:00:00 | |
| PG1ADW-2 | 2026-09-06 00:40:37 | 49.45644 | 15.65410 | 106° | 11km/h | 31268m | 6.9m/s | -43.8°C | 1.6% | 0hPa | 2.6V | 00:00:00 | 00:00:00 | 08:30:00 | |
| OE5MMP-10 | 2026-09-06 00:40:36 | 49.45644 | 15.65409 | 151° | 9km/h | 31260m | 8.4m/s | -43.8°C | 1.6% | 0hPa | 2.6V | 00:00:00 | 01:54:32 | 00:00:00 | |
| DO3MHA-11 | 2026-09-06 00:40:35 | 49.45645 | 15.65409 | 194° | 9km/h | 31253m | 6.1m/s | -43.8°C | 1.6% | 0hPa | 2.6V | 00:00:00 | 01:54:31 | 00:00:00 | |
| HARRO8 | 2026-09-06 00:40:34 | 49.45647 | 15.65407 | 111° | 7km/h | 31241m | 7.2m/s | -43.8°C | 0.0% | -1.0hPa | 2.6V | 00:00:00 | 00:00:00 | 00:00:00 | |
| EDDB2-11 | 2026-09-06 00:40:32 | 49.45647 | 15.65403 | 91° | 11km/h | 31233m | 8.6m/s | -43.8°C | 0.0% | -1.0hPa | 2.6V | 00:00:00 | 00:00:00 | 00:00:00 | |
| OE5DRO-10 | 2026-09-06 00:40:31 | 49.45647 | 15.65398 | 88° | 13km/h | 31227m | 5.0m/s | -43.7°C | 1.6% | 0hPa | 2.6V | 00:00:00 | 00:00:00 | 00:00:00 | |
| OE3MUC-15 | 2026-09-06 00:40:27 | 49.45650 | 15.65383 | 164° | 7km/h | 31200m | 6.8m/s | -43.7°C | 1.6% | 0hPa | 2.6V | 00:00:00 | 00:00:00 | 00:00:00 | |
| OE5MMP-10 | 2026-09-06 00:40:26 | 49.45651 | 15.65382 | 168° | 13km/h | 31194m | 5.6m/s | -43.7°C | 1.6% | 0hPa | 2.6V | 00:00:00 | 01:54:22 | 00:00:00 | |
| DO3MHA-11 | 2026-09-06 00:40:25 | 49.45652 | 15.65381 | 130° | 15km/h | 31187m | 7.6m/s | -43.7°C | 1.6% | 0hPa | 2.6V | 00:00:00 | 01:54:21 | 00:00:00 | |
| EDDB2-12 | 2026-09-06 00:40:24 | 49.45653 | 15.65379 | 111° | 7km/h | 31179m | 9.2m/s | -43.7°C | 0.0% | -1.0hPa | 2.6V | 00:00:00 | 00:00:00 | 00:00:00 | |
| OE3MUC-15 | 2026-09-06 00:40:23 | 49.45654 | 15.65375 | 107° | 15km/h | 31171m | 5.6m/s | -43.7°C | 1.6% | 0hPa | 2.6V | 00:00:00 | 00:00:00 | 00:00:00 | |
| NBG1-10 | 2026-09-06 00:40:22 | 49.45655 | 15.65370 | 116° | 13km/h | 31166m | 4.3m/s | -43.7°C | 1.6% | 0hPa | 2.6V | 00:00:00 | 01:54:18 | 00:00:00 | |
| PETON7-10 | 2026-09-06 00:40:20 | 49.45660 | 15.65362 | 148° | 13km/h | 31153m | 9.2m/s | -43.7°C | 1.6% | 0hPa | 2.6V | 00:00:00 | 00:00:00 | 00:00:00 | |
| OE3MUC-15 | 2026-09-06 00:40:19 | 49.45664 | 15.65359 | 157° | 18km/h | 31144m | 6.7m/s | -43.7°C | 1.6% | 0hPa | 2.6V | 00:00:00 | 00:00:00 | 00:00:00 | |
| PG1ADW-2 | 2026-09-06 00:40:17 | 49.45671 | 15.65352 | 138° | 13km/h | 31132m | 6.6m/s | -43.6°C | 1.6% | 0hPa | 2.5V | 00:00:00 | 00:00:00 | 00:00:00 | |
| DB0ND-19 | 2026-09-06 00:40:16 | 49.45677 | 15.65340 | 113° | 18km/h | 31117m | 6.2m/s | -43.7°C | 0.0% | -1.0hPa | 2.5V | 00:00:00 | 00:00:00 | 00:00:00 | |
| DO3MHA-11 | 2026-09-06 00:40:15 | 49.45677 | 15.65340 | 114° | 11km/h | 31117m | 6.2m/s | -43.6°C | 1.6% | 0hPa | 2.5V | 00:00:00 | 01:54:11 | 00:00:00 | |
| DB0UT-7 | 2026-09-06 00:40:13 | 49.45680 | 15.65328 | 125° | 9km/h | 31104m | 7.2m/s | -43.6°C | 1.6% | 0hPa | 2.6V | 00:00:00 | 01:54:09 | 08:30:00 | |
| OE5DRO-10 | 2026-09-06 00:40:12 | 49.45682 | 15.65325 | 145° | 11km/h | 31096m | 8.1m/s | -43.6°C | 1.6% | 0hPa | 2.6V | 00:00:00 | 00:00:00 | 00:00:00 | |
| OE3MUC-15 | 2026-09-06 00:40:11 | 49.45684 | 15.65323 | 179° | 7km/h | 31088m | 6.2m/s | -43.6°C | 1.6% | 0hPa | 2.6V | 00:00:00 | 00:00:00 | 00:00:00 | |
| DL6DJ-15 | 2026-09-06 00:40:09 | 49.45689 | 15.65322 | 133° | 5km/h | 31067m | 7.5m/s | -43.6°C | 0.0% | -1.0hPa | 2.6V | 00:00:00 | 00:00:00 | 00:00:00 | |
| OE3MUC-15 | 2026-09-06 00:40:07 | 49.45690 | 15.65320 | 120° | 9km/h | 31060m | 6.0m/s | -43.5°C | 1.6% | 0hPa | 2.6V | 00:00:00 | 00:00:00 | 00:00:00 | |
| SONDE2-11 | 2026-09-06 00:40:06 | 49.45693 | 15.65316 | 145° | 7km/h | 31046m | 7.8m/s | -43.5°C | 0.0% | -1.0hPa | 2.6V | 00:00:00 | 00:00:00 | 00:00:00 | |
| PETON7-10 | 2026-09-06 00:40:05 | 49.45693 | 15.65316 | 146° | 11km/h | 31046m | 7.7m/s | -43.5°C | 1.6% | 0hPa | 2.6V | 00:00:00 | 01:54:01 | 00:00:00 | |
| OE3MUC-15 | 2026-09-06 00:40:03 | 49.45698 | 15.65311 | 155° | 16km/h | 31031m | 6.3m/s | -43.4°C | 1.6% | 0hPa | 2.6V | 00:00:00 | 00:00:00 | 00:00:00 | |
| HARRO8 | 2026-09-06 00:40:02 | 49.45702 | 15.65308 | 144° | 16km/h | 31025m | 6.0m/s | -43.5°C | 0.0% | -1.0hPa | 2.6V | 00:00:00 | 00:00:00 | 00:00:00 | |
| EDDB2-11 | 2026-09-06 00:40:01 | 49.45705 | 15.65303 | 124° | 16km/h | 31018m | 7.2m/s | -43.5°C | 0.0% | -1.0hPa | 2.6V | 00:00:00 | 00:00:00 | 00:00:00 | |
| EDDB2-12 | 2026-09-06 00:39:53 | 49.45705 | 15.65285 | 227° | 4km/h | 30963m | 7.0m/s | -43.3°C | 0.0% | -1.0hPa | 2.6V | 00:00:00 | 00:00:00 | 00:00:00 | |
| DB0ND-19 | 2026-09-06 00:39:45 | 49.45716 | 15.65263 | 58° | 13km/h | 30900m | 9.3m/s | -43.1°C | 0.0% | -1.0hPa | 2.6V | 00:00:00 | 00:00:00 | 00:00:00 | |
| PG1ADW-2 | 2026-09-06 00:39:44 | 49.45716 | 15.65263 | 59° | 26km/h | 30900m | 9.2m/s | -43.1°C | 1.6% | 0hPa | 2.6V | 00:00:00 | 00:00:00 | 00:00:00 | |
| OE3MUC-15 | 2026-09-06 00:39:43 | 49.45715 | 15.65258 | 80° | 11km/h | 30892m | 6.3m/s | -43.1°C | 1.5% | 0hPa | 2.6V | 00:00:00 | 00:00:00 | 00:00:00 | |
| S52SK | 2026-09-06 00:39:39 | 49.45718 | 15.65247 | 165° | 11km/h | 30870m | 9.1m/s | -43.1°C | 0% | 0hPa | 2.5V | 00:00:00 | 00:00:00 | 00:00:00 | |
| DL6DJ-15 | 2026-09-06 00:39:38 | 49.45727 | 15.65242 | 142° | 13km/h | 30852m | 6.6m/s | -43.0°C | 0.0% | -1.0hPa | 2.5V | 00:00:00 | 00:00:00 | 00:00:00 | |
| SONDE2-11 | 2026-09-06 00:39:35 | 49.45737 | 15.65225 | 126° | 22km/h | 30828m | 6.0m/s | -43.1°C | 0.0% | -1.0hPa | 2.5V | 00:00:00 | 00:00:00 | 00:00:00 | |
| OE5DRO-10 | 2026-09-06 00:39:34 | 49.45737 | 15.65225 | 127° | 13km/h | 30828m | 6.0m/s | -43.0°C | 1.5% | 0hPa | 2.5V | 00:00:00 | 00:00:00 | 08:30:00 | |
| HARRO8 | 2026-09-06 00:39:32 | 49.45745 | 15.65209 | 140° | 9km/h | 30807m | 5.9m/s | -43.1°C | 0.0% | -1.0hPa | 2.5V | 00:00:00 | 00:00:00 | 00:00:00 | |
| EDDB2-11 | 2026-09-06 00:39:30 | 49.45747 | 15.65207 | 146° | 7km/h | 30801m | 6.6m/s | -43.1°C | 0.0% | -1.0hPa | 2.5V | 00:00:00 | 00:00:00 | 00:00:00 | |
| HA6NAB-11 | 2026-09-06 00:39:29 | 49.45749 | 15.65206 | 149° | 9km/h | 30793m | 8.2m/s | -43.1°C | 0% | 0hPa | 2.5V | 00:00:00 | 00:00:00 | 00:00:00 | |
| OE3JTB-15 | 2026-09-06 00:39:28 | 49.45751 | 15.65204 | 151° | 9km/h | 30785m | 7.3m/s | -43.1°C | 1.6% | 0hPa | 2.5V | 00:00:00 | 00:00:00 | 08:30:00 | |
| OE5MMP-10 | 2026-09-06 00:39:26 | 49.45758 | 15.65198 | 151° | 13km/h | 30771m | 7.2m/s | -43.0°C | 1.5% | 0hPa | 2.6V | 00:00:00 | 01:53:22 | 08:30:00 | |
| DO3MHA-11 | 2026-09-06 00:39:25 | 49.45761 | 15.65195 | 154° | 13km/h | 30763m | 8.4m/s | -43.0°C | 1.6% | 0hPa | 2.5V | 00:00:00 | 01:53:21 | 00:00:00 | |
| OK1ALN | 2026-09-06 00:39:24 | 49.45761 | 15.65195 | 154° | 15km/h | 30763m | 8.5m/s | -43.0°C | 0% | 0hPa | 2.5V | 00:00:00 | 00:00:00 | 00:00:00 | |
| EDDB2-12 | 2026-09-06 00:39:22 | 49.45768 | 15.65187 | 122° | 9km/h | 30744m | 6.9m/s | -43.0°C | 0.0% | -1.0hPa | 2.5V | 00:00:00 | 00:00:00 | 00:00:00 | |
| PETON7-10 | 2026-09-06 00:39:20 | 49.45771 | 15.65177 | 108° | 9km/h | 30727m | 8.4m/s | -43.0°C | 1.5% | 0hPa | 2.5V | 00:00:00 | 01:53:16 | 00:00:00 | |
| OE3MUC-15 | 2026-09-06 00:39:19 | 49.45772 | 15.65171 | 104° | 9km/h | 30720m | 5.2m/s | -43.0°C | 1.5% | 0hPa | 2.5V | 00:00:00 | 00:00:00 | 08:30:00 | |
| HA6NAB-11 | 2026-09-06 00:39:18 | 49.45773 | 15.65166 | 103° | 13km/h | 30714m | 5.7m/s | -43.1°C | 0% | 0hPa | 2.6V | 00:00:00 | 00:00:00 | 00:00:00 | |
| OE5MMP-10 | 2026-09-06 00:39:16 | 49.45773 | 15.65159 | 46° | 7km/h | 30699m | 7.6m/s | -43.1°C | 1.6% | 0hPa | 2.6V | 00:00:00 | 01:53:12 | 00:00:00 | |
| DO3MHA-11 | 2026-09-06 00:39:15 | 49.45772 | 15.65159 | 319° | 7km/h | 30693m | 5.0m/s | -43.0°C | 1.6% | 0hPa | 2.6V | 00:00:00 | 01:53:11 | 08:30:00 | |
| OE3MUC-15 | 2026-09-06 00:39:14 | 49.45772 | 15.65160 | 278° | 9km/h | 30688m | 6.1m/s | -43.0°C | 1.5% | 0hPa | 2.5V | 00:00:00 | 00:00:00 | 00:00:00 | |
| HA6NAB-11 | 2026-09-06 00:39:12 | 49.45772 | 15.65161 | 222° | 2km/h | 30681m | 7.1m/s | -43.0°C | 0% | 0hPa | 2.5V | 00:00:00 | 00:00:00 | 00:00:00 | |
| OE3MUC-15 | 2026-09-06 00:39:10 | 49.45779 | 15.65159 | 159° | 11km/h | 30657m | 5.4m/s | -42.9°C | 1.6% | 0hPa | 2.5V | 00:00:00 | 00:00:00 | 00:00:00 | |
| HA6NAB-11 | 2026-09-06 00:39:06 | 49.45787 | 15.65155 | 168° | 5km/h | 30635m | 6.4m/s | -43.0°C | 0% | 0hPa | 2.5V | 00:00:00 | 00:00:00 | 00:00:00 | |
| PETON7-10 | 2026-09-06 00:39:05 | 49.45789 | 15.65153 | 142° | 11km/h | 30624m | 5.8m/s | -42.8°C | 1.5% | 0hPa | 2.5V | 00:00:00 | 00:00:00 | 00:00:00 | |
| SONDE2-11 | 2026-09-06 00:39:04 | 49.45792 | 15.65149 | 138° | 11km/h | 30607m | 8.0m/s | -42.8°C | 0.0% | -1.0hPa | 2.6V | 00:00:00 | 00:00:00 | 00:00:00 | |
| OE3MUC-15 | 2026-09-06 00:39:02 | 49.45794 | 15.65147 | 149° | 7km/h | 30601m | 4.9m/s | -42.7°C | 1.5% | 0hPa | 2.6V | 00:00:00 | 00:00:00 | 00:00:00 | |
| HARRO8 | 2026-09-06 00:39:00 | 49.45798 | 15.65145 | 200° | 5km/h | 30588m | 8.6m/s | -42.7°C | 0.0% | -1.0hPa | 2.6V | 00:00:00 | 00:00:00 | 00:00:00 | |
| EDDB2-11 | 2026-09-06 00:38:59 | 49.45799 | 15.65147 | 241° | 5km/h | 30580m | 7.1m/s | -42.7°C | 0.0% | -1.0hPa | 2.6V | 00:00:00 | 00:00:00 | 00:00:00 | |
| DC4HF-4 | 2026-09-06 00:38:53 | 49.45816 | 15.65140 | 144° | 16km/h | 30539m | 7.5m/s | -42.7°C | 0.0% | -1.0hPa | 2.6V | 00:00:00 | 00:00:00 | 00:00:00 | |
| EDDB2-12 | 2026-09-06 00:38:51 | 49.45821 | 15.65133 | 131° | 11km/h | 30524m | 5.4m/s | -42.8°C | 0.0% | -1.0hPa | 2.6V | 00:00:00 | 00:00:00 | 00:00:00 | |
| PETON7-10 | 2026-09-06 00:38:50 | 49.45823 | 15.65129 | 125° | 15km/h | 30518m | 5.6m/s | -42.7°C | 1.5% | 0hPa | 2.6V | 00:00:00 | 00:00:00 | 00:00:00 | |
| OE3MUC-15 | 2026-09-06 00:38:46 | 49.45830 | 15.65110 | 110° | 5km/h | 30492m | 5.2m/s | -42.8°C | 1.5% | 0hPa | 2.6V | 00:00:00 | 00:00:00 | 00:00:00 | |
| OK1SLM-15 | 2026-09-06 00:38:45 | 49.45830 | 15.65109 | 104° | 2km/h | 30485m | 8.5m/s | -42.8°C | 0% | 0hPa | 2.6V | 00:00:00 | 00:00:00 | 00:00:00 | |
| OK1ALN | 2026-09-06 00:38:44 | 49.45830 | 15.65109 | 279° | 5km/h | 30477m | 7.5m/s | -42.8°C | 0% | 0hPa | 2.6V | 00:00:00 | 00:00:00 | 00:00:00 | |
| DB0ND-19 | 2026-09-06 00:38:43 | 49.45832 | 15.65116 | 223° | 11km/h | 30464m | 5.8m/s | -42.8°C | 0.0% | -1.0hPa | 2.6V | 00:00:00 | 00:00:00 | 00:00:00 | |
| OE3MUC-15 | 2026-09-06 00:38:42 | 49.45832 | 15.65116 | 224° | 22km/h | 30464m | 5.8m/s | -42.7°C | 1.5% | 0hPa | 2.6V | 00:00:00 | 00:00:00 | 08:30:00 | |
| OK1SLM-15 | 2026-09-06 00:38:39 | 49.45845 | 15.65119 | 175° | 24km/h | 30442m | 6.1m/s | -42.8°C | 0% | 0hPa | 2.6V | 00:00:00 | 00:00:00 | 00:00:00 | |
| OE5DRO-10 | 2026-09-06 00:38:37 | 49.45857 | 15.65117 | 177° | 16km/h | 30428m | 7.9m/s | -42.8°C | 1.5% | 0hPa | 2.6V | 00:00:00 | 00:00:00 | 00:00:00 | |
| DL6DJ-15 | 2026-09-06 00:38:36 | 49.45868 | 15.65115 | 169° | 18km/h | 30416m | 5.3m/s | -43.0°C | 0.0% | -1.0hPa | 2.5V | 00:00:00 | 00:00:00 | 00:00:00 | |
| DO3MHA-11 | 2026-09-06 00:38:35 | 49.45868 | 15.65115 | 170° | 11km/h | 30416m | 5.3m/s | -42.9°C | 1.5% | 0hPa | 2.5V | 00:00:00 | 01:52:31 | 00:00:00 | |
| SONDE2-11 | 2026-09-06 00:38:33 | 49.45878 | 15.65105 | 120° | 16km/h | 30395m | 6.7m/s | -43.0°C | 0.0% | -1.0hPa | 2.5V | 00:00:00 | 00:00:00 | 00:00:00 | |
| DB0UT-7 | 2026-09-06 00:38:31 | 49.45880 | 15.65099 | 103° | 15km/h | 30389m | 5.9m/s | -42.9°C | 1.5% | 0hPa | 2.5V | 00:00:00 | 01:52:27 | 00:00:00 | |
| OE3JTB-15 | 2026-09-06 00:38:30 | 49.45880 | 15.65095 | 93° | 15km/h | 30382m | 6.8m/s | -43.0°C | 1.5% | 0hPa | 2.5V | 00:00:00 | 01:52:26 | 00:00:00 | |
| HARRO8 | 2026-09-06 00:38:29 | 49.45880 | 15.65092 | 79° | 2km/h | 30375m | 7.7m/s | -43.0°C | 0.0% | -1.0hPa | 2.5V | 00:00:00 | 00:00:00 | 00:00:00 | |
| OE3MUC-15 | 2026-09-06 00:38:28 | 49.45880 | 15.65092 | 253° | 7km/h | 30368m | 5.8m/s | -43.0°C | 1.6% | 0hPa | 2.5V | 00:00:00 | 00:00:00 | 00:00:00 | |
| OE5MMP-10 | 2026-09-06 00:38:26 | 49.45882 | 15.65095 | 197° | 18km/h | 30357m | 6.2m/s | -42.9°C | 1.5% | 0hPa | 2.5V | 00:00:00 | 01:52:22 | 00:00:00 | |
| DO3MHA-11 | 2026-09-06 00:38:25 | 49.45885 | 15.65095 | 175° | 18km/h | 30350m | 7.7m/s | -42.9°C | 1.5% | 0hPa | 2.6V | 00:00:00 | 01:52:21 | 00:00:00 | |
| OE3MUC-15 | 2026-09-06 00:38:24 | 49.45889 | 15.65093 | 159° | 24km/h | 30342m | 7.1m/s | -42.9°C | 1.5% | 0hPa | 2.6V | 00:00:00 | 00:00:00 | 00:00:00 | |
| OK1ALN | 2026-09-06 00:38:23 | 49.45895 | 15.65089 | 153° | 24km/h | 30336m | 5.4m/s | -43.0°C | 0% | 0hPa | 2.6V | 00:00:00 | 00:00:00 | 00:00:00 | |
| PETON7-10 | 2026-09-06 00:38:20 | 49.45910 | 15.65077 | 157° | 15km/h | 30317m | 7.1m/s | -43.1°C | 1.5% | 0hPa | 2.6V | 00:00:00 | 00:00:00 | 08:30:00 | |
| OE5DRO-10 | 2026-09-06 00:38:18 | 49.45917 | 15.65072 | 155° | 15km/h | 30304m | 5.4m/s | -43.1°C | 1.5% | 0hPa | 2.6V | 00:00:00 | 00:00:00 | 00:00:00 | |
| DC4HF-4 | 2026-09-06 00:38:17 | 49.45920 | 15.65069 | 147° | 13km/h | 30298m | 7.1m/s | -43.2°C | 0.0% | -1.0hPa | 2.6V | 00:00:00 | 00:00:00 | 00:00:00 | |
| OE3MUC-15 | 2026-09-06 00:38:16 | 49.45923 | 15.65065 | 133° | 15km/h | 30290m | 7.5m/s | -43.1°C | 1.5% | 0hPa | 2.6V | 00:00:00 | 00:00:00 | 00:00:00 | |
| DO3MHA-11 | 2026-09-06 00:38:15 | 49.45925 | 15.65060 | 115° | 13km/h | 30283m | 6.4m/s | -43.1°C | 1.5% | 0hPa | 2.6V | 00:00:00 | 01:52:11 | 00:00:00 | |
| OE3MUC-15 | 2026-09-06 00:38:12 | 49.45928 | 15.65048 | 101° | 7km/h | 30264m | 7.9m/s | -43.2°C | 1.5% | 0hPa | 2.6V | 00:00:00 | 00:00:00 | 00:00:00 | |
| NBG1-10 | 2026-09-06 00:38:10 | 49.45929 | 15.65051 | 244° | 18km/h | 30250m | 5.4m/s | -43.2°C | 1.5% | 0hPa | 2.6V | 00:00:00 | 01:52:06 | 00:00:00 | |
| OE3MUC-15 | 2026-09-06 00:38:08 | 49.45933 | 15.65056 | 199° | 22km/h | 30237m | 7.8m/s | -43.3°C | 1.5% | 0hPa | 2.6V | 00:00:00 | 00:00:00 | 00:00:00 | |
| OE5MMP-10 | 2026-09-06 00:38:06 | 49.45944 | 15.65058 | 184° | 20km/h | 30224m | 5.0m/s | -43.4°C | 1.5% | 0hPa | 2.6V | 00:00:00 | 01:52:02 | 00:00:00 | |
| DL6DJ-15 | 2026-09-06 00:38:05 | 49.45956 | 15.65059 | 180° | 18km/h | 30212m | 6.8m/s | -43.5°C | 0.0% | -1.0hPa | 2.6V | 00:00:00 | 00:00:00 | 00:00:00 | |
| SP3BTT-10 | 2026-09-06 00:38:04 | 49.45956 | 15.65059 | 181° | 20km/h | 30212m | 6.8m/s | -43.5°C | 1.5% | 0hPa | 2.6V | 00:00:00 | 00:00:00 | 00:00:00 | |
| OE3MUC-15 | 2026-09-06 00:38:03 | 49.45960 | 15.65058 | 154° | 18km/h | 30205m | 5.5m/s | -43.5°C | 1.6% | 0hPa | 2.6V | 00:00:00 | 00:00:00 | 08:30:00 | |
| OK1ALN | 2026-09-06 00:38:02 | 49.45962 | 15.65054 | 116° | 15km/h | 30200m | 5.5m/s | -43.6°C | 0% | 0hPa | 2.5V | 00:00:00 | 00:00:00 | 00:00:00 | |
| HARRO8 | 2026-09-06 00:37:58 | 49.45968 | 15.65021 | 118° | 20km/h | 30172m | 6.3m/s | -43.8°C | 0.0% | -1.0hPa | 2.5V | 00:00:00 | 00:00:00 | 00:00:00 | |
| EDDB2-11 | 2026-09-06 00:37:57 | 49.45970 | 15.65016 | 130° | 15km/h | 30165m | 7.8m/s | -43.9°C | 0.0% | -1.0hPa | 2.5V | 00:00:00 | 00:00:00 | 00:00:00 | |
| EDDB2-12 | 2026-09-06 00:37:49 | 49.45999 | 15.64999 | 144° | 5km/h | 30114m | 5.1m/s | -44.1°C | 0.0% | -1.0hPa | 2.5V | 00:00:00 | 00:00:00 | 00:00:00 | |
| OE3MUC-15 | 2026-09-06 00:37:47 | 49.45998 | 15.64991 | 65° | 26km/h | 30101m | 7.9m/s | -44.0°C | 1.6% | 0hPa | 2.5V | 00:00:00 | 00:00:00 | 00:00:00 | |
| S52SK | 2026-09-06 00:37:46 | 49.45995 | 15.64983 | 66° | 26km/h | 30093m | 9.2m/s | -44.1°C | 0% | 0hPa | 2.5V | 00:00:00 | 00:00:00 | 00:00:00 | |
| DO3MHA-11 | 2026-09-06 00:37:45 | 49.45992 | 15.64973 | 69° | 22km/h | 30085m | 6.7m/s | -44.0°C | 1.5% | 0hPa | 2.5V | 00:00:00 | 01:51:41 | 08:30:00 | |
| OE3MUC-15 | 2026-09-06 00:37:43 | 49.45988 | 15.64952 | 76° | 16km/h | 30072m | 6.4m/s | -44.1°C | 1.6% | 0hPa | 2.6V | 00:00:00 | 00:00:00 | 00:00:00 | |
| DB0ND-19 | 2026-09-06 00:37:41 | 49.45988 | 15.64935 | 137° | 9km/h | 30055m | 5.7m/s | -44.2°C | 0.0% | -1.0hPa | 2.6V | 00:00:00 | 00:00:00 | 00:00:00 | |
| S52SK | 2026-09-06 00:37:40 | 49.45988 | 15.64935 | 139° | 9km/h | 30055m | 5.7m/s | -44.2°C | 0% | 0hPa | 2.6V | 00:00:00 | 00:00:00 | 00:00:00 | |
| OK1SLM-15 | 2026-09-06 00:37:38 | 49.45990 | 15.64933 | 169° | 15km/h | 30049m | 7.4m/s | -44.3°C | 0% | 0hPa | 2.6V | 00:00:00 | 00:00:00 | 00:00:00 | |
| NBG1-10 | 2026-09-06 00:37:37 | 49.46000 | 15.64932 | 184° | 16km/h | 30032m | 6.2m/s | -44.3°C | 1.6% | 0hPa | 2.6V | 00:00:00 | 01:51:33 | 00:00:00 | |
| OE5MMP-10 | 2026-09-06 00:37:36 | 49.46006 | 15.64933 | 184° | 22km/h | 30027m | 4.0m/s | -44.4°C | 1.6% | 0hPa | 2.6V | 00:00:00 | 01:51:32 | 00:00:00 | |
| PETON7-10 | 2026-09-06 00:37:35 | 49.46012 | 15.64933 | 182° | 16km/h | 30022m | 5.2m/s | -44.5°C | 1.6% | 0hPa | 2.6V | 00:00:00 | 00:00:00 | 00:00:00 | |
| SP3BTT-10 | 2026-09-06 00:37:34 | 49.46016 | 15.64933 | 172° | 22km/h | 30016m | 8.2m/s | -44.6°C | 1.6% | 0hPa | 2.5V | 00:00:00 | 00:00:00 | 00:00:00 | |
| DL6DJ-15 | 2026-09-06 00:37:33 | 49.46017 | 15.64931 | 71° | 5km/h | 30007m | 8.9m/s | -44.8°C | 0.0% | -1.0hPa | 2.6V | 00:00:00 | 00:00:00 | 00:00:00 | |
| OE3JTB-15 | 2026-09-06 00:37:32 | 49.46015 | 15.64927 | 43° | 15km/h | 30000m | 4.6m/s | -44.8°C | 1.6% | 0hPa | 2.6V | 00:00:00 | 00:00:00 | 00:00:00 | |
| SONDE2-11 | 2026-09-06 00:37:31 | 49.46006 | 15.64913 | 52° | 27km/h | 29988m | 8.1m/s | -44.9°C | 0.0% | -1.0hPa | 2.6V | 00:00:00 | 00:00:00 | 00:00:00 | |
| HARRO8 | 2026-09-06 00:37:27 | 49.46000 | 15.64885 | 96° | 18km/h | 29969m | 3.6m/s | -45.1°C | 0.0% | -1.0hPa | 2.6V | 00:00:00 | 00:00:00 | 00:00:00 | |
| OE5MMP-10 | 2026-09-06 00:37:26 | 49.46001 | 15.64879 | 107° | 15km/h | 29965m | 6.3m/s | -45.1°C | 1.7% | 0hPa | 2.6V | 00:00:00 | 01:51:22 | 00:00:00 | |
| DO3MHA-11 | 2026-09-06 00:37:25 | 49.46002 | 15.64875 | 116° | 16km/h | 29957m | 9.9m/s | -45.1°C | 1.6% | 0hPa | 2.5V | 00:00:00 | 01:51:21 | 00:00:00 | |
| OK1ALN | 2026-09-06 00:37:21 | 49.46010 | 15.64871 | 154° | 13km/h | 29931m | 8.2m/s | -45.4°C | 0% | 0hPa | 2.5V | 00:00:00 | 00:00:00 | 00:00:00 | |
| PETON7-10 | 2026-09-06 00:37:20 | 49.46013 | 15.64867 | 132° | 15km/h | 29923m | 8.5m/s | -45.5°C | 1.7% | 0hPa | 2.5V | 00:00:00 | 00:00:00 | 00:00:00 | |
| OE3MUC-15 | 2026-09-06 00:37:19 | 49.46015 | 15.64861 | 102° | 24km/h | 29917m | 3.9m/s | -45.6°C | 1.7% | 0hPa | 2.5V | 00:00:00 | 00:00:00 | 00:00:00 | |
| DB0UT-7 | 2026-09-06 00:37:18 | 49.46015 | 15.64852 | 84° | 11km/h | 29912m | 5.9m/s | -45.7°C | 1.7% | 0hPa | 2.5V | 00:00:00 | 00:00:00 | 00:00:00 | |
| OE5MMP-10 | 2026-09-06 00:37:16 | 49.46010 | 15.64836 | 44° | 13km/h | 29895m | 7.9m/s | -45.8°C | 1.7% | 0hPa | 2.6V | 00:00:00 | 01:51:12 | 00:00:00 | |
| DO3MHA-11 | 2026-09-06 00:37:15 | 49.46005 | 15.64830 | 30° | 11km/h | 29890m | 3.3m/s | -45.9°C | 1.8% | 0hPa | 2.6V | 00:00:00 | 01:51:11 | 00:00:00 | |
| OE3MUC-15 | 2026-09-06 00:37:11 | 49.45993 | 15.64820 | 167° | 7km/h | 29865m | 5.1m/s | -46.2°C | 1.8% | 0hPa | 2.5V | 00:00:00 | 00:00:00 | 00:00:00 | |
| OE3MUC-15 | 2026-09-06 00:37:07 | 49.46000 | 15.64826 | 238° | 5km/h | 29838m | 4.7m/s | -46.2°C | 1.8% | 0hPa | 2.5V | 00:00:00 | 00:00:00 | 00:00:00 | |
| OE5DXL-15 | 2026-09-06 00:37:06 | 49.46001 | 15.64827 | 218° | 9km/h | 29833m | 5.7m/s | -46.2°C | 1.8% | 0hPa | 2.5V | 00:00:00 | 00:00:00 | 00:00:00 | |
| DO3MHA-11 | 2026-09-06 00:37:05 | 49.46002 | 15.64828 | 167° | 7km/h | 29826m | 8.6m/s | -46.2°C | 1.8% | 0hPa | 2.6V | 00:00:00 | 01:51:01 | 00:00:00 | |
| NBG1-10 | 2026-09-06 00:37:04 | 49.46003 | 15.64826 | 128° | 9km/h | 29817m | 8.1m/s | -46.2°C | 1.8% | 0hPa | 2.6V | 00:00:00 | 01:51:00 | 00:00:00 | |
| OE3MUC-15 | 2026-09-06 00:37:03 | 49.46005 | 15.64823 | 107° | 9km/h | 29811m | 5.0m/s | -46.2°C | 1.8% | 0hPa | 2.6V | 00:00:00 | 00:00:00 | 00:00:00 | |
| OE5DRO-10 | 2026-09-06 00:37:02 | 49.46005 | 15.64820 | 82° | 7km/h | 29805m | 5.7m/s | -46.2°C | 1.8% | 0hPa | 2.5V | 00:00:00 | 00:00:00 | 00:00:00 | |
| OK1ALN | 2026-09-06 00:37:00 | 49.46002 | 15.64815 | 9° | 9km/h | 29791m | 5.9m/s | -46.3°C | 0% | 0hPa | 2.5V | 00:00:00 | 00:00:00 | 00:00:00 | |
| OE3MUC-15 | 2026-09-06 00:36:59 | 49.46000 | 15.64816 | 341° | 7km/h | 29785m | 4.3m/s | -46.3°C | 1.8% | 0hPa | 2.5V | 00:00:00 | 00:00:00 | 00:00:00 | |
| OE5MMP-10 | 2026-09-06 00:36:56 | 49.46003 | 15.64819 | 191° | 7km/h | 29765m | 6.7m/s | -46.3°C | 1.8% | 0hPa | 2.5V | 00:00:00 | 01:50:52 | 00:00:00 | |
| DO3MHA-11 | 2026-09-06 00:36:55 | 49.46006 | 15.64820 | 198° | 7km/h | 29759m | 5.0m/s | -46.3°C | 1.8% | 0hPa | 2.5V | 00:00:00 | 01:50:51 | 00:00:00 | |
| OE3MUC-15 | 2026-09-06 00:36:51 | 49.46014 | 15.64832 | 269° | 4km/h | 29732m | 5.7m/s | -46.3°C | 1.8% | 0hPa | 2.5V | 00:00:00 | 00:00:00 | 08:30:00 | |
| PETON7-10 | 2026-09-06 00:36:50 | 49.46014 | 15.64834 | 280° | 11km/h | 29725m | 7.7m/s | -46.3°C | 1.8% | 0hPa | 2.5V | 00:00:00 | 00:00:00 | 00:00:00 | |
| DB0UT-7 | 2026-09-06 00:36:48 | 49.46014 | 15.64834 | 54° | 16km/h | 29710m | 5.6m/s | -46.4°C | 1.8% | 0hPa | 2.5V | 00:00:00 | 01:50:44 | 00:00:00 | |
| OE3MUC-15 | 2026-09-06 00:36:47 | 49.46013 | 15.64833 | 359° | 7km/h | 29704m | 5.4m/s | -46.4°C | 1.9% | 0hPa | 2.5V | 00:00:00 | 00:00:00 | 00:00:00 | |
| OE5MMP-10 | 2026-09-06 00:36:46 | 49.46012 | 15.64834 | 320° | 15km/h | 29698m | 7.5m/s | -46.5°C | 1.9% | 0hPa | 2.5V | 00:00:00 | 01:50:42 | 00:00:00 | |
| DO3MHA-11 | 2026-09-06 00:36:45 | 49.46011 | 15.64836 | 293° | 15km/h | 29691m | 6.2m/s | -46.6°C | 1.9% | 0hPa | 2.5V | 00:00:00 | 01:50:41 | 00:00:00 | |
| OE3MUC-15 | 2026-09-06 00:36:43 | 49.46012 | 15.64845 | 240° | 18km/h | 29680m | 5.4m/s | -46.7°C | 1.9% | 0hPa | 2.5V | 00:00:00 | 00:00:00 | 00:00:00 | |
| OK1SLM-15 | 2026-09-06 00:36:40 | 49.46023 | 15.64854 | 194° | 22km/h | 29659m | 5.8m/s | -46.6°C | 0% | 0hPa | 2.5V | 00:00:00 | 00:00:00 | 00:00:00 | |
| OK1ALN | 2026-09-06 00:36:39 | 49.46029 | 15.64856 | 195° | 20km/h | 29653m | 5.6m/s | -46.5°C | 0% | 0hPa | 2.5V | 00:00:00 | 00:00:00 | 00:00:00 | |
| OE5MMP-10 | 2026-09-06 00:36:36 | 49.46038 | 15.64863 | 229° | 7km/h | 29634m | 6.0m/s | -46.4°C | 1.8% | 0hPa | 2.5V | 00:00:00 | 01:50:32 | 00:00:00 | |
| DO3MHA-11 | 2026-09-06 00:36:35 | 49.46039 | 15.64865 | 229° | 11km/h | 29627m | 7.2m/s | -46.4°C | 1.8% | 0hPa | 2.5V | 00:00:00 | 01:50:31 | 00:00:00 | |
| OK1SLM-15 | 2026-09-06 00:36:34 | 49.46040 | 15.64865 | 0° | 0km/h | 29620m | 7.5m/s | -46.5°C | 0% | 0hPa | 2.5V | 00:00:00 | 00:00:00 | 00:00:00 | |
| NBG1-10 | 2026-09-06 00:36:31 | 49.46040 | 15.64865 | 309° | 26km/h | 29602m | 6.5m/s | -46.4°C | 1.9% | 0hPa | 2.5V | 00:00:00 | 01:50:27 | 00:00:00 | |
| OK1SLM-15 | 2026-09-06 00:36:29 | 49.46040 | 15.64871 | 253° | 13km/h | 29588m | 6.1m/s | -46.4°C | 0% | 0hPa | 2.5V | 00:00:00 | 00:00:00 | 00:00:00 | |
| SONDE2-11 | 2026-09-06 00:36:28 | 49.46042 | 15.64876 | 228° | 18km/h | 29583m | 4.9m/s | -46.4°C | 0.0% | -1.0hPa | 2.5V | 00:00:00 | 00:00:00 | 00:00:00 | |
| OE3MUC-15 | 2026-09-06 00:36:27 | 49.46046 | 15.64881 | 212° | 31km/h | 29578m | 5.3m/s | -46.4°C | 1.8% | 0hPa | 2.5V | 00:00:00 | 00:00:00 | 00:00:00 | |
| OE5MMP-10 | 2026-09-06 00:36:26 | 49.46052 | 15.64886 | 199° | 24km/h | 29571m | 7.5m/s | -46.4°C | 1.8% | 0hPa | 2.5V | 00:00:00 | 01:50:22 | 08:30:00 | |
| OE5DRO-10 | 2026-09-06 00:36:24 | 49.46069 | 15.64888 | 172° | 27km/h | 29557m | 5.9m/s | -46.4°C | 1.8% | 0hPa | 2.5V | 00:00:00 | 00:00:00 | 00:00:00 | |
| OE3MUC-15 | 2026-09-06 00:36:23 | 49.46077 | 15.64885 | 167° | 22km/h | 29551m | 4.7m/s | -46.5°C | 1.9% | 0hPa | 2.5V | 00:00:00 | 00:00:00 | 00:00:00 | |
| PETON7-10 | 2026-09-06 00:36:20 | 49.46093 | 15.64882 | 209° | 27km/h | 29534m | 6.7m/s | -46.5°C | 1.9% | 0hPa | 2.5V | 00:00:00 | 01:50:16 | 00:00:00 | |
| OK1ALN | 2026-09-06 00:36:19 | 49.46095 | 15.64885 | 244° | 13km/h | 29526m | 7.5m/s | -46.5°C | 0% | 0hPa | 2.5V | 00:00:00 | 00:00:00 | 00:00:00 | |
| SP3BTT-10 | 2026-09-06 00:36:18 | 49.46096 | 15.64890 | 250° | 26km/h | 29518m | 7.4m/s | -46.4°C | 1.8% | 0hPa | 2.5V | 00:00:00 | 00:00:00 | 00:00:00 | |
| OE5MMP-10 | 2026-09-06 00:36:16 | 49.46101 | 15.64903 | 225° | 31km/h | 29506m | 5.5m/s | -46.5°C | 1.9% | 0hPa | 2.5V | 00:00:00 | 01:50:12 | 00:00:00 | |
| DO3MHA-11 | 2026-09-06 00:36:15 | 49.46106 | 15.64908 | 206° | 26km/h | 29500m | 5.8m/s | -46.6°C | 1.9% | 0hPa | 2.5V | 00:00:00 | 01:50:11 | 08:30:00 | |
| OE3MUC-15 | 2026-09-06 00:36:11 | 49.46128 | 15.64900 | 153° | 38km/h | 29473m | 5.5m/s | -46.7°C | 1.9% | 0hPa | 2.5V | 00:00:00 | 00:00:00 | 00:00:00 | |
| OE3MUC-15 | 2026-09-06 00:36:07 | 49.46166 | 15.64885 | 177° | 35km/h | 29446m | 4.0m/s | -46.5°C | 1.9% | 0hPa | 2.5V | 00:00:00 | 00:00:00 | 00:00:00 | |
| OE5MMP-10 | 2026-09-06 00:36:06 | 49.46176 | 15.64884 | 178° | 26km/h | 29442m | 5.9m/s | -46.5°C | 1.9% | 0hPa | 2.5V | 00:00:00 | 01:50:02 | 00:00:00 | |
| PETON7-10 | 2026-09-06 00:36:05 | 49.46184 | 15.64883 | 176° | 27km/h | 29434m | 8.8m/s | -46.4°C | 1.9% | 0hPa | 2.5V | 00:00:00 | 00:00:00 | 08:30:00 | |
| OE3MUC-15 | 2026-09-06 00:36:03 | 49.46197 | 15.64879 | 160° | 22km/h | 29420m | 4.5m/s | -46.3°C | 1.9% | 0hPa | 2.6V | 00:00:00 | 00:00:00 | 00:00:00 | |
| DL6DJ-15 | 2026-09-06 00:36:00 | 49.46213 | 15.64871 | 166° | 24km/h | 29398m | 6.0m/s | -46.3°C | 0.0% | -1.0hPa | 2.5V | 00:00:00 | 00:00:00 | 00:00:00 | |
| SONDE2-11 | 2026-09-06 00:35:58 | 49.46230 | 15.64863 | 155° | 22km/h | 29379m | 9.0m/s | -46.2°C | 0.0% | -1.0hPa | 2.5V | 00:00:00 | 00:00:00 | 00:00:00 | |
| HARRO8 | 2026-09-06 00:35:54 | 49.46250 | 15.64844 | 151° | 37km/h | 29358m | 7.5m/s | -46.2°C | 0.0% | -1.0hPa | 2.5V | 00:00:00 | 00:00:00 | 00:00:00 | |
| EDDB2-11 | 2026-09-06 00:35:53 | 49.46266 | 15.64835 | 166° | 29km/h | 29345m | 4.7m/s | -46.3°C | 0.0% | -1.0hPa | 2.5V | 00:00:00 | 00:00:00 | 00:00:00 | |
| OE3MUC-15 | 2026-09-06 00:35:51 | 49.46273 | 15.64832 | 170° | 18km/h | 29340m | 6.4m/s | -46.2°C | 1.8% | 0hPa | 2.5V | 00:00:00 | 00:00:00 | 00:00:00 | |
| S52SK | 2026-09-06 00:35:50 | 49.46278 | 15.64831 | 168° | 18km/h | 29332m | 8.9m/s | -46.3°C | 0% | 0hPa | 2.5V | 00:00:00 | 00:00:00 | 00:00:00 | |
| SP3BTT-10 | 2026-09-06 00:35:48 | 49.46285 | 15.64825 | 137° | 20km/h | 29317m | 4.7m/s | -46.2°C | 1.9% | 0hPa | 2.5V | 00:00:00 | 00:00:00 | 00:00:00 | |
| OE3MUC-15 | 2026-09-06 00:35:47 | 49.46289 | 15.64820 | 140° | 22km/h | 29312m | 6.0m/s | -46.3°C | 1.8% | 0hPa | 2.5V | 00:00:00 | 00:00:00 | 00:00:00 | |
| OE5MMP-10 | 2026-09-06 00:35:46 | 49.46293 | 15.64815 | 145° | 22km/h | 29305m | 8.0m/s | -46.3°C | 1.8% | 0hPa | 2.5V | 00:00:00 | 01:49:42 | 00:00:00 | |
| DO3MHA-11 | 2026-09-06 00:35:45 | 49.46298 | 15.64811 | 152° | 22km/h | 29298m | 6.0m/s | -46.4°C | 1.9% | 0hPa | 2.5V | 00:00:00 | 01:49:41 | 00:00:00 | |
| S52SK | 2026-09-06 00:35:44 | 49.46303 | 15.64806 | 155° | 24km/h | 29291m | 6.5m/s | -46.4°C | 0% | 0hPa | 2.5V | 00:00:00 | 00:00:00 | 00:00:00 | |
| OE3MUC-15 | 2026-09-06 00:35:43 | 49.46308 | 15.64802 | 150° | 24km/h | 29284m | 7.8m/s | -46.4°C | 1.9% | 0hPa | 2.5V | 00:00:00 | 00:00:00 | 00:00:00 | |
| OE3JTB-15 | 2026-09-06 00:35:37 | 49.46344 | 15.64780 | 178° | 20km/h | 29234m | 8.4m/s | -46.4°C | 1.9% | 0hPa | 2.5V | 00:00:00 | 01:49:32 | 00:00:00 | |
| OE5MMP-10 | 2026-09-06 00:35:36 | 49.46344 | 15.64780 | 178° | 16km/h | 29234m | 8.4m/s | -46.4°C | 1.9% | 0hPa | 2.5V | 00:00:00 | 01:49:32 | 00:00:00 | |
| PETON7-10 | 2026-09-06 00:35:35 | 49.46348 | 15.64780 | 172° | 16km/h | 29227m | 7.4m/s | -46.4°C | 1.9% | 0hPa | 2.5V | 00:00:00 | 01:49:31 | 00:00:00 | |
| OK1SLM-15 | 2026-09-06 00:35:33 | 49.46355 | 15.64778 | 173° | 15km/h | 29214m | 6.9m/s | -46.4°C | 0% | 0hPa | 2.5V | 00:00:00 | 00:00:00 | 00:00:00 | |
| DL6DJ-15 | 2026-09-06 00:35:29 | 49.46373 | 15.64779 | 181° | 16km/h | 29185m | 7.4m/s | -46.2°C | 0.0% | -1.0hPa | 2.5V | 00:00:00 | 00:00:00 | 00:00:00 | |
| DB0UT-7 | 2026-09-06 00:35:28 | 49.46377 | 15.64779 | 174° | 13km/h | 29177m | 9.0m/s | -46.2°C | 1.8% | 0hPa | 2.5V | 00:00:00 | 00:00:00 | 00:00:00 | |
| OE5DRO-10 | 2026-09-06 00:35:27 | 49.46381 | 15.64777 | 165° | 20km/h | 29169m | 6.6m/s | -46.2°C | 1.8% | 0hPa | 2.5V | 00:00:00 | 00:00:00 | 00:00:00 | |
| OE5MMP-10 | 2026-09-06 00:35:26 | 49.46384 | 15.64777 | 175° | 18km/h | 29163m | 6.0m/s | -46.2°C | 1.8% | 0hPa | 2.5V | 00:00:00 | 01:49:22 | 00:00:00 | |
| DO3MHA-11 | 2026-09-06 00:35:25 | 49.46388 | 15.64777 | 185° | 18km/h | 29156m | 8.0m/s | -46.1°C | 1.8% | 0hPa | 2.5V | 00:00:00 | 01:49:21 | 00:00:00 | |
| HARRO8 | 2026-09-06 00:35:23 | 49.46396 | 15.64780 | 203° | 18km/h | 29142m | 6.3m/s | -46.2°C | 0.0% | -1.0hPa | 2.5V | 00:00:00 | 00:00:00 | 00:00:00 | |
| EDDB2-11 | 2026-09-06 00:35:22 | 49.46405 | 15.64785 | 190° | 16km/h | 29127m | 8.6m/s | -46.2°C | 0.0% | -1.0hPa | 2.5V | 00:00:00 | 00:00:00 | 00:00:00 | |
| PETON7-10 | 2026-09-06 00:35:20 | 49.46410 | 15.64785 | 176° | 24km/h | 29120m | 6.2m/s | -46.2°C | 1.8% | 0hPa | 2.5V | 00:00:00 | 00:00:00 | 00:00:00 | |
| OE3MUC-15 | 2026-09-06 00:35:19 | 49.46414 | 15.64784 | 170° | 18km/h | 29114m | 6.1m/s | -46.2°C | 1.8% | 0hPa | 2.6V | 00:00:00 | 00:00:00 | 00:00:00 | |
| DC4HF-4 | 2026-09-06 00:35:17 | 49.46428 | 15.64782 | 181° | 16km/h | 29091m | 5.1m/s | -46.3°C | 0.0% | -1.0hPa | 2.6V | 00:00:00 | 00:00:00 | 00:00:00 | |
| OE5MMP-10 | 2026-09-06 00:35:16 | 49.46428 | 15.64782 | 182° | 26km/h | 29092m | 5.0m/s | -46.2°C | 1.8% | 0hPa | 2.6V | 00:00:00 | 01:49:12 | 00:00:00 | |
| DO3MHA-11 | 2026-09-06 00:35:15 | 49.46432 | 15.64782 | 178° | 20km/h | 29086m | 6.3m/s | -46.2°C | 1.9% | 0hPa | 2.6V | 00:00:00 | 01:49:11 | 00:00:00 | |
| EDDB2-12 | 2026-09-06 00:35:14 | 49.46441 | 15.64779 | 153° | 18km/h | 29070m | 8.9m/s | -46.3°C | 0.0% | -1.0hPa | 2.5V | 00:00:00 | 00:00:00 | 00:00:00 | |
| OE3MUC-15 | 2026-09-06 00:35:11 | 49.46452 | 15.64770 | 156° | 31km/h | 29057m | 6.7m/s | -46.3°C | 1.8% | 0hPa | 2.5V | 00:00:00 | 00:00:00 | 00:00:00 | |
| OE5DRO-10 | 2026-09-06 00:35:08 | 49.46475 | 15.64763 | 178° | 22km/h | 29035m | 6.3m/s | -46.3°C | 1.8% | 0hPa | 2.5V | 00:00:00 | 00:00:00 | 00:00:00 | |
| OE3MUC-15 | 2026-09-06 00:35:07 | 49.46483 | 15.64762 | 177° | 22km/h | 29028m | 7.5m/s | -46.3°C | 1.8% | 0hPa | 2.5V | 00:00:00 | 00:00:00 | 00:00:00 | |
| OE5MMP-10 | 2026-09-06 00:35:06 | 49.46489 | 15.64761 | 168° | 22km/h | 29020m | 7.1m/s | -46.3°C | 1.9% | 0hPa | 2.5V | 00:00:00 | 01:49:02 | 00:00:00 | |
| PETON7-10 | 2026-09-06 00:35:05 | 49.46495 | 15.64758 | 158° | 22km/h | 29014m | 5.7m/s | -46.3°C | 1.9% | 0hPa | 2.5V | 00:00:00 | 00:00:00 | 00:00:00 | |
| OE3MUC-15 | 2026-09-06 00:35:03 | 49.46503 | 15.64752 | 148° | 18km/h | 28999m | 8.7m/s | -46.4°C | 1.9% | 0hPa | 2.5V | 00:00:00 | 00:00:00 | 08:30:00 | |
| DL6DJ-15 | 2026-09-06 00:34:58 | 49.46525 | 15.64732 | 142° | 24km/h | 28963m | 5.5m/s | -46.4°C | 0.0% | -1.0hPa | 2.6V | 00:00:00 | 00:00:00 | 00:00:00 | |
| SONDE2-11 | 2026-09-06 00:34:55 | 49.46542 | 15.64716 | 156° | 24km/h | 28945m | 8.0m/s | -46.4°C | 0.0% | -1.0hPa | 2.6V | 00:00:00 | 00:00:00 | 00:00:00 | |
| HARRO8 | 2026-09-06 00:34:52 | 49.46559 | 15.64713 | 188° | 20km/h | 28923m | 4.5m/s | -46.4°C | 0.0% | -1.0hPa | 2.6V | 00:00:00 | 00:00:00 | 00:00:00 | |
| EDDB2-11 | 2026-09-06 00:34:51 | 49.46568 | 15.64714 | 175° | 11km/h | 28910m | 9.1m/s | -46.4°C | 0.0% | -1.0hPa | 2.6V | 00:00:00 | 00:00:00 | 00:00:00 | |
| OE5DRO-10 | 2026-09-06 00:34:50 | 49.46570 | 15.64712 | 129° | 18km/h | 28902m | 7.1m/s | -46.3°C | 1.8% | 0hPa | 2.6V | 00:00:00 | 00:00:00 | 00:00:00 | |
| DO3MHA-11 | 2026-09-06 00:34:47 | 49.46573 | 15.64703 | 113° | 18km/h | 28890m | 7.1m/s | -46.3°C | 1.9% | 0hPa | 2.6V | 00:00:00 | 01:48:43 | 00:00:00 | |
| OE5MMP-10 | 2026-09-06 00:34:46 | 49.46575 | 15.64697 | 125° | 22km/h | 28882m | 9.1m/s | -46.3°C | 1.8% | 0hPa | 2.6V | 00:00:00 | 01:48:42 | 00:00:00 | |
| OE3MUC-15 | 2026-09-06 00:34:43 | 49.46589 | 15.64677 | 143° | 24km/h | 28862m | 6.9m/s | -46.4°C | 1.9% | 0hPa | 2.6V | 00:00:00 | 00:00:00 | 00:00:00 | |
| DC4HF-4 | 2026-09-06 00:34:41 | 49.46603 | 15.64661 | 151° | 18km/h | 28838m | 5.5m/s | -46.7°C | -1.0% | -1.0hPa | 2.6V | 00:00:00 | 00:00:00 | 00:00:00 | |
| OE3MUC-15 | 2026-09-06 00:34:39 | 49.46608 | 15.64658 | 164° | 18km/h | 28832m | 8.0m/s | -46.6°C | 1.9% | 0hPa | 2.6V | 00:00:00 | 00:00:00 | 00:00:00 | |
| OE3JTB-15 | 2026-09-06 00:34:38 | 49.46612 | 15.64657 | 175° | 16km/h | 28823m | 9.1m/s | -46.7°C | 1.9% | 0hPa | 2.6V | 00:00:00 | 00:00:00 | 00:00:00 | |
| PG1ADW-2 | 2026-09-06 00:34:37 | 49.46618 | 15.64656 | 180° | 15km/h | 28816m | 4.3m/s | -46.7°C | 1.9% | 0hPa | 2.6V | 00:00:00 | 01:48:33 | 00:00:00 | |
| OK1ALN | 2026-09-06 00:34:36 | 49.46622 | 15.64656 | 176° | 15km/h | 28812m | 4.9m/s | -46.7°C | 0% | 0hPa | 2.6V | 00:00:00 | 00:00:00 | 00:00:00 | |
| OE3MUC-15 | 2026-09-06 00:34:35 | 49.46625 | 15.64655 | 158° | 15km/h | 28805m | 7.7m/s | -46.7°C | 1.9% | 0hPa | 2.6V | 00:00:00 | 00:00:00 | 00:00:00 | |
| SP3BTT-10 | 2026-09-06 00:34:33 | 49.46628 | 15.64648 | 105° | 13km/h | 28789m | 5.7m/s | -46.7°C | 1.9% | 0hPa | 2.6V | 00:00:00 | 00:00:00 | 08:30:00 | |
| OE3MUC-15 | 2026-09-06 00:34:31 | 49.46632 | 15.64634 | 122° | 24km/h | 28776m | 8.4m/s | -46.6°C | 1.9% | 0hPa | 2.5V | 00:00:00 | 00:00:00 | 00:00:00 | |
| OE5DRO-10 | 2026-09-06 00:34:30 | 49.46636 | 15.64626 | 137° | 16km/h | 28769m | 6.5m/s | -46.6°C | 1.9% | 0hPa | 2.5V | 00:00:00 | 00:00:00 | 00:00:00 | |
| OE3MUC-15 | 2026-09-06 00:34:27 | 49.46651 | 15.64610 | 147° | 13km/h | 28750m | 8.8m/s | -46.7°C | 1.9% | 0hPa | 2.5V | 00:00:00 | 00:00:00 | 08:30:00 | |
| OE5MMP-10 | 2026-09-06 00:34:26 | 49.46654 | 15.64606 | 148° | 11km/h | 28741m | 7.6m/s | -46.7°C | 1.9% | 0hPa | 2.5V | 00:00:00 | 01:48:22 | 00:00:00 | |
| SONDE2-11 | 2026-09-06 00:34:24 | 49.46659 | 15.64604 | 173° | 9km/h | 28726m | 8.1m/s | -46.7°C | 0.0% | -1.0hPa | 2.5V | 00:00:00 | 00:00:00 | 00:00:00 | |
| OE3MUC-15 | 2026-09-06 00:34:23 | 49.46661 | 15.64603 | 180° | 9km/h | 28719m | 7.6m/s | -46.7°C | 1.9% | 0hPa | 2.5V | 00:00:00 | 00:00:00 | 00:00:00 | |
| HARRO8 | 2026-09-06 00:34:21 | 49.46666 | 15.64603 | 161° | 5km/h | 28706m | 6.0m/s | -46.7°C | 0.0% | -1.0hPa | 2.5V | 00:00:00 | 00:00:00 | 00:00:00 | |
| EDDB2-11 | 2026-09-06 00:34:20 | 49.46668 | 15.64598 | 96° | 9km/h | 28691m | 7.2m/s | -46.7°C | 0.0% | -1.0hPa | 2.5V | 00:00:00 | 00:00:00 | 00:00:00 | |
| OE3MUC-15 | 2026-09-06 00:34:19 | 49.46668 | 15.64598 | 97° | 16km/h | 28691m | 7.1m/s | -46.7°C | 1.9% | 0hPa | 2.5V | 00:00:00 | 00:00:00 | 00:00:00 | |
| OE5MMP-10 | 2026-09-06 00:34:16 | 49.46674 | 15.64582 | 137° | 16km/h | 28673m | 7.8m/s | -46.7°C | 1.9% | 0hPa | 2.5V | 00:00:00 | 01:48:12 | 00:00:00 | |
| OE3MUC-15 | 2026-09-06 00:34:15 | 49.46678 | 15.64577 | 151° | 22km/h | 28666m | 6.3m/s | -46.7°C | 1.9% | 0hPa | 2.5V | 00:00:00 | 00:00:00 | 00:00:00 | |
| EDDB2-12 | 2026-09-06 00:34:12 | 49.46698 | 15.64572 | 193° | 13km/h | 28638m | 5.9m/s | -46.7°C | 0.0% | -1.0hPa | 2.6V | 00:00:00 | 00:00:00 | 00:00:00 | |
| OE3MUC-15 | 2026-09-06 00:34:11 | 49.46698 | 15.64571 | 194° | 13km/h | 28638m | 5.9m/s | -46.7°C | 1.9% | 0hPa | 2.6V | 00:00:00 | 00:00:00 | 00:00:00 | |
| OE3JTB-15 | 2026-09-06 00:34:09 | 49.46705 | 15.64575 | 198° | 13km/h | 28624m | 7.5m/s | -46.6°C | 1.9% | 0hPa | 2.6V | 00:00:00 | 01:48:05 | 00:00:00 | |
| OE3MUC-15 | 2026-09-06 00:34:07 | 49.46710 | 15.64575 | 148° | 13km/h | 28611m | 5.7m/s | -46.6°C | 1.9% | 0hPa | 2.6V | 00:00:00 | 00:00:00 | 00:00:00 | |
| OE5MMP-10 | 2026-09-06 00:34:06 | 49.46712 | 15.64572 | 106° | 18km/h | 28605m | 7.1m/s | -46.6°C | 1.9% | 0hPa | 2.6V | 00:00:00 | 01:48:02 | 00:00:00 | |
| DC4HF-4 | 2026-09-06 00:34:05 | 49.46711 | 15.64562 | 72° | 15km/h | 28589m | 5.9m/s | 0°C | -1.0% | -1.0hPa | 2.6V | 00:00:00 | 00:00:00 | 00:00:00 | |
| OE3MUC-15 | 2026-09-06 00:34:03 | 49.46710 | 15.64556 | 84° | 16km/h | 28584m | 4.6m/s | -46.7°C | 1.9% | 0hPa | 2.6V | 00:00:00 | 00:00:00 | 00:00:00 | |
| DL6DJ-15 | 2026-09-06 00:33:56 | 49.46738 | 15.64547 | 205° | 16km/h | 28536m | 6.1m/s | -46.7°C | 0.0% | -1.0hPa | 2.6V | 00:00:00 | 00:00:00 | 00:00:00 | |
| SONDE2-11 | 2026-09-06 00:33:53 | 49.46748 | 15.64549 | 157° | 13km/h | 28517m | 7.9m/s | -46.7°C | 0.0% | -1.0hPa | 2.6V | 00:00:00 | 00:00:00 | 00:00:00 | |
| HARRO8 | 2026-09-06 00:33:50 | 49.46756 | 15.64539 | 128° | 11km/h | 28497m | 6.6m/s | -46.7°C | 0.0% | -1.0hPa | 2.6V | 00:00:00 | 00:00:00 | 00:00:00 | |
| EDDB2-11 | 2026-09-06 00:33:49 | 49.46758 | 15.64533 | 77° | 5km/h | 28482m | 6.6m/s | -46.7°C | 0.0% | -1.0hPa | 2.6V | 00:00:00 | 00:00:00 | 00:00:00 | |
| S52SK | 2026-09-06 00:33:48 | 49.46758 | 15.64533 | 78° | 5km/h | 28483m | 6.6m/s | -46.7°C | 0% | 0hPa | 2.6V | 00:00:00 | 00:00:00 | 00:00:00 | |
| OE3MUC-15 | 2026-09-06 00:33:47 | 49.46757 | 15.64531 | 67° | 7km/h | 28476m | 5.9m/s | -46.6°C | 1.9% | 0hPa | 2.6V | 00:00:00 | 00:00:00 | 00:00:00 | |
| OE5MMP-10 | 2026-09-06 00:33:46 | 49.46757 | 15.64529 | 101° | 9km/h | 28470m | 6.8m/s | -46.6°C | 1.9% | 0hPa | 2.6V | 00:00:00 | 01:47:42 | 00:00:00 | |
| S52SK | 2026-09-06 00:33:42 | 49.46764 | 15.64521 | 152° | 11km/h | 28443m | 6.9m/s | -46.6°C | 0% | 0hPa | 2.6V | 00:00:00 | 00:00:00 | 00:00:00 | |
| EDDB2-12 | 2026-09-06 00:33:41 | 49.46768 | 15.64519 | 194° | 5km/h | 28429m | 6.2m/s | -46.6°C | 0.0% | -1.0hPa | 2.6V | 00:00:00 | 00:00:00 | 00:00:00 | |
| OE3JTB-15 | 2026-09-06 00:33:40 | 49.46768 | 15.64519 | 195° | 11km/h | 28429m | 6.1m/s | -46.6°C | 1.9% | 0hPa | 2.6V | 00:00:00 | 00:00:00 | 00:00:00 | |
| PG1ADW-2 | 2026-09-06 00:33:37 | 49.46775 | 15.64521 | 164° | 11km/h | 28408m | 5.1m/s | -46.6°C | 1.9% | 0hPa | 2.5V | 00:00:00 | 00:00:00 | 00:00:00 | |
| OE5MMP-10 | 2026-09-06 00:33:36 | 49.46778 | 15.64519 | 140° | 11km/h | 28402m | 5.8m/s | -46.6°C | 1.9% | 0hPa | 2.5V | 00:00:00 | 01:47:32 | 00:00:00 | |
| PETON7-10 | 2026-09-06 00:33:35 | 49.46781 | 15.64514 | 126° | 13km/h | 28396m | 6.7m/s | -46.6°C | 1.9% | 0hPa | 2.5V | 00:00:00 | 00:00:00 | 00:00:00 | |
| OE5DRO-10 | 2026-09-06 00:33:33 | 49.46785 | 15.64505 | 131° | 11km/h | 28382m | 7.0m/s | -46.6°C | 1.9% | 0hPa | 2.5V | 00:00:00 | 00:00:00 | 00:00:00 | |
| DC4HF-4 | 2026-09-06 00:33:29 | 49.46797 | 15.64498 | 214° | 5km/h | 28346m | 6.4m/s | 0°C | -1.0% | -1.0hPa | 2.5V | 00:00:00 | 00:00:00 | 00:00:00 | |
| DO3MHA-11 | 2026-09-06 00:33:28 | 49.46797 | 15.64498 | 215° | 11km/h | 28346m | 6.4m/s | -46.6°C | 1.9% | 0hPa | 2.5V | 00:00:00 | 01:47:24 | 08:30:00 | |
| OK1SLM-15 | 2026-09-06 00:33:27 | 49.46797 | 15.64498 | 216° | 5km/h | 28346m | 6.4m/s | -46.7°C | 0% | 0hPa | 2.5V | 00:00:00 | 00:00:00 | 00:00:00 | |
| DL6DJ-15 | 2026-09-06 00:33:26 | 49.46804 | 15.64515 | 220° | 16km/h | 28318m | 5.0m/s | -46.6°C | 0.0% | -1.0hPa | 2.5V | 00:00:00 | 00:00:00 | 00:00:00 | |
| SONDE2-11 | 2026-09-06 00:33:22 | 49.46809 | 15.64520 | 186° | 7km/h | 28306m | 7.1m/s | -46.6°C | 0.0% | -1.0hPa | 2.5V | 00:00:00 | 00:00:00 | 00:00:00 | |
| OK1SLM-15 | 2026-09-06 00:33:21 | 49.46809 | 15.64520 | 187° | 9km/h | 28306m | 7.1m/s | -46.6°C | 0% | 0hPa | 2.5V | 00:00:00 | 00:00:00 | 00:00:00 | |
| PETON7-10 | 2026-09-06 00:33:20 | 49.46812 | 15.64517 | 109° | 13km/h | 28291m | 5.0m/s | -46.5°C | 1.9% | 0hPa | 2.5V | 00:00:00 | 01:47:16 | 00:00:00 | |
| HA6NAB-11 | 2026-09-06 00:33:19 | 49.46813 | 15.64514 | 107° | 9km/h | 28285m | 4.9m/s | -46.6°C | 0% | 0hPa | 2.5V | 00:00:00 | 00:00:00 | 00:00:00 | |
| EDDB2-11 | 2026-09-06 00:33:18 | 49.46815 | 15.64506 | 122° | 13km/h | 28271m | 9.4m/s | -46.6°C | 0.0% | -1.0hPa | 2.5V | 00:00:00 | 00:00:00 | 00:00:00 | |
| OK1SLM-15 | 2026-09-06 00:33:17 | 49.46815 | 15.64506 | 124° | 15km/h | 28271m | 9.4m/s | -46.6°C | 0% | 0hPa | 2.5V | 00:00:00 | 00:00:00 | 00:00:00 | |
| OE5MMP-10 | 2026-09-06 00:33:16 | 49.46817 | 15.64501 | 127° | 15km/h | 28263m | 4.8m/s | -46.5°C | 1.9% | 0hPa | 2.5V | 00:00:00 | 01:47:12 | 00:00:00 | |
| OE3MUC-15 | 2026-09-06 00:33:15 | 49.46819 | 15.64497 | 133° | 9km/h | 28258m | 5.1m/s | -46.5°C | 1.8% | 0hPa | 2.5V | 00:00:00 | 00:00:00 | 08:30:00 | |
| OE5DRO-10 | 2026-09-06 00:33:14 | 49.46821 | 15.64494 | 137° | 15km/h | 28252m | 7.2m/s | -46.5°C | 1.8% | 0hPa | 2.6V | 00:00:00 | 00:00:00 | 00:00:00 | |
| NBG1-10 | 2026-09-06 00:33:13 | 49.46822 | 15.64494 | 219° | 11km/h | 28244m | 7.7m/s | -46.5°C | 1.8% | 0hPa | 2.6V | 00:00:00 | 01:47:09 | 00:00:00 | |
| HA6NAB-11 | 2026-09-06 00:33:12 | 49.46822 | 15.64494 | 220° | 5km/h | 28244m | 7.8m/s | -46.6°C | 0% | 0hPa | 2.5V | 00:00:00 | 00:00:00 | 00:00:00 | |
| OE3MUC-15 | 2026-09-06 00:33:11 | 49.46826 | 15.64502 | 237° | 18km/h | 28231m | 6.5m/s | -46.5°C | 1.8% | 0hPa | 2.5V | 00:00:00 | 00:00:00 | 00:00:00 | |
| EDDB2-12 | 2026-09-06 00:33:10 | 49.46832 | 15.64513 | 216° | 18km/h | 28215m | 6.1m/s | -46.6°C | 0.0% | -1.0hPa | 2.5V | 00:00:00 | 00:00:00 | 00:00:00 | |
| OK1ALN | 2026-09-06 00:33:07 | 49.46839 | 15.64519 | 211° | 13km/h | 28204m | 6.5m/s | -46.6°C | 0% | 0hPa | 2.5V | 00:00:00 | 00:00:00 | 00:00:00 | |
| OE5MMP-10 | 2026-09-06 00:33:06 | 49.46841 | 15.64521 | 195° | 15km/h | 28197m | 7.1m/s | -46.6°C | 1.9% | 0hPa | 2.5V | 00:00:00 | 01:47:02 | 00:00:00 | |
| PETON7-10 | 2026-09-06 00:33:05 | 49.46843 | 15.64521 | 165° | 13km/h | 28191m | 5.3m/s | -46.6°C | 1.9% | 0hPa | 2.5V | 00:00:00 | 00:00:00 | 00:00:00 | |
| OE3MUC-15 | 2026-09-06 00:33:03 | 49.46848 | 15.64516 | 143° | 18km/h | 28177m | 8.7m/s | -46.6°C | 1.9% | 0hPa | 2.6V | 00:00:00 | 00:00:00 | 00:00:00 | |
| HA6NAB-11 | 2026-09-06 00:33:02 | 49.46851 | 15.64512 | 143° | 20km/h | 28169m | 6.8m/s | -46.6°C | 0% | 0hPa | 2.5V | 00:00:00 | 00:00:00 | 00:00:00 | |
| DB0ND-19 | 2026-09-06 00:33:01 | 49.46856 | 15.64507 | 143° | 20km/h | 28163m | 5.5m/s | -46.6°C | 0.0% | -1.0hPa | 2.5V | 00:00:00 | 00:00:00 | 00:00:00 | |
| DL6DJ-15 | 2026-09-06 00:32:54 | 49.46882 | 15.64497 | 198° | 11km/h | 28110m | 6.8m/s | -46.8°C | 0.0% | -1.0hPa | 2.5V | 00:00:00 | 00:00:00 | 00:00:00 | |
| SONDE2-11 | 2026-09-06 00:32:51 | 49.46885 | 15.64499 | 189° | 0km/h | 28096m | 5.8m/s | -46.9°C | 0.0% | -1.0hPa | 2.5V | 00:00:00 | 00:00:00 | 00:00:00 | |
| HARRO8 | 2026-09-06 00:32:48 | 49.46890 | 15.64491 | 142° | 13km/h | 28071m | 6.0m/s | -46.9°C | 0.0% | -1.0hPa | 2.5V | 00:00:00 | 00:00:00 | 00:00:00 | |
| OE3MUC-15 | 2026-09-06 00:32:47 | 49.46890 | 15.64491 | 143° | 11km/h | 28071m | 6.0m/s | -46.9°C | 1.9% | 0hPa | 2.5V | 00:00:00 | 00:00:00 | 00:00:00 | |
| OK1ALN | 2026-09-06 00:32:44 | 49.46895 | 15.64485 | 146° | 11km/h | 28059m | 6.5m/s | -46.9°C | 0% | 0hPa | 2.5V | 00:00:00 | 00:00:00 | 00:00:00 | |
| OE3MUC-15 | 2026-09-06 00:32:43 | 49.46898 | 15.64482 | 98° | 5km/h | 28045m | 6.1m/s | -46.9°C | 1.9% | 0hPa | 2.5V | 00:00:00 | 01:46:39 | 00:00:00 | |
| OE3JTB-15 | 2026-09-06 00:32:42 | 49.46897 | 15.64480 | 66° | 11km/h | 28039m | 5.8m/s | -46.9°C | 1.9% | 0hPa | 2.5V | 00:00:00 | 01:46:38 | 00:00:00 | |
| NBG1-10 | 2026-09-06 00:32:40 | 49.46899 | 15.64477 | 137° | 11km/h | 28026m | 7.2m/s | -46.9°C | 1.9% | 0hPa | 2.5V | 00:00:00 | 01:46:36 | 00:00:00 | |
| EDDB2-12 | 2026-09-06 00:32:39 | 49.46904 | 15.64469 | 130° | 18km/h | 28013m | 6.0m/s | -46.9°C | 0.0% | -1.0hPa | 2.5V | 00:00:00 | 00:00:00 | 00:00:00 | |
| PG1ADW-2 | 2026-09-06 00:32:37 | 49.46906 | 15.64463 | 116° | 11km/h | 28006m | 6.6m/s | -46.8°C | 1.9% | 0hPa | 2.5V | 00:00:00 | 00:00:00 | 00:00:00 | |
| OE5MMP-10 | 2026-09-06 00:32:36 | 49.46908 | 15.64456 | 103° | 11km/h | 27999m | 6.9m/s | -46.8°C | 1.9% | 0hPa | 2.5V | 00:00:00 | 01:46:32 | 00:00:00 | |
| PETON7-10 | 2026-09-06 00:32:35 | 49.46908 | 15.64448 | 91° | 11km/h | 27993m | 5.2m/s | -46.8°C | 1.9% | 0hPa | 2.5V | 00:00:00 | 01:46:31 | 00:00:00 | |
| OE3MUC-15 | 2026-09-06 00:32:31 | 49.46911 | 15.64433 | 177° | 9km/h | 27968m | 6.1m/s | -46.8°C | 1.9% | 0hPa | 2.5V | 00:00:00 | 00:00:00 | 00:00:00 | |
| DB0ND-19 | 2026-09-06 00:32:30 | 49.46917 | 15.64429 | 111° | 7km/h | 27948m | 7.5m/s | -46.9°C | 0.0% | -1.0hPa | 2.5V | 00:00:00 | 00:00:00 | 00:00:00 | |
| OE3MUC-15 | 2026-09-06 00:32:27 | 49.46917 | 15.64425 | 92° | 7km/h | 27941m | 5.2m/s | -46.9°C | 1.9% | 0hPa | 2.5V | 00:00:00 | 00:00:00 | 00:00:00 | |
| OE5MMP-10 | 2026-09-06 00:32:26 | 49.46917 | 15.64422 | 90° | 11km/h | 27935m | 6.5m/s | -46.9°C | 1.9% | 0hPa | 2.6V | 00:00:00 | 01:46:22 | 00:00:00 | |
| OE3MUC-15 | 2026-09-06 00:32:23 | 49.46918 | 15.64414 | 101° | 13km/h | 27914m | 4.6m/s | -47.0°C | 1.9% | 0hPa | 2.5V | 00:00:00 | 00:00:00 | 00:00:00 | |
| OK1ALN | 2026-09-06 00:32:22 | 49.46918 | 15.64410 | 90° | 13km/h | 27908m | 6.7m/s | -47.0°C | 0% | 0hPa | 2.5V | 00:00:00 | 00:00:00 | 00:00:00 | |
| DO3MHA-11 | 2026-09-06 00:32:20 | 49.46918 | 15.64398 | 81° | 15km/h | 27894m | 4.6m/s | -47.0°C | 1.9% | 0hPa | 2.5V | 00:00:00 | 01:46:16 | 00:00:00 | |
| OE3MUC-15 | 2026-09-06 00:32:19 | 49.46917 | 15.64393 | 88° | 11km/h | 27889m | 5.0m/s | -46.9°C | 1.9% | 0hPa | 2.5V | 00:00:00 | 00:00:00 | 00:00:00 | |
| HARRO8 | 2026-09-06 00:32:17 | 49.46921 | 15.64384 | 166° | 11km/h | 27867m | 5.3m/s | -47.0°C | 0% | -1.0hPa | 2.5V | 00:00:00 | 00:00:00 | 00:00:00 | |
| OE5MMP-10 | 2026-09-06 00:32:16 | 49.46921 | 15.64384 | 167° | 11km/h | 27867m | 5.2m/s | -47.0°C | 1.9% | 0hPa | 2.5V | 00:00:00 | 01:46:12 | 00:00:00 | |
| OE3MUC-15 | 2026-09-06 00:32:15 | 49.46924 | 15.64383 | 158° | 13km/h | 27861m | 5.5m/s | -47.0°C | 1.9% | 0hPa | 2.5V | 00:00:00 | 00:00:00 | 00:00:00 | |
| OE3JTB-15 | 2026-09-06 00:32:13 | 49.46929 | 15.64377 | 120° | 11km/h | 27847m | 6.0m/s | -47.1°C | 1.9% | 0hPa | 2.6V | 00:00:00 | 00:00:00 | 00:00:00 | |
| OE3MUC-15 | 2026-09-06 00:32:11 | 49.46932 | 15.64367 | 123° | 9km/h | 27836m | 6.8m/s | -47.1°C | 1.9% | 0hPa | 2.5V | 00:00:00 | 00:00:00 | 00:00:00 | |
| DB0UT-7 | 2026-09-06 00:32:10 | 49.46934 | 15.64363 | 133° | 9km/h | 27828m | 8.1m/s | -47.1°C | 1.9% | 0hPa | 2.5V | 00:00:00 | 01:46:06 | 00:00:00 | |
| DO3MHA-11 | 2026-09-06 00:32:09 | 49.46936 | 15.64360 | 144° | 7km/h | 27821m | 5.9m/s | -47.1°C | 1.9% | 0hPa | 2.5V | 00:00:00 | 01:46:05 | 00:00:00 | |
| EDDB2-12 | 2026-09-06 00:32:08 | 49.46936 | 15.64359 | 22° | 4km/h | 27808m | 7.9m/s | -47.1°C | 0.0% | -1.0hPa | 2.5V | 00:00:00 | 00:00:00 | 00:00:00 | |
| OE3MUC-15 | 2026-09-06 00:32:07 | 49.46936 | 15.64358 | 23° | 7km/h | 27808m | 7.9m/s | -47.1°C | 1.9% | 0hPa | 2.5V | 00:00:00 | 00:00:00 | 00:00:00 | |
| OE5MMP-10 | 2026-09-06 00:32:06 | 49.46934 | 15.64358 | 8° | 9km/h | 27801m | 6.3m/s | -47.1°C | 1.9% | 0hPa | 2.5V | 00:00:00 | 01:46:02 | 00:00:00 | |
| PETON7-10 | 2026-09-06 00:32:05 | 49.46932 | 15.64358 | 359° | 9km/h | 27795m | 4.5m/s | -47.1°C | 1.9% | 0hPa | 2.5V | 00:00:00 | 00:00:00 | 00:00:00 | |
| S52SK | 2026-09-06 00:32:03 | 49.46929 | 15.64358 | 297° | 2km/h | 27783m | 7.4m/s | -47.2°C | 0% | 0hPa | 2.5V | 00:00:00 | 00:00:00 | 00:00:00 | |
| SP3BTT-10 | 2026-09-06 00:32:02 | 49.46929 | 15.64359 | 184° | 29km/h | 27776m | 6.4m/s | -47.2°C | 1.9% | 0hPa | 2.5V | 00:00:00 | 00:00:00 | 00:00:00 | |
| DB0ND-19 | 2026-09-06 00:32:00 | 49.46936 | 15.64353 | 128° | 13km/h | 27755m | 7.0m/s | 0°C | -1.0% | -1.0hPa | 2.5V | 00:00:00 | 00:00:00 | 00:00:00 | |
| DL6DJ-15 | 2026-09-06 00:31:52 | 49.46949 | 15.64352 | 261° | 7km/h | 27698m | 5.7m/s | -47.4°C | 0.0% | -1.0hPa | 2.5V | 00:00:00 | 00:00:00 | 00:00:00 | |
| SONDE2-11 | 2026-09-06 00:31:49 | 49.46952 | 15.64359 | 215° | 13km/h | 27684m | 6.1m/s | -47.4°C | 0.0% | -1.0hPa | 2.5V | 00:00:00 | 00:00:00 | 00:00:00 | |
| HARRO8 | 2026-09-06 00:31:47 | 49.46963 | 15.64362 | 166° | 13km/h | 27665m | 7.8m/s | -47.4°C | 0.0% | -1.0hPa | 2.5V | 00:00:00 | 00:00:00 | 00:00:00 | |
| EDDB2-11 | 2026-09-06 00:31:45 | 49.46966 | 15.64361 | 156° | 9km/h | 27659m | 5.0m/s | -47.4°C | 0.0% | -1.0hPa | 2.5V | 00:00:00 | 00:00:00 | 00:00:00 | |
| OE3JTB-15 | 2026-09-06 00:31:44 | 49.46966 | 15.64361 | 157° | 20km/h | 27659m | 4.9m/s | -47.4°C | 1.9% | 0hPa | 2.5V | 00:00:00 | 00:00:00 | 00:00:00 | |
| DB0UT-7 | 2026-09-06 00:31:40 | 49.46977 | 15.64368 | 225° | 29km/h | 27635m | 5.6m/s | -47.4°C | 2.0% | 0hPa | 2.5V | 00:00:00 | 00:00:00 | 00:00:00 | |
| OK1ALN | 2026-09-06 00:31:39 | 49.46981 | 15.64373 | 228° | 18km/h | 27629m | 5.2m/s | -47.5°C | 0% | 0hPa | 2.5V | 00:00:00 | 00:00:00 | 00:00:00 | |
| OE5DXL-15 | 2026-09-06 00:31:38 | 49.46983 | 15.64378 | 232° | 24km/h | 27623m | 7.6m/s | -47.5°C | 1.9% | 0hPa | 2.5V | 00:00:00 | 00:00:00 | 00:00:00 | |
| EDDB2-12 | 2026-09-06 00:31:37 | 49.46986 | 15.64385 | 243° | 9km/h | 27610m | 4.4m/s | -47.7°C | 0.0% | -1.0hPa | 2.5V | 00:00:00 | 00:00:00 | 00:00:00 | |
| OE5MMP-10 | 2026-09-06 00:31:36 | 49.46986 | 15.64385 | 244° | 18km/h | 27610m | 4.3m/s | -47.6°C | 1.9% | 0hPa | 2.5V | 00:00:00 | 01:45:32 | 00:00:00 | |
| NBG1-10 | 2026-09-06 00:31:34 | 49.46989 | 15.64392 | 233° | 26km/h | 27597m | 8.3m/s | -47.7°C | 2.0% | 0hPa | 2.5V | 00:00:00 | 01:45:30 | 00:00:00 | |
| DO3MHA-11 | 2026-09-06 00:31:28 | 49.47017 | 15.64387 | 169° | 26km/h | 27560m | 5.6m/s | -47.7°C | 2.0% | 0hPa | 2.6V | 00:00:00 | 01:45:24 | 00:00:00 | |
| OE5MMP-10 | 2026-09-06 00:31:26 | 49.47030 | 15.64386 | 193° | 26km/h | 27546m | 6.2m/s | -47.8°C | 2.0% | 0hPa | 2.6V | 00:00:00 | 01:45:22 | 00:00:00 | |
| PETON7-10 | 2026-09-06 00:31:20 | 49.47066 | 15.64395 | 181° | 29km/h | 27509m | 7.6m/s | -47.6°C | 2.0% | 0hPa | 2.6V | 00:00:00 | 00:00:00 | 00:00:00 | |
| OE3MUC-15 | 2026-09-06 00:31:19 | 49.47072 | 15.64396 | 182° | 31km/h | 27502m | 6.3m/s | -47.6°C | 1.9% | 0hPa | 2.6V | 00:00:00 | 00:00:00 | 00:00:00 | |
| DO3MHA-11 | 2026-09-06 00:31:18 | 49.47079 | 15.64395 | 175° | 33km/h | 27496m | 5.8m/s | -47.6°C | 1.9% | 0hPa | 2.6V | 00:00:00 | 01:45:14 | 00:00:00 | |
| OK1ALN | 2026-09-06 00:31:17 | 49.47087 | 15.64393 | 170° | 33km/h | 27489m | 7.8m/s | -47.6°C | 0% | 0hPa | 2.5V | 00:00:00 | 00:00:00 | 00:00:00 | |
| OE5MMP-10 | 2026-09-06 00:31:16 | 49.47095 | 15.64390 | 161° | 29km/h | 27482m | 7.8m/s | -47.6°C | 1.9% | 0hPa | 2.5V | 00:00:00 | 01:45:12 | 00:00:00 | |
| OK1SLM-15 | 2026-09-06 00:31:15 | 49.47103 | 15.64385 | 160° | 37km/h | 27475m | 5.3m/s | -47.7°C | 0% | 0hPa | 2.5V | 00:00:00 | 00:00:00 | 00:00:00 | |
| EDDB2-11 | 2026-09-06 00:31:14 | 49.47121 | 15.64377 | 168° | 35km/h | 27463m | 7.4m/s | -47.8°C | 0.0% | -1.0hPa | 2.5V | 00:00:00 | 00:00:00 | 00:00:00 | |
| OE3MUC-15 | 2026-09-06 00:31:11 | 49.47138 | 15.64374 | 180° | 26km/h | 27451m | 4.9m/s | -47.7°C | 1.9% | 0hPa | 2.5V | 00:00:00 | 00:00:00 | 00:00:00 | |
| OK1SLM-15 | 2026-09-06 00:31:10 | 49.47145 | 15.64374 | 178° | 27km/h | 27444m | 6.9m/s | -47.8°C | 0% | 0hPa | 2.5V | 00:00:00 | 00:00:00 | 00:00:00 | |
| OE5DXL-15 | 2026-09-06 00:31:08 | 49.47157 | 15.64370 | 158° | 31km/h | 27431m | 5.7m/s | -47.8°C | 1.9% | 0hPa | 2.5V | 00:00:00 | 00:00:00 | 00:00:00 | |
| OE3MUC-15 | 2026-09-06 00:31:07 | 49.47162 | 15.64367 | 156° | 20km/h | 27425m | 5.0m/s | -47.8°C | 1.9% | 0hPa | 2.6V | 00:00:00 | 00:00:00 | 00:00:00 | |
| OE5MMP-10 | 2026-09-06 00:31:06 | 49.47166 | 15.64364 | 160° | 27km/h | 27420m | 6.7m/s | -47.8°C | 2.0% | 0hPa | 2.6V | 00:00:00 | 01:45:02 | 00:00:00 | |
| PETON7-10 | 2026-09-06 00:31:05 | 49.47170 | 15.64363 | 171° | 31km/h | 27413m | 6.9m/s | -47.8°C | 1.9% | 0hPa | 2.6V | 00:00:00 | 01:45:01 | 00:00:00 | |
| HA6NAB-11 | 2026-09-06 00:31:04 | 49.47170 | 15.64363 | 171° | 18km/h | 27413m | 6.9m/s | -47.8°C | 0% | 0hPa | 2.6V | 00:00:00 | 00:00:00 | 00:00:00 | |
| OE3MUC-15 | 2026-09-06 00:31:03 | 49.47181 | 15.64360 | 169° | 31km/h | 27401m | 5.1m/s | -47.8°C | 1.9% | 0hPa | 2.6V | 00:00:00 | 00:00:00 | 00:00:00 | |
| DB0ND-19 | 2026-09-06 00:30:57 | 49.47221 | 15.64320 | 145° | 26km/h | 27365m | 6.3m/s | 0°C | -1.0% | -1.0hPa | 2.6V | 00:00:00 | 00:00:00 | 00:00:00 | |
| DF3TZ-5 | 2026-09-06 00:30:55 | 49.47275 | 15.64283 | 136° | 37km/h | 27323m | 6.7m/s | 0°C | -1.0% | -1.0hPa | 2.6V | 00:00:00 | 00:00:00 | 00:00:00 | |
| DL6DJ-15 | 2026-09-06 00:30:50 | 49.47282 | 15.64272 | 130° | 35km/h | 27317m | 6.6m/s | -48.6°C | 0.0% | -1.0hPa | 2.6V | 00:00:00 | 00:00:00 | 00:00:00 | |
| DO3MHA-11 | 2026-09-06 00:30:48 | 49.47287 | 15.64262 | 129° | 35km/h | 27311m | 5.3m/s | -48.6°C | 2.0% | 0hPa | 2.6V | 00:00:00 | 01:44:44 | 08:30:00 | |
| OE3MUC-15 | 2026-09-06 00:30:47 | 49.47293 | 15.64251 | 128° | 37km/h | 27305m | 5.9m/s | -48.6°C | 2.0% | 0hPa | 2.5V | 00:00:00 | 00:00:00 | 00:00:00 | |
| OE5MMP-10 | 2026-09-06 00:30:46 | 49.47299 | 15.64240 | 132° | 33km/h | 27298m | 7.1m/s | -48.6°C | 2.0% | 0hPa | 2.5V | 00:00:00 | 01:44:42 | 00:00:00 | |
| SP3BTT-10 | 2026-09-06 00:30:45 | 49.47306 | 15.64230 | 137° | 24km/h | 27292m | 5.8m/s | -48.6°C | 2.0% | 0hPa | 2.5V | 00:00:00 | 00:00:00 | 00:00:00 | |
| OE3MUC-15 | 2026-09-06 00:30:43 | 49.47319 | 15.64211 | 142° | 29km/h | 27279m | 7.0m/s | -48.6°C | 2.0% | 0hPa | 2.5V | 00:00:00 | 00:00:00 | 00:00:00 | |
| OE5DRO-10 | 2026-09-06 00:30:42 | 49.47326 | 15.64204 | 142° | 31km/h | 27272m | 7.1m/s | -48.7°C | 2.0% | 0hPa | 2.5V | 00:00:00 | 00:00:00 | 00:00:00 | |
| OE3MUC-15 | 2026-09-06 00:30:39 | 49.47342 | 15.64182 | 138° | 37km/h | 27255m | 6.8m/s | -48.7°C | 2.0% | 0hPa | 2.5V | 00:00:00 | 00:00:00 | 00:00:00 | |
| HA6NAB-11 | 2026-09-06 00:30:38 | 49.47348 | 15.64173 | 136° | 37km/h | 27247m | 7.1m/s | -48.8°C | 0% | 0hPa | 2.5V | 00:00:00 | 00:00:00 | 00:00:00 | |
| PG1ADW-2 | 2026-09-06 00:30:37 | 49.47355 | 15.64163 | 133° | 27km/h | 27241m | 5.4m/s | -48.9°C | 2.0% | 0hPa | 2.5V | 00:00:00 | 01:44:33 | 00:00:00 | |
| OK1ALN | 2026-09-06 00:30:36 | 49.47361 | 15.64151 | 129° | 40km/h | 27236m | 5.9m/s | -48.9°C | 0% | 0hPa | 2.5V | 00:00:00 | 00:00:00 | 00:00:00 | |
| OE3MUC-15 | 2026-09-06 00:30:35 | 49.47366 | 15.64140 | 122° | 33km/h | 27229m | 7.5m/s | -48.9°C | 2.0% | 0hPa | 2.5V | 00:00:00 | 00:00:00 | 00:00:00 | |
| EDDB2-12 | 2026-09-06 00:30:34 | 49.47370 | 15.64128 | 112° | 31km/h | 27221m | 7.4m/s | -49.0°C | 0.0% | -1.0hPa | 2.5V | 00:00:00 | 00:00:00 | 00:00:00 | |
| OE3MUC-15 | 2026-09-06 00:30:31 | 49.47377 | 15.64093 | 105° | 31km/h | 27201m | 7.3m/s | -49.2°C | 2.0% | 0hPa | 2.5V | 00:00:00 | 00:00:00 | 00:00:00 | |
| HA6NAB-11 | 2026-09-06 00:30:30 | 49.47377 | 15.64093 | 106° | 33km/h | 27201m | 7.3m/s | -49.2°C | 0% | 0hPa | 2.5V | 00:00:00 | 00:00:00 | 00:00:00 | |
| DB0UT-7 | 2026-09-06 00:30:28 | 49.47383 | 15.64058 | 101° | 22km/h | 27183m | 7.2m/s | -49.6°C | 2.1% | 0hPa | 2.5V | 00:00:00 | 01:44:24 | 00:00:00 | |
| OE3MUC-15 | 2026-09-06 00:30:27 | 49.47384 | 15.64048 | 100° | 22km/h | 27175m | 6.8m/s | -49.8°C | 2.2% | 0hPa | 2.5V | 00:00:00 | 00:00:00 | 00:00:00 | |
| OE5MMP-10 | 2026-09-06 00:30:26 | 49.47385 | 15.64040 | 102° | 24km/h | 27169m | 5.9m/s | -49.8°C | 2.2% | 0hPa | 2.5V | 00:00:00 | 01:44:22 | 08:30:00 | |
| OE8JPQ-2 | 2026-09-06 00:30:23 | 49.47391 | 15.64014 | 113° | 20km/h | 27149m | 4.4m/s | 0°C | 0% | 0hPa | 2.5V | 00:00:00 | 01:44:19 | 00:00:00 | |
| PETON7-10 | 2026-09-06 00:30:20 | 49.47396 | 15.63987 | 98° | 16km/h | 27134m | 7.8m/s | -50.2°C | 2.3% | 0hPa | 2.5V | 00:00:00 | 01:44:16 | 00:00:00 | |
| DL6DJ-15 | 2026-09-06 00:30:19 | 49.47396 | 15.63970 | 82° | 22km/h | 27121m | 5.5m/s | -50.3°C | 0.0% | -1.0hPa | 2.5V | 00:00:00 | 00:00:00 | 00:00:00 | |
| S52SK | 2026-09-06 00:30:18 | 49.47396 | 15.63970 | 84° | 22km/h | 27121m | 5.5m/s | -50.3°C | 0% | 0hPa | 2.5V | 00:00:00 | 00:00:00 | 00:00:00 | |
| DO3MHA-11 | 2026-09-06 00:30:17 | 49.47393 | 15.63943 | 74° | 15km/h | 27102m | 4.4m/s | -50.2°C | 2.2% | 0hPa | 2.5V | 00:00:00 | 01:44:11 | 00:00:00 | |
| OK1ALN | 2026-09-06 00:30:15 | 49.47393 | 15.63943 | 75° | 20km/h | 27102m | 4.4m/s | -50.2°C | 0% | 0hPa | 2.5V | 00:00:00 | 00:00:00 | 00:00:00 | |
| HARRO8 | 2026-09-06 00:30:13 | 49.47385 | 15.63932 | 358° | 7km/h | 27076m | 6.1m/s | -50.2°C | 0.0% | -1.0hPa | 2.5V | 00:00:00 | 00:00:00 | 00:00:00 | |
| EDDB2-11 | 2026-09-06 00:30:12 | 49.47385 | 15.63932 | 358° | 7km/h | 27076m | 6.1m/s | -50.2°C | 0.0% | -1.0hPa | 2.5V | 00:00:00 | 00:00:00 | 00:00:00 | |
| OE3MUC-15 | 2026-09-06 00:30:11 | 49.47384 | 15.63932 | 359° | 9km/h | 27076m | 6.1m/s | -50.1°C | 2.2% | 0hPa | 2.5V | 00:00:00 | 00:00:00 | 00:00:00 | |
| OE5DXL-15 | 2026-09-06 00:30:08 | 49.47380 | 15.63927 | 66° | 18km/h | 27058m | 5.2m/s | -50.2°C | 2.2% | 0hPa | 2.5V | 00:00:00 | 00:00:00 | 00:00:00 | |
| OE3MUC-15 | 2026-09-06 00:30:07 | 49.47379 | 15.63922 | 63° | 22km/h | 27051m | 7.3m/s | -50.2°C | 2.2% | 0hPa | 2.5V | 00:00:00 | 00:00:00 | 00:00:00 | |
| OE5MMP-10 | 2026-09-06 00:30:06 | 49.47377 | 15.63916 | 63° | 22km/h | 27045m | 6.2m/s | -50.3°C | 2.2% | 0hPa | 2.5V | 00:00:00 | 01:44:02 | 00:00:00 | |
| PETON7-10 | 2026-09-06 00:30:05 | 49.47375 | 15.63908 | 71° | 18km/h | 27039m | 5.3m/s | -50.3°C | 2.2% | 0hPa | 2.5V | 00:00:00 | 00:00:00 | 00:00:00 | |
| DO3MHA-11 | 2026-09-06 00:30:04 | 49.47373 | 15.63898 | 77° | 15km/h | 27033m | 5.9m/s | -50.3°C | 2.2% | 0hPa | 2.6V | 00:00:00 | 01:44:00 | 00:00:00 | |
| OE3MUC-15 | 2026-09-06 00:30:03 | 49.47371 | 15.63885 | 84° | 31km/h | 27026m | 8.1m/s | -50.3°C | 2.2% | 0hPa | 2.6V | 00:00:00 | 00:00:00 | 00:00:00 | |
| DL6DJ-15 | 2026-09-06 00:29:48 | 49.47353 | 15.63792 | 99° | 24km/h | 26929m | 6.9m/s | -50.7°C | -1.0% | -1.0hPa | 2.6V | 00:00:00 | 00:00:00 | 00:00:00 | |
| SONDE2-11 | 2026-09-06 00:29:45 | 49.47362 | 15.63769 | 130° | 18km/h | 26911m | 6.7m/s | -50.9°C | 0.0% | -1.0hPa | 2.6V | 00:00:00 | 00:00:00 | 00:00:00 | |
| OE3MUC-15 | 2026-09-06 00:29:43 | 49.47364 | 15.63764 | 137° | 9km/h | 26905m | 6.2m/s | -50.9°C | 2.3% | 0hPa | 2.6V | 00:00:00 | 00:00:00 | 00:00:00 | |
| DO3MHA-11 | 2026-09-06 00:29:42 | 49.47367 | 15.63762 | 143° | 11km/h | 26899m | 5.5m/s | -50.9°C | 2.4% | 0hPa | 2.6V | 00:00:00 | 01:43:38 | 00:00:00 | |
| OE8JPQ-2 | 2026-09-06 00:29:41 | 49.47368 | 15.63760 | 167° | 11km/h | 26893m | 5.6m/s | 0°C | 0% | 0hPa | 2.6V | 00:00:00 | 00:00:00 | 00:00:00 | |
| EDDB2-11 | 2026-09-06 00:29:40 | 49.47370 | 15.63760 | 174° | 5km/h | 26886m | 7.3m/s | -51.0°C | 0.0% | -1.0hPa | 2.6V | 00:00:00 | 00:00:00 | 00:00:00 | |
| OE5DXL-15 | 2026-09-06 00:29:38 | 49.47372 | 15.63759 | 145° | 20km/h | 26873m | 5.3m/s | -51.1°C | 2.4% | 0hPa | 2.6V | 00:00:00 | 00:00:00 | 00:00:00 | |
| PG1ADW-2 | 2026-09-06 00:29:37 | 49.47372 | 15.63758 | 28° | 18km/h | 26867m | 5.9m/s | -51.1°C | 2.4% | 0hPa | 2.6V | 00:00:00 | 00:00:00 | 00:00:00 | |
| OE5MMP-10 | 2026-09-06 00:29:36 | 49.47370 | 15.63758 | 25° | 18km/h | 26860m | 7.9m/s | -51.2°C | 2.4% | 0hPa | 2.6V | 00:00:00 | 01:43:32 | 00:00:00 | |
| PETON7-10 | 2026-09-06 00:29:35 | 49.47368 | 15.63755 | 41° | 18km/h | 26853m | 4.5m/s | -51.2°C | 2.4% | 0hPa | 2.6V | 00:00:00 | 01:43:31 | 00:00:00 | |
| OK1ALN | 2026-09-06 00:29:33 | 49.47366 | 15.63750 | 65° | 16km/h | 26849m | 4.6m/s | -51.2°C | 0% | 0hPa | 2.6V | 00:00:00 | 00:00:00 | 00:00:00 | |
| DO3MHA-11 | 2026-09-06 00:29:32 | 49.47366 | 15.63736 | 111° | 18km/h | 26835m | 7.5m/s | -51.2°C | 2.4% | 0hPa | 2.6V | 00:00:00 | 01:43:28 | 00:00:00 | |
| OE5MMP-10 | 2026-09-06 00:29:26 | 49.47390 | 15.63708 | 156° | 20km/h | 26799m | 7.6m/s | -51.2°C | 2.4% | 0hPa | 2.6V | 00:00:00 | 01:43:22 | 00:00:00 | |
| DB0ND-19 | 2026-09-06 00:29:24 | 49.47394 | 15.63700 | 97° | 13km/h | 26786m | 4.6m/s | 0°C | -1.0% | -1.0hPa | 2.5V | 00:00:00 | 00:00:00 | 00:00:00 | |
| DO3MHA-11 | 2026-09-06 00:29:22 | 49.47392 | 15.63690 | 66° | 26km/h | 26773m | 7.4m/s | -51.0°C | 2.4% | 0hPa | 2.5V | 00:00:00 | 01:43:18 | 00:00:00 | |
| OE8JPQ-2 | 2026-09-06 00:29:21 | 49.47391 | 15.63683 | 81° | 26km/h | 26767m | 3.1m/s | 0°C | 0% | 0hPa | 2.6V | 00:00:00 | 01:43:17 | 00:00:00 | |
| PETON7-10 | 2026-09-06 00:29:20 | 49.47391 | 15.63676 | 98° | 26km/h | 26763m | 5.3m/s | -50.9°C | 2.4% | 0hPa | 2.6V | 00:00:00 | 00:00:00 | 08:30:00 | |
| OE3MUC-15 | 2026-09-06 00:29:19 | 49.47393 | 15.63667 | 109° | 33km/h | 26756m | 9.3m/s | -50.9°C | 2.4% | 0hPa | 2.6V | 00:00:00 | 00:00:00 | 00:00:00 | |
| PG1ADW-2 | 2026-09-06 00:29:18 | 49.47401 | 15.63646 | 132° | 27km/h | 26742m | 3.0m/s | -50.7°C | 2.4% | 0hPa | 2.6V | 00:00:00 | 01:43:13 | 00:00:00 | |
| DL6DJ-15 | 2026-09-06 00:29:17 | 49.47408 | 15.63636 | 133° | 35km/h | 26737m | 6.2m/s | -50.7°C | -1.0% | -1.0hPa | 2.6V | 00:00:00 | 00:00:00 | 00:00:00 | |
| OE5MMP-10 | 2026-09-06 00:29:16 | 49.47408 | 15.63636 | 134° | 22km/h | 26737m | 6.1m/s | -50.7°C | 2.3% | 0hPa | 2.6V | 00:00:00 | 01:43:12 | 00:00:00 | |
| OE3MUC-15 | 2026-09-06 00:29:15 | 49.47414 | 15.63626 | 135° | 24km/h | 26729m | 8.8m/s | -50.6°C | 2.3% | 0hPa | 2.6V | 00:00:00 | 00:00:00 | 00:00:00 | |
| OK1ALN | 2026-09-06 00:29:14 | 49.47418 | 15.63619 | 127° | 22km/h | 26722m | 5.4m/s | -50.6°C | 0% | 0hPa | 2.5V | 00:00:00 | 00:00:00 | 00:00:00 | |
| DO3MHA-11 | 2026-09-06 00:29:12 | 49.47423 | 15.63605 | 113° | 24km/h | 26711m | 7.1m/s | -50.5°C | 2.2% | 0hPa | 2.5V | 00:00:00 | 01:43:08 | 00:00:00 | |
| HARRO8 | 2026-09-06 00:29:11 | 49.47427 | 15.63592 | 115° | 16km/h | 26695m | 5.3m/s | -50.5°C | 0.0% | -1.0hPa | 2.5V | 00:00:00 | 00:00:00 | 00:00:00 | |
| EDDB2-11 | 2026-09-06 00:29:09 | 49.47428 | 15.63586 | 111° | 16km/h | 26690m | 5.1m/s | -50.4°C | 0.0% | -1.0hPa | 2.5V | 00:00:00 | 00:00:00 | 00:00:00 | |
| OE5DXL-15 | 2026-09-06 00:29:08 | 49.47430 | 15.63579 | 101° | 29km/h | 26684m | 6.5m/s | -50.4°C | 2.2% | 0hPa | 2.5V | 00:00:00 | 00:00:00 | 00:00:00 | |
| OE3MUC-15 | 2026-09-06 00:29:07 | 49.47430 | 15.63571 | 92° | 31km/h | 26678m | 6.1m/s | -50.4°C | 2.2% | 0hPa | 2.5V | 00:00:00 | 00:00:00 | 00:00:00 | |
| OE5MMP-10 | 2026-09-06 00:29:06 | 49.47430 | 15.63560 | 90° | 29km/h | 26672m | 5.6m/s | -50.4°C | 2.2% | 0hPa | 2.5V | 00:00:00 | 01:43:02 | 00:00:00 | |
| PETON7-10 | 2026-09-06 00:29:05 | 49.47430 | 15.63548 | 94° | 31km/h | 26665m | 7.2m/s | -50.5°C | 2.2% | 0hPa | 2.5V | 00:00:00 | 00:00:00 | 00:00:00 | |
| OE3MUC-15 | 2026-09-06 00:29:03 | 49.47434 | 15.63522 | 112° | 29km/h | 26649m | 6.5m/s | -50.7°C | 2.3% | 0hPa | 2.5V | 00:00:00 | 00:00:00 | 08:30:00 | |
| DO3MHA-11 | 2026-09-06 00:29:02 | 49.47437 | 15.63510 | 119° | 27km/h | 26643m | 4.6m/s | -50.9°C | 2.3% | 0hPa | 2.5V | 00:00:00 | 01:42:58 | 00:00:00 | |
| EDDB2-12 | 2026-09-06 00:29:01 | 49.47441 | 15.63501 | 117° | 27km/h | 26637m | 6.6m/s | -51.0°C | 0.0% | -1.0hPa | 2.5V | 00:00:00 | 00:00:00 | 00:00:00 | |
| OE3MUC-15 | 2026-09-06 00:28:59 | 49.47446 | 15.63482 | 108° | 27km/h | 26623m | 4.8m/s | -51.0°C | 2.3% | 0hPa | 2.5V | 00:00:00 | 00:00:00 | 00:00:00 | |
| OE8JPQ-2 | 2026-09-06 00:28:58 | 49.47448 | 15.63472 | 110° | 31km/h | 26618m | 6.3m/s | 0°C | 0% | 0hPa | 2.5V | 00:00:00 | 00:00:00 | 00:00:00 | |
| PG1ADW-2 | 2026-09-06 00:28:57 | 49.47450 | 15.63462 | 110° | 31km/h | 26611m | 8.2m/s | -51.1°C | 2.4% | 0hPa | 2.5V | 00:00:00 | 00:00:00 | 00:00:00 | |
| OE5MMP-10 | 2026-09-06 00:28:56 | 49.47453 | 15.63452 | 116° | 35km/h | 26604m | 6.7m/s | -51.1°C | 2.4% | 0hPa | 2.5V | 00:00:00 | 01:42:52 | 08:30:00 | |
| OE3MUC-15 | 2026-09-06 00:28:55 | 49.47455 | 15.63443 | 113° | 31km/h | 26597m | 5.0m/s | -51.1°C | 2.4% | 0hPa | 2.6V | 00:00:00 | 00:00:00 | 00:00:00 | |
| OK1SLM-15 | 2026-09-06 00:28:54 | 49.47455 | 15.63443 | 114° | 26km/h | 26597m | 5.0m/s | -51.2°C | 0.0% | 0hPa | 2.6V | 00:00:00 | 00:00:00 | 00:00:00 | |
| OK1ALN | 2026-09-06 00:28:53 | 49.47459 | 15.63422 | 103° | 31km/h | 26584m | 8.1m/s | -51.2°C | 0% | 0hPa | 2.6V | 00:00:00 | 00:00:00 | 00:00:00 | |
| DO3MHA-11 | 2026-09-06 00:28:52 | 49.47461 | 15.63410 | 100° | 35km/h | 26577m | 5.1m/s | -51.2°C | 2.4% | 0hPa | 2.6V | 00:00:00 | 01:42:48 | 08:30:00 | |
| OE3MUC-15 | 2026-09-06 00:28:51 | 49.47463 | 15.63395 | 102° | 42km/h | 26572m | 6.4m/s | -51.2°C | 2.4% | 0hPa | 2.6V | 00:00:00 | 00:00:00 | 00:00:00 | |
| PETON7-10 | 2026-09-06 00:28:50 | 49.47465 | 15.63379 | 106° | 29km/h | 26564m | 8.2m/s | -51.1°C | 2.4% | 0hPa | 2.5V | 00:00:00 | 01:42:46 | 00:00:00 | |
| NBG1-10 | 2026-09-06 00:28:49 | 49.47469 | 15.63364 | 112° | 24km/h | 26557m | 6.0m/s | -51.1°C | 2.4% | 0hPa | 2.5V | 00:00:00 | 01:42:45 | 00:00:00 | |
| OE5DRO-10 | 2026-09-06 00:28:48 | 49.47473 | 15.63349 | 113° | 27km/h | 26551m | 5.4m/s | -51.1°C | 2.4% | 0hPa | 2.5V | 00:00:00 | 00:00:00 | 00:00:00 | |
| OE3MUC-15 | 2026-09-06 00:28:47 | 49.47476 | 15.63334 | 111° | 33km/h | 26544m | 7.1m/s | -51.0°C | 2.4% | 0hPa | 2.5V | 00:00:00 | 00:00:00 | 00:00:00 | |
| HA6NAB-11 | 2026-09-06 00:28:46 | 49.47479 | 15.63321 | 106° | 37km/h | 26537m | 6.4m/s | -51.1°C | 0% | 0hPa | 2.5V | 00:00:00 | 00:00:00 | 00:00:00 | |
| SP3BTT-10 | 2026-09-06 00:28:45 | 49.47481 | 15.63308 | 99° | 16km/h | 26532m | 4.9m/s | -51.0°C | 2.4% | 0hPa | 2.5V | 00:00:00 | 00:00:00 | 00:00:00 | |
| DB0UT-7 | 2026-09-06 00:28:44 | 49.47482 | 15.63297 | 99° | 22km/h | 26526m | 6.9m/s | -50.9°C | 2.3% | 0hPa | 2.5V | 00:00:00 | 01:42:40 | 00:00:00 | |
| SONDE2-11 | 2026-09-06 00:28:43 | 49.47484 | 15.63281 | 112° | 18km/h | 26510m | 6.6m/s | -50.9°C | 0.0% | -1.0hPa | 2.5V | 00:00:00 | 00:00:00 | 00:00:00 | |
| DO3MHA-11 | 2026-09-06 00:28:42 | 49.47484 | 15.63280 | 113° | 26km/h | 26510m | 6.6m/s | -50.9°C | 2.3% | 0hPa | 2.5V | 00:00:00 | 01:42:38 | 00:00:00 | |
| HARRO8 | 2026-09-06 00:28:40 | 49.47489 | 15.63258 | 100° | 22km/h | 26490m | 9.4m/s | -50.9°C | 0.0% | -1.0hPa | 2.5V | 00:00:00 | 00:00:00 | 00:00:00 | |
| OE3MUC-15 | 2026-09-06 00:28:39 | 49.47489 | 15.63258 | 101° | 27km/h | 26491m | 9.4m/s | -50.8°C | 2.3% | 0hPa | 2.5V | 00:00:00 | 00:00:00 | 00:00:00 | |
| OE5DXL-15 | 2026-09-06 00:28:38 | 49.47490 | 15.63248 | 93° | 20km/h | 26483m | 5.1m/s | -50.8°C | 2.3% | 0hPa | 2.6V | 00:00:00 | 00:00:00 | 00:00:00 | |
| PG1ADW-2 | 2026-09-06 00:28:37 | 49.47490 | 15.63237 | 94° | 22km/h | 26478m | 5.4m/s | -50.8°C | 2.3% | 0hPa | 2.6V | 00:00:00 | 00:00:00 | 00:00:00 | |
| OE5MMP-10 | 2026-09-06 00:28:36 | 49.47491 | 15.63226 | 97° | 24km/h | 26471m | 7.4m/s | -50.8°C | 2.3% | 0hPa | 2.6V | 00:00:00 | 01:42:32 | 00:00:00 | |
| PETON7-10 | 2026-09-06 00:28:35 | 49.47492 | 15.63214 | 102° | 22km/h | 26464m | 6.4m/s | -50.8°C | 2.3% | 0hPa | 2.6V | 00:00:00 | 00:00:00 | 00:00:00 | |
| HA6NAB-11 | 2026-09-06 00:28:34 | 49.47494 | 15.63203 | 106° | 29km/h | 26458m | 6.4m/s | -50.8°C | 0% | 0hPa | 2.5V | 00:00:00 | 00:00:00 | 00:00:00 | |
| S52SK | 2026-09-06 00:28:33 | 49.47494 | 15.63203 | 106° | 29km/h | 26458m | 6.4m/s | -50.8°C | 0.0% | 0hPa | 2.5V | 00:00:00 | 00:00:00 | 00:00:00 | |
| DO3MHA-11 | 2026-09-06 00:28:32 | 49.47497 | 15.63183 | 103° | 20km/h | 26445m | 3.9m/s | -50.8°C | 2.3% | 0hPa | 2.5V | 00:00:00 | 01:42:28 | 00:00:00 | |
| OE3MUC-15 | 2026-09-06 00:28:31 | 49.47498 | 15.63174 | 104° | 20km/h | 26440m | 5.2m/s | -50.8°C | 2.3% | 0hPa | 2.5V | 00:00:00 | 00:00:00 | 00:00:00 | |
| EDDB2-12 | 2026-09-06 00:28:30 | 49.47500 | 15.63165 | 107° | 20km/h | 26433m | 6.8m/s | -50.9°C | 0.0% | -1.0hPa | 2.5V | 00:00:00 | 00:00:00 | 00:00:00 | |
| OE5DRO-10 | 2026-09-06 00:28:29 | 49.47502 | 15.63158 | 117° | 18km/h | 26426m | 9.5m/s | -50.8°C | 2.3% | 0hPa | 2.5V | 00:00:00 | 00:00:00 | 00:00:00 | |
| HA6NAB-11 | 2026-09-06 00:28:28 | 49.47504 | 15.63152 | 130° | 18km/h | 26418m | 6.0m/s | -50.9°C | 0.0% | 0hPa | 2.5V | 00:00:00 | 00:00:00 | 00:00:00 | |
| OE3MUC-15 | 2026-09-06 00:28:27 | 49.47507 | 15.63146 | 128° | 16km/h | 26412m | 5.7m/s | -50.9°C | 2.3% | 0hPa | 2.5V | 00:00:00 | 00:00:00 | 08:30:00 | |
| OE5MMP-10 | 2026-09-06 00:28:26 | 49.47510 | 15.63141 | 119° | 18km/h | 26405m | 7.1m/s | -50.9°C | 2.3% | 0hPa | 2.5V | 00:00:00 | 01:42:22 | 00:00:00 | |
| OE3MUC-15 | 2026-09-06 00:28:23 | 49.47511 | 15.63121 | 88° | 20km/h | 26386m | 7.7m/s | -50.9°C | 2.3% | 0hPa | 2.5V | 00:00:00 | 00:00:00 | 00:00:00 | |
| DO3MHA-11 | 2026-09-06 00:28:22 | 49.47511 | 15.63114 | 96° | 18km/h | 26377m | 8.3m/s | -51.0°C | 2.3% | 0hPa | 2.5V | 00:00:00 | 01:42:18 | 00:00:00 | |
| OE3JTB-15 | 2026-09-06 00:28:21 | 49.47512 | 15.63106 | 99° | 13km/h | 26371m | 4.7m/s | -51.0°C | 2.3% | 0hPa | 2.5V | 00:00:00 | 01:42:17 | 00:00:00 | |
| PETON7-10 | 2026-09-06 00:28:20 | 49.47513 | 15.63098 | 100° | 16km/h | 26366m | 5.8m/s | -51.0°C | 2.3% | 0hPa | 2.5V | 00:00:00 | 00:00:00 | 00:00:00 | |
| OE3MUC-15 | 2026-09-06 00:28:19 | 49.47513 | 15.63090 | 93° | 18km/h | 26358m | 8.6m/s | -51.1°C | 2.3% | 0hPa | 2.5V | 00:00:00 | 00:00:00 | 00:00:00 | |
| PG1ADW-2 | 2026-09-06 00:28:17 | 49.47512 | 15.63075 | 77° | 15km/h | 26344m | 5.2m/s | -51.1°C | 2.3% | 0hPa | 2.5V | 00:00:00 | 00:00:00 | 00:00:00 | |
| OE5MMP-10 | 2026-09-06 00:28:16 | 49.47511 | 15.63068 | 82° | 15km/h | 26338m | 7.0m/s | -51.1°C | 2.3% | 0hPa | 2.5V | 00:00:00 | 01:42:12 | 00:00:00 | |
| DL6DJ-15 | 2026-09-06 00:28:15 | 49.47512 | 15.63057 | 116° | 15km/h | 26323m | 5.2m/s | -51.2°C | -1.0% | -1.0hPa | 2.5V | 00:00:00 | 00:00:00 | 00:00:00 | |
| DB0UT-7 | 2026-09-06 00:28:14 | 49.47512 | 15.63057 | 117° | 22km/h | 26323m | 5.1m/s | -51.1°C | 2.4% | 0hPa | 2.5V | 00:00:00 | 00:00:00 | 00:00:00 | |
| HA6NAB-11 | 2026-09-06 00:28:12 | 49.47515 | 15.63047 | 107° | 15km/h | 26310m | 8.0m/s | -51.2°C | 0.0% | 0hPa | 2.5V | 00:00:00 | 00:00:00 | 00:00:00 | |
| OE3MUC-15 | 2026-09-06 00:28:11 | 49.47516 | 15.63042 | 91° | 13km/h | 26303m | 6.3m/s | -51.1°C | 2.4% | 0hPa | 2.5V | 00:00:00 | 00:00:00 | 00:00:00 | |
| OE5DRO-10 | 2026-09-06 00:28:10 | 49.47515 | 15.63037 | 80° | 11km/h | 26297m | 6.5m/s | -51.2°C | 2.4% | 0hPa | 2.5V | 00:00:00 | 00:00:00 | 08:30:00 | |
| HARRO8 | 2026-09-06 00:28:09 | 49.47514 | 15.63027 | 79° | 15km/h | 26281m | 7.0m/s | -51.3°C | 0.0% | -1.0hPa | 2.5V | 00:00:00 | 00:00:00 | 00:00:00 | |
| OE5DXL-15 | 2026-09-06 00:28:08 | 49.47514 | 15.63027 | 80° | 9km/h | 26282m | 6.9m/s | -51.3°C | 2.4% | 0hPa | 2.5V | 00:00:00 | 00:00:00 | 08:30:00 | |
| OE3MUC-15 | 2026-09-06 00:28:07 | 49.47513 | 15.63020 | 77° | 18km/h | 26275m | 6.0m/s | -51.3°C | 2.4% | 0hPa | 2.5V | 00:00:00 | 00:00:00 | 00:00:00 | |
| OE5MMP-10 | 2026-09-06 00:28:06 | 49.47512 | 15.63013 | 70° | 13km/h | 26268m | 7.7m/s | -51.3°C | 2.4% | 0hPa | 2.5V | 00:00:00 | 01:42:02 | 00:00:00 | |
| PETON7-10 | 2026-09-06 00:28:05 | 49.47510 | 15.63006 | 61° | 9km/h | 26261m | 6.8m/s | -51.3°C | 2.4% | 0hPa | 2.5V | 00:00:00 | 01:42:01 | 00:00:00 | |
| OE3MUC-15 | 2026-09-06 00:28:03 | 49.47506 | 15.62997 | 65° | 11km/h | 26249m | 6.4m/s | -51.3°C | 2.4% | 0hPa | 2.5V | 00:00:00 | 00:00:00 | 00:00:00 | |
| DO3MHA-11 | 2026-09-06 00:28:02 | 49.47505 | 15.62993 | 84° | 7km/h | 26241m | 7.9m/s | -51.3°C | 2.4% | 0hPa | 2.5V | 00:00:00 | 01:41:58 | 00:00:00 | |
| OE3MUC-15 | 2026-09-06 00:27:59 | 49.47506 | 15.62980 | 90° | 7km/h | 26221m | 8.3m/s | -51.4°C | 2.4% | 0hPa | 2.5V | 00:00:00 | 00:00:00 | 00:00:00 | |
| PG1ADW-2 | 2026-09-06 00:27:57 | 49.47506 | 15.62974 | 88° | 7km/h | 26208m | 6.7m/s | -51.4°C | 2.4% | 0hPa | 2.5V | 00:00:00 | 01:41:53 | 08:30:00 | |
| OE3MUC-15 | 2026-09-06 00:27:55 | 49.47506 | 15.62969 | 119° | 5km/h | 26193m | 7.2m/s | -51.3°C | 2.4% | 0hPa | 2.5V | 00:00:00 | 00:00:00 | 00:00:00 | |
| DO3MHA-11 | 2026-09-06 00:27:52 | 49.47508 | 15.62967 | 245° | 7km/h | 26172m | 7.1m/s | -51.2°C | 2.4% | 0hPa | 2.5V | 00:00:00 | 01:41:48 | 00:00:00 | |
| OK1ALN | 2026-09-06 00:27:51 | 49.47509 | 15.62969 | 249° | 9km/h | 26166m | 5.2m/s | -51.2°C | 0.0% | 0hPa | 2.5V | 00:00:00 | 00:00:00 | 00:00:00 | |
| PETON7-10 | 2026-09-06 00:27:50 | 49.47510 | 15.62972 | 237° | 7km/h | 26160m | 6.9m/s | -51.1°C | 2.4% | 0hPa | 2.5V | 00:00:00 | 00:00:00 | 00:00:00 | |
| OE3MUC-15 | 2026-09-06 00:27:47 | 49.47516 | 15.62975 | 166° | 5km/h | 26138m | 6.1m/s | -50.9°C | 2.3% | 0hPa | 2.6V | 00:00:00 | 00:00:00 | 00:00:00 | |
| OE5MMP-10 | 2026-09-06 00:27:46 | 49.47518 | 15.62975 | 153° | 7km/h | 26131m | 7.7m/s | -50.9°C | 2.4% | 0hPa | 2.6V | 00:00:00 | 01:41:42 | 00:00:00 | |
| NBG1-10 | 2026-09-06 00:27:43 | 49.47518 | 15.62969 | 66° | 15km/h | 26113m | 7.1m/s | -50.8°C | 2.3% | 0hPa | 2.6V | 00:00:00 | 01:41:39 | 00:00:00 | |
| DO3MHA-11 | 2026-09-06 00:27:42 | 49.47517 | 15.62966 | 79° | 9km/h | 26105m | 8.8m/s | -50.8°C | 2.3% | 0hPa | 2.6V | 00:00:00 | 01:41:38 | 00:00:00 | |
| SONDE2-11 | 2026-09-06 00:27:41 | 49.47518 | 15.62959 | 105° | 9km/h | 26091m | 6.7m/s | -50.9°C | 0.0% | -1.0hPa | 2.6V | 00:00:00 | 00:00:00 | 00:00:00 | |
| HARRO8 | 2026-09-06 00:27:38 | 49.47520 | 15.62953 | 143° | 4km/h | 26070m | 6.4m/s | -51.0°C | 0.0% | -1.0hPa | 2.6V | 00:00:00 | 00:00:00 | 00:00:00 | |
| PG1ADW-2 | 2026-09-06 00:27:37 | 49.47520 | 15.62953 | 144° | 15km/h | 26071m | 6.3m/s | -51.0°C | 2.3% | 0hPa | 2.6V | 00:00:00 | 00:00:00 | 00:00:00 | |
| OE5MMP-10 | 2026-09-06 00:27:36 | 49.47521 | 15.62951 | 144° | 15km/h | 26064m | 7.9m/s | -51.0°C | 2.4% | 0hPa | 2.6V | 00:00:00 | 01:41:32 | 00:00:00 | |
| PETON7-10 | 2026-09-06 00:27:35 | 49.47523 | 15.62949 | 130° | 15km/h | 26056m | 6.4m/s | -51.0°C | 2.4% | 0hPa | 2.6V | 00:00:00 | 00:00:00 | 00:00:00 | |
| DO3MHA-11 | 2026-09-06 00:27:32 | 49.47527 | 15.62937 | 91° | 16km/h | 26036m | 5.5m/s | -51.1°C | 2.4% | 0hPa | 2.6V | 00:00:00 | 01:41:28 | 00:00:00 | |
| OK1ALN | 2026-09-06 00:27:29 | 49.47526 | 15.62927 | 78° | 16km/h | 26023m | 7.7m/s | -51.1°C | 0.0% | 0hPa | 2.6V | 00:00:00 | 00:00:00 | 00:00:00 | |
| EDDB2-12 | 2026-09-06 00:27:28 | 49.47524 | 15.62912 | 84° | 22km/h | 26008m | 4.7m/s | -51.1°C | 0.0% | -1.0hPa | 2.6V | 00:00:00 | 00:00:00 | 00:00:00 | |
| OE5MMP-10 | 2026-09-06 00:27:26 | 49.47523 | 15.62894 | 86° | 16km/h | 25994m | 8.5m/s | -51.0°C | 2.4% | 0hPa | 2.6V | 00:00:00 | 01:41:22 | 08:30:00 | |
| OE3JTB-15 | 2026-09-06 00:27:23 | 49.47522 | 15.62877 | 88° | 24km/h | 25974m | 6.4m/s | -51.0°C | 2.4% | 0hPa | 2.6V | 00:00:00 | 00:00:00 | 00:00:00 | |
| DO3MHA-11 | 2026-09-06 00:27:22 | 49.47522 | 15.62872 | 94° | 20km/h | 25967m | 8.6m/s | -51.0°C | 2.3% | 0hPa | 2.6V | 00:00:00 | 01:41:18 | 08:30:00 | |
| PETON7-10 | 2026-09-06 00:27:20 | 49.47522 | 15.62861 | 85° | 24km/h | 25953m | 6.6m/s | -51.0°C | 2.3% | 0hPa | 2.6V | 00:00:00 | 01:41:16 | 00:00:00 | |
| OE3MUC-15 | 2026-09-06 00:27:19 | 49.47521 | 15.62856 | 68° | 18km/h | 25946m | 7.9m/s | -51.0°C | 2.4% | 0hPa | 2.6V | 00:00:00 | 00:00:00 | 00:00:00 | |
| PG1ADW-2 | 2026-09-06 00:27:18 | 49.47516 | 15.62845 | 49° | 26km/h | 25934m | 6.8m/s | -51.0°C | 2.4% | 0hPa | 2.6V | 00:00:00 | 00:00:00 | 00:00:00 | |
| OE5MMP-10 | 2026-09-06 00:27:16 | 49.47513 | 15.62839 | 53° | 26km/h | 25926m | 8.8m/s | -51.0°C | 2.4% | 0hPa | 2.6V | 00:00:00 | 01:41:12 | 00:00:00 | |
| OE3MUC-15 | 2026-09-06 00:27:15 | 49.47509 | 15.62831 | 59° | 26km/h | 25918m | 6.6m/s | -51.0°C | 2.4% | 0hPa | 2.6V | 00:00:00 | 00:00:00 | 08:30:00 | |
| OE5DRO-10 | 2026-09-06 00:27:13 | 49.47503 | 15.62813 | 60° | 27km/h | 25905m | 7.8m/s | -51.0°C | 2.4% | 0hPa | 2.6V | 00:00:00 | 00:00:00 | 00:00:00 | |
| DL6DJ-15 | 2026-09-06 00:27:12 | 49.47499 | 15.62805 | 52° | 24km/h | 25897m | 7.0m/s | 0°C | -1.0% | -1.0hPa | 2.5V | 00:00:00 | 00:00:00 | 00:00:00 | |
| OE3MUC-15 | 2026-09-06 00:27:11 | 49.47495 | 15.62797 | 50° | 27km/h | 25891m | 5.6m/s | -51.0°C | 2.4% | 0hPa | 2.5V | 00:00:00 | 00:00:00 | 00:00:00 | |
| NBG1-10 | 2026-09-06 00:27:10 | 49.47491 | 15.62790 | 51° | 27km/h | 25884m | 7.3m/s | -50.9°C | 2.3% | 0hPa | 2.5V | 00:00:00 | 01:41:06 | 00:00:00 | |
| SONDE2-11 | 2026-09-06 00:27:09 | 49.47487 | 15.62781 | 54° | 27km/h | 25876m | 8.6m/s | -51.0°C | 0.0% | -1.0hPa | 2.5V | 00:00:00 | 00:00:00 | 00:00:00 | |
| OE5DXL-15 | 2026-09-06 00:27:08 | 49.47483 | 15.62772 | 60° | 27km/h | 25869m | 5.4m/s | -50.9°C | 2.4% | 0hPa | 2.5V | 00:00:00 | 00:00:00 | 00:00:00 | |
| OE3MUC-15 | 2026-09-06 00:27:07 | 49.47479 | 15.62763 | 58° | 27km/h | 25863m | 6.8m/s | -51.0°C | 2.3% | 0hPa | 2.5V | 00:00:00 | 00:00:00 | 00:00:00 | |
| OE5MMP-10 | 2026-09-06 00:27:06 | 49.47475 | 15.62754 | 54° | 27km/h | 25856m | 8.3m/s | -51.0°C | 2.4% | 0hPa | 2.5V | 00:00:00 | 01:41:02 | 00:00:00 | |
| PETON7-10 | 2026-09-06 00:27:05 | 49.47471 | 15.62746 | 50° | 29km/h | 25850m | 3.6m/s | -51.0°C | 2.4% | 0hPa | 2.5V | 00:00:00 | 00:00:00 | 08:30:00 | |
| OE3MUC-15 | 2026-09-06 00:27:03 | 49.47462 | 15.62730 | 52° | 27km/h | 25837m | 8.8m/s | -50.9°C | 2.4% | 0hPa | 2.6V | 00:00:00 | 00:00:00 | 00:00:00 | |
| DO3MHA-11 | 2026-09-06 00:27:02 | 49.47458 | 15.62722 | 57° | 29km/h | 25829m | 8.0m/s | -50.9°C | 2.4% | 0hPa | 2.6V | 00:00:00 | 01:40:58 | 00:00:00 | |
| OE3MUC-15 | 2026-09-06 00:26:59 | 49.47446 | 15.62696 | 44° | 27km/h | 25809m | 8.4m/s | -50.7°C | 2.3% | 0hPa | 2.6V | 00:00:00 | 00:00:00 | 00:00:00 | |
| PG1ADW-2 | 2026-09-06 00:26:57 | 49.47434 | 15.62685 | 27° | 26km/h | 25797m | 6.6m/s | -50.6°C | 2.3% | 0hPa | 2.6V | 00:00:00 | 00:00:00 | 00:00:00 | |
| OE5MMP-10 | 2026-09-06 00:26:56 | 49.47428 | 15.62680 | 27° | 27km/h | 25789m | 8.2m/s | -50.5°C | 2.3% | 0hPa | 2.6V | 00:00:00 | 01:40:52 | 00:00:00 | |
| OE3MUC-15 | 2026-09-06 00:26:55 | 49.47421 | 15.62674 | 32° | 33km/h | 25781m | 8.6m/s | -50.5°C | 2.3% | 0hPa | 2.6V | 00:00:00 | 00:00:00 | 00:00:00 | |
| OE3JTB-15 | 2026-09-06 00:26:54 | 49.47414 | 15.62667 | 34° | 22km/h | 25774m | 5.5m/s | -50.5°C | 2.3% | 0hPa | 2.6V | 00:00:00 | 01:40:50 | 00:00:00 | |
| DO3MHA-11 | 2026-09-06 00:26:52 | 49.47400 | 15.62653 | 30° | 24km/h | 25760m | 8.4m/s | -50.4°C | 2.2% | 0hPa | 2.6V | 00:00:00 | 01:40:48 | 00:00:00 | |
| OE3MUC-15 | 2026-09-06 00:26:51 | 49.47393 | 15.62648 | 29° | 24km/h | 25753m | 4.4m/s | -50.4°C | 2.3% | 0hPa | 2.6V | 00:00:00 | 01:40:47 | 00:00:00 | |
| PETON7-10 | 2026-09-06 00:26:50 | 49.47388 | 15.62643 | 30° | 22km/h | 25748m | 6.1m/s | -50.4°C | 2.2% | 0hPa | 2.6V | 00:00:00 | 00:00:00 | 00:00:00 | |
| OK1SLM-15 | 2026-09-06 00:26:48 | 49.47383 | 15.62638 | 36° | 22km/h | 25741m | 8.4m/s | -50.4°C | 0% | 0hPa | 2.6V | 00:00:00 | 00:00:00 | 00:00:00 | |
| OE3MUC-15 | 2026-09-06 00:26:47 | 49.47375 | 15.62626 | 53° | 22km/h | 25726m | 5.4m/s | -50.4°C | 2.2% | 0hPa | 2.6V | 00:00:00 | 00:00:00 | 00:00:00 | |
| OE5MMP-10 | 2026-09-06 00:26:46 | 49.47372 | 15.62620 | 50° | 24km/h | 25720m | 7.1m/s | -50.4°C | 2.2% | 0hPa | 2.6V | 00:00:00 | 01:40:42 | 00:00:00 | |
| SP3BTT-10 | 2026-09-06 00:26:44 | 49.47363 | 15.62608 | 31° | 11km/h | 25705m | 5.7m/s | -50.3°C | 2.2% | 0hPa | 2.6V | 00:00:00 | 00:00:00 | 00:00:00 | |
| OE3MUC-15 | 2026-09-06 00:26:43 | 49.47358 | 15.62604 | 29° | 26km/h | 25699m | 6.8m/s | -50.3°C | 2.2% | 0hPa | 2.6V | 00:00:00 | 00:00:00 | 00:00:00 | |
| DO3MHA-11 | 2026-09-06 00:26:42 | 49.47353 | 15.62599 | 31° | 18km/h | 25692m | 7.7m/s | -50.4°C | 2.2% | 0hPa | 2.6V | 00:00:00 | 01:40:38 | 00:00:00 | |
| DL6DJ-15 | 2026-09-06 00:26:41 | 49.47335 | 15.62584 | 23° | 24km/h | 25670m | 9.1m/s | 0°C | -1.0% | -1.0hPa | 2.6V | 00:00:00 | 00:00:00 | 00:00:00 | |
| OE3MUC-15 | 2026-09-06 00:26:39 | 49.47335 | 15.62584 | 24° | 18km/h | 25670m | 9.1m/s | -50.8°C | 2.3% | 0hPa | 2.6V | 00:00:00 | 00:00:00 | 08:30:00 | |
| OE5DXL-15 | 2026-09-06 00:26:38 | 49.47330 | 15.62581 | 16° | 13km/h | 25663m | 5.4m/s | -50.9°C | 2.3% | 0hPa | 2.5V | 00:00:00 | 00:00:00 | 00:00:00 | |
| PG1ADW-2 | 2026-09-06 00:26:37 | 49.47325 | 15.62579 | 13° | 15km/h | 25657m | 6.3m/s | -51.0°C | 2.3% | 0hPa | 2.6V | 00:00:00 | 01:40:33 | 00:00:00 | |
| OE5MMP-10 | 2026-09-06 00:26:36 | 49.47321 | 15.62578 | 18° | 15km/h | 25650m | 8.0m/s | -51.0°C | 2.3% | 0hPa | 2.6V | 00:00:00 | 01:40:32 | 00:00:00 | |
| OE3MUC-15 | 2026-09-06 00:26:35 | 49.47319 | 15.62576 | 27° | 11km/h | 25642m | 6.4m/s | -51.0°C | 2.3% | 0hPa | 2.6V | 00:00:00 | 00:00:00 | 00:00:00 | |
| EDDB2-11 | 2026-09-06 00:26:34 | 49.47316 | 15.62574 | 28° | 9km/h | 25636m | 6.5m/s | -51.0°C | 0.0% | -1.0hPa | 2.6V | 00:00:00 | 00:00:00 | 00:00:00 | |
| OE3MUC-15 | 2026-09-06 00:26:31 | 49.47308 | 15.62571 | 11° | 18km/h | 25615m | 6.0m/s | -51.0°C | 2.3% | 0hPa | 2.6V | 00:00:00 | 00:00:00 | 00:00:00 | |
| OK1ALN | 2026-09-06 00:26:28 | 49.47300 | 15.62567 | 27° | 20km/h | 25601m | 7.0m/s | -51.1°C | 0.0% | 0hPa | 2.6V | 00:00:00 | 00:00:00 | 00:00:00 | |
| OE3MUC-15 | 2026-09-06 00:26:27 | 49.47290 | 15.62560 | 21° | 20km/h | 25587m | 7.9m/s | -51.1°C | 2.4% | 0hPa | 2.6V | 00:00:00 | 00:00:00 | 00:00:00 | |
| OE5MMP-10 | 2026-09-06 00:26:26 | 49.47284 | 15.62557 | 12° | 11km/h | 25581m | 3.8m/s | -51.2°C | 2.3% | 0hPa | 2.6V | 00:00:00 | 01:40:22 | 00:00:00 | |
| OE3JTB-15 | 2026-09-06 00:26:25 | 49.47279 | 15.62556 | 7° | 7km/h | 25576m | 5.9m/s | -51.2°C | 2.3% | 0hPa | 2.5V | 00:00:00 | 00:00:00 | 08:30:00 | |
| OE3MUC-15 | 2026-09-06 00:26:23 | 49.47271 | 15.62555 | 7° | 5km/h | 25561m | 9.6m/s | -51.1°C | 2.3% | 0hPa | 2.6V | 00:00:00 | 00:00:00 | 00:00:00 | |
| DO3MHA-11 | 2026-09-06 00:26:22 | 49.47270 | 15.62555 | 312° | 7km/h | 25553m | 5.4m/s | -51.2°C | 2.3% | 0hPa | 2.6V | 00:00:00 | 01:40:18 | 00:00:00 | |
| PETON7-10 | 2026-09-06 00:26:20 | 49.47271 | 15.62558 | 245° | 7km/h | 25540m | 8.5m/s | -51.2°C | 2.3% | 0hPa | 2.6V | 00:00:00 | 00:00:00 | 00:00:00 | |
| OE3MUC-15 | 2026-09-06 00:26:19 | 49.47272 | 15.62562 | 259° | 11km/h | 25533m | 5.2m/s | -51.2°C | 2.3% | 0hPa | 2.6V | 00:00:00 | 00:00:00 | 00:00:00 | |
| HA6NAB-11 | 2026-09-06 00:26:18 | 49.47272 | 15.62562 | 260° | 13km/h | 25533m | 5.2m/s | -51.3°C | 0.0% | 0hPa | 2.6V | 00:00:00 | 00:00:00 | 00:00:00 | |
| PG1ADW-2 | 2026-09-06 00:26:17 | 49.47272 | 15.62571 | 279° | 5km/h | 25520m | 8.2m/s | -51.3°C | 2.3% | 0hPa | 2.6V | 00:00:00 | 00:00:00 | 00:00:00 | |
| OE5MMP-10 | 2026-09-06 00:26:16 | 49.47271 | 15.62574 | 307° | 5km/h | 25513m | 6.5m/s | -51.4°C | 2.3% | 0hPa | 2.6V | 00:00:00 | 01:40:12 | 00:00:00 | |
| OE3MUC-15 | 2026-09-06 00:26:15 | 49.47270 | 15.62575 | 345° | 9km/h | 25506m | 6.3m/s | -51.4°C | 2.3% | 0hPa | 2.6V | 00:00:00 | 00:00:00 | 00:00:00 | |
| HA6NAB-11 | 2026-09-06 00:26:13 | 49.47269 | 15.62576 | 356° | 7km/h | 25499m | 7.7m/s | -51.5°C | 0.0% | 0hPa | 2.5V | 00:00:00 | 00:00:00 | 00:00:00 | |
| DO3MHA-11 | 2026-09-06 00:26:12 | 49.47264 | 15.62577 | 355° | 5km/h | 25485m | 6.1m/s | -51.5°C | 2.4% | 0hPa | 2.5V | 00:00:00 | 01:40:08 | 00:00:00 | |
| OE3MUC-15 | 2026-09-06 00:26:11 | 49.47262 | 15.62577 | 4° | 4km/h | 25478m | 7.6m/s | -51.5°C | 2.3% | 0hPa | 2.5V | 00:00:00 | 00:00:00 | 00:00:00 | |
| DL6DJ-15 | 2026-09-06 00:26:10 | 49.47261 | 15.62576 | 43° | 4km/h | 25471m | 7.6m/s | 0°C | -1.0% | -1.0hPa | 2.5V | 00:00:00 | 00:00:00 | 00:00:00 | |
| SONDE2-11 | 2026-09-06 00:26:08 | 49.47262 | 15.62575 | 208° | 4km/h | 25449m | 8.5m/s | -51.6°C | 0.0% | -1.0hPa | 2.5V | 00:00:00 | 00:00:00 | 00:00:00 | |
| OE3MUC-15 | 2026-09-06 00:26:07 | 49.47262 | 15.62575 | 209° | 5km/h | 25449m | 8.5m/s | -51.5°C | 2.4% | 0hPa | 2.5V | 00:00:00 | 00:00:00 | 00:00:00 | |
| OE5MMP-10 | 2026-09-06 00:26:06 | 49.47263 | 15.62576 | 235° | 5km/h | 25442m | 5.0m/s | -51.6°C | 2.4% | 0hPa | 2.5V | 00:00:00 | 01:40:02 | 00:00:00 | |
| PETON7-10 | 2026-09-06 00:26:05 | 49.47264 | 15.62578 | 237° | 7km/h | 25436m | 6.6m/s | -51.6°C | 2.4% | 0hPa | 2.5V | 00:00:00 | 00:00:00 | 00:00:00 | |
| NBG1-10 | 2026-09-06 00:26:04 | 49.47265 | 15.62580 | 230° | 13km/h | 25429m | 8.3m/s | -51.7°C | 2.4% | 0hPa | 2.5V | 00:00:00 | 01:40:00 | 00:00:00 | |
| HA6NAB-11 | 2026-09-06 00:26:03 | 49.47266 | 15.62582 | 226° | 7km/h | 25422m | 5.8m/s | -51.8°C | 0.0% | 0hPa | 2.5V | 00:00:00 | 00:00:00 | 00:00:00 | |
| DO3MHA-11 | 2026-09-06 00:26:02 | 49.47267 | 15.62584 | 235° | 7km/h | 25415m | 6.3m/s | -51.7°C | 2.4% | 0hPa | 2.5V | 00:00:00 | 01:39:58 | 00:00:00 | |
| OE3MUC-15 | 2026-09-06 00:25:59 | 49.47267 | 15.62590 | 296° | 5km/h | 25395m | 6.6m/s | -51.7°C | 2.4% | 0hPa | 2.5V | 00:00:00 | 00:00:00 | 00:00:00 | |
| OE5DRO-10 | 2026-09-06 00:25:57 | 49.47267 | 15.62593 | 165° | 11km/h | 25380m | 7.1m/s | -51.8°C | 2.4% | 0hPa | 2.5V | 00:00:00 | 00:00:00 | 00:00:00 | |
| OE5MMP-10 | 2026-09-06 00:25:56 | 49.47268 | 15.62592 | 146° | 13km/h | 25373m | 5.7m/s | -51.9°C | 2.4% | 0hPa | 2.5V | 00:00:00 | 01:39:52 | 08:30:00 | |
| OE3MUC-15 | 2026-09-06 00:25:55 | 49.47269 | 15.62590 | 144° | 9km/h | 25366m | 7.8m/s | -51.9°C | 2.4% | 0hPa | 2.6V | 00:00:00 | 00:00:00 | 00:00:00 | |
| DO3MHA-11 | 2026-09-06 00:25:52 | 49.47276 | 15.62584 | 150° | 13km/h | 25345m | 7.3m/s | -52.0°C | 2.5% | 0hPa | 2.6V | 00:00:00 | 01:39:48 | 08:30:00 | |
| OE3MUC-15 | 2026-09-06 00:25:51 | 49.47279 | 15.62581 | 147° | 16km/h | 25337m | 8.3m/s | -52.1°C | 2.5% | 0hPa | 2.5V | 00:00:00 | 00:00:00 | 00:00:00 | |
| PETON7-10 | 2026-09-06 00:25:50 | 49.47282 | 15.62577 | 139° | 13km/h | 25330m | 5.5m/s | -52.1°C | 2.5% | 0hPa | 2.6V | 00:00:00 | 01:39:46 | 00:00:00 | |
| OE3MUC-15 | 2026-09-06 00:25:47 | 49.47290 | 15.62564 | 122° | 13km/h | 25310m | 5.2m/s | -52.2°C | 2.5% | 0hPa | 2.6V | 00:00:00 | 00:00:00 | 00:00:00 | |
| OE5MMP-10 | 2026-09-06 00:25:46 | 49.47291 | 15.62560 | 120° | 13km/h | 25304m | 6.7m/s | -52.2°C | 2.5% | 0hPa | 2.6V | 00:00:00 | 01:39:42 | 00:00:00 | |
| OK1SLM-15 | 2026-09-06 00:25:43 | 49.47294 | 15.62551 | 113° | 13km/h | 25289m | 5.7m/s | -52.2°C | 0.0% | 0hPa | 2.6V | 00:00:00 | 00:00:00 | 00:00:00 | |
| DO3MHA-11 | 2026-09-06 00:25:42 | 49.47296 | 15.62542 | 96° | 15km/h | 25275m | 8.4m/s | -52.2°C | 2.5% | 0hPa | 2.6V | 00:00:00 | 01:39:38 | 00:00:00 | |
| OE5DXL-15 | 2026-09-06 00:25:38 | 49.47299 | 15.62527 | 121° | 22km/h | 25247m | 6.1m/s | -52.2°C | 2.5% | 0hPa | 2.6V | 00:00:00 | 00:00:00 | 00:00:00 | |
| PG1ADW-2 | 2026-09-06 00:25:37 | 49.47301 | 15.62522 | 124° | 22km/h | 25241m | 6.5m/s | -52.2°C | 2.5% | 0hPa | 2.6V | 00:00:00 | 00:00:00 | 00:00:00 | |
| OE5MMP-10 | 2026-09-06 00:25:36 | 49.47304 | 15.62516 | 127° | 20km/h | 25233m | 8.6m/s | -52.3°C | 2.5% | 0hPa | 2.6V | 00:00:00 | 01:39:32 | 00:00:00 | |
| PETON7-10 | 2026-09-06 00:25:35 | 49.47307 | 15.62510 | 131° | 20km/h | 25226m | 5.7m/s | -52.3°C | 2.5% | 0hPa | 2.6V | 00:00:00 | 00:00:00 | 00:00:00 | |
| NBG1-10 | 2026-09-06 00:25:32 | 49.47320 | 15.62483 | 122° | 22km/h | 25199m | 5.3m/s | -52.2°C | 2.5% | 0hPa | 2.5V | 00:00:00 | 01:39:27 | 00:00:00 | |
| OE3JTB-15 | 2026-09-06 00:25:29 | 49.47327 | 15.62458 | 96° | 22km/h | 25173m | 7.1m/s | -52.2°C | 2.5% | 0hPa | 2.5V | 00:00:00 | 01:39:23 | 00:00:00 | |
| OK1ALN | 2026-09-06 00:25:27 | 49.47327 | 15.62458 | 96° | 16km/h | 25173m | 7.2m/s | -52.2°C | 0.1% | 0hPa | 2.5V | 00:00:00 | 00:00:00 | 00:00:00 | |
| OE5MMP-10 | 2026-09-06 00:25:26 | 49.47327 | 15.62451 | 91° | 24km/h | 25166m | 6.9m/s | -52.2°C | 2.5% | 0hPa | 2.5V | 00:00:00 | 01:39:22 | 00:00:00 | |
| EDDB2-12 | 2026-09-06 00:25:24 | 49.47328 | 15.62426 | 100° | 18km/h | 25144m | 7.0m/s | -52.3°C | 0.0% | -1.0hPa | 2.5V | 00:00:00 | 00:00:00 | 00:00:00 | |
| PETON7-10 | 2026-09-06 00:25:20 | 49.47334 | 15.62402 | 118° | 26km/h | 25124m | 7.3m/s | -52.4°C | 2.5% | 0hPa | 2.5V | 00:00:00 | 00:00:00 | 00:00:00 | |
| DB0UT-7 | 2026-09-06 00:25:19 | 49.47338 | 15.62393 | 121° | 20km/h | 25117m | 5.8m/s | -52.5°C | 2.5% | 0hPa | 2.5V | 00:00:00 | 01:39:15 | 00:00:00 | |
| S52SK | 2026-09-06 00:25:18 | 49.47338 | 15.62393 | 121° | 27km/h | 25117m | 5.9m/s | -52.5°C | 0.1% | 0hPa | 2.5V | 00:00:00 | 00:00:00 | 00:00:00 | |
| PG1ADW-2 | 2026-09-06 00:25:17 | 49.47344 | 15.62376 | 121° | 22km/h | 25102m | 8.1m/s | -52.5°C | 2.6% | 0hPa | 2.5V | 00:00:00 | 01:39:13 | 00:00:00 | |
| DB0ND-19 | 2026-09-06 00:25:16 | 49.47348 | 15.62362 | 96° | 18km/h | 25091m | 6.2m/s | -52.6°C | 0.0% | -1.0hPa | 2.5V | 00:00:00 | 00:00:00 | 00:00:00 | |
| OE3MUC-15 | 2026-09-06 00:25:15 | 49.47348 | 15.62362 | 97° | 26km/h | 25091m | 6.2m/s | -52.5°C | 2.6% | 0hPa | 2.5V | 00:00:00 | 00:00:00 | 00:00:00 | |
| S52SK | 2026-09-06 00:25:13 | 49.47346 | 15.62344 | 73° | 27km/h | 25076m | 6.0m/s | -52.6°C | 0.0% | 0hPa | 2.5V | 00:00:00 | 00:00:00 | 00:00:00 | |
| DO3MHA-11 | 2026-09-06 00:25:12 | 49.47344 | 15.62334 | 67° | 24km/h | 25069m | 6.5m/s | -52.5°C | 2.6% | 0hPa | 2.5V | 00:00:00 | 01:39:08 | 00:00:00 | |
| OE3MUC-15 | 2026-09-06 00:25:11 | 49.47341 | 15.62323 | 63° | 27km/h | 25062m | 8.2m/s | -52.5°C | 2.6% | 0hPa | 2.5V | 00:00:00 | 00:00:00 | 00:00:00 | |
| OE5DXL-15 | 2026-09-06 00:25:08 | 49.47332 | 15.62295 | 74° | 16km/h | 25043m | 7.5m/s | -52.5°C | 2.6% | 0hPa | 2.5V | 00:00:00 | 00:00:00 | 00:00:00 | |
| OE3MUC-15 | 2026-09-06 00:25:07 | 49.47330 | 15.62286 | 86° | 22km/h | 25036m | 6.2m/s | -52.5°C | 2.6% | 0hPa | 2.5V | 00:00:00 | 00:00:00 | 00:00:00 | |
| OE5MMP-10 | 2026-09-06 00:25:06 | 49.47330 | 15.62276 | 92° | 18km/h | 25029m | 6.6m/s | -52.5°C | 2.6% | 0hPa | 2.5V | 00:00:00 | 01:39:02 | 00:00:00 | |
| PETON7-10 | 2026-09-06 00:25:05 | 49.47331 | 15.62267 | 95° | 15km/h | 25021m | 8.6m/s | -52.5°C | 2.6% | 0hPa | 2.5V | 00:00:00 | 01:39:01 | 00:00:00 | |
| OE3MUC-15 | 2026-09-06 00:25:03 | 49.47331 | 15.62254 | 84° | 16km/h | 25008m | 5.5m/s | -52.5°C | 2.6% | 0hPa | 2.5V | 00:00:00 | 00:00:00 | 00:00:00 | |
| DO3MHA-11 | 2026-09-06 00:25:02 | 49.47330 | 15.62249 | 73° | 15km/h | 25002m | 7.4m/s | -52.4°C | 2.6% | 0hPa | 2.5V | 00:00:00 | 01:38:58 | 00:00:00 | |
| EDDB2-11 | 2026-09-06 00:25:01 | 49.47326 | 15.62239 | 46° | 18km/h | 24987m | 5.9m/s | -52.4°C | 0.0% | -1.0hPa | 2.5V | 00:00:00 | 00:00:00 | 00:00:00 | |
| EDDB2-12 | 2026-09-06 00:24:53 | 49.47305 | 15.62207 | 70° | 13km/h | 24934m | 8.0m/s | -52.3°C | 0.0% | -1.0hPa | 2.5V | 00:00:00 | 00:00:00 | 00:00:00 | |
| DB0ND-19 | 2026-09-06 00:24:45 | 49.47278 | 15.62189 | 358° | 16km/h | 24879m | 5.0m/s | -52.2°C | 0.0% | -1.0hPa | 2.5V | 00:00:00 | 00:00:00 | 00:00:00 | |
| OK1ALN | 2026-09-06 00:24:44 | 49.47283 | 15.62189 | 14° | 18km/h | 24886m | 8.6m/s | -52.2°C | 0.0% | 0hPa | 2.5V | 00:00:00 | 00:00:00 | 00:00:00 | |
| SP3BTT-10 | 2026-09-06 00:24:43 | 49.47274 | 15.62189 | 354° | 20km/h | 24873m | 6.1m/s | -52.1°C | 2.5% | 0hPa | 2.5V | 00:00:00 | 00:00:00 | 08:30:00 | |
| OE3MUC-15 | 2026-09-06 00:24:42 | 49.47270 | 15.62190 | 359° | 15km/h | 24866m | 8.3m/s | -52.1°C | 2.5% | 0hPa | 2.6V | 00:00:00 | 00:00:00 | 00:00:00 | |
| OE5DRO-10 | 2026-09-06 00:24:41 | 49.47266 | 15.62189 | 8° | 20km/h | 24859m | 5.6m/s | -52.1°C | 2.5% | 0hPa | 2.6V | 00:00:00 | 00:00:00 | 00:00:00 | |
| OE3MUC-15 | 2026-09-06 00:24:38 | 49.47255 | 15.62188 | 354° | 18km/h | 24838m | 6.0m/s | -52.0°C | 2.5% | 0hPa | 2.6V | 00:00:00 | 00:00:00 | 00:00:00 | |
| PG1ADW-2 | 2026-09-06 00:24:37 | 49.47251 | 15.62189 | 350° | 24km/h | 24832m | 5.9m/s | -52.0°C | 2.5% | 0hPa | 2.6V | 00:00:00 | 00:00:00 | 00:00:00 | |
| OE5MMP-10 | 2026-09-06 00:24:36 | 49.47246 | 15.62190 | 355° | 22km/h | 24825m | 7.3m/s | -52.0°C | 2.5% | 0hPa | 2.6V | 00:00:00 | 01:38:32 | 00:00:00 | |
| PETON7-10 | 2026-09-06 00:24:35 | 49.47241 | 15.62190 | 1° | 24km/h | 24818m | 7.2m/s | -52.0°C | 2.6% | 0hPa | 2.6V | 00:00:00 | 00:00:00 | 00:00:00 | |
| OE3MUC-15 | 2026-09-06 00:24:34 | 49.47235 | 15.62190 | 1° | 24km/h | 24812m | 5.5m/s | -52.1°C | 2.6% | 0hPa | 2.6V | 00:00:00 | 00:00:00 | 00:00:00 | |
| OK1SLM-15 | 2026-09-06 00:24:33 | 49.47235 | 15.62190 | 2° | 24km/h | 24812m | 5.5m/s | -52.1°C | 0.1% | 0hPa | 2.6V | 00:00:00 | 00:00:00 | 00:00:00 | |
| DO3MHA-11 | 2026-09-06 00:24:32 | 49.47223 | 15.62191 | 347° | 24km/h | 24798m | 7.1m/s | -52.0°C | 2.6% | 0hPa | 2.6V | 00:00:00 | 01:38:28 | 00:00:00 | |
| EDDB2-11 | 2026-09-06 00:24:30 | 49.47208 | 15.62201 | 338° | 20km/h | 24778m | 8.9m/s | -51.9°C | 0.0% | -1.0hPa | 2.6V | 00:00:00 | 00:00:00 | 00:00:00 | |
| OE3JTB-15 | 2026-09-06 00:24:29 | 49.47208 | 15.62201 | 339° | 24km/h | 24778m | 8.8m/s | -51.9°C | 2.5% | 0hPa | 2.6V | 00:00:00 | 00:00:00 | 00:00:00 | |
| OK1SLM-15 | 2026-09-06 00:24:27 | 49.47203 | 15.62203 | 344° | 22km/h | 24771m | 4.8m/s | -51.9°C | 0.0% | 0hPa | 2.6V | 00:00:00 | 00:00:00 | 00:00:00 | |
| OE5MMP-10 | 2026-09-06 00:24:26 | 49.47192 | 15.62209 | 339° | 27km/h | 24759m | 8.1m/s | -51.8°C | 2.5% | 0hPa | 2.6V | 00:00:00 | 01:38:22 | 08:30:00 | |
| NBG1-10 | 2026-09-06 00:24:25 | 49.47186 | 15.62213 | 335° | 24km/h | 24752m | 5.4m/s | -51.8°C | 2.5% | 0hPa | 2.6V | 00:00:00 | 01:38:21 | 00:00:00 | |
| OK1ALN | 2026-09-06 00:24:24 | 49.47186 | 15.62213 | 335° | 26km/h | 24752m | 5.5m/s | -51.8°C | 0.1% | 0hPa | 2.6V | 00:00:00 | 00:00:00 | 00:00:00 | |
| EDDB2-12 | 2026-09-06 00:24:22 | 49.47162 | 15.62222 | 0° | 27km/h | 24727m | 5.9m/s | -51.7°C | 0.0% | -1.0hPa | 2.6V | 00:00:00 | 00:00:00 | 00:00:00 | |
| PETON7-10 | 2026-09-06 00:24:20 | 49.47154 | 15.62222 | 360° | 24km/h | 24720m | 7.9m/s | -51.6°C | 2.4% | 0hPa | 2.6V | 00:00:00 | 01:38:16 | 00:00:00 | |
| OE3MUC-15 | 2026-09-06 00:24:18 | 49.47140 | 15.62224 | 356° | 27km/h | 24707m | 6.0m/s | -51.7°C | 2.4% | 0hPa | 2.6V | 00:00:00 | 00:00:00 | 00:00:00 | |
| PG1ADW-2 | 2026-09-06 00:24:17 | 49.47132 | 15.62224 | 359° | 22km/h | 24700m | 7.8m/s | -51.7°C | 2.5% | 0hPa | 2.6V | 00:00:00 | 00:00:00 | 00:00:00 | |
| OE5MMP-10 | 2026-09-06 00:24:16 | 49.47125 | 15.62224 | 3° | 22km/h | 24693m | 5.5m/s | -51.7°C | 2.5% | 0hPa | 2.6V | 00:00:00 | 01:38:12 | 00:00:00 | |
| OE3MUC-15 | 2026-09-06 00:24:14 | 49.47112 | 15.62224 | 355° | 24km/h | 24680m | 8.0m/s | -51.6°C | 2.5% | 0hPa | 2.6V | 00:00:00 | 00:00:00 | 08:30:00 | |
| DO3MHA-11 | 2026-09-06 00:24:12 | 49.47100 | 15.62228 | 346° | 18km/h | 24667m | 5.4m/s | -51.6°C | 2.5% | 0hPa | 2.5V | 00:00:00 | 01:38:08 | 00:00:00 | |
| OE3MUC-15 | 2026-09-06 00:24:10 | 49.47090 | 15.62230 | 360° | 18km/h | 24653m | 7.3m/s | -51.6°C | 2.5% | 0hPa | 2.5V | 00:00:00 | 00:00:00 | 00:00:00 | |
| OE5DXL-15 | 2026-09-06 00:24:08 | 49.47080 | 15.62230 | 2° | 20km/h | 24640m | 7.5m/s | -51.6°C | 2.5% | 0hPa | 2.5V | 00:00:00 | 00:00:00 | 00:00:00 | |
| OE3MUC-15 | 2026-09-06 00:24:06 | 49.47072 | 15.62230 | 358° | 18km/h | 24628m | 5.8m/s | -51.5°C | 2.5% | 0hPa | 2.5V | 00:00:00 | 00:00:00 | 00:00:00 | |
| PETON7-10 | 2026-09-06 00:24:05 | 49.47068 | 15.62230 | 360° | 20km/h | 24621m | 7.2m/s | -51.5°C | 2.5% | 0hPa | 2.5V | 00:00:00 | 00:00:00 | 00:00:00 | |
| HA6NAB-11 | 2026-09-06 00:24:04 | 49.47068 | 15.62230 | 361° | 16km/h | 24621m | 7.2m/s | -51.5°C | 0.1% | 0hPa | 2.5V | 00:00:00 | 00:00:00 | 00:00:00 | |
| OE5DRO-10 | 2026-09-06 00:24:03 | 49.47058 | 15.62229 | 3° | 20km/h | 24607m | 5.7m/s | -51.4°C | 2.4% | 0hPa | 2.5V | 00:00:00 | 00:00:00 | 00:00:00 | |
| DO3MHA-11 | 2026-09-06 00:24:02 | 49.47052 | 15.62229 | 358° | 22km/h | 24601m | 7.4m/s | -51.4°C | 2.4% | 0hPa | 2.5V | 00:00:00 | 01:37:58 | 00:00:00 | |
| EDDB2-11 | 2026-09-06 00:23:59 | 49.47027 | 15.62239 | 342° | 26km/h | 24573m | 8.2m/s | -51.4°C | 0.0% | -1.0hPa | 2.5V | 00:00:00 | 00:00:00 | 00:00:00 | |
| EDDB2-12 | 2026-09-06 00:23:51 | 49.46996 | 15.62266 | 346° | 13km/h | 24522m | 6.2m/s | -51.1°C | 0.0% | -1.0hPa | 2.5V | 00:00:00 | 00:00:00 | 00:00:00 | |
| PETON7-10 | 2026-09-06 00:23:50 | 49.46996 | 15.62266 | 347° | 20km/h | 24522m | 6.1m/s | -51.1°C | 2.4% | 0hPa | 2.5V | 00:00:00 | 00:00:00 | 00:00:00 | |
| HA6NAB-11 | 2026-09-06 00:23:47 | 49.46989 | 15.62269 | 346° | 15km/h | 24509m | 5.1m/s | -51.0°C | 0.0% | 0hPa | 2.5V | 00:00:00 | 00:00:00 | 00:00:00 | |
| OE3MUC-15 | 2026-09-06 00:23:46 | 49.46981 | 15.62273 | 335° | 26km/h | 24497m | 7.5m/s | -50.9°C | 2.4% | 0hPa | 2.5V | 00:00:00 | 00:00:00 | 00:00:00 | |
| OE5DRO-10 | 2026-09-06 00:23:44 | 49.46971 | 15.62283 | 321° | 22km/h | 24483m | 5.2m/s | -50.8°C | 2.3% | 0hPa | 2.5V | 00:00:00 | 00:00:00 | 00:00:00 | |
| DO3MHA-11 | 2026-09-06 00:23:42 | 49.46962 | 15.62299 | 299° | 20km/h | 24469m | 7.6m/s | -50.8°C | 2.3% | 0hPa | 2.5V | 00:00:00 | 01:37:38 | 00:00:00 | |
| OE5DXL-15 | 2026-09-06 00:23:38 | 49.46954 | 15.62334 | 301° | 18km/h | 24445m | 4.8m/s | -50.8°C | 2.3% | 0hPa | 2.5V | 00:00:00 | 00:00:00 | 08:30:00 | |
| PG1ADW-2 | 2026-09-06 00:23:37 | 49.46952 | 15.62340 | 312° | 18km/h | 24439m | 5.4m/s | -50.7°C | 2.3% | 0hPa | 2.6V | 00:00:00 | 00:00:00 | 00:00:00 | |
| OE5MMP-10 | 2026-09-06 00:23:36 | 49.46949 | 15.62344 | 316° | 20km/h | 24433m | 7.9m/s | -50.7°C | 2.3% | 0hPa | 2.6V | 00:00:00 | 01:37:32 | 00:00:00 | |
| PETON7-10 | 2026-09-06 00:23:35 | 49.46947 | 15.62348 | 311° | 20km/h | 24425m | 7.9m/s | -50.7°C | 2.3% | 0hPa | 2.6V | 00:00:00 | 01:37:31 | 00:00:00 | |
| DO3MHA-11 | 2026-09-06 00:23:32 | 49.46938 | 15.62363 | 315° | 20km/h | 24406m | 7.5m/s | -50.8°C | 2.3% | 0hPa | 2.6V | 00:00:00 | 01:37:28 | 00:00:00 | |
| OE3JTB-15 | 2026-09-06 00:23:31 | 49.46934 | 15.62369 | 315° | 18km/h | 24399m | 5.5m/s | -50.8°C | 2.3% | 0hPa | 2.6V | 00:00:00 | 00:00:00 | 00:00:00 | |
| OK1SLM-15 | 2026-09-06 00:23:30 | 49.46934 | 15.62369 | 315° | 24km/h | 24399m | 5.5m/s | -50.8°C | 0.0% | 0hPa | 2.6V | 00:00:00 | 00:00:00 | 00:00:00 | |
| S52SK | 2026-09-06 00:23:29 | 49.46931 | 15.62376 | 311° | 24km/h | 24393m | 7.1m/s | -50.9°C | 0.0% | 0hPa | 2.6V | 00:00:00 | 00:00:00 | 00:00:00 | |
| EDDB2-11 | 2026-09-06 00:23:28 | 49.46924 | 15.62400 | 277° | 22km/h | 24373m | 6.4m/s | -50.8°C | 0.0% | -1.0hPa | 2.6V | 00:00:00 | 00:00:00 | 00:00:00 | |
| OE5MMP-10 | 2026-09-06 00:23:26 | 49.46923 | 15.62409 | 280° | 16km/h | 24366m | 7.8m/s | -50.8°C | 2.3% | 0hPa | 2.6V | 00:00:00 | 01:37:22 | 00:00:00 | |
| OE5DRO-10 | 2026-09-06 00:23:25 | 49.46922 | 15.62416 | 276° | 18km/h | 24360m | 3.8m/s | -50.7°C | 2.4% | 0hPa | 2.6V | 00:00:00 | 00:00:00 | 00:00:00 | |
| OK1SLM-15 | 2026-09-06 00:23:24 | 49.46922 | 15.62416 | 276° | 18km/h | 24360m | 3.9m/s | -50.8°C | 0.0% | 0hPa | 2.5V | 00:00:00 | 00:00:00 | 00:00:00 | |
| S52SK | 2026-09-06 00:23:23 | 49.46922 | 15.62423 | 273° | 16km/h | 24355m | 5.0m/s | -50.7°C | 0.0% | 0hPa | 2.5V | 00:00:00 | 00:00:00 | 00:00:00 | |
| DO3MHA-11 | 2026-09-06 00:23:22 | 49.46923 | 15.62436 | 253° | 18km/h | 24341m | 7.5m/s | -50.6°C | 2.3% | 0hPa | 2.5V | 00:00:00 | 01:37:18 | 00:00:00 | |
| OK1ALN | 2026-09-06 00:23:21 | 49.46923 | 15.62436 | 253° | 16km/h | 24341m | 7.5m/s | -50.7°C | 0.0% | 0hPa | 2.6V | 00:00:00 | 00:00:00 | 00:00:00 | |
| EDDB2-12 | 2026-09-06 00:23:20 | 49.46927 | 15.62453 | 261° | 13km/h | 24321m | 7.3m/s | -50.6°C | 0.0% | -1.0hPa | 2.6V | 00:00:00 | 00:00:00 | 00:00:00 | |
| NBG1-10 | 2026-09-06 00:23:19 | 49.46927 | 15.62453 | 262° | 18km/h | 24321m | 7.2m/s | -50.6°C | 2.3% | 0hPa | 2.6V | 00:00:00 | 01:37:15 | 00:00:00 | |
| OE3MUC-15 | 2026-09-06 00:23:18 | 49.46927 | 15.62458 | 272° | 20km/h | 24314m | 5.6m/s | -50.6°C | 2.3% | 0hPa | 2.6V | 00:00:00 | 00:00:00 | 00:00:00 | |
| PG1ADW-2 | 2026-09-06 00:23:17 | 49.46927 | 15.62465 | 274° | 16km/h | 24308m | 6.7m/s | -50.6°C | 2.3% | 0hPa | 2.6V | 00:00:00 | 00:00:00 | 00:00:00 | |
| OE5MMP-10 | 2026-09-06 00:23:16 | 49.46927 | 15.62472 | 270° | 20km/h | 24301m | 7.5m/s | -50.6°C | 2.3% | 0hPa | 2.6V | 00:00:00 | 01:37:12 | 00:00:00 | |
| OE3MUC-15 | 2026-09-06 00:23:14 | 49.46927 | 15.62490 | 269° | 18km/h | 24289m | 6.7m/s | -50.7°C | 2.3% | 0hPa | 2.6V | 00:00:00 | 00:00:00 | 00:00:00 | |
| DO3MHA-11 | 2026-09-06 00:23:12 | 49.46927 | 15.62506 | 265° | 16km/h | 24274m | 4.3m/s | -50.7°C | 2.3% | 0hPa | 2.6V | 00:00:00 | 01:37:08 | 00:00:00 | |
| DB0ND-19 | 2026-09-06 00:23:11 | 49.46928 | 15.62512 | 248° | 13km/h | 24269m | 5.4m/s | -50.7°C | 0.0% | -1.0hPa | 2.6V | 00:00:00 | 00:00:00 | 00:00:00 | |
| OE3MUC-15 | 2026-09-06 00:23:10 | 49.46930 | 15.62517 | 235° | 18km/h | 24262m | 7.9m/s | -50.6°C | 2.3% | 0hPa | 2.6V | 00:00:00 | 00:00:00 | 00:00:00 | |
| OE5DXL-15 | 2026-09-06 00:23:08 | 49.46938 | 15.62527 | 213° | 20km/h | 24250m | 6.0m/s | -50.5°C | 2.3% | 0hPa | 2.6V | 00:00:00 | 00:00:00 | 00:00:00 | |
| OE5MMP-10 | 2026-09-06 00:23:06 | 49.46945 | 15.62534 | 211° | 13km/h | 24236m | 4.7m/s | -50.5°C | 2.3% | 0hPa | 2.6V | 00:00:00 | 01:37:02 | 00:00:00 | |
| PETON7-10 | 2026-09-06 00:23:05 | 49.46948 | 15.62537 | 221° | 18km/h | 24231m | 6.2m/s | -50.5°C | 2.3% | 0hPa | 2.6V | 00:00:00 | 00:00:00 | 00:00:00 | |
| DO3MHA-11 | 2026-09-06 00:23:02 | 49.46953 | 15.62551 | 257° | 18km/h | 24212m | 5.6m/s | -50.4°C | 2.2% | 0hPa | 2.6V | 00:00:00 | 01:36:58 | 00:00:00 | |
| SONDE2-11 | 2026-09-06 00:23:01 | 49.46954 | 15.62556 | 261° | 13km/h | 24205m | 7.9m/s | -50.5°C | 0.0% | -1.0hPa | 2.6V | 00:00:00 | 00:00:00 | 00:00:00 | |
| EDDB2-11 | 2026-09-06 00:22:57 | 49.46965 | 15.62572 | 198° | 24km/h | 24174m | 5.9m/s | -50.5°C | 0.0% | -1.0hPa | 2.6V | 00:00:00 | 00:00:00 | 00:00:00 | |
| EDDB2-12 | 2026-09-06 00:22:49 | 49.47010 | 15.62586 | 213° | 13km/h | 24124m | 6.5m/s | -50.4°C | 0.0% | -1.0hPa | 2.6V | 00:00:00 | 00:00:00 | 00:00:00 | |
| OE3MUC-15 | 2026-09-06 00:22:46 | 49.47016 | 15.62588 | 178° | 20km/h | 24111m | 4.1m/s | -50.4°C | 2.2% | 0hPa | 2.6V | 00:00:00 | 00:00:00 | 00:00:00 | |
| SP3BTT-10 | 2026-09-06 00:22:43 | 49.47031 | 15.62587 | 181° | 16km/h | 24093m | 5.0m/s | -50.6°C | 2.3% | 0hPa | 2.6V | 00:00:00 | 00:00:00 | 00:00:00 | |
| OE3MUC-15 | 2026-09-06 00:22:42 | 49.47038 | 15.62587 | 180° | 33km/h | 24087m | 6.7m/s | -50.7°C | 2.3% | 0hPa | 2.6V | 00:00:00 | 00:00:00 | 00:00:00 | |
| OK1ALN | 2026-09-06 00:22:41 | 49.47038 | 15.62587 | 180° | 31km/h | 24087m | 6.7m/s | -50.7°C | 0.0% | 0hPa | 2.6V | 00:00:00 | 00:00:00 | 00:00:00 | |
| DB0ND-19 | 2026-09-06 00:22:40 | 49.47056 | 15.62585 | 171° | 35km/h | 24073m | 5.4m/s | -50.9°C | 0.0% | -1.0hPa | 2.6V | 00:00:00 | 00:00:00 | 00:00:00 | |
| OE3MUC-15 | 2026-09-06 00:22:38 | 49.47072 | 15.62582 | 177° | 27km/h | 24061m | 5.2m/s | -50.9°C | 2.3% | 0hPa | 2.6V | 00:00:00 | 00:00:00 | 00:00:00 | |
| PG1ADW-2 | 2026-09-06 00:22:37 | 49.47079 | 15.62582 | 178° | 24km/h | 24056m | 4.3m/s | -50.9°C | 2.3% | 0hPa | 2.5V | 00:00:00 | 01:36:33 | 00:00:00 | |
| OE5MMP-10 | 2026-09-06 00:22:36 | 49.47086 | 15.62581 | 179° | 24km/h | 24051m | 6.8m/s | -50.9°C | 2.3% | 0hPa | 2.5V | 00:00:00 | 01:36:32 | 00:00:00 | |
| PETON7-10 | 2026-09-06 00:22:35 | 49.47093 | 15.62580 | 174° | 26km/h | 24043m | 8.3m/s | -50.9°C | 2.3% | 0hPa | 2.5V | 00:00:00 | 00:00:00 | 08:30:00 | |
| OE3MUC-15 | 2026-09-06 00:22:34 | 49.47100 | 15.62579 | 167° | 20km/h | 24036m | 4.9m/s | -50.9°C | 2.3% | 0hPa | 2.5V | 00:00:00 | 00:00:00 | 00:00:00 | |
| OE3JTB-15 | 2026-09-06 00:22:33 | 49.47105 | 15.62577 | 165° | 16km/h | 24030m | 6.6m/s | -50.9°C | 2.3% | 0hPa | 2.5V | 00:00:00 | 01:36:29 | 00:00:00 | |
| DO3MHA-11 | 2026-09-06 00:22:32 | 49.47110 | 15.62575 | 166° | 26km/h | 24023m | 7.4m/s | -50.9°C | 2.3% | 0hPa | 2.5V | 00:00:00 | 01:36:28 | 00:00:00 | |
| SONDE2-11 | 2026-09-06 00:22:30 | 49.47124 | 15.62569 | 161° | 24km/h | 24004m | 8.0m/s | -51.1°C | 0.0% | -1.0hPa | 2.5V | 00:00:00 | 00:00:00 | 00:00:00 | |
| OE5DRO-10 | 2026-09-06 00:22:28 | 49.47131 | 15.62566 | 162° | 18km/h | 23998m | 4.6m/s | -51.0°C | 2.3% | 0hPa | 2.5V | 00:00:00 | 00:00:00 | 08:30:00 | |
| EDDB2-11 | 2026-09-06 00:22:26 | 49.47154 | 15.62557 | 174° | 29km/h | 23978m | 4.7m/s | -51.2°C | 0.0% | -1.0hPa | 2.5V | 00:00:00 | 00:00:00 | 00:00:00 | |
| OK1SLM-15 | 2026-09-06 00:22:23 | 49.47161 | 15.62556 | 177° | 29km/h | 23973m | 6.1m/s | -51.3°C | 0.1% | 0hPa | 2.5V | 00:00:00 | 00:00:00 | 00:00:00 | |
| DO3MHA-11 | 2026-09-06 00:22:22 | 49.47175 | 15.62553 | 164° | 13km/h | 23960m | 3.2m/s | -51.4°C | 2.3% | 0hPa | 2.5V | 00:00:00 | 01:36:18 | 00:00:00 | |
| PETON7-10 | 2026-09-06 00:22:20 | 49.47184 | 15.62548 | 153° | 11km/h | 23949m | 7.4m/s | -51.5°C | 2.3% | 0hPa | 2.6V | 00:00:00 | 00:00:00 | 00:00:00 | |
| EDDB2-12 | 2026-09-06 00:22:18 | 49.47188 | 15.62541 | 99° | 7km/h | 23929m | 5.7m/s | -51.7°C | 0.0% | -1.0hPa | 2.6V | 00:00:00 | 00:00:00 | 00:00:00 | |
| PG1ADW-2 | 2026-09-06 00:22:17 | 49.47188 | 15.62541 | 100° | 11km/h | 23929m | 5.7m/s | -51.6°C | 2.4% | 0hPa | 2.6V | 00:00:00 | 00:00:00 | 00:00:00 | |
| OE5MMP-10 | 2026-09-06 00:22:16 | 49.47188 | 15.62538 | 97° | 13km/h | 23922m | 7.8m/s | -51.6°C | 2.4% | 0hPa | 2.6V | 00:00:00 | 01:36:12 | 00:00:00 | |
| OE3MUC-15 | 2026-09-06 00:22:14 | 49.47190 | 15.62529 | 110° | 13km/h | 23911m | 5.6m/s | -51.7°C | 2.4% | 0hPa | 2.6V | 00:00:00 | 00:00:00 | 00:00:00 | |
| NBG1-10 | 2026-09-06 00:22:13 | 49.47191 | 15.62525 | 125° | 18km/h | 23904m | 7.4m/s | -51.8°C | 2.4% | 0hPa | 2.6V | 00:00:00 | 01:36:09 | 00:00:00 | |
| DO3MHA-11 | 2026-09-06 00:22:12 | 49.47193 | 15.62522 | 153° | 11km/h | 23898m | 4.0m/s | -51.9°C | 2.4% | 0hPa | 2.6V | 00:00:00 | 01:36:08 | 00:00:00 | |
| OE3MUC-15 | 2026-09-06 00:22:10 | 49.47199 | 15.62518 | 160° | 15km/h | 23885m | 8.3m/s | -51.9°C | 2.4% | 0hPa | 2.6V | 00:00:00 | 00:00:00 | 00:00:00 | |
| OE5DRO-10 | 2026-09-06 00:22:09 | 49.47203 | 15.62516 | 160° | 16km/h | 23879m | 4.4m/s | -51.9°C | 2.4% | 0hPa | 2.6V | 00:00:00 | 00:00:00 | 00:00:00 | |
| OE5DXL-15 | 2026-09-06 00:22:08 | 49.47207 | 15.62514 | 159° | 18km/h | 23873m | 6.6m/s | -52.0°C | 2.4% | 0hPa | 2.6V | 00:00:00 | 00:00:00 | 00:00:00 | |
| OE5MMP-10 | 2026-09-06 00:22:06 | 49.47212 | 15.62511 | 145° | 13km/h | 23860m | 3.5m/s | -52.1°C | 2.5% | 0hPa | 2.6V | 00:00:00 | 01:36:02 | 00:00:00 | |
| PETON7-10 | 2026-09-06 00:22:05 | 49.47213 | 15.62509 | 113° | 18km/h | 23855m | 5.6m/s | -52.1°C | 2.5% | 0hPa | 2.6V | 00:00:00 | 01:36:01 | 00:00:00 | |
| OE3JTB-15 | 2026-09-06 00:22:04 | 49.47213 | 15.62507 | 87° | 22km/h | 23848m | 8.3m/s | -52.2°C | 2.5% | 0hPa | 2.6V | 00:00:00 | 00:00:00 | 08:30:00 | |
| DO3MHA-11 | 2026-09-06 00:22:02 | 49.47212 | 15.62497 | 82° | 18km/h | 23834m | 5.7m/s | -52.2°C | 2.5% | 0hPa | 2.6V | 00:00:00 | 01:35:58 | 00:00:00 | |
| SONDE2-11 | 2026-09-06 00:21:59 | 49.47214 | 15.62479 | 131° | 13km/h | 23811m | 7.8m/s | -52.2°C | 0.0% | -1.0hPa | 2.6V | 00:00:00 | 00:00:00 | 00:00:00 | |
| EDDB2-11 | 2026-09-06 00:21:55 | 49.47234 | 15.62461 | 154° | 24km/h | 23785m | 4.5m/s | -52.1°C | 0.0% | -1.0hPa | 2.6V | 00:00:00 | 00:00:00 | 00:00:00 | |
| EDDB2-12 | 2026-09-06 00:21:47 | 49.47264 | 15.62412 | 111° | 15km/h | 23735m | 7.6m/s | -52.2°C | 0.0% | -1.0hPa | 2.6V | 00:00:00 | 00:00:00 | 00:00:00 | |
| OE5MMP-10 | 2026-09-06 00:21:46 | 49.47264 | 15.62412 | 112° | 26km/h | 23735m | 7.5m/s | -52.1°C | 2.4% | 0hPa | 2.6V | 00:00:00 | 01:35:42 | 00:00:00 | |
| S52SK | 2026-09-06 00:21:45 | 49.47264 | 15.62412 | 113° | 16km/h | 23735m | 7.6m/s | -52.2°C | 0.1% | 0hPa | 2.6V | 00:00:00 | 00:00:00 | 00:00:00 | |
| DO3MHA-11 | 2026-09-06 00:21:42 | 49.47277 | 15.62391 | 159° | 29km/h | 23710m | 3.3m/s | -52.2°C | 2.5% | 0hPa | 2.6V | 00:00:00 | 01:35:38 | 00:00:00 | |
| NBG1-10 | 2026-09-06 00:21:40 | 49.47291 | 15.62384 | 163° | 26km/h | 23696m | 9.3m/s | -52.3°C | 2.4% | 0hPa | 2.6V | 00:00:00 | 01:35:36 | 00:00:00 | |
| OK1ALN | 2026-09-06 00:21:39 | 49.47291 | 15.62384 | 163° | 31km/h | 23696m | 9.3m/s | -52.3°C | 0.1% | 0hPa | 2.5V | 00:00:00 | 00:00:00 | 00:00:00 | |
| OE5DXL-15 | 2026-09-06 00:21:38 | 49.47307 | 15.62375 | 158° | 24km/h | 23683m | 5.2m/s | -52.3°C | 2.5% | 0hPa | 2.5V | 00:00:00 | 00:00:00 | 00:00:00 | |
| PG1ADW-2 | 2026-09-06 00:21:37 | 49.47316 | 15.62369 | 157° | 29km/h | 23677m | 7.3m/s | -52.3°C | 2.4% | 0hPa | 2.5V | 00:00:00 | 00:00:00 | 00:00:00 | |
| OE5MMP-10 | 2026-09-06 00:21:36 | 49.47323 | 15.62364 | 156° | 27km/h | 23670m | 5.3m/s | -52.3°C | 2.4% | 0hPa | 2.5V | 00:00:00 | 01:35:32 | 00:00:00 | |
| PETON7-10 | 2026-09-06 00:21:35 | 49.47329 | 15.62360 | 154° | 29km/h | 23664m | 5.5m/s | -52.3°C | 2.4% | 0hPa | 2.5V | 00:00:00 | 00:00:00 | 00:00:00 | |
| DO3MHA-11 | 2026-09-06 00:21:32 | 49.47346 | 15.62342 | 142° | 29km/h | 23644m | 5.8m/s | -52.4°C | 2.4% | 0hPa | 2.5V | 00:00:00 | 01:35:28 | 00:00:00 | |
| OE5DRO-10 | 2026-09-06 00:21:31 | 49.47351 | 15.62336 | 145° | 26km/h | 23637m | 7.5m/s | -52.4°C | 2.4% | 0hPa | 2.5V | 00:00:00 | 00:00:00 | 00:00:00 | |
| HA6NAB-11 | 2026-09-06 00:21:29 | 49.47356 | 15.62331 | 153° | 26km/h | 23631m | 4.8m/s | -52.5°C | 0.1% | 0hPa | 2.5V | 00:00:00 | 00:00:00 | 00:00:00 | |
| OK1SLM-15 | 2026-09-06 00:21:27 | 49.47368 | 15.62322 | 154° | 29km/h | 23617m | 8.4m/s | -52.6°C | 0.1% | 0hPa | 2.5V | 00:00:00 | 00:00:00 | 00:00:00 | |
| OE5MMP-10 | 2026-09-06 00:21:26 | 49.47382 | 15.62310 | 149° | 27km/h | 23605m | 7.0m/s | -52.7°C | 2.5% | 0hPa | 2.5V | 00:00:00 | 01:35:22 | 08:30:00 | |
| DB0UT-7 | 2026-09-06 00:21:24 | 49.47397 | 15.62297 | 150° | 33km/h | 23591m | 3.5m/s | -53.0°C | 2.5% | 0hPa | 2.6V | 00:00:00 | 00:00:00 | 00:00:00 | |
| EDDB2-11 | 2026-09-06 00:21:23 | 49.47404 | 15.62290 | 147° | 31km/h | 23586m | 6.2m/s | -53.1°C | 0.0% | -1.0hPa | 2.6V | 00:00:00 | 00:00:00 | 00:00:00 | |
| DO3MHA-11 | 2026-09-06 00:21:22 | 49.47410 | 15.62282 | 143° | 20km/h | 23578m | 8.6m/s | -53.1°C | 2.5% | 0hPa | 2.6V | 00:00:00 | 01:35:18 | 08:30:00 | |
| OK1SLM-15 | 2026-09-06 00:21:21 | 49.47410 | 15.62282 | 143° | 33km/h | 23578m | 8.7m/s | -53.2°C | 0.1% | 0hPa | 2.5V | 00:00:00 | 00:00:00 | 00:00:00 | |
| PETON7-10 | 2026-09-06 00:21:20 | 49.47422 | 15.62266 | 131° | 16km/h | 23565m | 5.2m/s | -53.3°C | 2.6% | 0hPa | 2.5V | 00:00:00 | 01:35:16 | 00:00:00 | |
| OE3MUC-15 | 2026-09-06 00:21:18 | 49.47430 | 15.62252 | 134° | 15km/h | 23552m | 5.0m/s | -53.4°C | 2.7% | 0hPa | 2.5V | 00:00:00 | 00:00:00 | 00:00:00 | |
| PG1ADW-2 | 2026-09-06 00:21:17 | 49.47432 | 15.62247 | 132° | 13km/h | 23546m | 6.0m/s | -53.4°C | 2.6% | 0hPa | 2.5V | 00:00:00 | 01:35:13 | 00:00:00 | |
| OE5MMP-10 | 2026-09-06 00:21:16 | 49.47434 | 15.62243 | 128° | 15km/h | 23539m | 8.4m/s | -53.4°C | 2.7% | 0hPa | 2.5V | 00:00:00 | 01:35:12 | 00:00:00 | |
| EDDB2-12 | 2026-09-06 00:21:15 | 49.47436 | 15.62239 | 121° | 13km/h | 23531m | 6.5m/s | -53.5°C | 0.0% | -1.0hPa | 2.5V | 00:00:00 | 00:00:00 | 00:00:00 | |
| OE3MUC-15 | 2026-09-06 00:21:14 | 49.47438 | 15.62235 | 130° | 13km/h | 23525m | 6.4m/s | -53.5°C | 2.7% | 0hPa | 2.5V | 00:00:00 | 00:00:00 | 08:30:00 | |
| DO3MHA-11 | 2026-09-06 00:21:12 | 49.47443 | 15.62229 | 149° | 13km/h | 23512m | 3.8m/s | -53.6°C | 2.7% | 0hPa | 2.6V | 00:00:00 | 01:35:08 | 00:00:00 | |
| OE3MUC-15 | 2026-09-06 00:21:10 | 49.47449 | 15.62223 | 139° | 16km/h | 23498m | 9.3m/s | -53.8°C | 2.7% | 0hPa | 2.6V | 00:00:00 | 00:00:00 | 00:00:00 | |
| OE5DXL-15 | 2026-09-06 00:21:08 | 49.47455 | 15.62212 | 129° | 15km/h | 23485m | 6.0m/s | -53.8°C | 2.8% | 0hPa | 2.6V | 00:00:00 | 00:00:00 | 00:00:00 | |
| NBG1-10 | 2026-09-06 00:21:07 | 49.47458 | 15.62207 | 131° | 16km/h | 23478m | 8.0m/s | -53.8°C | 2.8% | 0hPa | 2.6V | 00:00:00 | 01:35:03 | 00:00:00 | |
| OE5MMP-10 | 2026-09-06 00:21:06 | 49.47460 | 15.62203 | 136° | 9km/h | 23472m | 4.3m/s | -53.8°C | 2.8% | 0hPa | 2.6V | 00:00:00 | 01:35:02 | 00:00:00 | |
| PETON7-10 | 2026-09-06 00:21:05 | 49.47462 | 15.62201 | 139° | 11km/h | 23466m | 6.7m/s | -53.7°C | 2.8% | 0hPa | 2.6V | 00:00:00 | 00:00:00 | 00:00:00 | |
| DO3MHA-11 | 2026-09-06 00:21:02 | 49.47467 | 15.62196 | 168° | 11km/h | 23446m | 5.1m/s | -53.6°C | 2.7% | 0hPa | 2.5V | 00:00:00 | 01:34:58 | 00:00:00 | |
| SONDE2-11 | 2026-09-06 00:20:57 | 49.47480 | 15.62209 | 183° | 9km/h | 23407m | 5.5m/s | -53.5°C | 0.1% | -1.0hPa | 2.5V | 00:00:00 | 00:00:00 | 00:00:00 | |
| EDDB2-11 | 2026-09-06 00:20:52 | 49.47492 | 15.62202 | 152° | 18km/h | 23380m | 6.7m/s | -53.4°C | 0.0% | -1.0hPa | 2.5V | 00:00:00 | 00:00:00 | 00:00:00 | |
| EDDB2-12 | 2026-09-06 00:20:44 | 49.47530 | 15.62184 | 179° | 15km/h | 23327m | 7.3m/s | -53.4°C | 0.0% | -1.0hPa | 2.5V | 00:00:00 | 00:00:00 | 00:00:00 | |
| DO3MHA-11 | 2026-09-06 00:20:42 | 49.47538 | 15.62184 | 181° | 24km/h | 23313m | 7.6m/s | -53.3°C | 2.7% | 0hPa | 2.5V | 00:00:00 | 01:34:38 | 00:00:00 | |
| OE3MUC-15 | 2026-09-06 00:20:38 | 49.47556 | 15.62177 | 147° | 24km/h | 23287m | 4.9m/s | -53.2°C | 2.7% | 0hPa | 2.5V | 00:00:00 | 00:00:00 | 08:30:00 | |
| PG1ADW-2 | 2026-09-06 00:20:37 | 49.47560 | 15.62173 | 146° | 29km/h | 23281m | 6.6m/s | -53.2°C | 2.6% | 0hPa | 2.5V | 00:00:00 | 00:00:00 | 00:00:00 | |
| OE5MMP-10 | 2026-09-06 00:20:36 | 49.47565 | 15.62168 | 151° | 31km/h | 23273m | 8.8m/s | -53.1°C | 2.6% | 0hPa | 2.5V | 00:00:00 | 01:34:32 | 00:00:00 | |
| PETON7-10 | 2026-09-06 00:20:35 | 49.47571 | 15.62163 | 154° | 29km/h | 23266m | 5.0m/s | -53.1°C | 2.6% | 0hPa | 2.5V | 00:00:00 | 01:34:31 | 00:00:00 | |
| NBG1-10 | 2026-09-06 00:20:34 | 49.47578 | 15.62158 | 154° | 33km/h | 23261m | 6.3m/s | -53.1°C | 2.6% | 0hPa | 2.5V | 00:00:00 | 01:34:30 | 00:00:00 | |
| DO3MHA-11 | 2026-09-06 00:20:32 | 49.47591 | 15.62146 | 147° | 29km/h | 23246m | 6.1m/s | -53.0°C | 2.6% | 0hPa | 2.5V | 00:00:00 | 01:34:28 | 00:00:00 | |
| OE3MUC-15 | 2026-09-06 00:20:30 | 49.47605 | 15.62133 | 152° | 33km/h | 23232m | 6.0m/s | -53.1°C | 2.6% | 0hPa | 2.5V | 00:00:00 | 00:00:00 | 00:00:00 | |
| SONDE2-11 | 2026-09-06 00:20:26 | 49.47639 | 15.62106 | 153° | 24km/h | 23198m | 6.4m/s | -53.1°C | 0.0% | -1.0hPa | 2.5V | 00:00:00 | 00:00:00 | 00:00:00 | |
| DO3MHA-11 | 2026-09-06 00:20:22 | 49.47658 | 15.62092 | 151° | 37km/h | 23179m | 6.5m/s | -53.0°C | 2.6% | 0hPa | 2.5V | 00:00:00 | 01:34:18 | 00:00:00 | |
| EDDB2-11 | 2026-09-06 00:20:21 | 49.47664 | 15.62086 | 142° | 29km/h | 23172m | 8.9m/s | -53.1°C | 0.0% | -1.0hPa | 2.6V | 00:00:00 | 00:00:00 | 00:00:00 | |
| PETON7-10 | 2026-09-06 00:20:20 | 49.47670 | 15.62078 | 134° | 37km/h | 23164m | 5.1m/s | -53.0°C | 2.6% | 0hPa | 2.6V | 00:00:00 | 00:00:00 | 08:30:00 | |
| OE3MUC-15 | 2026-09-06 00:20:18 | 49.47682 | 15.62058 | 135° | 40km/h | 23151m | 8.4m/s | -52.9°C | 2.6% | 0hPa | 2.6V | 00:00:00 | 00:00:00 | 00:00:00 | |
| PG1ADW-2 | 2026-09-06 00:20:17 | 49.47689 | 15.62047 | 138° | 33km/h | 23144m | 4.4m/s | -52.9°C | 2.6% | 0hPa | 2.6V | 00:00:00 | 00:00:00 | 00:00:00 | |
| OE5MMP-10 | 2026-09-06 00:20:16 | 49.47697 | 15.62037 | 139° | 37km/h | 23139m | 6.5m/s | -52.9°C | 2.5% | 0hPa | 2.6V | 00:00:00 | 01:34:12 | 00:00:00 | |
| OE5DRO-10 | 2026-09-06 00:20:15 | 49.47705 | 15.62026 | 138° | 33km/h | 23131m | 8.6m/s | -52.9°C | 2.6% | 0hPa | 2.6V | 00:00:00 | 00:00:00 | 00:00:00 | |
| OE3MUC-15 | 2026-09-06 00:20:14 | 49.47712 | 15.62016 | 138° | 37km/h | 23124m | 5.4m/s | -52.9°C | 2.5% | 0hPa | 2.6V | 00:00:00 | 00:00:00 | 00:00:00 | |
| EDDB2-12 | 2026-09-06 00:20:13 | 49.47719 | 15.62007 | 141° | 37km/h | 23118m | 6.0m/s | -53.0°C | 0.0% | -1.0hPa | 2.5V | 00:00:00 | 00:00:00 | 00:00:00 | |
| DO3MHA-11 | 2026-09-06 00:20:12 | 49.47727 | 15.61998 | 147° | 33km/h | 23111m | 8.1m/s | -52.9°C | 2.5% | 0hPa | 2.5V | 00:00:00 | 01:34:08 | 00:00:00 | |
| DB0UT-7 | 2026-09-06 00:20:11 | 49.47735 | 15.61990 | 151° | 27km/h | 23104m | 5.2m/s | -52.9°C | 2.6% | 0hPa | 2.5V | 00:00:00 | 01:34:07 | 00:00:00 | |
| OE3MUC-15 | 2026-09-06 00:20:10 | 49.47743 | 15.62000 | 150° | 33km/h | 23098m | 6.9m/s | -52.9°C | 2.5% | 0hPa | 2.5V | 00:00:00 | 00:00:00 | 00:00:00 | |
| OE3JTB-15 | 2026-09-06 00:20:08 | 49.47757 | 15.61968 | 140° | 26km/h | 23084m | 4.1m/s | -52.9°C | 2.5% | 0hPa | 2.5V | 00:00:00 | 00:00:00 | 00:00:00 | |
| OE3MUC-15 | 2026-09-06 00:20:06 | 49.47769 | 15.61952 | 135° | 33km/h | 23071m | 8.8m/s | -52.9°C | 2.5% | 0hPa | 2.5V | 00:00:00 | 00:00:00 | 00:00:00 | |
| PETON7-10 | 2026-09-06 00:20:05 | 49.47774 | 15.61943 | 133° | 29km/h | 23064m | 5.2m/s | -53.0°C | 2.5% | 0hPa | 2.5V | 00:00:00 | 00:00:00 | 00:00:00 | |
| DO3MHA-11 | 2026-09-06 00:20:02 | 49.47790 | 15.61914 | 127° | 27km/h | 23044m | 6.2m/s | -53.1°C | 2.5% | 0hPa | 2.5V | 00:00:00 | 01:33:58 | 00:00:00 | |
| SONDE2-11 | 2026-09-06 00:19:55 | 49.47833 | 15.61861 | 143° | 27km/h | 22991m | 7.2m/s | -53.8°C | 0.0% | -1.0hPa | 2.5V | 00:00:00 | 00:00:00 | 00:00:00 | |
| OE3MUC-15 | 2026-09-06 00:19:54 | 49.47833 | 15.61861 | 144° | 29km/h | 22991m | 7.1m/s | -53.7°C | 2.7% | 0hPa | 2.5V | 00:00:00 | 00:00:00 | 00:00:00 | |
| DO3MHA-11 | 2026-09-06 00:19:52 | 49.47844 | 15.61846 | 134° | 22km/h | 22979m | 6.1m/s | -53.9°C | 2.7% | 0hPa | 2.5V | 00:00:00 | 01:33:48 | 08:30:00 | |
| PETON7-10 | 2026-09-06 00:19:50 | 49.47853 | 15.61830 | 126° | 20km/h | 22965m | 6.5m/s | -54.1°C | 2.8% | 0hPa | 2.6V | 00:00:00 | 01:33:46 | 00:00:00 | |
| OE5MMP-10 | 2026-09-06 00:19:46 | 49.47865 | 15.61803 | 129° | 20km/h | 22937m | 4.8m/s | -54.2°C | 2.8% | 0hPa | 2.6V | 00:00:00 | 01:33:42 | 00:00:00 | |
| DO3MHA-11 | 2026-09-06 00:19:42 | 49.47880 | 15.61781 | 146° | 20km/h | 22912m | 6.4m/s | -54.2°C | 2.8% | 0hPa | 2.6V | 00:00:00 | 01:33:38 | 00:00:00 | |
| DB0UT-7 | 2026-09-06 00:19:41 | 49.47884 | 15.61777 | 146° | 16km/h | 22904m | 8.2m/s | -54.2°C | 2.8% | 0hPa | 2.6V | 00:00:00 | 00:00:00 | 00:00:00 | |
| OE3JTB-15 | 2026-09-06 00:19:39 | 49.47894 | 15.61767 | 149° | 16km/h | 22892m | 6.6m/s | -54.1°C | 2.8% | 0hPa | 2.6V | 00:00:00 | 01:33:35 | 00:00:00 | |
| OE5DXL-15 | 2026-09-06 00:19:38 | 49.47899 | 15.61763 | 153° | 15km/h | 22884m | 8.9m/s | -54.1°C | 2.8% | 0hPa | 2.6V | 00:00:00 | 00:00:00 | 00:00:00 | |
| PG1ADW-2 | 2026-09-06 00:19:37 | 49.47903 | 15.61760 | 157° | 16km/h | 22877m | 4.9m/s | -54.2°C | 2.8% | 0hPa | 2.6V | 00:00:00 | 00:00:00 | 00:00:00 | |
| OE5MMP-10 | 2026-09-06 00:19:36 | 49.47906 | 15.61757 | 154° | 18km/h | 22872m | 5.4m/s | -54.2°C | 2.8% | 0hPa | 2.6V | 00:00:00 | 01:33:32 | 00:00:00 | |
| PETON7-10 | 2026-09-06 00:19:35 | 49.47910 | 15.61754 | 149° | 16km/h | 22865m | 7.8m/s | -54.1°C | 2.9% | 0hPa | 2.6V | 00:00:00 | 00:00:00 | 00:00:00 | |
| DO3MHA-11 | 2026-09-06 00:19:32 | 49.47921 | 15.61740 | 137° | 16km/h | 22845m | 8.5m/s | -54.1°C | 2.8% | 0hPa | 2.6V | 00:00:00 | 01:33:28 | 00:00:00 | |
| NBG1-10 | 2026-09-06 00:19:28 | 49.47934 | 15.61724 | 150° | 13km/h | 22819m | 4.3m/s | -53.9°C | 2.8% | 0hPa | 2.6V | 00:00:00 | 01:33:24 | 00:00:00 | |
| OE5MMP-10 | 2026-09-06 00:19:26 | 49.47942 | 15.61717 | 159° | 15km/h | 22805m | 8.9m/s | -53.8°C | 2.8% | 0hPa | 2.6V | 00:00:00 | 01:33:22 | 00:00:00 | |
| OK1SLM-15 | 2026-09-06 00:19:23 | 49.47948 | 15.61713 | 148° | 13km/h | 22793m | 6.0m/s | -53.8°C | 0.1% | 0hPa | 2.6V | 00:00:00 | 00:00:00 | 00:00:00 | |
| DO3MHA-11 | 2026-09-06 00:19:22 | 49.47953 | 15.61705 | 125° | 15km/h | 22779m | 4.9m/s | -53.7°C | 2.7% | 0hPa | 2.6V | 00:00:00 | 01:33:18 | 00:00:00 | |
| PETON7-10 | 2026-09-06 00:19:20 | 49.47957 | 15.61695 | 115° | 13km/h | 22765m | 8.6m/s | -53.7°C | 2.7% | 0hPa | 2.5V | 00:00:00 | 00:00:00 | 00:00:00 | |
| EDDB2-11 | 2026-09-06 00:19:19 | 49.47959 | 15.61690 | 110° | 11km/h | 22758m | 5.9m/s | -53.7°C | 0.0% | -1.0hPa | 2.5V | 00:00:00 | 00:00:00 | 00:00:00 | |
| OE3MUC-15 | 2026-09-06 00:19:18 | 49.47960 | 15.61686 | 112° | 15km/h | 22751m | 7.0m/s | -53.6°C | 2.8% | 0hPa | 2.5V | 00:00:00 | 00:00:00 | 00:00:00 | |
| OK1ALN | 2026-09-06 00:19:17 | 49.47961 | 15.61680 | 115° | 15km/h | 22745m | 5.0m/s | -53.6°C | 0.2% | 0hPa | 2.5V | 00:00:00 | 00:00:00 | 00:00:00 | |
| OE5MMP-10 | 2026-09-06 00:19:16 | 49.47963 | 15.61675 | 116° | 13km/h | 22740m | 6.4m/s | -53.5°C | 2.7% | 0hPa | 2.5V | 00:00:00 | 01:33:12 | 00:00:00 | |
| OE3MUC-15 | 2026-09-06 00:19:14 | 49.47966 | 15.61665 | 126° | 13km/h | 22725m | 6.1m/s | -53.5°C | 2.7% | 0hPa | 2.5V | 00:00:00 | 00:00:00 | 00:00:00 | |
| OK1SLM-15 | 2026-09-06 00:19:13 | 49.47966 | 15.61665 | 126° | 11km/h | 22725m | 6.1m/s | -53.5°C | 0.1% | 0hPa | 2.5V | 00:00:00 | 00:00:00 | 00:00:00 | |
| DO3MHA-11 | 2026-09-06 00:19:12 | 49.47970 | 15.61659 | 138° | 13km/h | 22711m | 7.9m/s | -53.4°C | 2.7% | 0hPa | 2.5V | 00:00:00 | 01:33:08 | 00:00:00 | |
| EDDB2-12 | 2026-09-06 00:19:11 | 49.47973 | 15.61656 | 137° | 13km/h | 22705m | 3.7m/s | -53.4°C | 0.0% | -1.0hPa | 2.5V | 00:00:00 | 00:00:00 | 00:00:00 | |
| OE3MUC-15 | 2026-09-06 00:19:10 | 49.47975 | 15.61651 | 137° | 11km/h | 22700m | 5.9m/s | -53.3°C | 2.7% | 0hPa | 2.5V | 00:00:00 | 00:00:00 | 00:00:00 | |
| OE5DXL-15 | 2026-09-06 00:19:08 | 49.47980 | 15.61644 | 122° | 11km/h | 22686m | 7.0m/s | -53.3°C | 2.7% | 0hPa | 2.5V | 00:00:00 | 00:00:00 | 08:30:00 | |
| OE5MMP-10 | 2026-09-06 00:19:06 | 49.47981 | 15.61637 | 104° | 11km/h | 22673m | 7.3m/s | -53.4°C | 2.7% | 0hPa | 2.5V | 00:00:00 | 01:33:02 | 00:00:00 | |
| PETON7-10 | 2026-09-06 00:19:05 | 49.47982 | 15.61633 | 107° | 11km/h | 22666m | 4.6m/s | -53.5°C | 2.7% | 0hPa | 2.5V | 00:00:00 | 01:33:01 | 00:00:00 | |
| DO3MHA-11 | 2026-09-06 00:19:02 | 49.47985 | 15.61620 | 118° | 11km/h | 22647m | 6.2m/s | -53.4°C | 2.7% | 0hPa | 2.5V | 00:00:00 | 01:32:58 | 00:00:00 | |
| SONDE2-11 | 2026-09-06 00:18:52 | 49.48008 | 15.61597 | 146° | 11km/h | 22584m | 6.3m/s | -52.9°C | 0.0% | -1.0hPa | 2.5V | 00:00:00 | 00:00:00 | 00:00:00 | |
| EDDB2-11 | 2026-09-06 00:18:48 | 49.48015 | 15.61593 | 167° | 5km/h | 22558m | 7.4m/s | -52.8°C | 0.0% | -1.0hPa | 2.5V | 00:00:00 | 00:00:00 | 00:00:00 | |
| OE3MUC-15 | 2026-09-06 00:18:46 | 49.48020 | 15.61590 | 155° | 13km/h | 22546m | 5.3m/s | -52.7°C | 2.6% | 0hPa | 2.5V | 00:00:00 | 00:00:00 | 00:00:00 | |
| DO3MHA-11 | 2026-09-06 00:18:42 | 49.48033 | 15.61583 | 168° | 13km/h | 22519m | 6.8m/s | -52.6°C | 2.5% | 0hPa | 2.5V | 00:00:00 | 01:32:38 | 00:00:00 | |
| OE3JTB-15 | 2026-09-06 00:18:41 | 49.48037 | 15.61582 | 159° | 20km/h | 22512m | 7.6m/s | -52.6°C | 2.6% | 0hPa | 2.5V | 00:00:00 | 00:00:00 | 00:00:00 | |
| OE5DRO-10 | 2026-09-06 00:18:40 | 49.48041 | 15.61579 | 154° | 18km/h | 22506m | 4.9m/s | -52.6°C | 2.6% | 0hPa | 2.5V | 00:00:00 | 00:00:00 | 00:00:00 | |
| OE3MUC-15 | 2026-09-06 00:18:38 | 49.48047 | 15.61574 | 159° | 11km/h | 22493m | 7.4m/s | -52.5°C | 2.5% | 0hPa | 2.5V | 00:00:00 | 00:00:00 | 00:00:00 | |
| PG1ADW-2 | 2026-09-06 00:18:37 | 49.48049 | 15.61573 | 162° | 20km/h | 22486m | 4.9m/s | -52.5°C | 2.6% | 0hPa | 2.5V | 00:00:00 | 01:32:33 | 00:00:00 | |
| OE5MMP-10 | 2026-09-06 00:18:36 | 49.48051 | 15.61572 | 159° | 18km/h | 22480m | 6.9m/s | -52.5°C | 2.5% | 0hPa | 2.5V | 00:00:00 | 01:32:32 | 00:00:00 | |
| PETON7-10 | 2026-09-06 00:18:35 | 49.48054 | 15.61570 | 156° | 22km/h | 22474m | 6.4m/s | -52.4°C | 2.6% | 0hPa | 2.5V | 00:00:00 | 00:00:00 | 00:00:00 | |
| OE3MUC-15 | 2026-09-06 00:18:34 | 49.48057 | 15.61568 | 159° | 18km/h | 22468m | 5.7m/s | -52.4°C | 2.5% | 0hPa | 2.5V | 00:00:00 | 00:00:00 | 00:00:00 | |
| DO3MHA-11 | 2026-09-06 00:18:32 | 49.48066 | 15.61564 | 166° | 22km/h | 22455m | 4.4m/s | -52.3°C | 2.5% | 0hPa | 2.5V | 00:00:00 | 01:32:28 | 00:00:00 | |
| OE3MUC-15 | 2026-09-06 00:18:30 | 49.48075 | 15.61559 | 157° | 22km/h | 22443m | 7.6m/s | -52.3°C | 2.5% | 0hPa | 2.5V | 00:00:00 | 00:00:00 | 00:00:00 | |
| OE5MMP-10 | 2026-09-06 00:18:26 | 49.48094 | 15.61538 | 149° | 24km/h | 22417m | 5.0m/s | -52.3°C | 2.5% | 0hPa | 2.5V | 00:00:00 | 01:32:22 | 08:30:00 | |
| DO3MHA-11 | 2026-09-06 00:18:22 | 49.48116 | 15.61523 | 160° | 26km/h | 22393m | 5.8m/s | -52.6°C | 2.5% | 0hPa | 2.5V | 00:00:00 | 01:32:18 | 08:30:00 | |
| OE5DRO-10 | 2026-09-06 00:18:21 | 49.48122 | 15.61519 | 166° | 31km/h | 22387m | 7.2m/s | -52.6°C | 2.6% | 0hPa | 2.6V | 00:00:00 | 00:00:00 | 00:00:00 | |
| PETON7-10 | 2026-09-06 00:18:20 | 49.48128 | 15.61518 | 175° | 31km/h | 22379m | 8.0m/s | -52.6°C | 2.5% | 0hPa | 2.6V | 00:00:00 | 01:32:16 | 00:00:00 | |
| OK1SLM-15 | 2026-09-06 00:18:19 | 49.48128 | 15.61518 | 176° | 26km/h | 22379m | 8.0m/s | -52.6°C | 0.1% | 0hPa | 2.6V | 00:00:00 | 00:00:00 | 00:00:00 | |
| OE3MUC-15 | 2026-09-06 00:18:18 | 49.48140 | 15.61516 | 171° | 24km/h | 22367m | 6.5m/s | -52.6°C | 2.6% | 0hPa | 2.6V | 00:00:00 | 00:00:00 | 00:00:00 | |
| PG1ADW-2 | 2026-09-06 00:18:17 | 49.48146 | 15.61513 | 155° | 33km/h | 22361m | 5.9m/s | -52.7°C | 2.6% | 0hPa | 2.6V | 00:00:00 | 00:00:00 | 00:00:00 | |
| OE5MMP-10 | 2026-09-06 00:18:16 | 49.48151 | 15.61508 | 145° | 33km/h | 22356m | 5.1m/s | -52.7°C | 2.6% | 0hPa | 2.6V | 00:00:00 | 01:32:12 | 00:00:00 | |
| OE3MUC-15 | 2026-09-06 00:18:14 | 49.48161 | 15.61496 | 142° | 31km/h | 22342m | 7.6m/s | -52.8°C | 2.6% | 0hPa | 2.6V | 00:00:00 | 00:00:00 | 08:30:00 | |
| DO3MHA-11 | 2026-09-06 00:18:12 | 49.48173 | 15.61481 | 137° | 37km/h | 22329m | 7.3m/s | -52.7°C | 2.6% | 0hPa | 2.5V | 00:00:00 | 01:32:08 | 00:00:00 | |
| OE3MUC-15 | 2026-09-06 00:18:10 | 49.48185 | 15.61460 | 130° | 38km/h | 22317m | 5.3m/s | -52.7°C | 2.5% | 0hPa | 2.5V | 00:00:00 | 00:00:00 | 00:00:00 | |
| EDDB2-12 | 2026-09-06 00:18:09 | 49.48191 | 15.61449 | 132° | 38km/h | 22311m | 7.3m/s | -52.7°C | 0.0% | -1.0hPa | 2.5V | 00:00:00 | 00:00:00 | 00:00:00 | |
| OE5DXL-15 | 2026-09-06 00:18:08 | 49.48198 | 15.61438 | 138° | 29km/h | 22303m | 8.3m/s | -52.6°C | 2.6% | 0hPa | 2.5V | 00:00:00 | 00:00:00 | 00:00:00 | |
| S52SK | 2026-09-06 00:18:07 | 49.48198 | 15.61438 | 139° | 38km/h | 22303m | 8.4m/s | -52.7°C | 0.1% | 0hPa | 2.5V | 00:00:00 | 00:00:00 | 00:00:00 | |
| PETON7-10 | 2026-09-06 00:18:06 | 49.48220 | 15.61412 | 139° | 31km/h | 22285m | 6.2m/s | -52.6°C | 2.6% | 0hPa | 2.5V | 00:00:00 | 00:00:00 | 08:30:00 | |
| DO3MHA-11 | 2026-09-06 00:18:02 | 49.48238 | 15.61386 | 141° | 31km/h | 22265m | 9.0m/s | -52.5°C | 2.6% | 0hPa | 2.6V | 00:00:00 | 01:31:58 | 00:00:00 | |
| DB0ND-19 | 2026-09-06 00:18:01 | 49.48245 | 15.61378 | 142° | 31km/h | 22258m | 4.7m/s | -52.5°C | -1.0% | -1.0hPa | 2.6V | 00:00:00 | 00:00:00 | 00:00:00 | |
| DB0UT-7 | 2026-09-06 00:18:00 | 49.48251 | 15.61371 | 142° | 27km/h | 22253m | 6.1m/s | -52.4°C | 2.5% | 0hPa | 2.6V | 00:00:00 | 00:00:00 | 00:00:00 | |
| PG1ADW-2 | 2026-09-06 00:17:57 | 49.48268 | 15.61347 | 138° | 27km/h | 22235m | 6.1m/s | -52.4°C | 2.5% | 0hPa | 2.6V | 00:00:00 | 00:00:00 | 00:00:00 | |
| OE5MMP-10 | 2026-09-06 00:17:56 | 49.48274 | 15.61339 | 143° | 27km/h | 22228m | 8.1m/s | -52.3°C | 2.5% | 0hPa | 2.6V | 00:00:00 | 01:31:52 | 00:00:00 | |
| OE3MUC-15 | 2026-09-06 00:17:54 | 49.48287 | 15.61325 | 146° | 29km/h | 22216m | 6.5m/s | -52.3°C | 2.5% | 0hPa | 2.5V | 00:00:00 | 00:00:00 | 00:00:00 | |
| DO3MHA-11 | 2026-09-06 00:17:52 | 49.48299 | 15.61311 | 140° | 26km/h | 22203m | 4.9m/s | -52.3°C | 2.5% | 0hPa | 2.5V | 00:00:00 | 01:31:48 | 00:00:00 | |
| PETON7-10 | 2026-09-06 00:17:50 | 49.48309 | 15.61297 | 145° | 26km/h | 22190m | 7.5m/s | -52.4°C | 2.5% | 0hPa | 2.5V | 00:00:00 | 00:00:00 | 00:00:00 | |
| NBG1-10 | 2026-09-06 00:17:49 | 49.48314 | 15.61292 | 145° | 26km/h | 22184m | 4.9m/s | -52.4°C | 2.5% | 0hPa | 2.5V | 00:00:00 | 01:31:45 | 00:00:00 | |
| OE3MUC-15 | 2026-09-06 00:17:46 | 49.48327 | 15.61273 | 129° | 24km/h | 22165m | 5.0m/s | -52.4°C | 2.5% | 0hPa | 2.5V | 00:00:00 | 00:00:00 | 00:00:00 | |
| OE5DRO-10 | 2026-09-06 00:17:43 | 49.48339 | 15.61253 | 138° | 26km/h | 22145m | 4.4m/s | -52.5°C | 2.6% | 0hPa | 2.5V | 00:00:00 | 00:00:00 | 00:00:00 | |
| DO3MHA-11 | 2026-09-06 00:17:42 | 49.48344 | 15.61246 | 137° | 27km/h | 22140m | 5.7m/s | -52.4°C | 2.5% | 0hPa | 2.6V | 00:00:00 | 01:31:38 | 00:00:00 | |
| OE5DXL-15 | 2026-09-06 00:17:38 | 49.48360 | 15.61211 | 122° | 24km/h | 22113m | 7.7m/s | -52.4°C | 2.5% | 0hPa | 2.6V | 00:00:00 | 00:00:00 | 00:00:00 | |
| PG1ADW-2 | 2026-09-06 00:17:37 | 49.48363 | 15.61203 | 122° | 26km/h | 22107m | 5.4m/s | -52.3°C | 2.5% | 0hPa | 2.6V | 00:00:00 | 00:00:00 | 00:00:00 | |
| OE5MMP-10 | 2026-09-06 00:17:36 | 49.48366 | 15.61194 | 119° | 26km/h | 22100m | 7.3m/s | -52.4°C | 2.5% | 0hPa | 2.6V | 00:00:00 | 01:31:32 | 00:00:00 | |
| PETON7-10 | 2026-09-06 00:17:35 | 49.48369 | 15.61186 | 114° | 24km/h | 22093m | 8.0m/s | -52.4°C | 2.5% | 0hPa | 2.6V | 00:00:00 | 01:31:31 | 00:00:00 | |
| OK1ALN | 2026-09-06 00:17:34 | 49.48372 | 15.61176 | 112° | 27km/h | 22086m | 4.8m/s | -52.4°C | 0.1% | 0hPa | 2.6V | 00:00:00 | 00:00:00 | 00:00:00 | |
| DO3MHA-11 | 2026-09-06 00:17:32 | 49.48377 | 15.61156 | 117° | 24km/h | 22073m | 7.9m/s | -52.5°C | 2.5% | 0hPa | 2.6V | 00:00:00 | 01:31:28 | 00:00:00 | |
| HA6NAB-11 | 2026-09-06 00:17:29 | 49.48382 | 15.61140 | 116° | 24km/h | 22060m | 6.8m/s | -52.7°C | 0.1% | 0hPa | 2.6V | 00:00:00 | 00:00:00 | 00:00:00 | |
| OE5MMP-10 | 2026-09-06 00:17:26 | 49.48390 | 15.61105 | 102° | 26km/h | 22035m | 5.4m/s | -52.8°C | 2.6% | 0hPa | 2.6V | 00:00:00 | 01:31:22 | 00:00:00 | |
| OE5DRO-10 | 2026-09-06 00:17:24 | 49.48391 | 15.61090 | 96° | 24km/h | 22023m | 8.2m/s | -52.8°C | 2.6% | 0hPa | 2.5V | 00:00:00 | 00:00:00 | 00:00:00 | |
| DO3MHA-11 | 2026-09-06 00:17:22 | 49.48392 | 15.61071 | 93° | 26km/h | 22011m | 5.4m/s | -52.8°C | 2.6% | 0hPa | 2.5V | 00:00:00 | 01:31:18 | 00:00:00 | |
| PETON7-10 | 2026-09-06 00:17:20 | 49.48392 | 15.61050 | 94° | 22km/h | 21998m | 4.6m/s | -52.7°C | 2.6% | 0hPa | 2.6V | 00:00:00 | 00:00:00 | 00:00:00 | |
| SONDE2-11 | 2026-09-06 00:17:19 | 49.48393 | 15.61040 | 95° | 26km/h | 21993m | 6.1m/s | -52.8°C | 0.0% | -1.0hPa | 2.5V | 00:00:00 | 00:00:00 | 00:00:00 | |
| OE3MUC-15 | 2026-09-06 00:17:18 | 49.48394 | 15.61030 | 98° | 27km/h | 21985m | 8.3m/s | -52.7°C | 2.6% | 0hPa | 2.5V | 00:00:00 | 00:00:00 | 00:00:00 | |
| PG1ADW-2 | 2026-09-06 00:17:17 | 49.48395 | 15.61019 | 99° | 24km/h | 21979m | 5.0m/s | -52.7°C | 2.6% | 0hPa | 2.5V | 00:00:00 | 01:31:13 | 00:00:00 | |
| OE5MMP-10 | 2026-09-06 00:17:16 | 49.48396 | 15.61008 | 98° | 20km/h | 21973m | 5.9m/s | -52.7°C | 2.6% | 0hPa | 2.5V | 00:00:00 | 01:31:12 | 00:00:00 | |
| EDDB2-11 | 2026-09-06 00:17:15 | 49.48396 | 15.60999 | 93° | 24km/h | 21967m | 7.0m/s | -52.8°C | 0.0% | -1.0hPa | 2.5V | 00:00:00 | 00:00:00 | 00:00:00 | |
| OE3MUC-15 | 2026-09-06 00:17:14 | 49.48396 | 15.60990 | 86° | 20km/h | 21961m | 5.1m/s | -52.7°C | 2.6% | 0hPa | 2.5V | 00:00:00 | 00:00:00 | 00:00:00 | |
| HA6NAB-11 | 2026-09-06 00:17:13 | 49.48396 | 15.60990 | 87° | 20km/h | 21961m | 5.1m/s | -52.8°C | 0.1% | 0hPa | 2.6V | 00:00:00 | 00:00:00 | 00:00:00 | |
| DO3MHA-11 | 2026-09-06 00:17:12 | 49.48395 | 15.60975 | 86° | 22km/h | 21947m | 7.7m/s | -52.8°C | 2.5% | 0hPa | 2.6V | 00:00:00 | 01:31:08 | 00:00:00 | |
| SP3BTT-10 | 2026-09-06 00:17:11 | 49.48395 | 15.60967 | 89° | 37km/h | 21941m | 5.1m/s | -52.7°C | 2.6% | 0hPa | 2.6V | 00:00:00 | 00:00:00 | 00:00:00 | |
| OE3MUC-15 | 2026-09-06 00:17:10 | 49.48395 | 15.60960 | 90° | 18km/h | 21935m | 7.1m/s | -52.7°C | 2.5% | 0hPa | 2.6V | 00:00:00 | 00:00:00 | 00:00:00 | |
| OE5DXL-15 | 2026-09-06 00:17:08 | 49.48395 | 15.60946 | 89° | 27km/h | 21922m | 4.9m/s | -52.8°C | 2.6% | 0hPa | 2.6V | 00:00:00 | 00:00:00 | 00:00:00 | |
| EDDB2-12 | 2026-09-06 00:17:07 | 49.48394 | 15.60940 | 88° | 18km/h | 21916m | 6.8m/s | -52.9°C | 0.0% | -1.0hPa | 2.6V | 00:00:00 | 00:00:00 | 00:00:00 | |
| OE5MMP-10 | 2026-09-06 00:17:06 | 49.48395 | 15.60931 | 93° | 27km/h | 21909m | 7.7m/s | -52.8°C | 2.6% | 0hPa | 2.6V | 00:00:00 | 01:31:02 | 00:00:00 | |
| PETON7-10 | 2026-09-06 00:17:05 | 49.48395 | 15.60922 | 95° | 26km/h | 21902m | 4.8m/s | -52.8°C | 2.6% | 0hPa | 2.6V | 00:00:00 | 00:00:00 | 00:00:00 | |
| DO3MHA-11 | 2026-09-06 00:17:02 | 49.48397 | 15.60890 | 99° | 26km/h | 21883m | 4.7m/s | -52.8°C | 2.6% | 0hPa | 2.6V | 00:00:00 | 01:30:58 | 00:00:00 | |
| DB0ND-19 | 2026-09-06 00:16:59 | 49.48403 | 15.60859 | 114° | 27km/h | 21864m | 4.5m/s | 0°C | -1.0% | -1.0hPa | 2.6V | 00:00:00 | 00:00:00 | 00:00:00 | |
| SONDE2-11 | 2026-09-06 00:16:48 | 49.48428 | 15.60756 | 103° | 31km/h | 21797m | 5.4m/s | -53.0°C | 0.0% | -1.0hPa | 2.6V | 00:00:00 | 00:00:00 | 00:00:00 | |
| EDDB2-11 | 2026-09-06 00:16:44 | 49.48432 | 15.60705 | 93° | 35km/h | 21774m | 5.1m/s | -52.9°C | 0.0% | -1.0hPa | 2.6V | 00:00:00 | 00:00:00 | 00:00:00 | |
| NBG1-10 | 2026-09-06 00:16:43 | 49.48433 | 15.60691 | 97° | 29km/h | 21768m | 6.9m/s | -52.8°C | 2.5% | 0hPa | 2.6V | 00:00:00 | 01:30:39 | 00:00:00 | |
| OE3MUC-15 | 2026-09-06 00:16:42 | 49.48434 | 15.60677 | 99° | 33km/h | 21762m | 4.5m/s | -52.8°C | 2.6% | 0hPa | 2.6V | 00:00:00 | 00:00:00 | 00:00:00 | |
| OE3MUC-15 | 2026-09-06 00:16:38 | 49.48439 | 15.60629 | 106° | 27km/h | 21739m | 5.9m/s | -52.8°C | 2.5% | 0hPa | 2.6V | 00:00:00 | 00:00:00 | 00:00:00 | |
| PG1ADW-2 | 2026-09-06 00:16:37 | 49.48441 | 15.60619 | 110° | 27km/h | 21733m | 6.3m/s | -52.8°C | 2.5% | 0hPa | 2.5V | 00:00:00 | 00:00:00 | 00:00:00 | |
| OE5MMP-10 | 2026-09-06 00:16:36 | 49.48444 | 15.60609 | 110° | 27km/h | 21727m | 4.3m/s | -53.0°C | 2.6% | 0hPa | 2.5V | 00:00:00 | 01:30:32 | 00:00:00 | |
| PETON7-10 | 2026-09-06 00:16:35 | 49.48445 | 15.60599 | 105° | 26km/h | 21722m | 6.8m/s | -53.1°C | 2.6% | 0hPa | 2.5V | 00:00:00 | 00:00:00 | 00:00:00 | |
| OE3MUC-15 | 2026-09-06 00:16:34 | 49.48447 | 15.60589 | 96° | 29km/h | 21715m | 6.6m/s | -53.1°C | 2.6% | 0hPa | 2.5V | 00:00:00 | 00:00:00 | 00:00:00 | |
| DO3MHA-11 | 2026-09-06 00:16:32 | 49.48447 | 15.60568 | 94° | 27km/h | 21704m | 6.5m/s | -53.1°C | 2.6% | 0hPa | 2.5V | 00:00:00 | 01:30:28 | 00:00:00 | |
| OK1ALN | 2026-09-06 00:16:31 | 49.48447 | 15.60568 | 94° | 31km/h | 21704m | 6.6m/s | -53.1°C | 0.2% | 0hPa | 2.5V | 00:00:00 | 00:00:00 | 00:00:00 | |
| OE3MUC-15 | 2026-09-06 00:16:30 | 49.48449 | 15.60543 | 94° | 27km/h | 21693m | 3.4m/s | -53.0°C | 2.6% | 0hPa | 2.5V | 00:00:00 | 00:00:00 | 00:00:00 | |
| OE5DRO-10 | 2026-09-06 00:16:27 | 49.48447 | 15.60512 | 73° | 27km/h | 21674m | 4.7m/s | -52.9°C | 2.6% | 0hPa | 2.5V | 00:00:00 | 00:00:00 | 00:00:00 | |
| OE3MUC-15 | 2026-09-06 00:16:26 | 49.48445 | 15.60503 | 71° | 24km/h | 21669m | 5.1m/s | -52.9°C | 2.6% | 0hPa | 2.5V | 00:00:00 | 00:00:00 | 08:30:00 | |
| S52SK | 2026-09-06 00:16:23 | 49.48441 | 15.60485 | 73° | 26km/h | 21657m | 4.9m/s | -53.1°C | 0.2% | 0hPa | 2.5V | 00:00:00 | 00:00:00 | 00:00:00 | |
| DO3MHA-11 | 2026-09-06 00:16:22 | 49.48437 | 15.60468 | 66° | 29km/h | 21645m | 7.2m/s | -53.2°C | 2.6% | 0hPa | 2.5V | 00:00:00 | 01:30:18 | 00:00:00 | |
| PETON7-10 | 2026-09-06 00:16:20 | 49.48432 | 15.60450 | 71° | 29km/h | 21633m | 6.1m/s | -53.2°C | 2.6% | 0hPa | 2.5V | 00:00:00 | 00:00:00 | 00:00:00 | |
| OE3MUC-15 | 2026-09-06 00:16:18 | 49.48428 | 15.60429 | 73° | 31km/h | 21621m | 5.1m/s | -53.2°C | 2.6% | 0hPa | 2.5V | 00:00:00 | 00:00:00 | 00:00:00 | |
| PG1ADW-2 | 2026-09-06 00:16:17 | 49.48425 | 15.60417 | 71° | 31km/h | 21615m | 6.9m/s | -53.2°C | 2.6% | 0hPa | 2.5V | 00:00:00 | 00:00:00 | 00:00:00 | |
| OE5MMP-10 | 2026-09-06 00:16:16 | 49.48423 | 15.60406 | 68° | 27km/h | 21608m | 5.5m/s | -53.2°C | 2.6% | 0hPa | 2.5V | 00:00:00 | 01:30:12 | 00:00:00 | |
| OE3MUC-15 | 2026-09-06 00:16:14 | 49.48417 | 15.60384 | 73° | 29km/h | 21598m | 6.7m/s | -53.2°C | 2.6% | 0hPa | 2.5V | 00:00:00 | 00:00:00 | 00:00:00 | |
| EDDB2-11 | 2026-09-06 00:16:13 | 49.48415 | 15.60372 | 76° | 29km/h | 21591m | 5.8m/s | -53.3°C | 0.1% | -1.0hPa | 2.6V | 00:00:00 | 00:00:00 | 00:00:00 | |
| DO3MHA-11 | 2026-09-06 00:16:12 | 49.48414 | 15.60361 | 80° | 31km/h | 21586m | 4.7m/s | -53.3°C | 2.6% | 0hPa | 2.6V | 00:00:00 | 01:30:08 | 00:00:00 | |
| OK1SLM-15 | 2026-09-06 00:16:11 | 49.48413 | 15.60361 | 80° | 27km/h | 21586m | 4.8m/s | -53.4°C | 0.2% | 0hPa | 2.6V | 00:00:00 | 00:00:00 | 00:00:00 | |
| OE3MUC-15 | 2026-09-06 00:16:10 | 49.48411 | 15.60342 | 78° | 27km/h | 21575m | 5.6m/s | -53.4°C | 2.6% | 0hPa | 2.6V | 00:00:00 | 00:00:00 | 00:00:00 | |
| OE5DRO-10 | 2026-09-06 00:16:08 | 49.48409 | 15.60323 | 84° | 35km/h | 21565m | 6.7m/s | -53.5°C | 2.6% | 0hPa | 2.6V | 00:00:00 | 00:00:00 | 00:00:00 | |
| OE5MMP-10 | 2026-09-06 00:16:06 | 49.48408 | 15.60298 | 90° | 35km/h | 21552m | 4.9m/s | -53.5°C | 2.6% | 0hPa | 2.6V | 00:00:00 | 01:30:02 | 00:00:00 | |
| PETON7-10 | 2026-09-06 00:16:05 | 49.48408 | 15.60284 | 89° | 35km/h | 21546m | 6.1m/s | -53.5°C | 2.6% | 0hPa | 2.6V | 00:00:00 | 01:30:01 | 00:00:00 | |
| OE3MUC-15 | 2026-09-06 00:16:02 | 49.48408 | 15.60242 | 94° | 37km/h | 21527m | 6.1m/s | -53.6°C | 2.6% | 0hPa | 2.6V | 00:00:00 | 00:00:00 | 00:00:00 | |
| DF3TZ-5 | 2026-09-06 00:15:55 | 49.48420 | 15.60153 | 110° | 35km/h | 21485m | 6.0m/s | -54.2°C | 0.1% | -1.0hPa | 2.6V | 00:00:00 | 00:00:00 | 00:00:00 | |
| OE3MUC-15 | 2026-09-06 00:15:54 | 49.48423 | 15.60140 | 111° | 38km/h | 21480m | 4.7m/s | -54.3°C | 2.8% | 0hPa | 2.6V | 00:00:00 | 00:00:00 | 00:00:00 | |
| DO3MHA-11 | 2026-09-06 00:15:52 | 49.48430 | 15.60113 | 112° | 44km/h | 21468m | 6.3m/s | -54.3°C | 2.8% | 0hPa | 2.6V | 00:00:00 | 01:29:48 | 00:00:00 | |
| PETON7-10 | 2026-09-06 00:15:50 | 49.48436 | 15.60083 | 105° | 44km/h | 21456m | 6.8m/s | -54.3°C | 2.8% | 0hPa | 2.5V | 00:00:00 | 00:00:00 | 08:30:00 | |
| OE5DRO-10 | 2026-09-06 00:15:49 | 49.48439 | 15.60066 | 99° | 44km/h | 21450m | 5.7m/s | -54.3°C | 2.8% | 0hPa | 2.5V | 00:00:00 | 00:00:00 | 00:00:00 | |
| OE3JTB-15 | 2026-09-06 00:15:47 | 49.48441 | 15.60028 | 91° | 40km/h | 21440m | 6.4m/s | -54.3°C | 2.8% | 0hPa | 2.5V | 00:00:00 | 00:00:00 | 00:00:00 | |
| OE3MUC-15 | 2026-09-06 00:15:46 | 49.48440 | 15.60010 | 87° | 44km/h | 21434m | 7.3m/s | -54.3°C | 2.8% | 0hPa | 2.5V | 00:00:00 | 00:00:00 | 00:00:00 | |
| DO3MHA-11 | 2026-09-06 00:15:42 | 49.48437 | 15.59944 | 89° | 42km/h | 21410m | 4.5m/s | -54.4°C | 2.8% | 0hPa | 2.5V | 00:00:00 | 01:29:38 | 00:00:00 | |
| HA6NAB-11 | 2026-09-06 00:15:41 | 49.48437 | 15.59944 | 90° | 42km/h | 21410m | 4.6m/s | -54.5°C | 0.2% | 0hPa | 2.5V | 00:00:00 | 00:00:00 | 00:00:00 | |
| OE5DXL-15 | 2026-09-06 00:15:38 | 49.48441 | 15.59881 | 102° | 40km/h | 21385m | 6.8m/s | -54.6°C | 2.9% | 0hPa | 2.5V | 00:00:00 | 00:00:00 | 00:00:00 | |
| PG1ADW-2 | 2026-09-06 00:15:37 | 49.48443 | 15.59864 | 100° | 42km/h | 21379m | 5.4m/s | -54.5°C | 2.9% | 0hPa | 2.5V | 00:00:00 | 00:00:00 | 00:00:00 | |
| OE5MMP-10 | 2026-09-06 00:15:36 | 49.48445 | 15.59847 | 98° | 46km/h | 21374m | 4.7m/s | -54.5°C | 2.9% | 0hPa | 2.5V | 00:00:00 | 01:29:32 | 00:00:00 | |
| PETON7-10 | 2026-09-06 00:15:35 | 49.48446 | 15.59830 | 96° | 42km/h | 21368m | 6.7m/s | -54.5°C | 2.9% | 0hPa | 2.5V | 00:00:00 | 00:00:00 | 00:00:00 | |
| EDDB2-12 | 2026-09-06 00:15:34 | 49.48446 | 15.59813 | 87° | 42km/h | 21362m | 5.8m/s | -54.5°C | 0.1% | -1.0hPa | 2.5V | 00:00:00 | 00:00:00 | 00:00:00 | |
| DO3MHA-11 | 2026-09-06 00:15:32 | 49.48443 | 15.59778 | 78° | 42km/h | 21350m | 7.2m/s | -54.4°C | 2.9% | 0hPa | 2.5V | 00:00:00 | 01:29:28 | 00:00:00 | |
| OE5DRO-10 | 2026-09-06 00:15:30 | 49.48436 | 15.59740 | 74° | 40km/h | 21339m | 4.4m/s | -54.4°C | 2.8% | 0hPa | 2.5V | 00:00:00 | 00:00:00 | 00:00:00 | |
| OK1ALN | 2026-09-06 00:15:29 | 49.48437 | 15.59740 | 75° | 51km/h | 21339m | 4.4m/s | -54.4°C | 0.2% | 0hPa | 2.5V | 00:00:00 | 00:00:00 | 00:00:00 | |
| OE5MMP-10 | 2026-09-06 00:15:26 | 49.48426 | 15.59675 | 82° | 38km/h | 21314m | 6.9m/s | -54.2°C | 2.8% | 0hPa | 2.5V | 00:00:00 | 01:29:22 | 08:30:00 | |
| SP3BTT-10 | 2026-09-06 00:15:25 | 49.48425 | 15.59660 | 85° | 38km/h | 21307m | 4.8m/s | -54.1°C | 2.7% | 0hPa | 2.5V | 00:00:00 | 00:00:00 | 08:30:00 | |
| DO3MHA-11 | 2026-09-06 00:15:22 | 49.48423 | 15.59621 | 84° | 42km/h | 21289m | 4.6m/s | -54.0°C | 2.8% | 0hPa | 2.6V | 00:00:00 | 01:29:18 | 08:30:00 | |
| PETON7-10 | 2026-09-06 00:15:20 | 49.48419 | 15.59594 | 79° | 38km/h | 21278m | 6.5m/s | -53.9°C | 2.8% | 0hPa | 2.6V | 00:00:00 | 01:29:16 | 00:00:00 | |
| HA6NAB-11 | 2026-09-06 00:15:19 | 49.48419 | 15.59594 | 79° | 40km/h | 21278m | 6.5m/s | -53.9°C | 0.2% | 0hPa | 2.6V | 00:00:00 | 00:00:00 | 00:00:00 | |
| OE3MUC-15 | 2026-09-06 00:15:18 | 49.48414 | 15.59562 | 71° | 46km/h | 21267m | 5.4m/s | -53.8°C | 2.7% | 0hPa | 2.6V | 00:00:00 | 00:00:00 | 00:00:00 | |
| SONDE2-11 | 2026-09-06 00:15:17 | 49.48400 | 15.59513 | 66° | 44km/h | 21249m | 5.7m/s | -53.9°C | 0.1% | -1.0hPa | 2.6V | 00:00:00 | 00:00:00 | 00:00:00 | |
| OE3MUC-15 | 2026-09-06 00:15:14 | 49.48396 | 15.59497 | 69° | 38km/h | 21243m | 6.6m/s | -53.9°C | 2.7% | 0hPa | 2.6V | 00:00:00 | 00:00:00 | 08:30:00 | |
| DO3MHA-11 | 2026-09-06 00:15:12 | 49.48389 | 15.59466 | 75° | 35km/h | 21232m | 5.3m/s | -54.0°C | 2.7% | 0hPa | 2.5V | 00:00:00 | 01:29:08 | 00:00:00 | |
| OE5DRO-10 | 2026-09-06 00:15:11 | 49.48387 | 15.59453 | 76° | 35km/h | 21226m | 7.0m/s | -54.1°C | 2.7% | 0hPa | 2.5V | 00:00:00 | 00:00:00 | 00:00:00 | |
| OE3MUC-15 | 2026-09-06 00:15:10 | 49.48385 | 15.59442 | 80° | 29km/h | 21220m | 5.2m/s | -54.2°C | 2.7% | 0hPa | 2.5V | 00:00:00 | 00:00:00 | 00:00:00 | |
| OK1ALN | 2026-09-06 00:15:09 | 49.48385 | 15.59442 | 80° | 26km/h | 21220m | 5.3m/s | -54.3°C | 0.2% | 0hPa | 2.5V | 00:00:00 | 00:00:00 | 00:00:00 | |
| HA6NAB-11 | 2026-09-06 00:15:08 | 49.48384 | 15.59432 | 85° | 26km/h | 21215m | 5.2m/s | -54.4°C | 0.2% | 0hPa | 2.5V | 00:00:00 | 00:00:00 | 00:00:00 | |
| OE3MUC-15 | 2026-09-06 00:15:06 | 49.48380 | 15.59396 | 72° | 40km/h | 21199m | 4.1m/s | -54.7°C | 2.9% | 0hPa | 2.5V | 00:00:00 | 01:29:02 | 00:00:00 | |
| PETON7-10 | 2026-09-06 00:15:05 | 49.48376 | 15.59382 | 64° | 37km/h | 21193m | 7.3m/s | -54.8°C | 2.9% | 0hPa | 2.5V | 00:00:00 | 00:00:00 | 00:00:00 | |
| DB0UT-7 | 2026-09-06 00:15:04 | 49.48371 | 15.59368 | 57° | 35km/h | 21186m | 6.5m/s | -54.8°C | 2.9% | 0hPa | 2.5V | 00:00:00 | 01:29:00 | 00:00:00 | |
| DO3MHA-11 | 2026-09-06 00:15:02 | 49.48358 | 15.59340 | 56° | 37km/h | 21174m | 7.4m/s | -54.7°C | 2.9% | 0hPa | 2.5V | 00:00:00 | 01:28:58 | 00:00:00 | |
| OK1SLM-15 | 2026-09-06 00:15:01 | 49.48358 | 15.59340 | 56° | 47km/h | 21174m | 7.4m/s | -54.8°C | 0.2% | 0hPa | 2.5V | 00:00:00 | 00:00:00 | 00:00:00 | |
| SONDE2-11 | 2026-09-06 00:14:44 | 49.48243 | 15.59161 | 41° | 38km/h | 21071m | 6.0m/s | -54.7°C | 0.1% | -1.0hPa | 2.5V | 00:00:00 | 00:00:00 | 00:00:00 | |
| S52SK | 2026-09-06 00:14:43 | 49.48243 | 15.59161 | 42° | 40km/h | 21071m | 6.0m/s | -54.7°C | 0.2% | 0hPa | 2.5V | 00:00:00 | 00:00:00 | 00:00:00 | |
| DO3MHA-11 | 2026-09-06 00:14:42 | 49.48230 | 15.59141 | 46° | 26km/h | 21060m | 6.1m/s | -54.6°C | 2.9% | 0hPa | 2.5V | 00:00:00 | 01:28:38 | 00:00:00 | |
| EDDB2-11 | 2026-09-06 00:14:40 | 49.48219 | 15.59126 | 44° | 24km/h | 21048m | 5.3m/s | -54.6°C | 0.1% | -1.0hPa | 2.5V | 00:00:00 | 00:00:00 | 00:00:00 | |
| HA6NAB-11 | 2026-09-06 00:14:39 | 49.48219 | 15.59126 | 45° | 26km/h | 21048m | 5.3m/s | -54.6°C | 0.2% | 0hPa | 2.5V | 00:00:00 | 00:00:00 | 00:00:00 | |
| OE3MUC-15 | 2026-09-06 00:14:38 | 49.48211 | 15.59111 | 53° | 26km/h | 21036m | 7.2m/s | -54.4°C | 2.9% | 0hPa | 2.5V | 00:00:00 | 00:00:00 | 08:30:00 | |
| PG1ADW-2 | 2026-09-06 00:14:37 | 49.48207 | 15.59103 | 55° | 26km/h | 21030m | 4.7m/s | -54.4°C | 2.9% | 0hPa | 2.5V | 00:00:00 | 01:28:33 | 00:00:00 | |
| OE5MMP-10 | 2026-09-06 00:14:36 | 49.48203 | 15.59096 | 50° | 26km/h | 21024m | 5.7m/s | -54.3°C | 2.9% | 0hPa | 2.5V | 00:00:00 | 01:28:32 | 00:00:00 | |
| PETON7-10 | 2026-09-06 00:14:35 | 49.48199 | 15.59089 | 41° | 26km/h | 21018m | 7.6m/s | -54.3°C | 2.9% | 0hPa | 2.5V | 00:00:00 | 01:28:31 | 00:00:00 | |
| OE3MUC-15 | 2026-09-06 00:14:34 | 49.48194 | 15.59084 | 34° | 27km/h | 21011m | 5.6m/s | -54.2°C | 2.9% | 0hPa | 2.5V | 00:00:00 | 00:00:00 | 00:00:00 | |
| OE5DRO-10 | 2026-09-06 00:14:33 | 49.48188 | 15.59078 | 33° | 24km/h | 21005m | 6.2m/s | -54.2°C | 2.8% | 0hPa | 2.5V | 00:00:00 | 00:00:00 | 00:00:00 | |
| DO3MHA-11 | 2026-09-06 00:14:32 | 49.48183 | 15.59073 | 34° | 26km/h | 21000m | 5.9m/s | -54.2°C | 2.9% | 0hPa | 2.5V | 00:00:00 | 01:28:28 | 00:00:00 | |
| NBG1-10 | 2026-09-06 00:14:31 | 49.48177 | 15.59067 | 33° | 20km/h | 20994m | 4.6m/s | -54.1°C | 2.9% | 0hPa | 2.5V | 00:00:00 | 01:28:27 | 00:00:00 | |
| OE3MUC-15 | 2026-09-06 00:14:30 | 49.48171 | 15.59061 | 28° | 26km/h | 20988m | 7.2m/s | -54.1°C | 2.8% | 0hPa | 2.5V | 00:00:00 | 00:00:00 | 00:00:00 | |
| OK1ALN | 2026-09-06 00:14:28 | 49.48165 | 15.59056 | 30° | 26km/h | 20982m | 6.2m/s | -54.1°C | 0.2% | 0hPa | 2.5V | 00:00:00 | 00:00:00 | 00:00:00 | |
| OE5MMP-10 | 2026-09-06 00:14:26 | 49.48151 | 15.59038 | 54° | 24km/h | 20964m | 4.5m/s | -53.9°C | 2.8% | 0hPa | 2.5V | 00:00:00 | 01:28:22 | 00:00:00 | |
| HA6NAB-11 | 2026-09-06 00:14:23 | 49.48143 | 15.59024 | 49° | 24km/h | 20953m | 7.1m/s | -53.9°C | 0.2% | 0hPa | 2.5V | 00:00:00 | 00:00:00 | 00:00:00 | |
| DO3MHA-11 | 2026-09-06 00:14:22 | 49.48135 | 15.59012 | 41° | 20km/h | 20942m | 5.0m/s | -53.8°C | 2.8% | 0hPa | 2.5V | 00:00:00 | 01:28:18 | 00:00:00 | |
| PETON7-10 | 2026-09-06 00:14:20 | 49.48126 | 15.59000 | 46° | 18km/h | 20931m | 5.3m/s | -53.7°C | 2.8% | 0hPa | 2.6V | 00:00:00 | 00:00:00 | 00:00:00 | |
| PG1ADW-2 | 2026-09-06 00:14:17 | 49.48112 | 15.58983 | 30° | 15km/h | 20913m | 5.7m/s | -53.6°C | 2.7% | 0hPa | 2.5V | 00:00:00 | 00:00:00 | 00:00:00 | |
| OE5MMP-10 | 2026-09-06 00:14:16 | 49.48108 | 15.58980 | 29° | 16km/h | 20908m | 4.6m/s | -53.6°C | 2.7% | 0hPa | 2.5V | 00:00:00 | 01:28:12 | 00:00:00 | |
| SONDE2-11 | 2026-09-06 00:14:13 | 49.48098 | 15.58966 | 55° | 16km/h | 20890m | 5.5m/s | -53.7°C | 0.1% | -1.0hPa | 2.5V | 00:00:00 | 00:00:00 | 00:00:00 | |
| DO3MHA-11 | 2026-09-06 00:14:12 | 49.48095 | 15.58960 | 53° | 16km/h | 20884m | 6.2m/s | -53.6°C | 2.7% | 0hPa | 2.5V | 00:00:00 | 01:28:08 | 00:00:00 | |
| OE3MUC-15 | 2026-09-06 00:14:10 | 49.48089 | 15.58951 | 43° | 16km/h | 20871m | 4.4m/s | -53.6°C | 2.7% | 0hPa | 2.5V | 00:00:00 | 00:00:00 | 00:00:00 | |
| EDDB2-11 | 2026-09-06 00:14:09 | 49.48084 | 15.58941 | 58° | 15km/h | 20860m | 7.0m/s | -53.6°C | 0.1% | -1.0hPa | 2.5V | 00:00:00 | 00:00:00 | 00:00:00 | |
| OE5DXL-15 | 2026-09-06 00:14:08 | 49.48084 | 15.58941 | 59° | 13km/h | 20860m | 6.9m/s | -53.6°C | 2.7% | 0hPa | 2.5V | 00:00:00 | 00:00:00 | 00:00:00 | |
| OK1ALN | 2026-09-06 00:14:07 | 49.48084 | 15.58941 | 59° | 16km/h | 20860m | 7.0m/s | -53.6°C | 0.2% | 0hPa | 2.5V | 00:00:00 | 00:00:00 | 00:00:00 | |
| OE3MUC-15 | 2026-09-06 00:14:06 | 49.48080 | 15.58930 | 60° | 18km/h | 20848m | 5.8m/s | -53.5°C | 2.7% | 0hPa | 2.5V | 00:00:00 | 00:00:00 | 00:00:00 | |
| PETON7-10 | 2026-09-06 00:14:05 | 49.48077 | 15.58924 | 52° | 11km/h | 20842m | 7.3m/s | -53.6°C | 2.7% | 0hPa | 2.5V | 00:00:00 | 00:00:00 | 00:00:00 | |
| OE3MUC-15 | 2026-09-06 00:14:02 | 49.48069 | 15.58909 | 60° | 9km/h | 20825m | 6.3m/s | -53.4°C | 2.7% | 0hPa | 2.5V | 00:00:00 | 00:00:00 | 08:30:00 | |
| EDDB2-12 | 2026-09-06 00:14:01 | 49.48067 | 15.58901 | 66° | 7km/h | 20812m | 6.8m/s | -53.4°C | 0.1% | -1.0hPa | 2.6V | 00:00:00 | 00:00:00 | 00:00:00 | |
| DB0ND-19 | 2026-09-06 00:13:53 | 49.48058 | 15.58878 | 36° | 15km/h | 20765m | 3.3m/s | -53.2°C | 0.1% | -1.0hPa | 2.6V | 00:00:00 | 00:00:00 | 00:00:00 | |
| DF3TZ-5 | 2026-09-06 00:13:51 | 49.48053 | 15.58871 | 54° | 11km/h | 20755m | 5.7m/s | -53.2°C | 0.1% | -1.0hPa | 2.6V | 00:00:00 | 00:00:00 | 00:00:00 | |
| PETON7-10 | 2026-09-06 00:13:50 | 49.48053 | 15.58871 | 55° | 9km/h | 20755m | 5.7m/s | -53.1°C | 2.6% | 0hPa | 2.6V | 00:00:00 | 01:27:46 | 00:00:00 | |
| OE3MUC-15 | 2026-09-06 00:13:46 | 49.48050 | 15.58862 | 99° | 5km/h | 20732m | 5.4m/s | -53.2°C | 2.6% | 0hPa | 2.6V | 00:00:00 | 00:00:00 | 00:00:00 | |
| OE5MMP-10 | 2026-09-06 00:13:45 | 49.48051 | 15.58860 | 115° | 9km/h | 20726m | 7.0m/s | -53.2°C | 2.6% | 0hPa | 2.6V | 00:00:00 | 01:27:41 | 00:00:00 | |
| DO3MHA-11 | 2026-09-06 00:13:42 | 49.48053 | 15.58853 | 108° | 11km/h | 20709m | 6.6m/s | -53.3°C | 2.6% | 0hPa | 2.6V | 00:00:00 | 01:27:38 | 00:00:00 | |
| OK1SLM-15 | 2026-09-06 00:13:41 | 49.48053 | 15.58850 | 79° | 5km/h | 20703m | 5.3m/s | -53.3°C | 0% | 0hPa | 2.6V | 00:00:00 | 00:00:00 | 00:00:00 | |
| SP3BTT-10 | 2026-09-06 00:13:39 | 49.48052 | 15.58844 | 78° | 9km/h | 20692m | 6.6m/s | -53.3°C | 2.6% | 0hPa | 2.6V | 00:00:00 | 00:00:00 | 00:00:00 | |
| EDDB2-11 | 2026-09-06 00:13:38 | 49.48051 | 15.58832 | 81° | 16km/h | 20682m | 4.8m/s | -53.3°C | 0.1% | -1.0hPa | 2.6V | 00:00:00 | 00:00:00 | 00:00:00 | |
| PG1ADW-2 | 2026-09-06 00:13:37 | 49.48051 | 15.58832 | 82° | 9km/h | 20682m | 4.7m/s | -53.2°C | 2.6% | 0hPa | 2.6V | 00:00:00 | 00:00:00 | 00:00:00 | |
| OE5DRO-10 | 2026-09-06 00:13:36 | 49.48050 | 15.58826 | 81° | 9km/h | 20676m | 6.7m/s | -53.2°C | 2.6% | 0hPa | 2.6V | 00:00:00 | 00:00:00 | 00:00:00 | |
| OE5MMP-10 | 2026-09-06 00:13:35 | 49.48050 | 15.58822 | 92° | 9km/h | 20670m | 5.5m/s | -53.2°C | 2.6% | 0hPa | 2.6V | 00:00:00 | 01:27:31 | 00:00:00 | |
| DO3MHA-11 | 2026-09-06 00:13:32 | 49.48055 | 15.58816 | 168° | 9km/h | 20652m | 5.7m/s | -53.3°C | 2.6% | 0hPa | 2.6V | 00:00:00 | 01:27:28 | 00:00:00 | |
| EDDB2-12 | 2026-09-06 00:13:30 | 49.48067 | 15.58815 | 192° | 11km/h | 20636m | 5.3m/s | -53.5°C | 0.1% | -1.0hPa | 2.6V | 00:00:00 | 00:00:00 | 00:00:00 | |
| OK1ALN | 2026-09-06 00:13:26 | 49.48071 | 15.58817 | 203° | 2km/h | 20626m | 5.8m/s | -53.6°C | 0.2% | 0hPa | 2.6V | 00:00:00 | 00:00:00 | 00:00:00 | |
| OE5MMP-10 | 2026-09-06 00:13:25 | 49.48071 | 15.58815 | 74° | 7km/h | 20614m | 6.4m/s | -53.5°C | 2.7% | 0hPa | 2.6V | 00:00:00 | 01:27:21 | 00:00:00 | |
| DB0ND-19 | 2026-09-06 00:13:22 | 49.48070 | 15.58815 | 247° | 9km/h | 20591m | 5.3m/s | -53.4°C | 0.1% | -1.0hPa | 2.6V | 00:00:00 | 00:00:00 | 00:00:00 | |
| DF3TZ-5 | 2026-09-06 00:13:20 | 49.48073 | 15.58821 | 220° | 11km/h | 20579m | 5.9m/s | -53.3°C | 0.1% | -1.0hPa | 2.6V | 00:00:00 | 00:00:00 | 00:00:00 | |
| OE3MUC-15 | 2026-09-06 00:13:18 | 49.48075 | 15.58824 | 220° | 11km/h | 20573m | 5.1m/s | -53.3°C | 2.7% | 0hPa | 2.6V | 00:00:00 | 00:00:00 | 00:00:00 | |
| OE5DRO-10 | 2026-09-06 00:13:17 | 49.48077 | 15.58827 | 229° | 7km/h | 20567m | 7.0m/s | -53.3°C | 2.7% | 0hPa | 2.6V | 00:00:00 | 00:00:00 | 00:00:00 | |
| OE5MMP-10 | 2026-09-06 00:13:15 | 49.48081 | 15.58834 | 226° | 5km/h | 20555m | 4.9m/s | -53.3°C | 2.7% | 0hPa | 2.6V | 00:00:00 | 01:27:11 | 00:00:00 | |
| OE3MUC-15 | 2026-09-06 00:13:14 | 49.48082 | 15.58835 | 203° | 5km/h | 20549m | 6.5m/s | -53.3°C | 2.7% | 0hPa | 2.6V | 00:00:00 | 00:00:00 | 00:00:00 | |
| DO3MHA-11 | 2026-09-06 00:13:12 | 49.48085 | 15.58836 | 188° | 5km/h | 20538m | 5.7m/s | -53.3°C | 2.7% | 0hPa | 2.6V | 00:00:00 | 01:27:08 | 00:00:00 | |
| OE3MUC-15 | 2026-09-06 00:13:10 | 49.48087 | 15.58838 | 251° | 2km/h | 20526m | 5.2m/s | -53.2°C | 2.7% | 0hPa | 2.6V | 00:00:00 | 00:00:00 | 00:00:00 | |
| SP3BTT-10 | 2026-09-06 00:13:09 | 49.48087 | 15.58838 | 254° | 29km/h | 20520m | 6.2m/s | -53.1°C | 2.7% | 0hPa | 2.6V | 00:00:00 | 00:00:00 | 00:00:00 | |
| EDDB2-11 | 2026-09-06 00:13:07 | 49.48088 | 15.58840 | 235° | 4km/h | 20505m | 4.8m/s | -53.1°C | 0.1% | -1.0hPa | 2.5V | 00:00:00 | 00:00:00 | 00:00:00 | |
| OE3MUC-15 | 2026-09-06 00:13:06 | 49.48088 | 15.58840 | 236° | 11km/h | 20505m | 4.7m/s | -53.0°C | 2.7% | 0hPa | 2.5V | 00:00:00 | 00:00:00 | 00:00:00 | |
| OE5MMP-10 | 2026-09-06 00:13:05 | 49.48089 | 15.58842 | 244° | 13km/h | 20499m | 6.5m/s | -53.0°C | 2.6% | 0hPa | 2.5V | 00:00:00 | 01:27:01 | 00:00:00 | |
| DO3MHA-11 | 2026-09-06 00:13:02 | 49.48093 | 15.58856 | 240° | 13km/h | 20483m | 5.5m/s | -52.9°C | 2.7% | 0hPa | 2.5V | 00:00:00 | 01:26:58 | 00:00:00 | |
| EDDB2-12 | 2026-09-06 00:12:59 | 49.48102 | 15.58864 | 197° | 11km/h | 20461m | 6.7m/s | -52.8°C | 0.1% | -1.0hPa | 2.5V | 00:00:00 | 00:00:00 | 00:00:00 | |
| DB0ND-19 | 2026-09-06 00:12:51 | 49.48133 | 15.58882 | 210° | 22km/h | 20416m | 5.5m/s | -52.5°C | 0.0% | -1.0hPa | 2.5V | 00:00:00 | 00:00:00 | 00:00:00 | |
| DF3TZ-5 | 2026-09-06 00:12:49 | 49.48143 | 15.58889 | 199° | 20km/h | 20404m | 4.4m/s | -52.4°C | 0.0% | -1.0hPa | 2.5V | 00:00:00 | 00:00:00 | 00:00:00 | |
| OE3MUC-15 | 2026-09-06 00:12:46 | 49.48152 | 15.58895 | 205° | 16km/h | 20393m | 7.9m/s | -52.3°C | 2.5% | 0hPa | 2.5V | 00:00:00 | 00:00:00 | 00:00:00 | |
| OE5MMP-10 | 2026-09-06 00:12:45 | 49.48157 | 15.58897 | 204° | 20km/h | 20386m | 5.6m/s | -52.2°C | 2.6% | 0hPa | 2.5V | 00:00:00 | 01:26:41 | 00:00:00 | |
| DO3MHA-11 | 2026-09-06 00:12:42 | 49.48168 | 15.58900 | 174° | 24km/h | 20369m | 4.4m/s | -52.1°C | 2.5% | 0hPa | 2.5V | 00:00:00 | 01:26:38 | 00:00:00 | |
| OK1SLM-15 | 2026-09-06 00:12:41 | 49.48168 | 15.58900 | 174° | 15km/h | 20369m | 4.5m/s | -52.1°C | 0% | 0hPa | 2.5V | 00:00:00 | 00:00:00 | 00:00:00 | |
| SONDE2-11 | 2026-09-06 00:12:40 | 49.48182 | 15.58900 | 184° | 22km/h | 20351m | 3.8m/s | -52.0°C | 0.0% | -1.0hPa | 2.5V | 00:00:00 | 00:00:00 | 00:00:00 | |
| OE5DRO-10 | 2026-09-06 00:12:39 | 49.48182 | 15.58900 | 185° | 22km/h | 20351m | 3.7m/s | -51.9°C | 2.5% | 0hPa | 2.5V | 00:00:00 | 00:00:00 | 00:00:00 | |
| OE3MUC-15 | 2026-09-06 00:12:38 | 49.48188 | 15.58901 | 184° | 24km/h | 20346m | 5.7m/s | -51.9°C | 2.5% | 0hPa | 2.5V | 00:00:00 | 00:00:00 | 00:00:00 | |
| OE5DXL-15 | 2026-09-06 00:12:37 | 49.48194 | 15.58901 | 180° | 26km/h | 20340m | 6.0m/s | -51.8°C | 2.5% | 0hPa | 2.6V | 00:00:00 | 00:00:00 | 00:00:00 | |
| EDDB2-11 | 2026-09-06 00:12:36 | 49.48207 | 15.58901 | 182° | 27km/h | 20329m | 6.9m/s | -51.8°C | 0.0% | -1.0hPa | 2.6V | 00:00:00 | 00:00:00 | 00:00:00 | |
| PETON7-10 | 2026-09-06 00:12:35 | 49.48206 | 15.58901 | 183° | 22km/h | 20329m | 6.9m/s | -51.7°C | 2.5% | 0hPa | 2.6V | 00:00:00 | 00:00:00 | 00:00:00 | |
| OE3MUC-15 | 2026-09-06 00:12:34 | 49.48214 | 15.58902 | 187° | 27km/h | 20323m | 6.1m/s | -51.7°C | 2.5% | 0hPa | 2.6V | 00:00:00 | 00:00:00 | 00:00:00 | |
| DO3MHA-11 | 2026-09-06 00:12:32 | 49.48228 | 15.58905 | 189° | 20km/h | 20312m | 5.0m/s | -51.6°C | 2.5% | 0hPa | 2.6V | 00:00:00 | 01:26:28 | 00:00:00 | |
| OE3JTB-15 | 2026-09-06 00:12:31 | 49.48234 | 15.58907 | 190° | 29km/h | 20307m | 6.7m/s | -51.6°C | 2.5% | 0hPa | 2.6V | 00:00:00 | 00:00:00 | 00:00:00 | |
| OE3MUC-15 | 2026-09-06 00:12:30 | 49.48239 | 15.58908 | 192° | 18km/h | 20301m | 5.3m/s | -51.6°C | 2.5% | 0hPa | 2.6V | 00:00:00 | 00:00:00 | 00:00:00 | |
| EDDB2-12 | 2026-09-06 00:12:28 | 49.48252 | 15.58912 | 189° | 18km/h | 20284m | 4.8m/s | -51.5°C | 0.0% | -1.0hPa | 2.6V | 00:00:00 | 00:00:00 | 00:00:00 | |
| OE3MUC-15 | 2026-09-06 00:12:26 | 49.48257 | 15.58913 | 179° | 18km/h | 20279m | 5.7m/s | -51.4°C | 2.4% | 0hPa | 2.6V | 00:00:00 | 00:00:00 | 00:00:00 | |
| OE5MMP-10 | 2026-09-06 00:12:25 | 49.48261 | 15.58912 | 169° | 27km/h | 20273m | 6.9m/s | -51.4°C | 2.4% | 0hPa | 2.5V | 00:00:00 | 01:26:21 | 08:30:00 | |
| OK1ALN | 2026-09-06 00:12:24 | 49.48261 | 15.58912 | 170° | 16km/h | 20273m | 6.9m/s | -51.4°C | 0.1% | 0hPa | 2.6V | 00:00:00 | 00:00:00 | 00:00:00 | |
| DO3MHA-11 | 2026-09-06 00:12:22 | 49.48276 | 15.58910 | 189° | 29km/h | 20258m | 7.2m/s | -51.4°C | 2.4% | 0hPa | 2.6V | 00:00:00 | 01:26:18 | 08:30:00 | |
| DB0ND-19 | 2026-09-06 00:12:20 | 49.48298 | 15.58923 | 205° | 33km/h | 20239m | 6.1m/s | -51.4°C | 0.1% | -1.0hPa | 2.6V | 00:00:00 | 00:00:00 | 00:00:00 | |
| NBG1-10 | 2026-09-06 00:12:19 | 49.48298 | 15.58923 | 206° | 37km/h | 20240m | 6.0m/s | -51.4°C | 2.4% | 0hPa | 2.6V | 00:00:00 | 01:26:15 | 00:00:00 | |
| DF3TZ-5 | 2026-09-06 00:12:18 | 49.48313 | 15.58932 | 192° | 29km/h | 20227m | 5.4m/s | -51.3°C | 0.1% | -1.0hPa | 2.6V | 00:00:00 | 00:00:00 | 00:00:00 | |
| PG1ADW-2 | 2026-09-06 00:12:17 | 49.48313 | 15.58932 | 193° | 33km/h | 20227m | 5.4m/s | -51.3°C | 2.4% | 0hPa | 2.6V | 00:00:00 | 00:00:00 | 00:00:00 | |
| OE5MMP-10 | 2026-09-06 00:12:15 | 49.48328 | 15.58934 | 180° | 27km/h | 20216m | 7.0m/s | -51.2°C | 2.3% | 0hPa | 2.6V | 00:00:00 | 01:26:11 | 00:00:00 | |
| OE3MUC-15 | 2026-09-06 00:12:14 | 49.48335 | 15.58933 | 178° | 22km/h | 20209m | 6.8m/s | -51.2°C | 2.3% | 0hPa | 2.6V | 00:00:00 | 00:00:00 | 08:30:00 | |
| DO3MHA-11 | 2026-09-06 00:12:12 | 49.48347 | 15.58933 | 174° | 31km/h | 20195m | 5.4m/s | -51.1°C | 2.3% | 0hPa | 2.5V | 00:00:00 | 01:26:08 | 00:00:00 | |
| OE3MUC-15 | 2026-09-06 00:12:10 | 49.48357 | 15.58928 | 151° | 29km/h | 20182m | 6.5m/s | -51.1°C | 2.3% | 0hPa | 2.5V | 00:00:00 | 01:26:06 | 00:00:00 | |
| SONDE2-11 | 2026-09-06 00:12:09 | 49.48370 | 15.58918 | 156° | 31km/h | 20170m | 6.6m/s | -51.3°C | 0.1% | -1.0hPa | 2.5V | 00:00:00 | 00:00:00 | 00:00:00 | |
| OE5DXL-15 | 2026-09-06 00:12:07 | 49.48377 | 15.58914 | 164° | 44km/h | 20163m | 7.8m/s | -51.2°C | 2.3% | 0hPa | 2.5V | 00:00:00 | 00:00:00 | 00:00:00 | |
| OE3MUC-15 | 2026-09-06 00:12:06 | 49.48386 | 15.58910 | 170° | 40km/h | 20156m | 5.9m/s | -51.2°C | 2.3% | 0hPa | 2.5V | 00:00:00 | 00:00:00 | 00:00:00 | |
| OE5MMP-10 | 2026-09-06 00:12:05 | 49.48395 | 15.58908 | 170° | 38km/h | 20152m | 4.1m/s | -51.3°C | 2.3% | 0hPa | 2.5V | 00:00:00 | 01:26:01 | 00:00:00 | |
| OK1ALN | 2026-09-06 00:12:04 | 49.48395 | 15.58908 | 171° | 38km/h | 20152m | 4.1m/s | -51.3°C | 0.2% | 0hPa | 2.5V | 00:00:00 | 00:00:00 | 00:00:00 | |
| OE3MUC-15 | 2026-09-06 00:12:02 | 49.48425 | 15.58892 | 150° | 38km/h | 20134m | 7.7m/s | -51.5°C | 2.3% | 0hPa | 2.5V | 00:00:00 | 00:00:00 | 00:00:00 | |
| EDDB2-12 | 2026-09-06 00:11:57 | 49.48475 | 15.58851 | 164° | 40km/h | 20096m | 4.9m/s | -52.0°C | 0.1% | -1.0hPa | 2.5V | 00:00:00 | 00:00:00 | 00:00:00 | |
| DB0ND-19 | 2026-09-06 00:11:49 | 49.48551 | 15.58784 | 139° | 47km/h | 20047m | 5.9m/s | 0°C | -1.0% | -1.0hPa | 2.5V | 00:00:00 | 00:00:00 | 00:00:00 | |
| DF3TZ-5 | 2026-09-06 00:11:47 | 49.48576 | 15.58746 | 132° | 46km/h | 20027m | 5.3m/s | 0°C | -1.0% | -1.0hPa | 2.5V | 00:00:00 | 00:00:00 | 00:00:00 | |
| OE3MUC-15 | 2026-09-06 00:11:46 | 49.48568 | 15.58759 | 135° | 49km/h | 20033m | 6.5m/s | -53.4°C | 2.6% | 0hPa | 2.5V | 00:00:00 | 00:00:00 | 00:00:00 | |
| OE5MMP-10 | 2026-09-06 00:11:45 | 49.48576 | 15.58746 | 133° | 53km/h | 20027m | 5.3m/s | -53.5°C | 2.6% | 0hPa | 2.5V | 00:00:00 | 01:25:41 | 00:00:00 | |
| OK1ALN | 2026-09-06 00:11:44 | 49.48576 | 15.58746 | 133° | 47km/h | 20027m | 5.3m/s | -53.5°C | 0.2% | 0hPa | 2.5V | 00:00:00 | 00:00:00 | 00:00:00 | |
| HA6NAB-11 | 2026-09-06 00:11:43 | 49.48584 | 15.58732 | 133° | 51km/h | 20021m | 6.5m/s | -53.6°C | 0.3% | 0hPa | 2.5V | 00:00:00 | 00:00:00 | 00:00:00 | |
| DO3MHA-11 | 2026-09-06 00:11:42 | 49.48601 | 15.58700 | 128° | 53km/h | 20012m | 4.2m/s | -53.6°C | 2.7% | 0hPa | 2.5V | 00:00:00 | 01:25:38 | 00:00:00 | |
| SONDE2-11 | 2026-09-06 00:11:38 | 49.48636 | 15.58613 | 119° | 55km/h | 19985m | 4.5m/s | -53.8°C | 0.1% | -1.0hPa | 2.5V | 00:00:00 | 00:00:00 | 00:00:00 | |
| PG1ADW-2 | 2026-09-06 00:11:37 | 49.48636 | 15.58613 | 120° | 49km/h | 19985m | 4.4m/s | -53.7°C | 2.6% | 0hPa | 2.5V | 00:00:00 | 00:00:00 | 00:00:00 | |
| OK1SLM-15 | 2026-09-06 00:11:36 | 49.48636 | 15.58613 | 120° | 55km/h | 19985m | 4.5m/s | -53.8°C | 0% | 0hPa | 2.5V | 00:00:00 | 00:00:00 | 00:00:00 | |
| PETON7-10 | 2026-09-06 00:11:35 | 49.48649 | 15.58577 | 119° | 49km/h | 19975m | 5.6m/s | -53.8°C | 2.6% | 0hPa | 2.5V | 00:00:00 | 01:25:31 | 00:00:00 | |
| OE3JTB-15 | 2026-09-06 00:11:33 | 49.48662 | 15.58543 | 125° | 47km/h | 19965m | 4.9m/s | -53.9°C | 2.7% | 0hPa | 2.5V | 00:00:00 | 00:00:00 | 00:00:00 | |
| DO3MHA-11 | 2026-09-06 00:11:32 | 49.48670 | 15.58527 | 129° | 47km/h | 19960m | 6.1m/s | -53.9°C | 2.6% | 0hPa | 2.6V | 00:00:00 | 01:25:28 | 00:00:00 | |
| OK1SLM-15 | 2026-09-06 00:11:30 | 49.48678 | 15.58512 | 133° | 51km/h | 19955m | 3.7m/s | -54.2°C | 0% | 0hPa | 2.6V | 00:00:00 | 00:00:00 | 00:00:00 | |
| HA6NAB-11 | 2026-09-06 00:11:27 | 49.48701 | 15.58470 | 124° | 44km/h | 19941m | 4.4m/s | -54.4°C | 0.3% | 0hPa | 2.6V | 00:00:00 | 00:00:00 | 00:00:00 | |
| OE5MMP-10 | 2026-09-06 00:11:25 | 49.48717 | 15.58420 | 110° | 46km/h | 19926m | 3.8m/s | -54.3°C | 2.8% | 0hPa | 2.6V | 00:00:00 | 01:25:21 | 00:00:00 | |
| SP3BTT-10 | 2026-09-06 00:11:23 | 49.48724 | 15.58384 | 102° | 47km/h | 19916m | 5.9m/s | -54.3°C | 2.8% | 0hPa | 2.5V | 00:00:00 | 00:00:00 | 00:00:00 | |
| DO3MHA-11 | 2026-09-06 00:11:22 | 49.48726 | 15.58366 | 102° | 46km/h | 19911m | 4.1m/s | -54.4°C | 2.8% | 0hPa | 2.5V | 00:00:00 | 01:25:18 | 00:00:00 | |
| HA6NAB-11 | 2026-09-06 00:11:21 | 49.48726 | 15.58366 | 103° | 47km/h | 19911m | 4.1m/s | -54.4°C | 0.4% | 0hPa | 2.6V | 00:00:00 | 00:00:00 | 00:00:00 | |
| PETON7-10 | 2026-09-06 00:11:20 | 49.48732 | 15.58331 | 111° | 46km/h | 19902m | 5.2m/s | -54.5°C | 2.8% | 0hPa | 2.6V | 00:00:00 | 00:00:00 | 08:30:00 | |
| DB0ND-19 | 2026-09-06 00:11:18 | 49.48747 | 15.58283 | 118° | 40km/h | 19886m | 5.5m/s | 0°C | -1.0% | -1.0hPa | 2.6V | 00:00:00 | 00:00:00 | 00:00:00 | |
| PG1ADW-2 | 2026-09-06 00:11:17 | 49.48747 | 15.58283 | 119° | 46km/h | 19886m | 5.4m/s | -54.6°C | 2.8% | 0hPa | 2.6V | 00:00:00 | 00:00:00 | 00:00:00 | |
| OE5MMP-10 | 2026-09-06 00:11:15 | 49.48758 | 15.58255 | 125° | 46km/h | 19875m | 6.2m/s | -54.6°C | 2.8% | 0hPa | 2.6V | 00:00:00 | 01:25:11 | 00:00:00 | |
| OE3MUC-15 | 2026-09-06 00:11:14 | 49.48764 | 15.58241 | 125° | 44km/h | 19870m | 3.9m/s | -54.7°C | 2.8% | 0hPa | 2.6V | 00:00:00 | 00:00:00 | 00:00:00 | |
| NBG1-10 | 2026-09-06 00:11:13 | 49.48770 | 15.58226 | 122° | 46km/h | 19866m | 3.6m/s | -54.8°C | 2.8% | 0hPa | 2.6V | 00:00:00 | 01:25:09 | 00:00:00 | |
| DO3MHA-11 | 2026-09-06 00:11:12 | 49.48776 | 15.58212 | 120° | 47km/h | 19861m | 6.2m/s | -54.9°C | 2.8% | 0hPa | 2.6V | 00:00:00 | 01:25:08 | 00:00:00 | |
| OE3MUC-15 | 2026-09-06 00:11:10 | 49.48785 | 15.58182 | 113° | 47km/h | 19851m | 4.4m/s | -55.1°C | 2.9% | 0hPa | 2.6V | 00:00:00 | 00:00:00 | 00:00:00 | |
| DB0UT-7 | 2026-09-06 00:11:08 | 49.48794 | 15.58148 | 112° | 46km/h | 19841m | 4.4m/s | -55.3°C | 2.9% | 0hPa | 2.6V | 00:00:00 | 00:00:00 | 00:00:00 | |
| SONDE2-11 | 2026-09-06 00:11:07 | 49.48803 | 15.58113 | 110° | 47km/h | 19830m | 5.7m/s | -55.6°C | 0.2% | -1.0hPa | 2.6V | 00:00:00 | 00:00:00 | 00:00:00 | |
| OE3MUC-15 | 2026-09-06 00:11:06 | 49.48803 | 15.58112 | 111° | 49km/h | 19831m | 5.7m/s | -55.5°C | 3.0% | 0hPa | 2.6V | 00:00:00 | 00:00:00 | 00:00:00 | |
| OE5MMP-10 | 2026-09-06 00:11:05 | 49.48807 | 15.58095 | 111° | 46km/h | 19825m | 4.7m/s | -55.5°C | 3.0% | 0hPa | 2.6V | 00:00:00 | 01:25:01 | 00:00:00 | |
| OE5DRO-10 | 2026-09-06 00:11:04 | 49.48812 | 15.58077 | 113° | 46km/h | 19820m | 6.1m/s | -55.5°C | 3.0% | 0hPa | 2.6V | 00:00:00 | 00:00:00 | 08:30:00 | |
| OE3JTB-15 | 2026-09-06 00:11:03 | 49.48817 | 15.58059 | 115° | 51km/h | 19814m | 4.5m/s | -55.4°C | 3.0% | 0hPa | 2.5V | 00:00:00 | 00:00:00 | 00:00:00 | |
| DO3MHA-11 | 2026-09-06 00:11:02 | 49.48822 | 15.58042 | 116° | 44km/h | 19810m | 4.1m/s | -55.4°C | 3.0% | 0hPa | 2.5V | 00:00:00 | 01:24:58 | 00:00:00 | |
| S52SK | 2026-09-06 00:10:59 | 49.48832 | 15.58009 | 118° | 42km/h | 19800m | 4.9m/s | -55.3°C | 0.3% | 0hPa | 2.5V | 00:00:00 | 00:00:00 | 00:00:00 | |
| OE3MUC-15 | 2026-09-06 00:10:58 | 49.48842 | 15.57980 | 119° | 42km/h | 19790m | 5.9m/s | -55.2°C | 3.0% | 0hPa | 2.5V | 00:00:00 | 00:00:00 | 00:00:00 | |
| PG1ADW-2 | 2026-09-06 00:10:57 | 49.48847 | 15.57966 | 119° | 47km/h | 19785m | 4.8m/s | -55.2°C | 2.9% | 0hPa | 2.5V | 00:00:00 | 00:00:00 | 00:00:00 | |
| OE5MMP-10 | 2026-09-06 00:10:55 | 49.48857 | 15.57937 | 116° | 47km/h | 19775m | 5.7m/s | -55.1°C | 2.9% | 0hPa | 2.5V | 00:00:00 | 01:24:51 | 08:30:00 | |
| OE3MUC-15 | 2026-09-06 00:10:54 | 49.48861 | 15.57922 | 114° | 46km/h | 19770m | 4.9m/s | -55.1°C | 2.9% | 0hPa | 2.5V | 00:00:00 | 00:00:00 | 00:00:00 | |
| S52SK | 2026-09-06 00:10:53 | 49.48861 | 15.57922 | 114° | 40km/h | 19770m | 5.0m/s | -55.1°C | 0.3% | 0hPa | 2.5V | 00:00:00 | 00:00:00 | 00:00:00 | |
| DO3MHA-11 | 2026-09-06 00:10:52 | 49.48869 | 15.57891 | 111° | 49km/h | 19760m | 6.1m/s | -55.1°C | 2.9% | 0hPa | 2.5V | 00:00:00 | 01:24:48 | 08:30:00 | |
| OE3MUC-15 | 2026-09-06 00:10:50 | 49.48877 | 15.57855 | 109° | 49km/h | 19750m | 4.2m/s | -55.3°C | 2.9% | 0hPa | 2.6V | 00:00:00 | 00:00:00 | 00:00:00 | |
| OE3MUC-15 | 2026-09-06 00:10:46 | 49.48893 | 15.57783 | 111° | 49km/h | 19729m | 5.5m/s | -55.6°C | 3.0% | 0hPa | 2.6V | 00:00:00 | 00:00:00 | 00:00:00 | |
| OE5MMP-10 | 2026-09-06 00:10:45 | 49.48898 | 15.57765 | 114° | 47km/h | 19723m | 5.5m/s | -55.6°C | 3.0% | 0hPa | 2.6V | 00:00:00 | 01:24:41 | 00:00:00 | |
| OE3MUC-15 | 2026-09-06 00:10:42 | 49.48914 | 15.57714 | 119° | 46km/h | 19707m | 5.7m/s | -55.8°C | 3.1% | 0hPa | 2.6V | 00:00:00 | 00:00:00 | 00:00:00 | |
| NBG1-10 | 2026-09-06 00:10:40 | 49.48925 | 15.57683 | 119° | 49km/h | 19696m | 5.9m/s | -55.8°C | 3.1% | 0hPa | 2.6V | 00:00:00 | 01:24:36 | 00:00:00 | |
| OE3MUC-15 | 2026-09-06 00:10:38 | 49.48936 | 15.57650 | 117° | 47km/h | 19687m | 4.5m/s | -55.7°C | 3.1% | 0hPa | 2.6V | 00:00:00 | 00:00:00 | 00:00:00 | |
| PG1ADW-2 | 2026-09-06 00:10:37 | 49.48941 | 15.57634 | 115° | 49km/h | 19681m | 6.2m/s | -55.7°C | 3.1% | 0hPa | 2.5V | 00:00:00 | 01:24:33 | 00:00:00 | |
| SONDE2-11 | 2026-09-06 00:10:36 | 49.48950 | 15.57600 | 111° | 49km/h | 19671m | 4.6m/s | -55.8°C | 0.2% | -1.0hPa | 2.5V | 00:00:00 | 00:00:00 | 00:00:00 | |
| OE5MMP-10 | 2026-09-06 00:10:35 | 49.48950 | 15.57600 | 112° | 53km/h | 19671m | 4.5m/s | -55.7°C | 3.1% | 0hPa | 2.5V | 00:00:00 | 01:24:31 | 00:00:00 | |
| OE3MUC-15 | 2026-09-06 00:10:34 | 49.48955 | 15.57581 | 112° | 57km/h | 19666m | 6.1m/s | -55.7°C | 3.1% | 0hPa | 2.5V | 00:00:00 | 00:00:00 | 00:00:00 | |
| OK1SLM-15 | 2026-09-06 00:10:33 | 49.48955 | 15.57581 | 113° | 55km/h | 19666m | 6.1m/s | -55.7°C | 0% | 0hPa | 2.5V | 00:00:00 | 00:00:00 | 00:00:00 | |
| DO3MHA-11 | 2026-09-06 00:10:32 | 49.48966 | 15.57541 | 113° | 49km/h | 19656m | 5.4m/s | -55.7°C | 3.1% | 0hPa | 2.5V | 00:00:00 | 01:24:28 | 00:00:00 | |
| EDDB2-11 | 2026-09-06 00:10:31 | 49.48971 | 15.57521 | 112° | 55km/h | 19650m | 6.2m/s | -55.7°C | 0.2% | -1.0hPa | 2.5V | 00:00:00 | 00:00:00 | 00:00:00 | |
| OE3MUC-15 | 2026-09-06 00:10:30 | 49.48977 | 15.57501 | 113° | 51km/h | 19644m | 4.8m/s | -55.6°C | 3.1% | 0hPa | 2.5V | 00:00:00 | 00:00:00 | 00:00:00 | |
| OE3JTB-15 | 2026-09-06 00:10:29 | 49.48982 | 15.57482 | 113° | 47km/h | 19639m | 5.6m/s | -55.6°C | 3.0% | 0hPa | 2.5V | 00:00:00 | 01:24:25 | 00:00:00 | |
| OK1SLM-15 | 2026-09-06 00:10:27 | 49.48986 | 15.57463 | 112° | 51km/h | 19633m | 5.3m/s | -55.6°C | 0% | 0hPa | 2.5V | 00:00:00 | 00:00:00 | 00:00:00 | |
| OE3MUC-15 | 2026-09-06 00:10:26 | 49.48995 | 15.57428 | 107° | 44km/h | 19623m | 6.3m/s | -55.5°C | 3.0% | 0hPa | 2.5V | 00:00:00 | 00:00:00 | 08:30:00 | |
| OE5MMP-10 | 2026-09-06 00:10:25 | 49.48997 | 15.57412 | 103° | 47km/h | 19617m | 4.7m/s | -55.5°C | 3.0% | 0hPa | 2.5V | 00:00:00 | 01:24:21 | 00:00:00 | |
| HARRO8 | 2026-09-06 00:10:23 | 49.49002 | 15.57380 | 103° | 44km/h | 19607m | 5.7m/s | -55.5°C | -1.0% | -1.0hPa | 2.6V | 00:00:00 | 00:00:00 | 00:00:00 | |
| DO3MHA-11 | 2026-09-06 00:10:22 | 49.49005 | 15.57363 | 107° | 49km/h | 19602m | 5.6m/s | -55.5°C | 3.0% | 0hPa | 2.6V | 00:00:00 | 01:24:18 | 00:00:00 | |
| PETON7-10 | 2026-09-06 00:10:20 | 49.49013 | 15.57326 | 110° | 47km/h | 19592m | 6.2m/s | -55.5°C | 3.0% | 0hPa | 2.5V | 00:00:00 | 00:00:00 | 00:00:00 | |
| OE3MUC-15 | 2026-09-06 00:10:18 | 49.49022 | 15.57290 | 114° | 51km/h | 19579m | 5.1m/s | -55.6°C | 3.0% | 0hPa | 2.5V | 00:00:00 | 00:00:00 | 00:00:00 | |
| PG1ADW-2 | 2026-09-06 00:10:17 | 49.49028 | 15.57272 | 117° | 47km/h | 19574m | 6.6m/s | -55.7°C | 3.0% | 0hPa | 2.5V | 00:00:00 | 00:00:00 | 00:00:00 | |
| OE5MMP-10 | 2026-09-06 00:10:15 | 49.49039 | 15.57235 | 115° | 44km/h | 19564m | 4.8m/s | -55.7°C | 3.1% | 0hPa | 2.5V | 00:00:00 | 01:24:11 | 00:00:00 | |
| OE3MUC-15 | 2026-09-06 00:10:14 | 49.49044 | 15.57218 | 111° | 44km/h | 19558m | 7.1m/s | -55.7°C | 3.1% | 0hPa | 2.5V | 00:00:00 | 00:00:00 | 00:00:00 | |
| DF3TZ-5 | 2026-09-06 00:10:13 | 49.49049 | 15.57185 | 97° | 42km/h | 19547m | 5.3m/s | 0°C | -1.0% | -1.0hPa | 2.5V | 00:00:00 | 00:00:00 | 00:00:00 | |
| DO3MHA-11 | 2026-09-06 00:10:12 | 49.49049 | 15.57184 | 98° | 46km/h | 19547m | 5.2m/s | -55.6°C | 3.1% | 0hPa | 2.5V | 00:00:00 | 01:24:08 | 00:00:00 | |
| OE3MUC-15 | 2026-09-06 00:10:10 | 49.49051 | 15.57150 | 95° | 42km/h | 19536m | 4.5m/s | -55.6°C | 3.1% | 0hPa | 2.5V | 00:00:00 | 00:00:00 | 00:00:00 | |
| SP3BTT-10 | 2026-09-06 00:10:09 | 49.49052 | 15.57134 | 94° | 42km/h | 19531m | 5.9m/s | -55.6°C | 3.0% | 0hPa | 2.5V | 00:00:00 | 00:00:00 | 00:00:00 | |
| NBG1-10 | 2026-09-06 00:10:07 | 49.49055 | 15.57101 | 103° | 44km/h | 19519m | 4.5m/s | -55.5°C | 3.0% | 0hPa | 2.6V | 00:00:00 | 01:24:03 | 08:30:00 | |
| OE3MUC-15 | 2026-09-06 00:10:06 | 49.49058 | 15.57084 | 108° | 49km/h | 19514m | 6.6m/s | -55.5°C | 3.0% | 0hPa | 2.5V | 00:00:00 | 00:00:00 | 00:00:00 | |
| OE5MMP-10 | 2026-09-06 00:10:05 | 49.49062 | 15.57067 | 115° | 46km/h | 19508m | 5.0m/s | -55.5°C | 3.0% | 0hPa | 2.5V | 00:00:00 | 01:24:01 | 00:00:00 | |
| SONDE2-11 | 2026-09-06 00:10:04 | 49.49068 | 15.57050 | 117° | 51km/h | 19503m | 4.4m/s | -55.5°C | 0.2% | -1.0hPa | 2.5V | 00:00:00 | 00:00:00 | 00:00:00 | |
| OE3JTB-15 | 2026-09-06 00:10:00 | 49.49087 | 15.56981 | 105° | 44km/h | 19482m | 5.2m/s | -55.3°C | 3.0% | 0hPa | 2.5V | 00:00:00 | 00:00:00 | 00:00:00 | |
| OE3MUC-15 | 2026-09-06 00:09:58 | 49.49090 | 15.56945 | 92° | 42km/h | 19471m | 5.3m/s | -55.2°C | 2.9% | 0hPa | 2.6V | 00:00:00 | 00:00:00 | 00:00:00 | |
| PG1ADW-2 | 2026-09-06 00:09:57 | 49.49090 | 15.56929 | 88° | 44km/h | 19465m | 7.0m/s | -55.3°C | 3.0% | 0hPa | 2.6V | 00:00:00 | 00:00:00 | 08:30:00 | |
| OE5MMP-10 | 2026-09-06 00:09:55 | 49.49088 | 15.56898 | 83° | 46km/h | 19454m | 4.8m/s | -55.3°C | 2.9% | 0hPa | 2.6V | 00:00:00 | 01:23:51 | 00:00:00 | |
| OE3MUC-15 | 2026-09-06 00:09:54 | 49.49087 | 15.56882 | 85° | 44km/h | 19448m | 6.1m/s | -55.3°C | 2.9% | 0hPa | 2.5V | 00:00:00 | 00:00:00 | 00:00:00 | |
| DO3MHA-11 | 2026-09-06 00:09:52 | 49.49087 | 15.56849 | 95° | 46km/h | 19437m | 4.7m/s | -55.2°C | 2.9% | 0hPa | 2.5V | 00:00:00 | 01:23:48 | 00:00:00 | |
| PETON7-10 | 2026-09-06 00:09:50 | 49.49090 | 15.56814 | 101° | 44km/h | 19426m | 5.6m/s | -55.2°C | 2.9% | 0hPa | 2.6V | 00:00:00 | 00:00:00 | 00:00:00 | |
| OE5DRO-10 | 2026-09-06 00:09:48 | 49.49094 | 15.56780 | 100° | 44km/h | 19415m | 5.8m/s | -55.2°C | 2.9% | 0hPa | 2.5V | 00:00:00 | 00:00:00 | 00:00:00 | |
| OE3MUC-15 | 2026-09-06 00:09:46 | 49.49096 | 15.56743 | 91° | 44km/h | 19404m | 4.8m/s | -55.1°C | 2.9% | 0hPa | 2.5V | 00:00:00 | 00:00:00 | 00:00:00 | |
| OE5MMP-10 | 2026-09-06 00:09:45 | 49.49095 | 15.56725 | 88° | 42km/h | 19399m | 6.3m/s | -55.2°C | 2.9% | 0hPa | 2.5V | 00:00:00 | 01:23:41 | 00:00:00 | |
| DO3MHA-11 | 2026-09-06 00:09:42 | 49.49093 | 15.56676 | 85° | 42km/h | 19381m | 7.0m/s | -55.2°C | 2.9% | 0hPa | 2.5V | 00:00:00 | 01:23:38 | 00:00:00 | |
| OK1ALN | 2026-09-06 00:09:41 | 49.49093 | 15.56676 | 85° | 44km/h | 19381m | 7.0m/s | -55.3°C | 0.3% | 0hPa | 2.5V | 00:00:00 | 00:00:00 | 00:00:00 | |
| PG1ADW-2 | 2026-09-06 00:09:37 | 49.49092 | 15.56594 | 94° | 42km/h | 19351m | 6.5m/s | -56.1°C | 3.1% | 0hPa | 2.5V | 00:00:00 | 00:00:00 | 00:00:00 | |
| OE5MMP-10 | 2026-09-06 00:09:35 | 49.49094 | 15.56560 | 96° | 42km/h | 19340m | 4.4m/s | -56.0°C | 3.2% | 0hPa | 2.5V | 00:00:00 | 01:23:31 | 00:00:00 | |
| NBG1-10 | 2026-09-06 00:09:34 | 49.49095 | 15.56544 | 96° | 40km/h | 19335m | 6.8m/s | -56.0°C | 3.1% | 0hPa | 2.5V | 00:00:00 | 01:23:30 | 00:00:00 | |
| SONDE2-11 | 2026-09-06 00:09:33 | 49.49096 | 15.56528 | 92° | 40km/h | 19329m | 5.6m/s | -56.0°C | 0.2% | -1.0hPa | 2.5V | 00:00:00 | 00:00:00 | 00:00:00 | |
| DO3MHA-11 | 2026-09-06 00:09:32 | 49.49096 | 15.56512 | 90° | 40km/h | 19323m | 5.9m/s | -55.9°C | 3.1% | 0hPa | 2.5V | 00:00:00 | 01:23:28 | 00:00:00 | |
| OE3JTB-15 | 2026-09-06 00:09:31 | 49.49096 | 15.56495 | 85° | 40km/h | 19317m | 5.9m/s | -55.8°C | 3.1% | 0hPa | 2.5V | 00:00:00 | 00:00:00 | 00:00:00 | |
| EDDB2-11 | 2026-09-06 00:09:30 | 49.49093 | 15.56461 | 79° | 42km/h | 19305m | 7.3m/s | -55.8°C | 0.2% | -1.0hPa | 2.5V | 00:00:00 | 00:00:00 | 00:00:00 | |
| OE5DRO-10 | 2026-09-06 00:09:29 | 49.49093 | 15.56461 | 80° | 40km/h | 19305m | 7.2m/s | -55.7°C | 3.1% | 0hPa | 2.5V | 00:00:00 | 00:00:00 | 00:00:00 | |
| S52SK | 2026-09-06 00:09:28 | 49.49093 | 15.56461 | 80° | 42km/h | 19305m | 7.3m/s | -55.8°C | 0.3% | 0hPa | 2.5V | 00:00:00 | 00:00:00 | 00:00:00 | |
| DB0UT-7 | 2026-09-06 00:09:25 | 49.49083 | 15.56404 | 73° | 38km/h | 19282m | 5.5m/s | -55.6°C | 3.1% | 0hPa | 2.5V | 00:00:00 | 00:00:00 | 00:00:00 | |
| OK1SLM-15 | 2026-09-06 00:09:24 | 49.49083 | 15.56404 | 73° | 38km/h | 19282m | 5.6m/s | -55.6°C | 0% | 0hPa | 2.6V | 00:00:00 | 00:00:00 | 00:00:00 | |
| DO3MHA-11 | 2026-09-06 00:09:22 | 49.49074 | 15.56362 | 72° | 42km/h | 19263m | 5.5m/s | -55.4°C | 3.1% | 0hPa | 2.6V | 00:00:00 | 01:23:18 | 08:30:00 | |
| EDDB2-12 | 2026-09-06 00:09:21 | 49.49071 | 15.56347 | 73° | 42km/h | 19256m | 7.1m/s | -55.4°C | 0.2% | -1.0hPa | 2.5V | 00:00:00 | 00:00:00 | 00:00:00 | |
| PETON7-10 | 2026-09-06 00:09:20 | 49.49068 | 15.56331 | 76° | 40km/h | 19250m | 5.7m/s | -55.4°C | 3.0% | 0hPa | 2.5V | 00:00:00 | 01:23:16 | 00:00:00 | |
| OK1SLM-15 | 2026-09-06 00:09:19 | 49.49068 | 15.56331 | 77° | 46km/h | 19250m | 5.8m/s | -55.4°C | 0% | 0hPa | 2.5V | 00:00:00 | 00:00:00 | 00:00:00 | |
| S52SK | 2026-09-06 00:09:18 | 49.49062 | 15.56297 | 78° | 44km/h | 19239m | 6.6m/s | -55.4°C | 0.3% | 0hPa | 2.5V | 00:00:00 | 00:00:00 | 00:00:00 | |
| PG1ADW-2 | 2026-09-06 00:09:17 | 49.49060 | 15.56281 | 75° | 38km/h | 19233m | 6.4m/s | -55.3°C | 3.0% | 0hPa | 2.5V | 00:00:00 | 01:23:13 | 00:00:00 | |
| OE5MMP-10 | 2026-09-06 00:09:15 | 49.49054 | 15.56251 | 75° | 38km/h | 19220m | 7.0m/s | -55.2°C | 3.0% | 0hPa | 2.5V | 00:00:00 | 01:23:11 | 00:00:00 | |
| OE3MUC-15 | 2026-09-06 00:09:14 | 49.49051 | 15.56236 | 77° | 37km/h | 19214m | 5.7m/s | -55.2°C | 3.0% | 0hPa | 2.5V | 00:00:00 | 01:23:10 | 08:30:00 | |
| DO3MHA-11 | 2026-09-06 00:09:12 | 49.49047 | 15.56208 | 77° | 38km/h | 19202m | 7.2m/s | -55.1°C | 2.9% | 0hPa | 2.6V | 00:00:00 | 01:23:08 | 00:00:00 | |
| DF3TZ-5 | 2026-09-06 00:09:11 | 49.49045 | 15.56196 | 76° | 31km/h | 19195m | 5.5m/s | 0°C | -1.0% | -1.0hPa | 2.6V | 00:00:00 | 00:00:00 | 00:00:00 | |
| OE3MUC-15 | 2026-09-06 00:09:10 | 49.49043 | 15.56183 | 79° | 38km/h | 19190m | 5.1m/s | -55.0°C | 2.9% | 0hPa | 2.6V | 00:00:00 | 00:00:00 | 00:00:00 | |
| OE3MUC-15 | 2026-09-06 00:09:06 | 49.49037 | 15.56124 | 79° | 42km/h | 19167m | 7.7m/s | -54.8°C | 2.8% | 0hPa | 2.6V | 00:00:00 | 00:00:00 | 00:00:00 | |
| PETON7-10 | 2026-09-06 00:09:05 | 49.49035 | 15.56109 | 78° | 40km/h | 19160m | 5.7m/s | -54.8°C | 2.8% | 0hPa | 2.6V | 00:00:00 | 00:00:00 | 08:30:00 | |
| DO3MHA-11 | 2026-09-06 00:09:02 | 49.49029 | 15.56061 | 82° | 40km/h | 19143m | 4.8m/s | -54.7°C | 2.8% | 0hPa | 2.5V | 00:00:00 | 01:22:58 | 00:00:00 | |
| NBG1-10 | 2026-09-06 00:09:01 | 49.49027 | 15.56045 | 84° | 42km/h | 19137m | 6.6m/s | -54.7°C | 2.8% | 0hPa | 2.5V | 00:00:00 | 01:22:57 | 00:00:00 | |
| OE3MUC-15 | 2026-09-06 00:08:58 | 49.49027 | 15.56002 | 96° | 40km/h | 19118m | 6.5m/s | -54.8°C | 2.8% | 0hPa | 2.5V | 00:00:00 | 00:00:00 | 00:00:00 | |
| PG1ADW-2 | 2026-09-06 00:08:57 | 49.49028 | 15.55987 | 100° | 44km/h | 19112m | 6.4m/s | -55.0°C | 2.9% | 0hPa | 2.5V | 00:00:00 | 00:00:00 | 00:00:00 | |
| OE5MMP-10 | 2026-09-06 00:08:55 | 49.49032 | 15.55955 | 101° | 40km/h | 19100m | 6.3m/s | -55.2°C | 2.9% | 0hPa | 2.5V | 00:00:00 | 01:22:51 | 00:00:00 | |
| OE3MUC-15 | 2026-09-06 00:08:54 | 49.49033 | 15.55940 | 99° | 40km/h | 19093m | 7.1m/s | -55.2°C | 2.9% | 0hPa | 2.6V | 00:00:00 | 00:00:00 | 00:00:00 | |
| DO3MHA-11 | 2026-09-06 00:08:52 | 49.49035 | 15.55909 | 92° | 42km/h | 19081m | 6.6m/s | -55.2°C | 2.9% | 0hPa | 2.6V | 00:00:00 | 01:22:48 | 00:00:00 | |
| OE5DRO-10 | 2026-09-06 00:08:51 | 49.49035 | 15.55893 | 90° | 44km/h | 19075m | 6.6m/s | -55.1°C | 2.9% | 0hPa | 2.5V | 00:00:00 | 00:00:00 | 00:00:00 | |
| OE3MUC-15 | 2026-09-06 00:08:50 | 49.49035 | 15.55876 | 87° | 42km/h | 19069m | 4.4m/s | -55.1°C | 2.9% | 0hPa | 2.5V | 00:00:00 | 00:00:00 | 00:00:00 | |
| OE3MUC-15 | 2026-09-06 00:08:46 | 49.49034 | 15.55813 | 97° | 44km/h | 19045m | 6.5m/s | -55.1°C | 2.9% | 0hPa | 2.6V | 00:00:00 | 00:00:00 | 00:00:00 | |
| OE5MMP-10 | 2026-09-06 00:08:45 | 49.49036 | 15.55797 | 103° | 46km/h | 19038m | 5.2m/s | -55.1°C | 3.0% | 0hPa | 2.6V | 00:00:00 | 01:22:41 | 00:00:00 | |
| OE3MUC-15 | 2026-09-06 00:08:42 | 49.49045 | 15.55747 | 109° | 47km/h | 19020m | 5.0m/s | -55.1°C | 3.0% | 0hPa | 2.6V | 00:00:00 | 00:00:00 | 00:00:00 | |
| DF3TZ-5 | 2026-09-06 00:08:40 | 49.49053 | 15.55712 | 106° | 47km/h | 19009m | 7.3m/s | 0°C | -1.0% | -1.0hPa | 2.6V | 00:00:00 | 00:00:00 | 00:00:00 | |
| OE3MUC-15 | 2026-09-06 00:08:38 | 49.49059 | 15.55675 | 104° | 44km/h | 18998m | 4.2m/s | -55.0°C | 3.0% | 0hPa | 2.6V | 00:00:00 | 00:00:00 | 08:30:00 | |
| PG1ADW-2 | 2026-09-06 00:08:37 | 49.49062 | 15.55658 | 104° | 40km/h | 18993m | 6.7m/s | -55.0°C | 3.0% | 0hPa | 2.5V | 00:00:00 | 00:00:00 | 00:00:00 | |
| PETON7-10 | 2026-09-06 00:08:35 | 49.49067 | 15.55626 | 107° | 42km/h | 18980m | 5.6m/s | -54.9°C | 3.0% | 0hPa | 2.5V | 00:00:00 | 01:22:31 | 00:00:00 | |
| OE3MUC-15 | 2026-09-06 00:08:34 | 49.49070 | 15.55610 | 106° | 44km/h | 18974m | 6.1m/s | -54.8°C | 2.9% | 0hPa | 2.5V | 00:00:00 | 00:00:00 | 00:00:00 | |
| DO3MHA-11 | 2026-09-06 00:08:32 | 49.49075 | 15.55578 | 103° | 42km/h | 18963m | 4.6m/s | -54.7°C | 2.9% | 0hPa | 2.5V | 00:00:00 | 01:22:28 | 00:00:00 | |
| SONDE2-11 | 2026-09-06 00:08:31 | 49.49078 | 15.55561 | 104° | 42km/h | 18957m | 6.4m/s | -54.8°C | 0.2% | -1.0hPa | 2.5V | 00:00:00 | 00:00:00 | 00:00:00 | |
| OE3MUC-15 | 2026-09-06 00:08:30 | 49.49081 | 15.55546 | 105° | 42km/h | 18951m | 6.5m/s | -54.7°C | 2.9% | 0hPa | 2.5V | 00:00:00 | 00:00:00 | 00:00:00 | |
| OE3JTB-15 | 2026-09-06 00:08:29 | 49.49083 | 15.55531 | 106° | 37km/h | 18945m | 5.1m/s | -54.7°C | 2.9% | 0hPa | 2.5V | 00:00:00 | 00:00:00 | 08:30:00 | |
| NBG1-10 | 2026-09-06 00:08:28 | 49.49086 | 15.55515 | 104° | 37km/h | 18939m | 5.4m/s | -54.7°C | 2.9% | 0hPa | 2.5V | 00:00:00 | 01:22:24 | 00:00:00 | |
| EDDB2-11 | 2026-09-06 00:08:27 | 49.49089 | 15.55499 | 104° | 44km/h | 18933m | 7.1m/s | -54.8°C | 0.1% | -1.0hPa | 2.6V | 00:00:00 | 00:00:00 | 00:00:00 | |
| OE3MUC-15 | 2026-09-06 00:08:26 | 49.49092 | 15.55482 | 104° | 40km/h | 18927m | 5.1m/s | -54.7°C | 2.9% | 0hPa | 2.6V | 00:00:00 | 00:00:00 | 00:00:00 | |
| OE5MMP-10 | 2026-09-06 00:08:25 | 49.49094 | 15.55466 | 106° | 37km/h | 18921m | 6.9m/s | -54.6°C | 2.8% | 0hPa | 2.6V | 00:00:00 | 01:22:21 | 00:00:00 | |
| DO3MHA-11 | 2026-09-06 00:08:22 | 49.49101 | 15.55423 | 99° | 37km/h | 18902m | 6.5m/s | -54.4°C | 2.9% | 0hPa | 2.5V | 00:00:00 | 01:22:18 | 00:00:00 | |
| OK1SLM-15 | 2026-09-06 00:08:21 | 49.49101 | 15.55423 | 99° | 37km/h | 18902m | 6.6m/s | -54.5°C | 0% | 0hPa | 2.6V | 00:00:00 | 00:00:00 | 00:00:00 | |
| PETON7-10 | 2026-09-06 00:08:20 | 49.49102 | 15.55394 | 92° | 37km/h | 18890m | 5.4m/s | -54.4°C | 2.8% | 0hPa | 2.6V | 00:00:00 | 00:00:00 | 00:00:00 | |
| EDDB2-12 | 2026-09-06 00:08:19 | 49.49102 | 15.55381 | 88° | 33km/h | 18883m | 7.2m/s | -54.4°C | 0.1% | -1.0hPa | 2.6V | 00:00:00 | 00:00:00 | 00:00:00 | |
| OE3MUC-15 | 2026-09-06 00:08:18 | 49.49102 | 15.55368 | 87° | 38km/h | 18877m | 5.2m/s | -54.3°C | 2.9% | 0hPa | 2.6V | 00:00:00 | 00:00:00 | 00:00:00 | |
| PG1ADW-2 | 2026-09-06 00:08:17 | 49.49101 | 15.55354 | 89° | 37km/h | 18872m | 5.6m/s | -54.3°C | 2.9% | 0hPa | 2.6V | 00:00:00 | 00:00:00 | 00:00:00 | |
| OE5MMP-10 | 2026-09-06 00:08:15 | 49.49102 | 15.55323 | 95° | 37km/h | 18861m | 4.0m/s | -54.2°C | 2.9% | 0hPa | 2.6V | 00:00:00 | 01:22:11 | 00:00:00 | |
| OE3MUC-15 | 2026-09-06 00:08:14 | 49.49103 | 15.55308 | 97° | 38km/h | 18856m | 5.4m/s | -54.1°C | 2.8% | 0hPa | 2.6V | 00:00:00 | 00:00:00 | 00:00:00 | |
| OE5DRO-10 | 2026-09-06 00:08:13 | 49.49105 | 15.55293 | 100° | 37km/h | 18850m | 6.5m/s | -54.1°C | 2.9% | 0hPa | 2.6V | 00:00:00 | 00:00:00 | 08:30:00 | |
| DB0UT-7 | 2026-09-06 00:08:12 | 49.49106 | 15.55279 | 102° | 35km/h | 18845m | 5.7m/s | 0°C | 0% | 0hPa | 2.6V | 00:00:00 | 01:22:08 | 00:00:00 | |
| OE3MUC-15 | 2026-09-06 00:08:10 | 49.49110 | 15.55251 | 102° | 35km/h | 18832m | 6.1m/s | -54.0°C | 2.8% | 0hPa | 2.6V | 00:00:00 | 00:00:00 | 00:00:00 | |
| HA6NAB-11 | 2026-09-06 00:08:09 | 49.49110 | 15.55251 | 102° | 37km/h | 18832m | 6.1m/s | -54.0°C | 0.3% | 0hPa | 2.6V | 00:00:00 | 00:00:00 | 00:00:00 | |
| OE3MUC-15 | 2026-09-06 00:08:06 | 49.49117 | 15.55201 | 106° | 35km/h | 18808m | 4.8m/s | -53.8°C | 2.8% | 0hPa | 2.6V | 00:00:00 | 00:00:00 | 00:00:00 | |
| OE5MMP-10 | 2026-09-06 00:08:05 | 49.49119 | 15.55189 | 107° | 37km/h | 18803m | 6.4m/s | -53.7°C | 2.8% | 0hPa | 2.6V | 00:00:00 | 01:22:01 | 00:00:00 | |
| HA6NAB-11 | 2026-09-06 00:08:03 | 49.49121 | 15.55176 | 109° | 37km/h | 18797m | 4.8m/s | -53.7°C | 0.3% | 0hPa | 2.6V | 00:00:00 | 00:00:00 | 00:00:00 | |
| DO3MHA-11 | 2026-09-06 00:08:02 | 49.49128 | 15.55149 | 112° | 37km/h | 18786m | 7.7m/s | -53.6°C | 2.7% | 0hPa | 2.6V | 00:00:00 | 01:21:58 | 00:00:00 | |
| SONDE2-11 | 2026-09-06 00:08:00 | 49.49135 | 15.55123 | 109° | 38km/h | 18773m | 6.2m/s | -53.5°C | 0.1% | -1.0hPa | 2.6V | 00:00:00 | 00:00:00 | 00:00:00 | |
| EDDB2-11 | 2026-09-06 00:07:56 | 49.49142 | 15.55065 | 91° | 33km/h | 18749m | 6.7m/s | -53.4°C | 0.1% | -1.0hPa | 2.6V | 00:00:00 | 00:00:00 | 00:00:00 | |
| EDDB2-12 | 2026-09-06 00:07:48 | 49.49144 | 15.54967 | 108° | 37km/h | 18703m | 5.4m/s | -53.3°C | 0.1% | -1.0hPa | 2.6V | 00:00:00 | 00:00:00 | 00:00:00 | |
| S52SK | 2026-09-06 00:07:47 | 49.49143 | 15.54967 | 109° | 37km/h | 18703m | 5.4m/s | -53.3°C | 0.2% | 0hPa | 2.6V | 00:00:00 | 00:00:00 | 00:00:00 | |
| OE3MUC-15 | 2026-09-06 00:07:46 | 49.49150 | 15.54939 | 110° | 33km/h | 18692m | 5.9m/s | -53.4°C | 2.6% | 0hPa | 2.6V | 00:00:00 | 00:00:00 | 00:00:00 | |
| OE5MMP-10 | 2026-09-06 00:07:45 | 49.49153 | 15.54926 | 111° | 26km/h | 18687m | 6.0m/s | -53.5°C | 2.7% | 0hPa | 2.6V | 00:00:00 | 01:21:41 | 00:00:00 | |
| OK1ALN | 2026-09-06 00:07:44 | 49.49153 | 15.54926 | 111° | 33km/h | 18687m | 6.0m/s | -53.5°C | 0.3% | 0hPa | 2.6V | 00:00:00 | 00:00:00 | 00:00:00 | |
| DO3MHA-11 | 2026-09-06 00:07:42 | 49.49160 | 15.54893 | 99° | 24km/h | 18670m | 6.3m/s | -53.8°C | 2.7% | 0hPa | 2.6V | 00:00:00 | 01:21:38 | 00:00:00 | |
| S52SK | 2026-09-06 00:07:41 | 49.49160 | 15.54893 | 100° | 29km/h | 18670m | 6.3m/s | 0°C | 0% | 0hPa | 2.6V | 00:00:00 | 00:00:00 | 00:00:00 | |
| PG1ADW-2 | 2026-09-06 00:07:37 | 49.49158 | 15.54848 | 80° | 27km/h | 18641m | 5.6m/s | -54.0°C | 2.8% | 0hPa | 2.6V | 00:00:00 | 00:00:00 | 00:00:00 | |
| PETON7-10 | 2026-09-06 00:07:35 | 49.49158 | 15.54832 | 101° | 27km/h | 18631m | 4.2m/s | -53.9°C | 2.8% | 0hPa | 2.6V | 00:00:00 | 00:00:00 | 00:00:00 | |
| DO3MHA-11 | 2026-09-06 00:07:32 | 49.49165 | 15.54808 | 128° | 29km/h | 18611m | 5.0m/s | -53.8°C | 2.8% | 0hPa | 2.5V | 00:00:00 | 01:21:28 | 00:00:00 | |
| OE3JTB-15 | 2026-09-06 00:07:31 | 49.49169 | 15.54799 | 125° | 33km/h | 18606m | 6.1m/s | -53.8°C | 2.8% | 0hPa | 2.5V | 00:00:00 | 01:21:27 | 00:00:00 | |
| SONDE2-11 | 2026-09-06 00:07:29 | 49.49177 | 15.54781 | 121° | 29km/h | 18594m | 5.0m/s | -53.8°C | 0.2% | -1.0hPa | 2.5V | 00:00:00 | 00:00:00 | 00:00:00 | |
| OE5MMP-10 | 2026-09-06 00:07:25 | 49.49192 | 15.54741 | 115° | 31km/h | 18570m | 5.7m/s | -53.6°C | 2.7% | 0hPa | 2.5V | 00:00:00 | 01:21:21 | 00:00:00 | |
| HA6NAB-11 | 2026-09-06 00:07:24 | 49.49195 | 15.54731 | 115° | 29km/h | 18564m | 5.0m/s | -53.6°C | 0.3% | 0hPa | 2.6V | 00:00:00 | 00:00:00 | 00:00:00 | |
| OE5DXL-15 | 2026-09-06 00:07:22 | 49.49201 | 15.54711 | 123° | 51km/h | 18552m | 5.2m/s | -53.5°C | 2.7% | 0hPa | 2.6V | 00:00:00 | 00:00:00 | 08:30:00 | |
| PETON7-10 | 2026-09-06 00:07:20 | 49.49210 | 15.54691 | 118° | 37km/h | 18542m | 6.6m/s | -53.5°C | 2.7% | 0hPa | 2.6V | 00:00:00 | 00:00:00 | 00:00:00 | |
| OE3MUC-15 | 2026-09-06 00:07:18 | 49.49217 | 15.54668 | 118° | 35km/h | 18531m | 5.0m/s | -53.4°C | 2.7% | 0hPa | 2.6V | 00:00:00 | 00:00:00 | 00:00:00 | |
| PG1ADW-2 | 2026-09-06 00:07:17 | 49.49221 | 15.54657 | 122° | 38km/h | 18525m | 7.0m/s | -53.4°C | 2.7% | 0hPa | 2.6V | 00:00:00 | 00:00:00 | 00:00:00 | |
| OE5DRO-10 | 2026-09-06 00:07:16 | 49.49225 | 15.54646 | 123° | 38km/h | 18518m | 5.1m/s | -53.3°C | 2.6% | 0hPa | 2.6V | 00:00:00 | 00:00:00 | 00:00:00 | |
| OE5MMP-10 | 2026-09-06 00:07:15 | 49.49230 | 15.54634 | 121° | 37km/h | 18513m | 5.7m/s | -53.3°C | 2.6% | 0hPa | 2.5V | 00:00:00 | 01:21:11 | 00:00:00 | |
| DO3MHA-11 | 2026-09-06 00:07:12 | 49.49243 | 15.54595 | 117° | 37km/h | 18495m | 6.9m/s | -53.3°C | 2.6% | 0hPa | 2.5V | 00:00:00 | 01:21:08 | 00:00:00 | |
| OE3MUC-15 | 2026-09-06 00:07:10 | 49.49251 | 15.54568 | 115° | 37km/h | 18484m | 5.1m/s | -53.2°C | 2.6% | 0hPa | 2.5V | 00:00:00 | 00:00:00 | 00:00:00 | |
| OK1ALN | 2026-09-06 00:07:07 | 49.49258 | 15.54541 | 108° | 37km/h | 18472m | 4.7m/s | -53.2°C | 0.3% | 0hPa | 2.5V | 00:00:00 | 00:00:00 | 00:00:00 | |
| OE3MUC-15 | 2026-09-06 00:07:06 | 49.49264 | 15.54515 | 113° | 35km/h | 18461m | 6.3m/s | -53.2°C | 2.5% | 0hPa | 2.5V | 00:00:00 | 00:00:00 | 00:00:00 | |
| OE5MMP-10 | 2026-09-06 00:07:05 | 49.49268 | 15.54502 | 116° | 42km/h | 18455m | 4.7m/s | -53.3°C | 2.5% | 0hPa | 2.5V | 00:00:00 | 01:21:01 | 00:00:00 | |
| DO3MHA-11 | 2026-09-06 00:07:02 | 49.49278 | 15.54464 | 111° | 46km/h | 18439m | 4.8m/s | -53.5°C | 2.6% | 0hPa | 2.5V | 00:00:00 | 01:20:58 | 00:00:00 | |
| OK1SLM-15 | 2026-09-06 00:07:01 | 49.49278 | 15.54464 | 112° | 37km/h | 18439m | 4.8m/s | -53.6°C | 0% | 0hPa | 2.5V | 00:00:00 | 00:00:00 | 00:00:00 | |
| OE3MUC-15 | 2026-09-06 00:06:58 | 49.49295 | 15.54406 | 111° | 49km/h | 18417m | 5.9m/s | -53.5°C | 2.7% | 0hPa | 2.5V | 00:00:00 | 00:00:00 | 00:00:00 | |
| PG1ADW-2 | 2026-09-06 00:06:57 | 49.49299 | 15.54388 | 110° | 51km/h | 18411m | 3.8m/s | -53.5°C | 2.6% | 0hPa | 2.5V | 00:00:00 | 00:00:00 | 08:30:00 | |
| OE5MMP-10 | 2026-09-06 00:06:55 | 49.49308 | 15.54352 | 116° | 49km/h | 18401m | 6.3m/s | -53.5°C | 2.6% | 0hPa | 2.6V | 00:00:00 | 01:20:51 | 00:00:00 | |
| OE3MUC-15 | 2026-09-06 00:06:54 | 49.49314 | 15.54335 | 117° | 51km/h | 18396m | 4.3m/s | -53.5°C | 2.6% | 0hPa | 2.5V | 00:00:00 | 00:00:00 | 00:00:00 | |
| DO3MHA-11 | 2026-09-06 00:06:52 | 49.49325 | 15.54299 | 114° | 47km/h | 18385m | 4.9m/s | -53.7°C | 2.6% | 0hPa | 2.5V | 00:00:00 | 01:20:48 | 00:00:00 | |
| OE3MUC-15 | 2026-09-06 00:06:50 | 49.49335 | 15.54263 | 112° | 46km/h | 18375m | 6.0m/s | -53.9°C | 2.6% | 0hPa | 2.5V | 00:00:00 | 00:00:00 | 08:30:00 | |
| NBG1-10 | 2026-09-06 00:06:49 | 49.49339 | 15.54246 | 110° | 55km/h | 18369m | 5.5m/s | -54.1°C | 2.6% | 0hPa | 2.7V | 00:00:00 | 01:20:45 | 00:00:00 | |
| OE3MUC-15 | 2026-09-06 00:06:46 | 49.49349 | 15.54195 | 103° | 49km/h | 18351m | 4.9m/s | -54.4°C | 2.8% | 0hPa | 2.6V | 00:00:00 | 00:00:00 | 00:00:00 | |
| OE5MMP-10 | 2026-09-06 00:06:45 | 49.49351 | 15.54177 | 103° | 57km/h | 18346m | 6.1m/s | -54.5°C | 2.7% | 0hPa | 2.6V | 00:00:00 | 01:20:41 | 00:00:00 | |
| OE3MUC-15 | 2026-09-06 00:06:42 | 49.49361 | 15.54119 | 107° | 60km/h | 18331m | 5.2m/s | -54.5°C | 2.8% | 0hPa | 2.6V | 00:00:00 | 00:00:00 | 00:00:00 | |
| OE3MUC-15 | 2026-09-06 00:06:38 | 49.49382 | 15.54030 | 112° | 60km/h | 18309m | 5.6m/s | -54.5°C | 2.8% | 0hPa | 2.6V | 00:00:00 | 00:00:00 | 00:00:00 | |
| PG1ADW-2 | 2026-09-06 00:06:37 | 49.49387 | 15.54008 | 112° | 55km/h | 18304m | 5.0m/s | -54.6°C | 2.8% | 0hPa | 2.6V | 00:00:00 | 01:20:33 | 00:00:00 | |
| PETON7-10 | 2026-09-06 00:06:35 | 49.49397 | 15.53964 | 108° | 55km/h | 18294m | 3.9m/s | -54.9°C | 2.9% | 0hPa | 2.6V | 00:00:00 | 00:00:00 | 00:00:00 | |
| OE3MUC-15 | 2026-09-06 00:06:34 | 49.49401 | 15.53943 | 107° | 51km/h | 18289m | 5.7m/s | -55.0°C | 2.9% | 0hPa | 2.6V | 00:00:00 | 00:00:00 | 00:00:00 | |
| OE3JTB-15 | 2026-09-06 00:06:33 | 49.49405 | 15.53924 | 107° | 55km/h | 18283m | 5.4m/s | -55.2°C | 2.9% | 0hPa | 2.6V | 00:00:00 | 00:00:00 | 00:00:00 | |
| DO3MHA-11 | 2026-09-06 00:06:32 | 49.49409 | 15.53905 | 109° | 55km/h | 18278m | 4.7m/s | -55.3°C | 3.0% | 0hPa | 2.6V | 00:00:00 | 01:20:28 | 00:00:00 | |
| OE3MUC-15 | 2026-09-06 00:06:30 | 49.49418 | 15.53868 | 114° | 57km/h | 18267m | 4.9m/s | -55.3°C | 2.9% | 0hPa | 2.6V | 00:00:00 | 00:00:00 | 00:00:00 | |
| SONDE2-11 | 2026-09-06 00:06:27 | 49.49438 | 15.53809 | 119° | 55km/h | 18252m | 6.6m/s | -55.3°C | 0.2% | -1.0hPa | 2.6V | 00:00:00 | 00:00:00 | 00:00:00 | |
| OE3MUC-15 | 2026-09-06 00:06:26 | 49.49445 | 15.53790 | 121° | 57km/h | 18247m | 5.0m/s | -55.2°C | 2.9% | 0hPa | 2.6V | 00:00:00 | 00:00:00 | 00:00:00 | |
| OE5MMP-10 | 2026-09-06 00:06:25 | 49.49451 | 15.53772 | 119° | 55km/h | 18242m | 4.5m/s | -55.2°C | 2.9% | 0hPa | 2.5V | 00:00:00 | 01:20:21 | 08:30:00 | |
| DB0UT-7 | 2026-09-06 00:06:23 | 49.49464 | 15.53732 | 112° | 53km/h | 18232m | 4.1m/s | 0°C | 0% | 0hPa | 2.7V | 00:00:00 | 01:20:19 | 00:00:00 | |
| DO3MHA-11 | 2026-09-06 00:06:22 | 49.49469 | 15.53712 | 108° | 55km/h | 18227m | 5.3m/s | -55.2°C | 2.8% | 0hPa | 2.7V | 00:00:00 | 01:20:18 | 08:30:00 | |
| PETON7-10 | 2026-09-06 00:06:21 | 49.49476 | 15.53673 | 103° | 57km/h | 18215m | 5.1m/s | -55.2°C | 2.9% | 0hPa | 2.5V | 00:00:00 | 01:20:16 | 00:00:00 | |
| OE5DRO-10 | 2026-09-06 00:06:19 | 49.49479 | 15.53653 | 102° | 55km/h | 18210m | 4.9m/s | -55.3°C | 2.9% | 0hPa | 2.5V | 00:00:00 | 00:00:00 | 00:00:00 | |
| OE3MUC-15 | 2026-09-06 00:06:18 | 49.49481 | 15.53634 | 102° | 57km/h | 18204m | 6.4m/s | -55.4°C | 3.0% | 0hPa | 2.5V | 00:00:00 | 01:20:14 | 00:00:00 | |
| PG1ADW-2 | 2026-09-06 00:06:17 | 49.49484 | 15.53613 | 104° | 55km/h | 18198m | 4.7m/s | -55.6°C | 3.0% | 0hPa | 2.5V | 00:00:00 | 00:00:00 | 00:00:00 | |
| OE5DXL-15 | 2026-09-06 00:06:16 | 49.49488 | 15.53591 | 107° | 51km/h | 18194m | 4.3m/s | -55.7°C | 3.1% | 0hPa | 2.5V | 00:00:00 | 00:00:00 | 00:00:00 | |
| OE5MMP-10 | 2026-09-06 00:06:15 | 49.49492 | 15.53570 | 107° | 58km/h | 18189m | 5.3m/s | -55.7°C | 3.1% | 0hPa | 2.5V | 00:00:00 | 01:20:11 | 00:00:00 | |
| S52SK | 2026-09-06 00:06:14 | 49.49496 | 15.53549 | 107° | 55km/h | 18183m | 5.2m/s | 0°C | 0% | 0hPa | 2.5V | 00:00:00 | 00:00:00 | 00:00:00 | |
| DO3MHA-11 | 2026-09-06 00:06:13 | 49.49503 | 15.53507 | 101° | 57km/h | 18173m | 6.2m/s | -55.7°C | 3.0% | 0hPa | 2.5V | 00:00:00 | 01:20:08 | 00:00:00 | |
| OE3MUC-15 | 2026-09-06 00:06:11 | 49.49507 | 15.53462 | 97° | 58km/h | 18162m | 4.6m/s | -55.9°C | 3.0% | 0hPa | 2.5V | 00:00:00 | 00:00:00 | 00:00:00 | |
| DB0ND-19 | 2026-09-06 00:06:09 | 49.49511 | 15.53394 | 95° | 57km/h | 18145m | 4.7m/s | -56.1°C | 0.2% | -1.0hPa | 2.5V | 00:00:00 | 00:00:00 | 00:00:00 | |
| SP3BTT-10 | 2026-09-06 00:06:08 | 49.49511 | 15.53394 | 96° | 44km/h | 18145m | 4.7m/s | -56.1°C | 3.0% | 0hPa | 2.5V | 00:00:00 | 00:00:00 | 00:00:00 | |
| OE5MMP-10 | 2026-09-06 00:06:05 | 49.49514 | 15.53348 | 96° | 47km/h | 18135m | 3.8m/s | -56.0°C | 3.1% | 0hPa | 2.5V | 00:00:00 | 01:20:01 | 00:00:00 | |
| OE3JTB-15 | 2026-09-06 00:06:04 | 49.49516 | 15.53326 | 97° | 46km/h | 18131m | 5.2m/s | -55.9°C | 3.1% | 0hPa | 2.5V | 00:00:00 | 01:20:00 | 00:00:00 | |
| OE3MUC-15 | 2026-09-06 00:06:02 | 49.49520 | 15.53288 | 104° | 46km/h | 18119m | 4.6m/s | -55.8°C | 3.1% | 0hPa | 2.5V | 00:00:00 | 00:00:00 | 00:00:00 | |
| SONDE2-11 | 2026-09-06 00:05:57 | 49.49537 | 15.53187 | 103° | 40km/h | 18086m | 4.0m/s | -55.6°C | 0.2% | -1.0hPa | 2.7V | 00:00:00 | 00:00:00 | 00:00:00 | |
| OE5MMP-10 | 2026-09-06 00:05:55 | 49.49540 | 15.53171 | 102° | 49km/h | 18081m | 5.9m/s | -55.5°C | 3.1% | 0hPa | 2.7V | 00:00:00 | 01:19:51 | 00:00:00 | |
| OE3MUC-15 | 2026-09-06 00:05:54 | 49.49542 | 15.53153 | 102° | 49km/h | 18076m | 4.9m/s | -55.4°C | 3.0% | 0hPa | 2.5V | 00:00:00 | 00:00:00 | 00:00:00 | |
| OK1SLM-15 | 2026-09-06 00:05:53 | 49.49542 | 15.53153 | 102° | 49km/h | 18076m | 5.0m/s | -55.5°C | 0% | 0hPa | 2.5V | 00:00:00 | 00:00:00 | 00:00:00 | |
| DO3MHA-11 | 2026-09-06 00:05:52 | 49.49548 | 15.53115 | 105° | 47km/h | 18067m | 6.1m/s | -55.3°C | 3.0% | 0hPa | 2.5V | 00:00:00 | 01:19:48 | 00:00:00 | |
| HA6NAB-11 | 2026-09-06 00:05:51 | 49.49547 | 15.53115 | 105° | 51km/h | 18067m | 6.1m/s | -55.4°C | 0.4% | 0hPa | 2.5V | 00:00:00 | 00:00:00 | 00:00:00 | |
| OE3MUC-15 | 2026-09-06 00:05:50 | 49.49555 | 15.53078 | 110° | 49km/h | 18056m | 4.5m/s | -55.2°C | 3.0% | 0hPa | 2.5V | 00:00:00 | 00:00:00 | 00:00:00 | |
| OK1ALN | 2026-09-06 00:05:48 | 49.49563 | 15.53041 | 108° | 51km/h | 18045m | 5.6m/s | -55.2°C | 0.4% | 0hPa | 2.5V | 00:00:00 | 00:00:00 | 00:00:00 | |
| OE3MUC-15 | 2026-09-06 00:05:46 | 49.49571 | 15.53005 | 110° | 44km/h | 18032m | 6.9m/s | -55.0°C | 3.0% | 0hPa | 2.5V | 00:00:00 | 00:00:00 | 00:00:00 | |
| OE5MMP-10 | 2026-09-06 00:05:45 | 49.49574 | 15.52988 | 109° | 44km/h | 18026m | 4.6m/s | -55.0°C | 2.9% | 0hPa | 2.5V | 00:00:00 | 01:19:41 | 00:00:00 | |
| EDDB2-12 | 2026-09-06 00:05:44 | 49.49580 | 15.52956 | 100° | 42km/h | 18015m | 5.9m/s | -55.0°C | 0.2% | -1.0hPa | 2.5V | 00:00:00 | 00:00:00 | 00:00:00 | |
| NBG1-10 | 2026-09-06 00:05:43 | 49.49580 | 15.52956 | 101° | 46km/h | 18015m | 5.8m/s | -54.9°C | 3.0% | 0hPa | 2.5V | 00:00:00 | 01:19:39 | 00:00:00 | |
| DO3MHA-11 | 2026-09-06 00:05:42 | 49.49582 | 15.52940 | 100° | 46km/h | 18010m | 4.3m/s | -54.9°C | 3.0% | 0hPa | 2.5V | 00:00:00 | 01:19:38 | 00:00:00 | |
| OE5DRO-10 | 2026-09-06 00:05:41 | 49.49584 | 15.52924 | 102° | 44km/h | 18005m | 6.0m/s | -54.9°C | 3.0% | 0hPa | 2.5V | 00:00:00 | 00:00:00 | 00:00:00 | |
| HA6NAB-11 | 2026-09-06 00:05:37 | 49.49597 | 15.52862 | 111° | 46km/h | 17981m | 5.5m/s | -54.9°C | 0.4% | 0hPa | 2.5V | 00:00:00 | 00:00:00 | 00:00:00 | |
| DB0ND-19 | 2026-09-06 00:05:36 | 49.49601 | 15.52845 | 112° | 47km/h | 17976m | 4.6m/s | -54.9°C | -1.0% | -1.0hPa | 2.5V | 00:00:00 | 00:00:00 | 00:00:00 | |
| OE5MMP-10 | 2026-09-06 00:05:35 | 49.49606 | 15.52827 | 116° | 46km/h | 17970m | 6.6m/s | -54.8°C | 2.9% | 0hPa | 2.5V | 00:00:00 | 01:19:31 | 00:00:00 | |
| DO3MHA-11 | 2026-09-06 00:05:32 | 49.49623 | 15.52777 | 114° | 42km/h | 17952m | 6.7m/s | -54.7°C | 2.9% | 0hPa | 2.5V | 00:00:00 | 01:19:28 | 00:00:00 | |
| HA6NAB-11 | 2026-09-06 00:05:31 | 49.49623 | 15.52777 | 114° | 51km/h | 17952m | 6.8m/s | -54.8°C | 0.4% | 0hPa | 2.5V | 00:00:00 | 00:00:00 | 00:00:00 | |
| OK1ALN | 2026-09-06 00:05:28 | 49.49636 | 15.52706 | 101° | 42km/h | 17930m | 5.3m/s | -54.8°C | 0.3% | 0hPa | 2.5V | 00:00:00 | 00:00:00 | 00:00:00 | |
| OE5MMP-10 | 2026-09-06 00:05:26 | 49.49640 | 15.52660 | 96° | 47km/h | 17914m | 4.5m/s | -54.8°C | 2.9% | 0hPa | 2.5V | 00:00:00 | 01:19:21 | 00:00:00 | |
| DO3MHA-11 | 2026-09-06 00:05:23 | 49.49647 | 15.52618 | 115° | 53km/h | 17899m | 3.6m/s | -54.8°C | 2.9% | 0hPa | 2.7V | 00:00:00 | 01:19:18 | 00:00:00 | |
| EDDB2-11 | 2026-09-06 00:05:22 | 49.49651 | 15.52603 | 115° | 46km/h | 17894m | 6.0m/s | -54.8°C | 0.2% | -1.0hPa | 2.5V | 00:00:00 | 00:00:00 | 00:00:00 | |
| PETON7-10 | 2026-09-06 00:05:21 | 49.49657 | 15.52585 | 115° | 47km/h | 17888m | 5.4m/s | -54.8°C | 2.9% | 0hPa | 2.5V | 00:00:00 | 00:00:00 | 00:00:00 | |
| OE3MUC-15 | 2026-09-06 00:05:19 | 49.49669 | 15.52545 | 116° | 57km/h | 17877m | 6.0m/s | -54.7°C | 2.9% | 0hPa | 2.5V | 00:00:00 | 00:00:00 | 00:00:00 | |
| PG1ADW-2 | 2026-09-06 00:05:17 | 49.49675 | 15.52524 | 113° | 47km/h | 17872m | 5.2m/s | -54.6°C | 2.9% | 0hPa | 2.5V | 00:00:00 | 01:19:13 | 00:00:00 | |
| OE5DXL-15 | 2026-09-06 00:05:16 | 49.49680 | 15.52503 | 109° | 44km/h | 17866m | 5.0m/s | -54.6°C | 2.9% | 0hPa | 2.5V | 00:00:00 | 00:00:00 | 00:00:00 | |
| OE5MMP-10 | 2026-09-06 00:05:15 | 49.49684 | 15.52482 | 104° | 42km/h | 17861m | 5.8m/s | -54.5°C | 2.9% | 0hPa | 2.5V | 00:00:00 | 01:19:11 | 00:00:00 | |
| OE3MUC-15 | 2026-09-06 00:05:14 | 49.49686 | 15.52462 | 98° | 44km/h | 17856m | 4.7m/s | -54.4°C | 2.8% | 0hPa | 2.5V | 00:00:00 | 00:00:00 | 00:00:00 | |
| EDDB2-12 | 2026-09-06 00:05:13 | 49.49688 | 15.52427 | 93° | 40km/h | 17845m | 6.3m/s | -54.4°C | 0.2% | -1.0hPa | 2.5V | 00:00:00 | 00:00:00 | 00:00:00 | |
| DO3MHA-11 | 2026-09-06 00:05:12 | 49.49688 | 15.52427 | 94° | 42km/h | 17845m | 6.2m/s | -54.4°C | 2.9% | 0hPa | 2.5V | 00:00:00 | 01:19:08 | 00:00:00 | |
| OE3MUC-15 | 2026-09-06 00:05:10 | 49.49690 | 15.52397 | 94° | 37km/h | 17834m | 5.1m/s | -54.3°C | 2.8% | 0hPa | 2.5V | 00:00:00 | 00:00:00 | 00:00:00 | |
| OK1ALN | 2026-09-06 00:05:08 | 49.49690 | 15.52369 | 95° | 38km/h | 17823m | 4.6m/s | -54.3°C | 0.3% | 0hPa | 2.5V | 00:00:00 | 00:00:00 | 00:00:00 | |
| OE3MUC-15 | 2026-09-06 00:05:07 | 49.49694 | 15.52339 | 106° | 46km/h | 17812m | 7.0m/s | -54.2°C | 2.8% | 0hPa | 2.5V | 00:00:00 | 00:00:00 | 00:00:00 | |
| PETON7-10 | 2026-09-06 00:05:05 | 49.49697 | 15.52323 | 110° | 44km/h | 17806m | 5.7m/s | -54.1°C | 2.8% | 0hPa | 2.5V | 00:00:00 | 00:00:00 | 00:00:00 | |
| OE3JTB-15 | 2026-09-06 00:05:04 | 49.49701 | 15.52307 | 111° | 44km/h | 17799m | 6.5m/s | -54.1°C | 2.8% | 0hPa | 2.5V | 00:00:00 | 00:00:00 | 00:00:00 | |
| OE3MUC-15 | 2026-09-06 00:04:59 | 49.49723 | 15.52192 | 97° | 40km/h | 17767m | 5.7m/s | -54.0°C | 2.8% | 0hPa | 2.5V | 00:00:00 | 00:00:00 | 00:00:00 | |
| PG1ADW-2 | 2026-09-06 00:04:57 | 49.49724 | 15.52175 | 92° | 40km/h | 17761m | 5.7m/s | -54.0°C | 2.8% | 0hPa | 2.5V | 00:00:00 | 00:00:00 | 00:00:00 | |
| OE5MMP-10 | 2026-09-06 00:04:55 | 49.49723 | 15.52146 | 89° | 40km/h | 17749m | 8.0m/s | -53.9°C | 2.7% | 0hPa | 2.7V | 00:00:00 | 01:18:51 | 08:30:00 | |
| OE3MUC-15 | 2026-09-06 00:04:54 | 49.49724 | 15.52133 | 98° | 35km/h | 17741m | 7.1m/s | -53.9°C | 2.7% | 0hPa | 2.6V | 00:00:00 | 00:00:00 | 00:00:00 | |
| DO3MHA-11 | 2026-09-06 00:04:51 | 49.49731 | 15.52095 | 109° | 44km/h | 17721m | 7.4m/s | -53.9°C | 2.7% | 0hPa | 2.6V | 00:00:00 | 01:18:47 | 08:30:00 | |
| PETON7-10 | 2026-09-06 00:04:50 | 49.49734 | 15.52080 | 106° | 40km/h | 17714m | 6.0m/s | -53.9°C | 2.7% | 0hPa | 2.6V | 00:00:00 | 01:18:46 | 00:00:00 | |
| OE3MUC-15 | 2026-09-06 00:04:47 | 49.49751 | 15.52014 | 114° | 42km/h | 17691m | 4.2m/s | -53.8°C | 2.8% | 0hPa | 2.6V | 00:00:00 | 00:00:00 | 00:00:00 | |
| OE5MMP-10 | 2026-09-06 00:04:46 | 49.49755 | 15.51997 | 112° | 38km/h | 17685m | 7.1m/s | -53.9°C | 2.8% | 0hPa | 2.6V | 00:00:00 | 01:18:41 | 00:00:00 | |
| OE5DRO-10 | 2026-09-06 00:04:44 | 49.49759 | 15.51982 | 108° | 38km/h | 17679m | 4.7m/s | -53.9°C | 2.8% | 0hPa | 2.6V | 00:00:00 | 00:00:00 | 00:00:00 | |
| OE3MUC-15 | 2026-09-06 00:04:42 | 49.49765 | 15.51952 | 112° | 37km/h | 17670m | 5.8m/s | -53.9°C | 2.8% | 0hPa | 2.6V | 00:00:00 | 00:00:00 | 00:00:00 | |
| DO3MHA-11 | 2026-09-06 00:04:41 | 49.49769 | 15.51939 | 118° | 38km/h | 17664m | 5.6m/s | -53.9°C | 2.8% | 0hPa | 2.6V | 00:00:00 | 01:18:37 | 00:00:00 | |
| OE3MUC-15 | 2026-09-06 00:04:39 | 49.49782 | 15.51901 | 120° | 38km/h | 17648m | 4.9m/s | -53.9°C | 2.8% | 0hPa | 2.6V | 00:00:00 | 00:00:00 | 00:00:00 | |
| PG1ADW-2 | 2026-09-06 00:04:37 | 49.49787 | 15.51889 | 124° | 38km/h | 17642m | 5.6m/s | -53.9°C | 2.8% | 0hPa | 2.5V | 00:00:00 | 00:00:00 | 00:00:00 | |
| SP3BTT-10 | 2026-09-06 00:04:36 | 49.49793 | 15.51877 | 128° | 66km/h | 17637m | 5.7m/s | -53.9°C | 2.8% | 0hPa | 2.5V | 00:00:00 | 00:00:00 | 00:00:00 | |
| OE5MMP-10 | 2026-09-06 00:04:35 | 49.49799 | 15.51866 | 126° | 38km/h | 17631m | 4.8m/s | -53.8°C | 2.7% | 0hPa | 2.5V | 00:00:00 | 01:18:31 | 00:00:00 | |
| OE3MUC-15 | 2026-09-06 00:04:34 | 49.49804 | 15.51853 | 123° | 40km/h | 17626m | 6.2m/s | -53.8°C | 2.7% | 0hPa | 2.5V | 00:00:00 | 00:00:00 | 00:00:00 | |
| DO3MHA-11 | 2026-09-06 00:04:31 | 49.49819 | 15.51812 | 122° | 37km/h | 17610m | 6.1m/s | -53.7°C | 2.7% | 0hPa | 2.5V | 00:00:00 | 01:18:27 | 00:00:00 | |
| OE3MUC-15 | 2026-09-06 00:04:30 | 49.49824 | 15.51799 | 123° | 38km/h | 17605m | 4.9m/s | -53.7°C | 2.7% | 0hPa | 2.5V | 00:00:00 | 00:00:00 | 00:00:00 | |
| OE3MUC-15 | 2026-09-06 00:04:27 | 49.49845 | 15.51748 | 124° | 35km/h | 17585m | 5.8m/s | -53.6°C | 2.7% | 0hPa | 2.5V | 00:00:00 | 00:00:00 | 08:30:00 | |
| OE5MMP-10 | 2026-09-06 00:04:25 | 49.49850 | 15.51737 | 126° | 37km/h | 17579m | 5.8m/s | -53.6°C | 2.6% | 0hPa | 2.5V | 00:00:00 | 01:18:21 | 00:00:00 | |
| SONDE2-11 | 2026-09-06 00:04:23 | 49.49860 | 15.51715 | 122° | 33km/h | 17569m | 5.6m/s | -53.6°C | 0.2% | -1.0hPa | 2.5V | 00:00:00 | 00:00:00 | 00:00:00 | |
| OE3MUC-15 | 2026-09-06 00:04:22 | 49.49865 | 15.51704 | 123° | 37km/h | 17564m | 4.1m/s | -53.5°C | 2.6% | 0hPa | 2.5V | 00:00:00 | 00:00:00 | 00:00:00 | |
| DO3MHA-11 | 2026-09-06 00:04:21 | 49.49870 | 15.51692 | 126° | 40km/h | 17560m | 4.6m/s | -53.5°C | 2.6% | 0hPa | 2.5V | 00:00:00 | 01:18:17 | 00:00:00 | |
| PETON7-10 | 2026-09-06 00:04:20 | 49.49875 | 15.51682 | 134° | 38km/h | 17554m | 6.0m/s | -53.5°C | 2.6% | 0hPa | 2.5V | 00:00:00 | 00:00:00 | 00:00:00 | |
| EDDB2-11 | 2026-09-06 00:04:19 | 49.49882 | 15.51672 | 135° | 37km/h | 17548m | 5.1m/s | -53.7°C | 0.3% | -1.0hPa | 2.5V | 00:00:00 | 00:00:00 | 00:00:00 | |
| OE3MUC-15 | 2026-09-06 00:04:18 | 49.49888 | 15.51661 | 135° | 42km/h | 17543m | 5.8m/s | -53.9°C | 2.7% | 0hPa | 2.5V | 00:00:00 | 00:00:00 | 00:00:00 | |
| PG1ADW-2 | 2026-09-06 00:04:17 | 49.49895 | 15.51650 | 134° | 40km/h | 17537m | 4.9m/s | -54.1°C | 2.8% | 0hPa | 2.5V | 00:00:00 | 00:00:00 | 00:00:00 | |
| OE5MMP-10 | 2026-09-06 00:04:16 | 49.49911 | 15.51627 | 138° | 38km/h | 17528m | 5.7m/s | -54.2°C | 2.8% | 0hPa | 2.5V | 00:00:00 | 01:18:11 | 00:00:00 | |
| OE3MUC-15 | 2026-09-06 00:04:15 | 49.49919 | 15.51616 | 141° | 38km/h | 17522m | 5.3m/s | -54.2°C | 2.8% | 0hPa | 2.5V | 00:00:00 | 00:00:00 | 00:00:00 | |
| EDDB2-12 | 2026-09-06 00:04:11 | 49.49947 | 15.51575 | 135° | 33km/h | 17501m | 5.3m/s | 0°C | -1.0% | -1.0hPa | 2.5V | 00:00:00 | 00:00:00 | 00:00:00 | |
| OE3MUC-15 | 2026-09-06 00:04:10 | 49.49947 | 15.51575 | 136° | 35km/h | 17501m | 5.3m/s | -54.4°C | 2.8% | 0hPa | 2.5V | 00:00:00 | 00:00:00 | 00:00:00 | |
| HA6NAB-11 | 2026-09-06 00:04:09 | 49.49947 | 15.51575 | 136° | 35km/h | 17501m | 5.3m/s | -54.4°C | 0.4% | 0hPa | 2.5V | 00:00:00 | 00:00:00 | 00:00:00 | |
| S52SK | 2026-09-06 00:04:06 | 49.49972 | 15.51537 | 132° | 38km/h | 17480m | 4.7m/s | 0°C | 0% | 0hPa | 2.5V | 00:00:00 | 00:00:00 | 00:00:00 | |
| NBG1-10 | 2026-09-06 00:04:05 | 49.49986 | 15.51514 | 135° | 49km/h | 17469m | 6.1m/s | -54.6°C | 2.8% | 0hPa | 2.5V | 00:00:00 | 01:18:00 | 00:00:00 | |
| HA6NAB-11 | 2026-09-06 00:04:04 | 49.49986 | 15.51514 | 136° | 42km/h | 17469m | 6.1m/s | -54.6°C | 0.4% | 0hPa | 2.5V | 00:00:00 | 00:00:00 | 00:00:00 | |
| OE3JTB-15 | 2026-09-06 00:04:03 | 49.49993 | 15.51502 | 135° | 47km/h | 17464m | 5.3m/s | -54.6°C | 2.9% | 0hPa | 2.5V | 00:00:00 | 00:00:00 | 08:30:00 | |
| OE3MUC-15 | 2026-09-06 00:04:02 | 49.50000 | 15.51490 | 134° | 44km/h | 17458m | 6.2m/s | -54.6°C | 2.9% | 0hPa | 2.5V | 00:00:00 | 00:00:00 | 00:00:00 | |
| SONDE2-11 | 2026-09-06 00:03:53 | 49.50089 | 15.51371 | 140° | 44km/h | 17402m | 5.7m/s | -54.7°C | 0.2% | -1.0hPa | 2.5V | 00:00:00 | 00:00:00 | 00:00:00 | |
| EDDB2-11 | 2026-09-06 00:03:48 | 49.50116 | 15.51332 | 137° | 51km/h | 17387m | 6.1m/s | -54.7°C | 0.3% | -1.0hPa | 2.5V | 00:00:00 | 00:00:00 | 00:00:00 | |
| OE5DRO-10 | 2026-09-06 00:03:47 | 49.50125 | 15.51319 | 140° | 55km/h | 17381m | 6.1m/s | -54.6°C | 2.9% | 0hPa | 2.5V | 00:00:00 | 00:00:00 | 00:00:00 | |
| OE3MUC-15 | 2026-09-06 00:03:46 | 49.50136 | 15.51305 | 140° | 58km/h | 17375m | 4.6m/s | -54.6°C | 2.9% | 0hPa | 2.5V | 00:00:00 | 00:00:00 | 00:00:00 | |
| OK1ALN | 2026-09-06 00:03:45 | 49.50147 | 15.51290 | 138° | 58km/h | 17370m | 6.7m/s | -54.6°C | 0.4% | 0hPa | 2.5V | 00:00:00 | 00:00:00 | 00:00:00 | |
| DO3MHA-11 | 2026-09-06 00:03:41 | 49.50190 | 15.51226 | 136° | 51km/h | 17347m | 4.1m/s | -54.4°C | 2.9% | 0hPa | 2.5V | 00:00:00 | 01:17:37 | 00:00:00 | |
| PG1ADW-2 | 2026-09-06 00:03:37 | 49.50225 | 15.51162 | 128° | 58km/h | 17326m | 5.9m/s | -54.4°C | 2.8% | 0hPa | 2.5V | 00:00:00 | 00:00:00 | 00:00:00 | |
| PETON7-10 | 2026-09-06 00:03:36 | 49.50240 | 15.51133 | 129° | 58km/h | 17316m | 3.5m/s | -54.5°C | 2.9% | 0hPa | 2.5V | 00:00:00 | 00:00:00 | 00:00:00 | |
| OE5MMP-10 | 2026-09-06 00:03:35 | 49.50240 | 15.51133 | 129° | 57km/h | 17316m | 3.5m/s | -54.5°C | 2.9% | 0hPa | 2.5V | 00:00:00 | 01:17:31 | 00:00:00 | |
| OE3JTB-15 | 2026-09-06 00:03:33 | 49.50255 | 15.51103 | 129° | 66km/h | 17306m | 4.4m/s | -54.5°C | 2.9% | 0hPa | 2.5V | 00:00:00 | 00:00:00 | 00:00:00 | |
| OE5DRO-10 | 2026-09-06 00:03:28 | 49.50303 | 15.51021 | 132° | 66km/h | 17280m | 5.5m/s | -54.6°C | 2.9% | 0hPa | 2.5V | 00:00:00 | 00:00:00 | 00:00:00 | |
| OK1ALN | 2026-09-06 00:03:25 | 49.50344 | 15.50946 | 133° | 60km/h | 17261m | 6.2m/s | -54.7°C | 0.5% | 0hPa | 2.5V | 00:00:00 | 00:00:00 | 00:00:00 | |
| SONDE2-11 | 2026-09-06 00:03:24 | 49.50375 | 15.50892 | 129° | 64km/h | 17245m | 5.1m/s | 0°C | -1.0% | -1.0hPa | 2.5V | 00:00:00 | 00:00:00 | 00:00:00 | |
| DO3MHA-11 | 2026-09-06 00:03:23 | 49.50375 | 15.50892 | 130° | 68km/h | 17245m | 5.1m/s | -54.7°C | 2.9% | 0hPa | 2.5V | 00:00:00 | 01:17:17 | 08:30:00 | |
| PETON7-10 | 2026-09-06 00:03:22 | 49.50385 | 15.50872 | 129° | 69km/h | 17239m | 5.4m/s | -54.8°C | 2.9% | 0hPa | 2.5V | 00:00:00 | 01:17:16 | 00:00:00 | |
| PG1ADW-2 | 2026-09-06 00:03:21 | 49.50415 | 15.50813 | 128° | 75km/h | 17222m | 6.0m/s | -54.8°C | 2.9% | 0hPa | 2.5V | 00:00:00 | 00:00:00 | 00:00:00 | |
| OE5DXL-15 | 2026-09-06 00:03:19 | 49.50426 | 15.50792 | 128° | 75km/h | 17217m | 4.4m/s | -54.9°C | 2.9% | 0hPa | 2.5V | 00:00:00 | 00:00:00 | 00:00:00 | |
| OE3MUC-15 | 2026-09-06 00:03:18 | 49.50448 | 15.50748 | 129° | 71km/h | 17207m | 5.9m/s | -54.9°C | 2.9% | 0hPa | 2.5V | 00:00:00 | 00:00:00 | 08:30:00 | |
| DO3MHA-11 | 2026-09-06 00:03:16 | 49.50481 | 15.50684 | 128° | 77km/h | 17191m | 5.2m/s | -55.2°C | 2.9% | 0hPa | 2.7V | 00:00:00 | 01:17:07 | 00:00:00 | |
| OE3MUC-15 | 2026-09-06 00:03:15 | 49.50492 | 15.50661 | 126° | 73km/h | 17186m | 4.7m/s | -55.3°C | 2.9% | 0hPa | 2.7V | 00:00:00 | 00:00:00 | 00:00:00 | |
| OE3MUC-15 | 2026-09-06 00:03:14 | 49.50532 | 15.50566 | 121° | 78km/h | 17164m | 5.2m/s | -55.5°C | 3.1% | 0hPa | 2.7V | 00:00:00 | 00:00:00 | 00:00:00 | |
| OK1ALN | 2026-09-06 00:03:13 | 49.50553 | 15.50514 | 123° | 80km/h | 17155m | 6.3m/s | -55.5°C | 0.5% | 0hPa | 2.7V | 00:00:00 | 00:00:00 | 00:00:00 | |
| OE3MUC-15 | 2026-09-06 00:03:10 | 49.50575 | 15.50462 | 126° | 80km/h | 17144m | 4.7m/s | -55.4°C | 3.0% | 0hPa | 2.7V | 00:00:00 | 00:00:00 | 00:00:00 | |
| DO3MHA-11 | 2026-09-06 00:03:09 | 49.50587 | 15.50436 | 125° | 77km/h | 17140m | 4.9m/s | -55.4°C | 3.0% | 0hPa | 2.5V | 00:00:00 | 01:16:57 | 00:00:00 | |
| NBG1-10 | 2026-09-06 00:03:07 | 49.50622 | 15.50362 | 127° | 71km/h | 17124m | 5.1m/s | -55.4°C | 3.0% | 0hPa | 2.5V | 00:00:00 | 01:16:54 | 00:00:00 | |
| OE5MMP-10 | 2026-09-06 00:03:03 | 49.50655 | 15.50290 | 123° | 73km/h | 17109m | 3.7m/s | -55.7°C | 3.0% | 0hPa | 2.5V | 00:00:00 | 01:16:51 | 00:00:00 | |
| OE3MUC-15 | 2026-09-06 00:03:02 | 49.50665 | 15.50266 | 123° | 73km/h | 17104m | 5.5m/s | -55.8°C | 3.0% | 0hPa | 2.5V | 00:00:00 | 00:00:00 | 00:00:00 | |
| PETON7-10 | 2026-09-06 00:02:59 | 49.50703 | 15.50167 | 118° | 69km/h | 17084m | 3.5m/s | -56.1°C | 3.2% | 0hPa | 2.5V | 00:00:00 | 00:00:00 | 00:00:00 | |
| OE5DXL-15 | 2026-09-06 00:02:55 | 49.50737 | 15.50070 | 122° | 73km/h | 17064m | 5.7m/s | -56.1°C | 3.2% | 0hPa | 2.5V | 00:00:00 | 00:00:00 | 00:00:00 | |
| OE5MMP-10 | 2026-09-06 00:02:53 | 49.50747 | 15.50047 | 122° | 68km/h | 17059m | 4.1m/s | -56.2°C | 3.3% | 0hPa | 2.5V | 00:00:00 | 01:16:41 | 00:00:00 | |
| OE3MUC-15 | 2026-09-06 00:02:52 | 49.50777 | 15.49980 | 129° | 66km/h | 17045m | 5.4m/s | -56.3°C | 3.2% | 0hPa | 2.5V | 00:00:00 | 00:00:00 | 00:00:00 | |
| DO3MHA-11 | 2026-09-06 00:02:50 | 49.50787 | 15.49960 | 129° | 75km/h | 17040m | 4.5m/s | -56.3°C | 3.2% | 0hPa | 2.5V | 00:00:00 | 01:16:37 | 00:00:00 | |
| OE3MUC-15 | 2026-09-06 00:02:48 | 49.50818 | 15.49899 | 130° | 71km/h | 17026m | 5.0m/s | -56.4°C | 3.2% | 0hPa | 2.5V | 00:00:00 | 00:00:00 | 08:30:00 | |
| PG1ADW-2 | 2026-09-06 00:02:44 | 49.50829 | 15.49879 | 132° | 75km/h | 17020m | 6.2m/s | -56.4°C | 3.2% | 0hPa | 2.7V | 00:00:00 | 01:16:33 | 00:00:00 | |
| PETON7-10 | 2026-09-06 00:02:41 | 49.50853 | 15.49838 | 131° | 75km/h | 17009m | 5.8m/s | -56.4°C | 3.2% | 0hPa | 2.7V | 00:00:00 | 01:16:31 | 00:00:00 | |
| OE3MUC-15 | 2026-09-06 00:02:39 | 49.50864 | 15.49816 | 130° | 75km/h | 17004m | 4.2m/s | -56.3°C | 3.2% | 0hPa | 2.7V | 00:00:00 | 00:00:00 | 00:00:00 | |
| OE5DRO-10 | 2026-09-06 00:02:35 | 49.50901 | 15.49750 | 134° | 77km/h | 16988m | 5.0m/s | -56.2°C | 3.2% | 0hPa | 2.7V | 00:00:00 | 00:00:00 | 08:30:00 | |
| OE3MUC-15 | 2026-09-06 00:02:33 | 49.50914 | 15.49729 | 134° | 75km/h | 16983m | 5.0m/s | -56.2°C | 3.2% | 0hPa | 2.7V | 00:00:00 | 00:00:00 | 00:00:00 | |
| S52SK | 2026-09-06 00:02:29 | 49.50953 | 15.49667 | 137° | 75km/h | 16967m | 6.6m/s | 0°C | 0% | 0hPa | 2.7V | 00:00:00 | 00:00:00 | 00:00:00 | |
| OE3MUC-15 | 2026-09-06 00:02:28 | 49.50966 | 15.49648 | 137° | 73km/h | 16962m | 4.0m/s | -56.2°C | 3.2% | 0hPa | 2.7V | 00:00:00 | 00:00:00 | 00:00:00 | |
| NBG1-10 | 2026-09-06 00:02:27 | 49.50979 | 15.49628 | 136° | 84km/h | 16957m | 4.4m/s | -56.1°C | 3.2% | 0hPa | 2.7V | 00:00:00 | 01:16:21 | 00:00:00 | |
| OE5MMP-10 | 2026-09-06 00:02:26 | 49.50979 | 15.49628 | 136° | 77km/h | 16957m | 4.4m/s | -56.1°C | 3.2% | 0hPa | 2.7V | 00:00:00 | 01:16:21 | 00:00:00 | |
| OE3MUC-15 | 2026-09-06 00:02:24 | 49.51016 | 15.49564 | 131° | 78km/h | 16943m | 4.2m/s | -56.1°C | 3.2% | 0hPa | 2.7V | 00:00:00 | 00:00:00 | 00:00:00 | |
| S52SK | 2026-09-06 00:02:23 | 49.51017 | 15.49564 | 131° | 77km/h | 16943m | 4.3m/s | 0°C | 0% | 0hPa | 2.7V | 00:00:00 | 00:00:00 | 00:00:00 | |
| SP3BTT-10 | 2026-09-06 00:02:22 | 49.51029 | 15.49541 | 132° | 82km/h | 16938m | 5.4m/s | -56.1°C | 3.2% | 0hPa | 2.7V | 00:00:00 | 00:00:00 | 00:00:00 | |
| PETON7-10 | 2026-09-06 00:02:21 | 49.51042 | 15.49518 | 133° | 82km/h | 16932m | 6.0m/s | -56.1°C | 3.2% | 0hPa | 2.7V | 00:00:00 | 00:00:00 | 08:30:00 | |
| OE3MUC-15 | 2026-09-06 00:02:18 | 49.51070 | 15.49474 | 134° | 78km/h | 16921m | 4.6m/s | -56.2°C | 3.2% | 0hPa | 2.7V | 00:00:00 | 00:00:00 | 00:00:00 | |
| S52SK | 2026-09-06 00:02:17 | 49.51097 | 15.49429 | 133° | 78km/h | 16911m | 4.0m/s | 0°C | 0% | 0hPa | 2.7V | 00:00:00 | 00:00:00 | 00:00:00 | |
| OE3MUC-15 | 2026-09-06 00:02:16 | 49.51124 | 15.49385 | 136° | 86km/h | 16900m | 5.3m/s | -56.5°C | 3.3% | 0hPa | 2.7V | 00:00:00 | 00:00:00 | 00:00:00 | |
| OE5DRO-10 | 2026-09-06 00:02:13 | 49.51153 | 15.49342 | 135° | 89km/h | 16890m | 5.7m/s | -56.7°C | 3.3% | 0hPa | 2.5V | 00:00:00 | 00:00:00 | 00:00:00 | |
| HA6NAB-11 | 2026-09-06 00:02:10 | 49.51181 | 15.49297 | 136° | 84km/h | 16880m | 4.7m/s | -56.8°C | 0.6% | 0hPa | 2.5V | 00:00:00 | 00:00:00 | 00:00:00 | |
| OE5MMP-10 | 2026-09-06 00:02:05 | 49.51260 | 15.49171 | 132° | 91km/h | 16855m | 4.5m/s | -56.6°C | 3.2% | 0hPa | 2.5V | 00:00:00 | 01:16:01 | 00:00:00 | |
| HA6NAB-11 | 2026-09-06 00:02:04 | 49.51276 | 15.49143 | 133° | 95km/h | 16849m | 6.5m/s | -56.7°C | 0.6% | 0hPa | 2.5V | 00:00:00 | 00:00:00 | 00:00:00 | |
| OE3JTB-15 | 2026-09-06 00:02:03 | 49.51292 | 15.49115 | 133° | 88km/h | 16844m | 4.3m/s | -56.6°C | 3.3% | 0hPa | 2.5V | 00:00:00 | 00:00:00 | 00:00:00 | |
| OK1ALN | 2026-09-06 00:02:01 | 49.51323 | 15.49060 | 131° | 93km/h | 16833m | 4.7m/s | -56.7°C | 0.6% | 0hPa | 2.5V | 00:00:00 | 00:00:00 | 00:00:00 | |
| HA6NAB-11 | 2026-09-06 00:02:00 | 49.51353 | 15.49007 | 132° | 88km/h | 16823m | 6.9m/s | -56.6°C | 0.6% | 0hPa | 2.5V | 00:00:00 | 00:00:00 | 00:00:00 | |
| PG1ADW-2 | 2026-09-06 00:01:59 | 49.51382 | 15.48956 | 132° | 86km/h | 16812m | 5.6m/s | -56.5°C | 3.3% | 0hPa | 2.5V | 00:00:00 | 00:00:00 | 00:00:00 | |
| OE5MMP-10 | 2026-09-06 00:01:58 | 49.51412 | 15.48904 | 132° | 86km/h | 16803m | 4.7m/s | -56.5°C | 3.3% | 0hPa | 2.7V | 00:00:00 | 01:15:51 | 08:30:00 | |
| NBG1-10 | 2026-09-06 00:01:56 | 49.51457 | 15.48827 | 131° | 84km/h | 16788m | 4.2m/s | -56.6°C | 3.3% | 0hPa | 2.5V | 00:00:00 | 01:15:48 | 00:00:00 | |
| PETON7-10 | 2026-09-06 00:01:55 | 49.51484 | 15.48774 | 126° | 86km/h | 16778m | 4.1m/s | -56.6°C | 3.3% | 0hPa | 2.5V | 00:00:00 | 01:15:46 | 00:00:00 | |
| OK1SLM-15 | 2026-09-06 00:01:54 | 49.51497 | 15.48747 | 126° | 86km/h | 16773m | 4.5m/s | 0°C | 0% | 0hPa | 2.5V | 00:00:00 | 00:00:00 | 00:00:00 | |
| HA6NAB-11 | 2026-09-06 00:01:53 | 49.51509 | 15.48721 | 128° | 84km/h | 16768m | 6.1m/s | -56.8°C | 0.6% | 0hPa | 2.5V | 00:00:00 | 00:00:00 | 00:00:00 | |
| OE3MUC-15 | 2026-09-06 00:01:50 | 49.51534 | 15.48671 | 127° | 82km/h | 16757m | 5.3m/s | -56.7°C | 3.3% | 0hPa | 2.5V | 00:00:00 | 00:00:00 | 08:30:00 | |
| OE5MMP-10 | 2026-09-06 00:01:49 | 49.51546 | 15.48645 | 126° | 86km/h | 16751m | 6.5m/s | -56.7°C | 3.3% | 0hPa | 2.5V | 00:00:00 | 01:15:41 | 00:00:00 | |
| EDDB2-11 | 2026-09-06 00:01:48 | 49.51571 | 15.48592 | 125° | 84km/h | 16740m | 6.7m/s | -56.7°C | 0.4% | -1.0hPa | 2.5V | 00:00:00 | 00:00:00 | 00:00:00 | |
| HA6NAB-11 | 2026-09-06 00:01:47 | 49.51571 | 15.48592 | 127° | 86km/h | 16740m | 6.7m/s | -56.7°C | 0.6% | 0hPa | 2.5V | 00:00:00 | 00:00:00 | 00:00:00 | |
| OK1ALN | 2026-09-06 00:01:44 | 49.51610 | 15.48509 | 125° | 89km/h | 16723m | 5.8m/s | -56.5°C | 0.6% | 0hPa | 2.5V | 00:00:00 | 00:00:00 | 00:00:00 | |
| PG1ADW-2 | 2026-09-06 00:01:40 | 49.51647 | 15.48424 | 125° | 84km/h | 16708m | 5.6m/s | -56.4°C | 3.2% | 0hPa | 2.5V | 00:00:00 | 00:00:00 | 00:00:00 | |
| HA6NAB-11 | 2026-09-06 00:01:39 | 49.51647 | 15.48424 | 125° | 84km/h | 16708m | 5.7m/s | -56.4°C | 0.6% | 0hPa | 2.5V | 00:00:00 | 00:00:00 | 00:00:00 | |
| OE5MMP-10 | 2026-09-06 00:01:36 | 49.51669 | 15.48371 | 122° | 80km/h | 16698m | 4.9m/s | -56.3°C | 3.2% | 0hPa | 2.5V | 00:00:00 | 01:15:31 | 00:00:00 | |
| OE5DRO-10 | 2026-09-06 00:01:35 | 49.51680 | 15.48343 | 120° | 84km/h | 16693m | 5.3m/s | -56.3°C | 3.2% | 0hPa | 2.5V | 00:00:00 | 00:00:00 | 00:00:00 | |
| HA6NAB-11 | 2026-09-06 00:01:34 | 49.51699 | 15.48289 | 119° | 77km/h | 16683m | 5.8m/s | -56.4°C | 0.6% | 0hPa | 2.7V | 00:00:00 | 00:00:00 | 00:00:00 | |
| OE5MMP-10 | 2026-09-06 00:01:28 | 49.51770 | 15.48098 | 122° | 86km/h | 16646m | 5.7m/s | -56.7°C | 3.4% | 0hPa | 2.7V | 00:00:00 | 01:15:21 | 00:00:00 | |
| OE3JTB-15 | 2026-09-06 00:01:27 | 49.51781 | 15.48070 | 121° | 80km/h | 16641m | 4.2m/s | -56.8°C | 3.3% | 0hPa | 2.5V | 00:00:00 | 01:15:20 | 00:00:00 | |
| NBG1-10 | 2026-09-06 00:01:24 | 49.51831 | 15.47920 | 115° | 80km/h | 16613m | 4.8m/s | -57.1°C | 3.4% | 0hPa | 2.5V | 00:00:00 | 01:15:15 | 00:00:00 | |
| OK1ALN | 2026-09-06 00:01:23 | 49.51831 | 15.47920 | 116° | 84km/h | 16613m | 4.8m/s | -57.1°C | 0.6% | 0hPa | 2.5V | 00:00:00 | 00:00:00 | 00:00:00 | |
| PG1ADW-2 | 2026-09-06 00:01:22 | 49.51849 | 15.47860 | 114° | 80km/h | 16602m | 5.0m/s | -57.0°C | 3.4% | 0hPa | 2.5V | 00:00:00 | 01:15:13 | 00:00:00 | |
| OE5MMP-10 | 2026-09-06 00:01:18 | 49.51867 | 15.47800 | 116° | 84km/h | 16591m | 5.0m/s | -57.0°C | 3.4% | 0hPa | 2.5V | 00:00:00 | 01:15:11 | 00:00:00 | |
| HA6NAB-11 | 2026-09-06 00:01:17 | 49.51876 | 15.47771 | 117° | 86km/h | 16585m | 6.1m/s | -57.0°C | 0.6% | 0hPa | 2.5V | 00:00:00 | 00:00:00 | 00:00:00 | |
| EDDB2-11 | 2026-09-06 00:01:16 | 49.51895 | 15.47711 | 116° | 86km/h | 16575m | 2.6m/s | -56.9°C | 0.5% | -1.0hPa | 2.5V | 00:00:00 | 00:00:00 | 00:00:00 | |
| OE3MUC-15 | 2026-09-06 00:01:13 | 49.51916 | 15.47652 | 120° | 82km/h | 16565m | 7.3m/s | -56.8°C | 3.4% | 0hPa | 2.5V | 00:00:00 | 00:00:00 | 08:30:00 | |
| HA6NAB-11 | 2026-09-06 00:01:10 | 49.51936 | 15.47596 | 119° | 82km/h | 16554m | 5.9m/s | -56.7°C | 0.6% | 0hPa | 2.5V | 00:00:00 | 00:00:00 | 00:00:00 | |
| PETON7-10 | 2026-09-06 00:01:08 | 49.51964 | 15.47514 | 119° | 78km/h | 16539m | 6.3m/s | -56.5°C | 3.4% | 0hPa | 2.5V | 00:00:00 | 01:15:01 | 00:00:00 | |
| OK1ALN | 2026-09-06 00:00:59 | 49.52021 | 15.47323 | 117° | 80km/h | 16505m | 5.4m/s | -56.3°C | 0.6% | 0hPa | 2.5V | 00:00:00 | 00:00:00 | 00:00:00 | |
| OE3MUC-15 | 2026-09-06 00:00:58 | 49.52030 | 15.47295 | 117° | 80km/h | 16499m | 4.9m/s | -56.2°C | 3.2% | 0hPa | 2.5V | 00:00:00 | 00:00:00 | 00:00:00 | |
| PG1ADW-2 | 2026-09-06 00:00:57 | 49.52030 | 15.47295 | 117° | 77km/h | 16499m | 4.9m/s | -56.2°C | 3.2% | 0hPa | 2.5V | 00:00:00 | 00:00:00 | 08:30:00 | |
| OE5DRO-10 | 2026-09-06 00:00:56 | 49.52039 | 15.47267 | 116° | 77km/h | 16494m | 5.7m/s | -56.2°C | 3.3% | 0hPa | 2.6V | 00:00:00 | 00:00:00 | 00:00:00 | |
| HA6NAB-11 | 2026-09-06 00:00:55 | 49.52048 | 15.47238 | 117° | 80km/h | 16489m | 4.2m/s | -56.2°C | 0.6% | 0hPa | 2.6V | 00:00:00 | 00:00:00 | 00:00:00 | |
| OE3MUC-15 | 2026-09-06 00:00:53 | 49.52066 | 15.47184 | 121° | 77km/h | 16477m | 6.0m/s | -56.0°C | 3.3% | 0hPa | 2.6V | 00:00:00 | 00:00:00 | 00:00:00 | |
| PETON7-10 | 2026-09-06 00:00:50 | 49.52095 | 15.47106 | 117° | 77km/h | 16461m | 4.7m/s | -55.9°C | 3.2% | 0hPa | 2.6V | 00:00:00 | 00:00:00 | 00:00:00 | |
| HA6NAB-11 | 2026-09-06 00:00:49 | 49.52104 | 15.47079 | 117° | 77km/h | 16456m | 3.9m/s | -55.9°C | 0.6% | 0hPa | 2.7V | 00:00:00 | 00:00:00 | 00:00:00 | |
| OE5MMP-10 | 2026-09-06 00:00:47 | 49.52140 | 15.46972 | 117° | 75km/h | 16435m | 5.7m/s | -55.8°C | 3.2% | 0hPa | 2.7V | 00:00:00 | 01:14:41 | 00:00:00 | |
| OE3MUC-15 | 2026-09-06 00:00:46 | 49.52174 | 15.46866 | 119° | 77km/h | 16413m | 4.8m/s | -55.8°C | 3.3% | 0hPa | 2.7V | 00:00:00 | 00:00:00 | 00:00:00 | |
| OE5DRO-10 | 2026-09-06 00:00:42 | 49.52209 | 15.46764 | 118° | 71km/h | 16395m | 4.0m/s | -55.8°C | 3.2% | 0hPa | 2.6V | 00:00:00 | 00:00:00 | 00:00:00 | |
| OK1ALN | 2026-09-06 00:00:41 | 49.52209 | 15.46764 | 119° | 73km/h | 16395m | 4.1m/s | -55.8°C | 0.7% | 0hPa | 2.6V | 00:00:00 | 00:00:00 | 00:00:00 | |
| PETON7-10 | 2026-09-06 00:00:38 | 49.52227 | 15.46712 | 117° | 69km/h | 16383m | 5.5m/s | -55.8°C | 3.2% | 0hPa | 2.6V | 00:00:00 | 00:00:00 | 00:00:00 | |
| HA6NAB-11 | 2026-09-06 00:00:37 | 49.52227 | 15.46712 | 118° | 77km/h | 16383m | 5.6m/s | -55.8°C | 0.6% | 0hPa | 2.6V | 00:00:00 | 00:00:00 | 00:00:00 | |
| OE3MUC-15 | 2026-09-06 00:00:35 | 49.52244 | 15.46658 | 117° | 75km/h | 16371m | 5.7m/s | -55.7°C | 3.2% | 0hPa | 2.6V | 00:00:00 | 00:00:00 | 00:00:00 | |
| HA6NAB-11 | 2026-09-06 00:00:30 | 49.52271 | 15.46580 | 121° | 73km/h | 16354m | 5.0m/s | -55.7°C | 0.6% | 0hPa | 2.6V | 00:00:00 | 00:00:00 | 00:00:00 | |
| OE3MUC-15 | 2026-09-06 00:00:29 | 49.52280 | 15.46556 | 119° | 68km/h | 16349m | 4.3m/s | -55.6°C | 3.2% | 0hPa | 2.6V | 00:00:00 | 00:00:00 | 00:00:00 | |
| OE3MUC-15 | 2026-09-06 00:00:25 | 49.52310 | 15.46466 | 117° | 66km/h | 16328m | 3.8m/s | -55.7°C | 3.2% | 0hPa | 2.6V | 00:00:00 | 00:00:00 | 08:30:00 | |
| HA6NAB-11 | 2026-09-06 00:00:24 | 49.52317 | 15.46443 | 115° | 64km/h | 16324m | 4.1m/s | -55.7°C | 0.7% | 0hPa | 2.6V | 00:00:00 | 00:00:00 | 00:00:00 | |
| S52SK | 2026-09-06 00:00:23 | 49.52324 | 15.46420 | 112° | 66km/h | 16319m | 6.1m/s | 0°C | 0% | 0hPa | 2.6V | 00:00:00 | 00:00:00 | 00:00:00 | |
| PETON7-10 | 2026-09-06 00:00:21 | 49.52342 | 15.46346 | 113° | 69km/h | 16304m | 5.4m/s | -55.8°C | 3.3% | 0hPa | 2.6V | 00:00:00 | 01:14:16 | 00:00:00 | |
| PG1ADW-2 | 2026-09-06 00:00:20 | 49.52362 | 15.46272 | 114° | 73km/h | 16290m | 5.3m/s | -55.9°C | 3.2% | 0hPa | 2.6V | 00:00:00 | 00:00:00 | 00:00:00 | |
| OK1ALN | 2026-09-06 00:00:19 | 49.52369 | 15.46248 | 114° | 68km/h | 16285m | 4.5m/s | -56.0°C | 0.7% | 0hPa | 2.6V | 00:00:00 | 00:00:00 | 00:00:00 | |
| OE5MMP-10 | 2026-09-06 00:00:18 | 49.52375 | 15.46224 | 114° | 69km/h | 16281m | 3.9m/s | -55.9°C | 3.2% | 0hPa | 2.6V | 00:00:00 | 01:14:11 | 00:00:00 | |
| OE3MUC-15 | 2026-09-06 00:00:13 | 49.52390 | 15.46176 | 116° | 66km/h | 16271m | 4.0m/s | -56.0°C | 3.2% | 0hPa | 2.6V | 00:00:00 | 00:00:00 | 00:00:00 | |
| OE3MUC-15 | 2026-09-06 00:00:11 | 49.52418 | 15.46084 | 117° | 75km/h | 16251m | 6.1m/s | -55.9°C | 3.2% | 0hPa | 2.7V | 00:00:00 | 00:00:00 | 00:00:00 | |
| HA6NAB-11 | 2026-09-06 00:00:09 | 49.52434 | 15.46033 | 115° | 77km/h | 16240m | 5.0m/s | -56.1°C | 0% | 0hPa | 2.7V | 00:00:00 | 00:00:00 | 00:00:00 | |
| OE3MUC-15 | 2026-09-06 00:00:06 | 49.52449 | 15.45977 | 112° | 78km/h | 16229m | 4.7m/s | -56.2°C | 3.2% | 0hPa | 2.7V | 00:00:00 | 00:00:00 | 00:00:00 | |
| PETON7-10 | 2026-09-06 00:00:05 | 49.52449 | 15.45977 | 112° | 78km/h | 16229m | 4.7m/s | -56.2°C | 3.2% | 0hPa | 2.7V | 00:00:00 | 00:00:00 | 08:30:00 | |
| HA6NAB-11 | 2026-09-06 00:00:00 | 49.52480 | 15.45861 | 116° | 78km/h | 16210m | 6.0m/s | -56.5°C | 0% | 0hPa | 2.6V | 00:00:00 | 00:00:00 | 00:00:00 | |
| OE5DRO-10 | 2026-09-05 23:59:59 | 49.52495 | 15.45809 | 120° | 78km/h | 16200m | 3.4m/s | -56.5°C | 3.3% | 0hPa | 2.6V | 00:00:00 | 00:00:00 | 00:00:00 | |
| PG1ADW-2 | 2026-09-05 23:59:57 | 49.52514 | 15.45761 | 124° | 78km/h | 16190m | 4.9m/s | -56.6°C | 3.4% | 0hPa | 2.6V | 00:00:00 | 01:13:53 | 00:00:00 | |
| HA6NAB-11 | 2026-09-05 23:59:55 | 49.52536 | 15.45712 | 123° | 78km/h | 16181m | 4.0m/s | -56.7°C | 0% | 0hPa | 2.6V | 00:00:00 | 00:00:00 | 00:00:00 | |
| OE5MMP-10 | 2026-09-05 23:59:53 | 49.52556 | 15.45660 | 119° | 80km/h | 16171m | 5.0m/s | -56.8°C | 3.4% | 0hPa | 2.6V | 00:00:00 | 01:13:49 | 00:00:00 | |
| DO3MHA-11 | 2026-09-05 23:59:51 | 49.52574 | 15.45606 | 117° | 77km/h | 16161m | 5.0m/s | -56.8°C | 3.5% | 0hPa | 2.7V | 00:00:00 | 01:13:47 | 00:00:00 | |
| HA6NAB-11 | 2026-09-05 23:59:50 | 49.52583 | 15.45578 | 117° | 82km/h | 16157m | 3.8m/s | -56.9°C | 0% | 0hPa | 2.7V | 00:00:00 | 00:00:00 | 00:00:00 | |
| PETON7-10 | 2026-09-05 23:59:48 | 49.52601 | 15.45521 | 116° | 77km/h | 16147m | 6.4m/s | -56.9°C | 3.5% | 0hPa | 2.7V | 00:00:00 | 00:00:00 | 00:00:00 | |
| OK1SLM-15 | 2026-09-05 23:59:47 | 49.52610 | 15.45494 | 117° | 78km/h | 16141m | 4.5m/s | 0°C | 0% | 0hPa | 2.7V | 00:00:00 | 00:00:00 | 00:00:00 | |
| OE5DXL-15 | 2026-09-05 23:59:46 | 49.52618 | 15.45466 | 115° | 77km/h | 16136m | 5.3m/s | -56.9°C | 3.5% | 0hPa | 2.7V | 00:00:00 | 00:00:00 | 00:00:00 | |
| OE5MMP-10 | 2026-09-05 23:59:43 | 49.52643 | 15.45381 | 113° | 75km/h | 16122m | 5.6m/s | -57.1°C | 3.5% | 0hPa | 2.7V | 00:00:00 | 01:13:39 | 00:00:00 | |
| EDDB2-11 | 2026-09-05 23:59:40 | 49.52673 | 15.45273 | 113° | 75km/h | 16102m | 4.0m/s | -57.3°C | 0.7% | -1.0hPa | 2.7V | 00:00:00 | 00:00:00 | 00:00:00 | |
| HA6NAB-11 | 2026-09-05 23:59:38 | 49.52680 | 15.45246 | 115° | 73km/h | 16098m | 3.9m/s | -57.3°C | 0% | 0hPa | 2.7V | 00:00:00 | 00:00:00 | 00:00:00 | |
| PG1ADW-2 | 2026-09-05 23:59:37 | 49.52688 | 15.45221 | 115° | 77km/h | 16093m | 6.1m/s | -57.2°C | 3.4% | 0hPa | 2.7V | 00:00:00 | 00:00:00 | 00:00:00 | |
| DO3MHA-11 | 2026-09-05 23:59:35 | 49.52703 | 15.45170 | 116° | 77km/h | 16083m | 3.9m/s | -57.3°C | 3.6% | 0hPa | 2.7V | 00:00:00 | 01:13:31 | 00:00:00 | |
| HA6NAB-11 | 2026-09-05 23:59:33 | 49.52720 | 15.45117 | 119° | 80km/h | 16074m | 4.2m/s | -57.4°C | 0% | 0hPa | 2.7V | 00:00:00 | 00:00:00 | 00:00:00 | |
| HA6NAB-11 | 2026-09-05 23:59:26 | 49.52780 | 15.44959 | 120° | 75km/h | 16043m | 5.0m/s | -57.6°C | 0% | 0hPa | 2.7V | 00:00:00 | 00:00:00 | 00:00:00 | |
| OE5MMP-10 | 2026-09-05 23:59:23 | 49.52817 | 15.44861 | 120° | 82km/h | 16022m | 5.8m/s | -57.5°C | 3.7% | 0hPa | 2.7V | 00:00:00 | 01:13:19 | 00:00:00 | |
| OE5DRO-10 | 2026-09-05 23:59:21 | 49.52836 | 15.44811 | 124° | 84km/h | 16013m | 4.8m/s | -57.4°C | 3.7% | 0hPa | 2.6V | 00:00:00 | 00:00:00 | 00:00:00 | |
| OE3MUC-15 | 2026-09-05 23:59:19 | 49.52860 | 15.44760 | 128° | 88km/h | 16002m | 4.7m/s | -57.3°C | 3.6% | 0hPa | 2.6V | 00:00:00 | 00:00:00 | 00:00:00 | |
| PG1ADW-2 | 2026-09-05 23:59:18 | 49.52888 | 15.44706 | 128° | 84km/h | 15992m | 4.4m/s | -57.4°C | 3.8% | 0hPa | 2.6V | 00:00:00 | 00:00:00 | 00:00:00 | |
| HA6NAB-11 | 2026-09-05 23:59:17 | 49.52888 | 15.44706 | 128° | 89km/h | 15992m | 4.4m/s | 0°C | 0% | 0hPa | 2.6V | 00:00:00 | 00:00:00 | 00:00:00 | |
| OE5DXL-15 | 2026-09-05 23:59:16 | 49.52901 | 15.44678 | 127° | 86km/h | 15987m | 4.9m/s | -57.4°C | 3.7% | 0hPa | 2.6V | 00:00:00 | 00:00:00 | 00:00:00 | |
| OE3MUC-15 | 2026-09-05 23:59:15 | 49.52914 | 15.44651 | 127° | 84km/h | 15982m | 5.3m/s | -57.4°C | 3.8% | 0hPa | 2.6V | 00:00:00 | 00:00:00 | 00:00:00 | |
| OE5MMP-10 | 2026-09-05 23:59:13 | 49.52938 | 15.44598 | 125° | 82km/h | 15972m | 5.1m/s | -57.5°C | 3.6% | 0hPa | 2.6V | 00:00:00 | 01:13:09 | 00:00:00 | |
| HA6NAB-11 | 2026-09-05 23:59:11 | 49.52961 | 15.44544 | 123° | 78km/h | 15962m | 4.5m/s | 0°C | 0% | 0hPa | 2.6V | 00:00:00 | 00:00:00 | 00:00:00 | |
| EDDB2-11 | 2026-09-05 23:59:09 | 49.52994 | 15.44468 | 125° | 78km/h | 15947m | 4.8m/s | -57.5°C | 0.8% | -1.0hPa | 2.6V | 00:00:00 | 00:00:00 | 00:00:00 | |
| OE3JTB-15 | 2026-09-05 23:59:08 | 49.52994 | 15.44468 | 126° | 91km/h | 15947m | 4.8m/s | -57.5°C | 3.8% | 0hPa | 2.6V | 00:00:00 | 00:00:00 | 00:00:00 | |
| OE3MUC-15 | 2026-09-05 23:59:07 | 49.53006 | 15.44442 | 127° | 84km/h | 15942m | 4.6m/s | -57.5°C | 3.7% | 0hPa | 2.7V | 00:00:00 | 00:00:00 | 00:00:00 | |
| DO3MHA-11 | 2026-09-05 23:59:06 | 49.53019 | 15.44416 | 127° | 86km/h | 15938m | 4.1m/s | -57.5°C | 3.8% | 0hPa | 2.7V | 00:00:00 | 01:13:02 | 00:00:00 | |
| HA6NAB-11 | 2026-09-05 23:59:05 | 49.53019 | 15.44416 | 128° | 86km/h | 15938m | 4.1m/s | 0°C | 0% | 0hPa | 2.7V | 00:00:00 | 00:00:00 | 00:00:00 | |
| OE5MMP-10 | 2026-09-05 23:59:03 | 49.53058 | 15.44340 | 130° | 88km/h | 15923m | 3.6m/s | -57.4°C | 3.8% | 0hPa | 2.7V | 00:00:00 | 01:12:59 | 00:00:00 | |
| OE5DRO-10 | 2026-09-05 23:59:02 | 49.53072 | 15.44314 | 128° | 89km/h | 15918m | 5.6m/s | -57.3°C | 3.8% | 0hPa | 2.7V | 00:00:00 | 00:00:00 | 00:00:00 | |
| HA6NAB-11 | 2026-09-05 23:59:00 | 49.53098 | 15.44259 | 128° | 89km/h | 15909m | 4.6m/s | 0°C | 0% | 0hPa | 2.7V | 00:00:00 | 00:00:00 | 00:00:00 | |
| OE3MUC-15 | 2026-09-05 23:58:59 | 49.53112 | 15.44231 | 127° | 88km/h | 15904m | 5.7m/s | -57.2°C | 3.8% | 0hPa | 2.7V | 00:00:00 | 00:00:00 | 00:00:00 | |
| PG1ADW-2 | 2026-09-05 23:58:57 | 49.53138 | 15.44176 | 126° | 91km/h | 15892m | 5.3m/s | -57.2°C | 3.8% | 0hPa | 2.6V | 00:00:00 | 00:00:00 | 00:00:00 | |
| DO3MHA-11 | 2026-09-05 23:58:56 | 49.53150 | 15.44147 | 126° | 88km/h | 15888m | 4.0m/s | -57.2°C | 3.7% | 0hPa | 2.7V | 00:00:00 | 01:12:52 | 00:00:00 | |
| OE3MUC-15 | 2026-09-05 23:58:55 | 49.53163 | 15.44120 | 125° | 86km/h | 15883m | 5.1m/s | -57.2°C | 3.6% | 0hPa | 2.7V | 00:00:00 | 00:00:00 | 00:00:00 | |
| OK1ALN | 2026-09-05 23:58:53 | 49.53186 | 15.44065 | 125° | 84km/h | 15873m | 4.1m/s | -57.3°C | 1.1% | 0hPa | 2.7V | 00:00:00 | 00:00:00 | 00:00:00 | |
| OE3MUC-15 | 2026-09-05 23:58:51 | 49.53210 | 15.44008 | 123° | 89km/h | 15863m | 3.6m/s | -57.3°C | 3.8% | 0hPa | 2.7V | 00:00:00 | 00:00:00 | 00:00:00 | |
| SP3BTT-10 | 2026-09-05 23:58:49 | 49.53234 | 15.43950 | 125° | 93km/h | 15853m | 5.7m/s | -57.3°C | 3.8% | 0hPa | 2.7V | 00:00:00 | 00:00:00 | 00:00:00 | |
| PETON7-10 | 2026-09-05 23:58:48 | 49.53247 | 15.43922 | 126° | 95km/h | 15847m | 4.6m/s | -57.3°C | 3.7% | 0hPa | 2.7V | 00:00:00 | 01:12:44 | 00:00:00 | |
| OE3MUC-15 | 2026-09-05 23:58:47 | 49.53261 | 15.43893 | 128° | 95km/h | 15842m | 5.6m/s | -57.3°C | 3.7% | 0hPa | 2.7V | 00:00:00 | 00:00:00 | 00:00:00 | |
| DO3MHA-11 | 2026-09-05 23:58:46 | 49.53275 | 15.43864 | 126° | 93km/h | 15837m | 4.1m/s | -57.4°C | 3.7% | 0hPa | 2.6V | 00:00:00 | 01:12:42 | 08:30:00 | |
| OE3MUC-15 | 2026-09-05 23:58:43 | 49.53318 | 15.43776 | 127° | 91km/h | 15822m | 4.1m/s | -57.4°C | 3.8% | 0hPa | 2.6V | 00:00:00 | 00:00:00 | 00:00:00 | |
| EDDB2-11 | 2026-09-05 23:58:38 | 49.53397 | 15.43596 | 122° | 95km/h | 15793m | 5.5m/s | -57.7°C | 1.0% | -1.0hPa | 2.6V | 00:00:00 | 00:00:00 | 00:00:00 | |
| PG1ADW-2 | 2026-09-05 23:58:37 | 49.53397 | 15.43595 | 123° | 97km/h | 15793m | 5.5m/s | -57.6°C | 3.9% | 0hPa | 2.6V | 00:00:00 | 01:12:33 | 00:00:00 | |
| DO3MHA-11 | 2026-09-05 23:58:36 | 49.53410 | 15.43564 | 121° | 95km/h | 15788m | 3.8m/s | -57.7°C | 3.8% | 0hPa | 2.6V | 00:00:00 | 01:12:32 | 00:00:00 | |
| NBG1-10 | 2026-09-05 23:58:34 | 49.53435 | 15.43499 | 122° | 95km/h | 15777m | 5.3m/s | -57.9°C | 3.8% | 0hPa | 2.6V | 00:00:00 | 01:12:30 | 00:00:00 | |
| PETON7-10 | 2026-09-05 23:58:33 | 49.53447 | 15.43467 | 121° | 99km/h | 15772m | 4.0m/s | -58.0°C | 3.9% | 0hPa | 2.6V | 00:00:00 | 00:00:00 | 00:00:00 | |
| OK1ALN | 2026-09-05 23:58:32 | 49.53447 | 15.43468 | 121° | 97km/h | 15772m | 4.0m/s | -58.1°C | 1.2% | 0hPa | 2.7V | 00:00:00 | 00:00:00 | 00:00:00 | |
| S52SK | 2026-09-05 23:58:30 | 49.53473 | 15.43400 | 122° | 102km/h | 15763m | 3.8m/s | 0°C | 0% | 0hPa | 2.7V | 00:00:00 | 00:00:00 | 00:00:00 | |
| S52SK | 2026-09-05 23:58:25 | 49.53537 | 15.43232 | 120° | 100km/h | 15741m | 4.0m/s | 0°C | 0% | 0hPa | 2.7V | 00:00:00 | 00:00:00 | 00:00:00 | |
| OE5DRO-10 | 2026-09-05 23:58:24 | 49.53562 | 15.43164 | 120° | 89km/h | 15732m | 5.8m/s | -58.9°C | 4.1% | 0hPa | 2.7V | 00:00:00 | 00:00:00 | 00:00:00 | |
| OE5MMP-10 | 2026-09-05 23:58:23 | 49.53573 | 15.43131 | 119° | 93km/h | 15726m | 4.5m/s | -59.0°C | 4.3% | 0hPa | 2.7V | 00:00:00 | 01:12:19 | 00:00:00 | |
| DO3MHA-11 | 2026-09-05 23:58:19 | 49.53613 | 15.43000 | 114° | 88km/h | 15708m | 4.2m/s | -59.2°C | 4.2% | 0hPa | 2.6V | 00:00:00 | 01:12:15 | 00:00:00 | |
| PETON7-10 | 2026-09-05 23:58:18 | 49.53623 | 15.42967 | 115° | 89km/h | 15703m | 6.5m/s | -59.3°C | 4.3% | 0hPa | 2.6V | 00:00:00 | 00:00:00 | 00:00:00 | |
| PG1ADW-2 | 2026-09-05 23:58:17 | 49.53632 | 15.42934 | 115° | 93km/h | 15697m | 5.3m/s | -59.4°C | 4.5% | 0hPa | 2.6V | 00:00:00 | 00:00:00 | 00:00:00 | |
| OE5DXL-15 | 2026-09-05 23:58:16 | 49.53642 | 15.42902 | 116° | 93km/h | 15691m | 4.8m/s | -59.4°C | 4.5% | 0hPa | 2.6V | 00:00:00 | 00:00:00 | 00:00:00 | |
| OE5MMP-10 | 2026-09-05 23:58:13 | 49.53671 | 15.42808 | 116° | 89km/h | 15678m | 5.2m/s | -59.4°C | 4.3% | 0hPa | 2.6V | 00:00:00 | 01:12:09 | 00:00:00 | |
| OE3MUC-15 | 2026-09-05 23:58:12 | 49.53680 | 15.42779 | 118° | 82km/h | 15673m | 5.5m/s | -59.3°C | 4.5% | 0hPa | 2.6V | 00:00:00 | 00:00:00 | 00:00:00 | |
| OK1ALN | 2026-09-05 23:58:11 | 49.53680 | 15.42779 | 119° | 82km/h | 15673m | 5.6m/s | -59.4°C | 1.4% | 0hPa | 2.6V | 00:00:00 | 00:00:00 | 00:00:00 | |
| DO3MHA-11 | 2026-09-05 23:58:09 | 49.53708 | 15.42694 | 116° | 97km/h | 15658m | 3.6m/s | -59.3°C | 4.5% | 0hPa | 2.6V | 00:00:00 | 01:12:05 | 00:00:00 | |
| OE3MUC-15 | 2026-09-05 23:58:08 | 49.53718 | 15.42664 | 117° | 95km/h | 15654m | 5.0m/s | -59.2°C | 4.4% | 0hPa | 2.6V | 00:00:00 | 00:00:00 | 08:30:00 | |
| EDDB2-11 | 2026-09-05 23:58:07 | 49.53740 | 15.42601 | 118° | 97km/h | 15643m | 4.3m/s | -59.2°C | 1.0% | -1.0hPa | 2.6V | 00:00:00 | 00:00:00 | 00:00:00 | |
| OE5DRO-10 | 2026-09-05 23:58:05 | 49.53751 | 15.42567 | 118° | 97km/h | 15639m | 5.3m/s | -59.2°C | 4.4% | 0hPa | 2.6V | 00:00:00 | 00:00:00 | 00:00:00 | |
| OE3MUC-15 | 2026-09-05 23:58:04 | 49.53763 | 15.42532 | 117° | 102km/h | 15634m | 4.4m/s | -59.2°C | 4.4% | 0hPa | 2.6V | 00:00:00 | 00:00:00 | 00:00:00 | |
| OE5MMP-10 | 2026-09-05 23:58:03 | 49.53774 | 15.42496 | 116° | 95km/h | 15629m | 4.4m/s | -59.2°C | 4.4% | 0hPa | 2.6V | 00:00:00 | 01:11:59 | 00:00:00 | |
| NBG1-10 | 2026-09-05 23:58:01 | 49.53797 | 15.42425 | 119° | 95km/h | 15620m | 5.1m/s | -59.2°C | 4.4% | 0hPa | 2.6V | 00:00:00 | 01:11:57 | 00:00:00 | |
| OE3MUC-15 | 2026-09-05 23:58:00 | 49.53809 | 15.42392 | 119° | 95km/h | 15615m | 4.8m/s | -59.2°C | 4.3% | 0hPa | 2.6V | 00:00:00 | 00:00:00 | 00:00:00 | |
| DO3MHA-11 | 2026-09-05 23:57:59 | 49.53821 | 15.42358 | 119° | 93km/h | 15610m | 5.2m/s | -59.1°C | 4.3% | 0hPa | 2.6V | 00:00:00 | 01:11:55 | 00:00:00 | |
| PG1ADW-2 | 2026-09-05 23:57:57 | 49.53844 | 15.42295 | 120° | 93km/h | 15600m | 4.7m/s | -59.1°C | 4.3% | 0hPa | 2.6V | 00:00:00 | 00:00:00 | 08:30:00 | |
| OE3MUC-15 | 2026-09-05 23:57:56 | 49.53855 | 15.42264 | 121° | 89km/h | 15595m | 5.8m/s | -59.1°C | 4.3% | 0hPa | 2.6V | 00:00:00 | 00:00:00 | 00:00:00 | |
| OE5MMP-10 | 2026-09-05 23:57:53 | 49.53889 | 15.42175 | 119° | 95km/h | 15580m | 4.7m/s | -59.0°C | 4.4% | 0hPa | 2.7V | 00:00:00 | 01:11:49 | 00:00:00 | |
| OK1ALN | 2026-09-05 23:57:52 | 49.53900 | 15.42144 | 120° | 93km/h | 15575m | 3.6m/s | -59.0°C | 1.3% | 0hPa | 2.7V | 00:00:00 | 00:00:00 | 00:00:00 | |
| PETON7-10 | 2026-09-05 23:57:48 | 49.53950 | 15.42015 | 122° | 93km/h | 15555m | 4.7m/s | -58.8°C | 4.4% | 0hPa | 2.7V | 00:00:00 | 00:00:00 | 08:30:00 | |
| OE5DXL-15 | 2026-09-05 23:57:46 | 49.53976 | 15.41952 | 124° | 99km/h | 15545m | 6.2m/s | -58.7°C | 4.4% | 0hPa | 2.6V | 00:00:00 | 00:00:00 | 08:30:00 | |
| OE3MUC-15 | 2026-09-05 23:57:44 | 49.54003 | 15.41892 | 125° | 89km/h | 15536m | 3.2m/s | -58.6°C | 4.4% | 0hPa | 2.6V | 00:00:00 | 00:00:00 | 00:00:00 | |
| OE5MMP-10 | 2026-09-05 23:57:43 | 49.54015 | 15.41863 | 123° | 93km/h | 15531m | 5.9m/s | -58.6°C | 4.2% | 0hPa | 2.6V | 00:00:00 | 01:11:39 | 00:00:00 | |
| DO3MHA-11 | 2026-09-05 23:57:38 | 49.54071 | 15.41709 | 120° | 100km/h | 15505m | 4.0m/s | -58.4°C | 4.2% | 0hPa | 2.6V | 00:00:00 | 01:11:34 | 00:00:00 | |
| PG1ADW-2 | 2026-09-05 23:57:37 | 49.54084 | 15.41676 | 121° | 102km/h | 15501m | 5.5m/s | -58.3°C | 4.1% | 0hPa | 2.6V | 00:00:00 | 00:00:00 | 00:00:00 | |
| EDDB2-11 | 2026-09-05 23:57:36 | 49.54108 | 15.41611 | 118° | 95km/h | 15487m | 7.0m/s | -58.3°C | 1.1% | -1.0hPa | 2.6V | 00:00:00 | 00:00:00 | 00:00:00 | |
| SP3BTT-10 | 2026-09-05 23:57:34 | 49.54119 | 15.41578 | 119° | 108km/h | 15480m | 5.5m/s | -58.2°C | 4.1% | 0hPa | 2.6V | 00:00:00 | 00:00:00 | 08:30:00 | |
| OE5MMP-10 | 2026-09-05 23:57:33 | 49.54132 | 15.41544 | 120° | 102km/h | 15475m | 6.3m/s | -58.2°C | 4.1% | 0hPa | 2.7V | 00:00:00 | 01:11:29 | 00:00:00 | |
| OK1ALN | 2026-09-05 23:57:31 | 49.54145 | 15.41510 | 122° | 106km/h | 15469m | 5.0m/s | -58.2°C | 1.2% | 0hPa | 2.7V | 00:00:00 | 00:00:00 | 00:00:00 | |
| OK1SLM-15 | 2026-09-05 23:57:29 | 49.54173 | 15.41439 | 122° | 106km/h | 15457m | 6.5m/s | 0°C | 0% | 0hPa | 2.7V | 00:00:00 | 00:00:00 | 00:00:00 | |
| DO3MHA-11 | 2026-09-05 23:57:28 | 49.54199 | 15.41370 | 122° | 100km/h | 15446m | 5.2m/s | -58.1°C | 4.1% | 0hPa | 2.7V | 00:00:00 | 01:11:24 | 00:00:00 | |
| OE5DRO-10 | 2026-09-05 23:57:27 | 49.54213 | 15.41336 | 122° | 104km/h | 15441m | 6.0m/s | -58.1°C | 4.2% | 0hPa | 2.7V | 00:00:00 | 00:00:00 | 00:00:00 | |
| OE5MMP-10 | 2026-09-05 23:57:23 | 49.54262 | 15.41199 | 115° | 104km/h | 15419m | 3.5m/s | -58.2°C | 4.3% | 0hPa | 2.7V | 00:00:00 | 01:11:19 | 08:30:00 | |
| OE3MUC-15 | 2026-09-05 23:57:19 | 49.54309 | 15.41062 | 121° | 108km/h | 15399m | 4.3m/s | -58.4°C | 4.0% | 0hPa | 2.7V | 00:00:00 | 00:00:00 | 00:00:00 | |
| DO3MHA-11 | 2026-09-05 23:57:18 | 49.54322 | 15.41026 | 120° | 108km/h | 15394m | 7.1m/s | -58.4°C | 4.2% | 0hPa | 2.6V | 00:00:00 | 01:11:14 | 00:00:00 | |
| PG1ADW-2 | 2026-09-05 23:57:17 | 49.54336 | 15.40988 | 119° | 110km/h | 15387m | 7.2m/s | -58.4°C | 4.2% | 0hPa | 2.6V | 00:00:00 | 01:11:13 | 00:00:00 | |
| OE5DXL-15 | 2026-09-05 23:57:16 | 49.54349 | 15.40951 | 117° | 108km/h | 15381m | 5.3m/s | -58.5°C | 4.3% | 0hPa | 2.6V | 00:00:00 | 00:00:00 | 00:00:00 | |
| OK1ALN | 2026-09-05 23:57:11 | 49.54411 | 15.40764 | 117° | 106km/h | 15355m | 5.1m/s | -58.6°C | 1.3% | 0hPa | 2.6V | 00:00:00 | 00:00:00 | 00:00:00 | |
| DO3MHA-11 | 2026-09-05 23:57:08 | 49.54445 | 15.40649 | 114° | 111km/h | 15340m | 5.9m/s | -58.5°C | 4.3% | 0hPa | 2.6V | 00:00:00 | 01:11:04 | 08:30:00 | |
| OE3JTB-15 | 2026-09-05 23:57:06 | 49.54468 | 15.40566 | 112° | 113km/h | 15331m | 4.8m/s | -58.5°C | 4.3% | 0hPa | 2.6V | 00:00:00 | 00:00:00 | 00:00:00 | |
| SP3BTT-10 | 2026-09-05 23:57:04 | 49.54489 | 15.40483 | 112° | 102km/h | 15321m | 3.3m/s | -58.4°C | 4.5% | 0hPa | 2.6V | 00:00:00 | 00:00:00 | 00:00:00 | |
| OE5MMP-10 | 2026-09-05 23:57:03 | 49.54499 | 15.40443 | 113° | 108km/h | 15318m | 4.1m/s | -58.3°C | 4.4% | 0hPa | 2.6V | 00:00:00 | 01:10:59 | 00:00:00 | |
| OE3MUC-15 | 2026-09-05 23:57:01 | 49.54522 | 15.40368 | 117° | 108km/h | 15308m | 4.8m/s | -58.3°C | 4.0% | 0hPa | 2.6V | 00:00:00 | 00:00:00 | 00:00:00 | |
| DO3MHA-11 | 2026-09-05 23:56:58 | 49.54563 | 15.40257 | 120° | 106km/h | 15294m | 3.2m/s | -58.3°C | 4.2% | 0hPa | 2.6V | 00:00:00 | 01:10:54 | 00:00:00 | |
| PG1ADW-2 | 2026-09-05 23:56:57 | 49.54577 | 15.40219 | 120° | 108km/h | 15289m | 5.4m/s | -58.3°C | 4.2% | 0hPa | 2.6V | 00:00:00 | 00:00:00 | 00:00:00 | |
| OE3MUC-15 | 2026-09-05 23:56:56 | 49.54590 | 15.40182 | 118° | 102km/h | 15283m | 6.7m/s | -58.3°C | 4.1% | 0hPa | 2.7V | 00:00:00 | 00:00:00 | 00:00:00 | |
| NBG1-10 | 2026-09-05 23:56:55 | 49.54601 | 15.40146 | 115° | 108km/h | 15276m | 6.1m/s | -58.3°C | 3.9% | 0hPa | 2.7V | 00:00:00 | 01:10:51 | 00:00:00 | |
| OE5MMP-10 | 2026-09-05 23:56:53 | 49.54619 | 15.40073 | 109° | 104km/h | 15262m | 9.5m/s | -58.3°C | 4.1% | 0hPa | 2.7V | 00:00:00 | 01:10:49 | 00:00:00 | |
| OE3MUC-15 | 2026-09-05 23:56:52 | 49.54627 | 15.40035 | 108° | 104km/h | 15251m | 11.4m/s | -58.3°C | 4.2% | 0hPa | 2.6V | 00:00:00 | 00:00:00 | 00:00:00 | |
| OK1ALN | 2026-09-05 23:56:50 | 49.54636 | 15.39997 | 110° | 106km/h | 15241m | 9.2m/s | -58.4°C | 1.3% | 0hPa | 2.7V | 00:00:00 | 00:00:00 | 00:00:00 | |
| OE5DRO-10 | 2026-09-05 23:56:49 | 49.54653 | 15.39919 | 109° | 108km/h | 15228m | 7.2m/s | -58.5°C | 4.2% | 0hPa | 2.7V | 00:00:00 | 00:00:00 | 08:30:00 | |
| DO3MHA-11 | 2026-09-05 23:56:48 | 49.54661 | 15.39880 | 110° | 110km/h | 15220m | 6.8m/s | -58.6°C | 4.2% | 0hPa | 2.6V | 00:00:00 | 01:10:44 | 00:00:00 | |
| OE3MUC-15 | 2026-09-05 23:56:47 | 49.54670 | 15.39843 | 112° | 100km/h | 15214m | 5.3m/s | -58.6°C | 4.3% | 0hPa | 2.6V | 00:00:00 | 00:00:00 | 00:00:00 | |
| OE5DXL-15 | 2026-09-05 23:56:46 | 49.54680 | 15.39806 | 112° | 108km/h | 15210m | 3.9m/s | -58.6°C | 4.3% | 0hPa | 2.6V | 00:00:00 | 00:00:00 | 00:00:00 | |
| OE5MMP-10 | 2026-09-05 23:56:43 | 49.54708 | 15.39686 | 107° | 110km/h | 15192m | 5.9m/s | -58.5°C | 4.2% | 0hPa | 2.6V | 00:00:00 | 01:10:39 | 00:00:00 | |
| DO3MHA-11 | 2026-09-05 23:56:38 | 49.54745 | 15.39471 | 103° | 106km/h | 15160m | 5.8m/s | -58.2°C | 4.2% | 0hPa | 2.6V | 00:00:00 | 01:10:34 | 00:00:00 | |
| PG1ADW-2 | 2026-09-05 23:56:37 | 49.54750 | 15.39429 | 101° | 106km/h | 15155m | 5.6m/s | -58.2°C | 4.2% | 0hPa | 2.6V | 00:00:00 | 00:00:00 | 00:00:00 | |
| DL2RXE-15 | 2026-09-05 23:56:35 | 49.54755 | 15.39388 | 101° | 106km/h | 15150m | 3.8m/s | -58.2°C | 0% | 0hPa | 2.6V | 00:00:00 | 00:00:00 | 00:00:00 | |
| EDDB2-11 | 2026-09-05 23:56:34 | 49.54769 | 15.39271 | 99° | 100km/h | 15133m | 3.6m/s | -58.0°C | 1.1% | -1.0hPa | 2.6V | 00:00:00 | 00:00:00 | 00:00:00 | |
| OE3MUC-15 | 2026-09-05 23:56:32 | 49.54773 | 15.39232 | 99° | 110km/h | 15128m | 6.3m/s | -57.9°C | 4.1% | 0hPa | 2.6V | 00:00:00 | 00:00:00 | 00:00:00 | |
| S52SK | 2026-09-05 23:56:31 | 49.54773 | 15.39232 | 100° | 104km/h | 15128m | 6.4m/s | 0°C | 0% | 0hPa | 2.6V | 00:00:00 | 00:00:00 | 00:00:00 | |
| OE5DRO-10 | 2026-09-05 23:56:30 | 49.54782 | 15.39149 | 102° | 106km/h | 15117m | 4.9m/s | -57.9°C | 4.1% | 0hPa | 2.6V | 00:00:00 | 00:00:00 | 00:00:00 | |
| OK1ALN | 2026-09-05 23:56:29 | 49.54782 | 15.39149 | 103° | 111km/h | 15117m | 4.9m/s | -57.9°C | 1.2% | 0hPa | 2.6V | 00:00:00 | 00:00:00 | 00:00:00 | |
| DO3MHA-11 | 2026-09-05 23:56:28 | 49.54795 | 15.39064 | 105° | 106km/h | 15106m | 5.0m/s | -57.8°C | 4.1% | 0hPa | 2.6V | 00:00:00 | 01:10:24 | 00:00:00 | |
| OE3MUC-15 | 2026-09-05 23:56:27 | 49.54802 | 15.39022 | 105° | 111km/h | 15101m | 6.2m/s | -57.7°C | 4.1% | 0hPa | 2.6V | 00:00:00 | 00:00:00 | 08:30:00 | |
| S52SK | 2026-09-05 23:56:26 | 49.54802 | 15.39022 | 106° | 111km/h | 15101m | 6.2m/s | 0°C | 0% | 0hPa | 2.7V | 00:00:00 | 00:00:00 | 00:00:00 | |
| NBG1-10 | 2026-09-05 23:56:23 | 49.54834 | 15.38813 | 104° | 100km/h | 15074m | 5.8m/s | -57.6°C | 4.1% | 0hPa | 2.7V | 00:00:00 | 01:10:18 | 00:00:00 | |
| S52SK | 2026-09-05 23:56:20 | 49.54840 | 15.38775 | 106° | 100km/h | 15069m | 4.2m/s | 0°C | 0% | 0hPa | 2.7V | 00:00:00 | 00:00:00 | 00:00:00 | |
| PETON7-10 | 2026-09-05 23:56:18 | 49.54857 | 15.38662 | 103° | 102km/h | 15053m | 3.6m/s | -57.4°C | 4.0% | 0hPa | 2.7V | 00:00:00 | 00:00:00 | 00:00:00 | |
| PG1ADW-2 | 2026-09-05 23:56:17 | 49.54862 | 15.38624 | 103° | 100km/h | 15048m | 5.0m/s | -57.4°C | 4.0% | 0hPa | 2.6V | 00:00:00 | 00:00:00 | 00:00:00 | |
| OE5DXL-15 | 2026-09-05 23:56:16 | 49.54868 | 15.38586 | 104° | 100km/h | 15043m | 5.9m/s | -57.4°C | 4.0% | 0hPa | 2.6V | 00:00:00 | 00:00:00 | 00:00:00 | |
| OE5MMP-10 | 2026-09-05 23:56:13 | 49.54886 | 15.38472 | 104° | 102km/h | 15027m | 5.0m/s | -57.3°C | 4.1% | 0hPa | 2.6V | 00:00:00 | 01:10:09 | 00:00:00 | |
| OE5DRO-10 | 2026-09-05 23:56:11 | 49.54899 | 15.38391 | 105° | 100km/h | 15017m | 5.1m/s | -57.2°C | 3.9% | 0hPa | 2.6V | 00:00:00 | 00:00:00 | 00:00:00 | |
| OK1ALN | 2026-09-05 23:56:09 | 49.54906 | 15.38351 | 107° | 106km/h | 15012m | 5.6m/s | -57.3°C | 1.2% | 0hPa | 2.6V | 00:00:00 | 00:00:00 | 00:00:00 | |
| ANDY1245 | 2026-09-05 23:56:07 | 49.54921 | 15.38275 | 107° | 99km/h | 15002m | 4.4m/s | -57.4°C | 1.3% | 0hPa | 2.6V | 00:00:00 | 00:00:00 | 00:00:00 | |
| OE3MUC-15 | 2026-09-05 23:56:06 | 49.54935 | 15.38201 | 108° | 100km/h | 14990m | 5.8m/s | -57.5°C | 4.0% | 0hPa | 2.6V | 00:00:00 | 00:00:00 | 00:00:00 | |
| OE5MMP-10 | 2026-09-05 23:56:03 | 49.54956 | 15.38089 | 105° | 100km/h | 14974m | 3.8m/s | -57.5°C | 4.1% | 0hPa | 2.6V | 00:00:00 | 01:09:59 | 00:00:00 | |
| OE3MUC-15 | 2026-09-05 23:56:02 | 49.54962 | 15.38052 | 105° | 100km/h | 14969m | 5.7m/s | -57.4°C | 4.0% | 0hPa | 2.6V | 00:00:00 | 00:00:00 | 00:00:00 | |
| OE3MUC-15 | 2026-09-05 23:55:58 | 49.54988 | 15.37902 | 105° | 100km/h | 14947m | 5.0m/s | -57.3°C | 4.1% | 0hPa | 2.6V | 00:00:00 | 00:00:00 | 00:00:00 | |
| PG1ADW-2 | 2026-09-05 23:55:57 | 49.54994 | 15.37865 | 106° | 99km/h | 14943m | 3.6m/s | -57.3°C | 4.0% | 0hPa | 2.6V | 00:00:00 | 01:09:53 | 00:00:00 | |
| OE3MUC-15 | 2026-09-05 23:55:54 | 49.55016 | 15.37751 | 108° | 100km/h | 14925m | 5.7m/s | -57.2°C | 3.9% | 0hPa | 2.7V | 00:00:00 | 01:09:50 | 00:00:00 | |
| OE5MMP-10 | 2026-09-05 23:55:53 | 49.55023 | 15.37714 | 108° | 99km/h | 14920m | 4.9m/s | -57.1°C | 4.0% | 0hPa | 2.7V | 00:00:00 | 01:09:49 | 08:30:00 | |
| OE5DRO-10 | 2026-09-05 23:55:52 | 49.55031 | 15.37677 | 108° | 99km/h | 14915m | 5.6m/s | -57.1°C | 4.0% | 0hPa | 2.6V | 00:00:00 | 00:00:00 | 00:00:00 | |
| OE3MUC-15 | 2026-09-05 23:55:50 | 49.55046 | 15.37602 | 108° | 95km/h | 14904m | 4.0m/s | -57.2°C | 4.0% | 0hPa | 2.6V | 00:00:00 | 00:00:00 | 00:00:00 | |
| OK1ALN | 2026-09-05 23:55:49 | 49.55053 | 15.37566 | 107° | 99km/h | 14898m | 6.4m/s | -57.2°C | 1.2% | 0hPa | 2.6V | 00:00:00 | 00:00:00 | 00:00:00 | |
| PETON7-10 | 2026-09-05 23:55:48 | 49.55060 | 15.37530 | 105° | 97km/h | 14893m | 3.9m/s | -57.2°C | 4.0% | 0hPa | 2.6V | 00:00:00 | 01:09:44 | 00:00:00 | |
| SP3BTT-10 | 2026-09-05 23:55:47 | 49.55066 | 15.37494 | 106° | 97km/h | 14889m | 3.8m/s | -57.1°C | 4.0% | 0hPa | 2.6V | 00:00:00 | 00:00:00 | 00:00:00 | |
| OE3MUC-15 | 2026-09-05 23:55:46 | 49.55073 | 15.37459 | 107° | 99km/h | 14883m | 6.4m/s | -57.1°C | 4.0% | 0hPa | 2.6V | 00:00:00 | 00:00:00 | 00:00:00 | |
| OE5MMP-10 | 2026-09-05 23:55:43 | 49.55097 | 15.37349 | 110° | 99km/h | 14868m | 5.9m/s | -57.1°C | 3.9% | 0hPa | 2.6V | 00:00:00 | 01:09:39 | 00:00:00 | |
| PG1ADW-2 | 2026-09-05 23:55:37 | 49.55146 | 15.37133 | 109° | 95km/h | 14836m | 5.2m/s | -56.9°C | 4.0% | 0hPa | 2.6V | 00:00:00 | 00:00:00 | 00:00:00 | |
| OE5MMP-10 | 2026-09-05 23:55:33 | 49.55175 | 15.36990 | 109° | 93km/h | 14816m | 3.6m/s | -56.8°C | 3.9% | 0hPa | 2.6V | 00:00:00 | 01:09:29 | 00:00:00 | |
| ANDY1245 | 2026-09-05 23:55:32 | 49.55175 | 15.36990 | 109° | 93km/h | 14816m | 3.6m/s | -56.9°C | 1.3% | 0hPa | 2.6V | 00:00:00 | 00:00:00 | 00:00:00 | |
| EDDB2-11 | 2026-09-05 23:55:31 | 49.55189 | 15.36924 | 109° | 88km/h | 14806m | 4.8m/s | -56.8°C | 1.1% | -1.0hPa | 2.6V | 00:00:00 | 00:00:00 | 00:00:00 | |
| OK1ALN | 2026-09-05 23:55:28 | 49.55205 | 15.36858 | 111° | 91km/h | 14795m | 5.6m/s | -56.8°C | 1.3% | 0hPa | 2.6V | 00:00:00 | 00:00:00 | 00:00:00 | |
| ANDY1245 | 2026-09-05 23:55:25 | 49.55228 | 15.36756 | 110° | 95km/h | 14781m | 5.5m/s | -56.8°C | 1.3% | 0hPa | 2.6V | 00:00:00 | 00:00:00 | 00:00:00 | |
| OE5MMP-10 | 2026-09-05 23:55:23 | 49.55249 | 15.36648 | 106° | 95km/h | 14766m | 5.6m/s | -56.8°C | 4.2% | 0hPa | 2.6V | 00:00:00 | 01:09:19 | 00:00:00 | |
| OK1SLM-15 | 2026-09-05 23:55:22 | 49.55250 | 15.36648 | 106° | 100km/h | 14766m | 5.6m/s | 0°C | 0% | 0hPa | 2.7V | 00:00:00 | 00:00:00 | 00:00:00 | |
| OE3MUC-15 | 2026-09-05 23:55:18 | 49.55287 | 15.36471 | 111° | 93km/h | 14742m | 4.6m/s | -56.8°C | 4.2% | 0hPa | 2.7V | 00:00:00 | 00:00:00 | 00:00:00 | |
| PG1ADW-2 | 2026-09-05 23:55:17 | 49.55295 | 15.36437 | 112° | 95km/h | 14737m | 5.5m/s | -56.8°C | 4.2% | 0hPa | 2.7V | 00:00:00 | 00:00:00 | 00:00:00 | |
| OE5DXL-15 | 2026-09-05 23:55:16 | 49.55303 | 15.36403 | 109° | 97km/h | 14732m | 4.5m/s | -56.8°C | 4.2% | 0hPa | 2.7V | 00:00:00 | 00:00:00 | 00:00:00 | |
| OE3MUC-15 | 2026-09-05 23:55:14 | 49.55319 | 15.36335 | 109° | 91km/h | 14720m | 5.0m/s | -56.8°C | 4.1% | 0hPa | 2.7V | 00:00:00 | 00:00:00 | 00:00:00 | |
| OE5MMP-10 | 2026-09-05 23:55:13 | 49.55326 | 15.36301 | 110° | 93km/h | 14714m | 6.0m/s | -56.8°C | 4.2% | 0hPa | 2.6V | 00:00:00 | 01:09:09 | 00:00:00 | |
| OE3MUC-15 | 2026-09-05 23:55:10 | 49.55351 | 15.36201 | 110° | 91km/h | 14699m | 6.6m/s | -56.8°C | 4.1% | 0hPa | 2.6V | 00:00:00 | 00:00:00 | 00:00:00 | |
| OK1ALN | 2026-09-05 23:55:08 | 49.55359 | 15.36169 | 112° | 89km/h | 14693m | 4.4m/s | -56.8°C | 1.3% | 0hPa | 2.6V | 00:00:00 | 00:00:00 | 00:00:00 | |
| OE3MUC-15 | 2026-09-05 23:55:06 | 49.55384 | 15.36069 | 112° | 99km/h | 14676m | 5.7m/s | -56.8°C | 4.2% | 0hPa | 2.6V | 00:00:00 | 00:00:00 | 00:00:00 | |
| OE5MMP-10 | 2026-09-05 23:55:03 | 49.55409 | 15.35962 | 111° | 100km/h | 14660m | 6.4m/s | -56.7°C | 4.1% | 0hPa | 2.6V | 00:00:00 | 01:08:59 | 00:00:00 | |
| EDDB2-11 | 2026-09-05 23:55:00 | 49.55438 | 15.35854 | 113° | 100km/h | 14645m | 6.2m/s | -56.8°C | 1.3% | -1.0hPa | 2.6V | 00:00:00 | 00:00:00 | 00:00:00 | |
| PG1ADW-2 | 2026-09-05 23:54:57 | 49.55469 | 15.35748 | 117° | 97km/h | 14629m | 5.6m/s | -56.7°C | 4.3% | 0hPa | 2.6V | 00:00:00 | 00:00:00 | 08:30:00 | |
| OE5DRO-10 | 2026-09-05 23:54:55 | 49.55492 | 15.35679 | 118° | 97km/h | 14619m | 4.4m/s | -56.7°C | 4.2% | 0hPa | 2.7V | 00:00:00 | 00:00:00 | 00:00:00 | |
| ANDY1245 | 2026-09-05 23:54:54 | 49.55492 | 15.35679 | 118° | 99km/h | 14619m | 4.5m/s | -56.8°C | 1.5% | 0hPa | 2.6V | 00:00:00 | 00:00:00 | 00:00:00 | |
| OE5MMP-10 | 2026-09-05 23:54:53 | 49.55513 | 15.35610 | 114° | 97km/h | 14607m | 5.3m/s | -56.7°C | 4.2% | 0hPa | 2.6V | 00:00:00 | 01:08:49 | 00:00:00 | |
| OE3MUC-15 | 2026-09-05 23:54:49 | 49.55553 | 15.35471 | 114° | 97km/h | 14586m | 4.9m/s | -56.8°C | 4.2% | 0hPa | 2.7V | 00:00:00 | 00:00:00 | 00:00:00 | |
| OK1ALN | 2026-09-05 23:54:48 | 49.55562 | 15.35436 | 113° | 97km/h | 14580m | 5.3m/s | -56.9°C | 1.5% | 0hPa | 2.6V | 00:00:00 | 00:00:00 | 00:00:00 | |
| OE5DXL-15 | 2026-09-05 23:54:46 | 49.55581 | 15.35367 | 116° | 100km/h | 14570m | 6.2m/s | -56.8°C | 4.2% | 0hPa | 2.6V | 00:00:00 | 00:00:00 | 00:00:00 | |
| OE3MUC-15 | 2026-09-05 23:54:45 | 49.55592 | 15.35334 | 120° | 95km/h | 14565m | 4.9m/s | -56.9°C | 4.2% | 0hPa | 2.7V | 00:00:00 | 00:00:00 | 00:00:00 | |
| OE5MMP-10 | 2026-09-05 23:54:43 | 49.55617 | 15.35270 | 121° | 97km/h | 14554m | 6.6m/s | -57.0°C | 4.3% | 0hPa | 2.7V | 00:00:00 | 01:08:39 | 00:00:00 | |
| OE3MUC-15 | 2026-09-05 23:54:41 | 49.55642 | 15.35207 | 123° | 97km/h | 14542m | 6.2m/s | -57.0°C | 4.4% | 0hPa | 2.7V | 00:00:00 | 00:00:00 | 00:00:00 | |
| OE3MUC-15 | 2026-09-05 23:54:37 | 49.55689 | 15.35075 | 116° | 99km/h | 14520m | 3.7m/s | -56.9°C | 4.3% | 0hPa | 2.7V | 00:00:00 | 00:00:00 | 00:00:00 | |
| OE5DRO-10 | 2026-09-05 23:54:36 | 49.55700 | 15.35040 | 117° | 102km/h | 14515m | 5.4m/s | -56.9°C | 4.3% | 0hPa | 2.7V | 00:00:00 | 00:00:00 | 00:00:00 | |
| PETON7-10 | 2026-09-05 23:54:33 | 49.55734 | 15.34937 | 118° | 102km/h | 14501m | 5.4m/s | -57.2°C | 4.4% | 0hPa | 2.7V | 00:00:00 | 00:00:00 | 00:00:00 | |
| OE3MUC-15 | 2026-09-05 23:54:29 | 49.55785 | 15.34809 | 125° | 100km/h | 14481m | 4.4m/s | -57.3°C | 4.4% | 0hPa | 2.7V | 00:00:00 | 00:00:00 | 00:00:00 | |
| OK1ALN | 2026-09-05 23:54:26 | 49.55812 | 15.34743 | 122° | 100km/h | 14470m | 5.1m/s | -57.3°C | 1.7% | 0hPa | 2.7V | 00:00:00 | 00:00:00 | 00:00:00 | |
| OE3MUC-15 | 2026-09-05 23:54:25 | 49.55838 | 15.34675 | 121° | 106km/h | 14458m | 7.4m/s | -57.2°C | 4.4% | 0hPa | 2.7V | 00:00:00 | 00:00:00 | 08:30:00 | |
| OE5MMP-10 | 2026-09-05 23:54:23 | 49.55865 | 15.34603 | 120° | 104km/h | 14447m | 5.1m/s | -57.3°C | 4.4% | 0hPa | 2.7V | 00:00:00 | 01:08:19 | 08:30:00 | |
| OE3MUC-15 | 2026-09-05 23:54:21 | 49.55891 | 15.34530 | 119° | 106km/h | 14435m | 4.8m/s | -57.3°C | 4.5% | 0hPa | 2.6V | 00:00:00 | 00:00:00 | 00:00:00 | |
| S52SK | 2026-09-05 23:54:19 | 49.55904 | 15.34495 | 121° | 106km/h | 14430m | 5.4m/s | 0°C | 0% | 0hPa | 2.6V | 00:00:00 | 00:00:00 | 00:00:00 | |
| PETON7-10 | 2026-09-05 23:54:18 | 49.55932 | 15.34423 | 122° | 106km/h | 14419m | 3.7m/s | -57.3°C | 4.6% | 0hPa | 2.6V | 00:00:00 | 01:08:14 | 00:00:00 | |
| PG1ADW-2 | 2026-09-05 23:54:17 | 49.55946 | 15.34388 | 122° | 106km/h | 14414m | 5.6m/s | -57.3°C | 4.5% | 0hPa | 2.6V | 00:00:00 | 00:00:00 | 00:00:00 | |
| OE5MMP-10 | 2026-09-05 23:54:13 | 49.56000 | 15.34254 | 123° | 108km/h | 14392m | 4.3m/s | -57.2°C | 4.6% | 0hPa | 2.6V | 00:00:00 | 01:08:09 | 00:00:00 | |
| NBG1-10 | 2026-09-05 23:54:10 | 49.56042 | 15.34151 | 123° | 106km/h | 14375m | 4.7m/s | -57.2°C | 4.6% | 0hPa | 2.6V | 00:00:00 | 01:08:06 | 00:00:00 | |
| OE3MUC-15 | 2026-09-05 23:54:09 | 49.56057 | 15.34116 | 125° | 111km/h | 14370m | 5.9m/s | -57.2°C | 4.7% | 0hPa | 2.6V | 00:00:00 | 00:00:00 | 00:00:00 | |
| OK1ALN | 2026-09-05 23:54:07 | 49.56090 | 15.34044 | 127° | 111km/h | 14360m | 5.4m/s | -57.3°C | 1.8% | 0hPa | 2.6V | 00:00:00 | 00:00:00 | 00:00:00 | |
| OE3MUC-15 | 2026-09-05 23:54:05 | 49.56122 | 15.33975 | 125° | 104km/h | 14349m | 4.0m/s | -57.2°C | 4.8% | 0hPa | 2.6V | 00:00:00 | 00:00:00 | 00:00:00 | |
| OE5MMP-10 | 2026-09-05 23:54:03 | 49.56152 | 15.33906 | 123° | 104km/h | 14339m | 4.7m/s | -57.2°C | 4.9% | 0hPa | 2.6V | 00:00:00 | 01:07:59 | 00:00:00 | |
| SP3BTT-10 | 2026-09-05 23:54:02 | 49.56166 | 15.33873 | 125° | 110km/h | 14333m | 6.5m/s | -57.2°C | 4.8% | 0hPa | 2.6V | 00:00:00 | 00:00:00 | 00:00:00 | |
| OE3MUC-15 | 2026-09-05 23:54:01 | 49.56180 | 15.33840 | 125° | 102km/h | 14327m | 4.6m/s | -57.2°C | 4.8% | 0hPa | 2.6V | 00:00:00 | 00:00:00 | 00:00:00 | |
| OE5DRO-10 | 2026-09-05 23:53:58 | 49.56223 | 15.33741 | 126° | 106km/h | 14312m | 5.2m/s | -57.3°C | 4.8% | 0hPa | 2.7V | 00:00:00 | 00:00:00 | 08:30:00 | |
| OE3MUC-15 | 2026-09-05 23:53:57 | 49.56239 | 15.33707 | 125° | 106km/h | 14305m | 6.2m/s | -57.4°C | 4.9% | 0hPa | 2.6V | 00:00:00 | 00:00:00 | 00:00:00 | |
| OE5MMP-10 | 2026-09-05 23:53:53 | 49.56301 | 15.33573 | 127° | 104km/h | 14284m | 5.3m/s | -57.8°C | 4.9% | 0hPa | 2.6V | 00:00:00 | 01:07:49 | 00:00:00 | |
| OE3MUC-15 | 2026-09-05 23:53:49 | 49.56362 | 15.33445 | 126° | 102km/h | 14263m | 3.9m/s | -57.8°C | 5.2% | 0hPa | 2.6V | 00:00:00 | 00:00:00 | 08:30:00 | |
| PETON7-10 | 2026-09-05 23:53:48 | 49.56377 | 15.33413 | 127° | 110km/h | 14258m | 5.5m/s | -57.8°C | 5.2% | 0hPa | 2.7V | 00:00:00 | 00:00:00 | 00:00:00 | |
| OE5DXL-15 | 2026-09-05 23:53:46 | 49.56408 | 15.33349 | 127° | 113km/h | 14247m | 4.4m/s | -57.8°C | 5.2% | 0hPa | 2.7V | 00:00:00 | 00:00:00 | 00:00:00 | |
| OE3MUC-15 | 2026-09-05 23:53:45 | 49.56424 | 15.33315 | 126° | 111km/h | 14242m | 6.3m/s | -57.8°C | 5.3% | 0hPa | 2.7V | 00:00:00 | 00:00:00 | 00:00:00 | |
| OE5MMP-10 | 2026-09-05 23:53:43 | 49.56457 | 15.33245 | 127° | 111km/h | 14231m | 5.7m/s | -57.8°C | 5.3% | 0hPa | 2.7V | 00:00:00 | 01:07:39 | 00:00:00 | |
| OE5DRO-10 | 2026-09-05 23:53:39 | 49.56525 | 15.33106 | 127° | 115km/h | 14211m | 5.5m/s | -57.9°C | 5.5% | 0hPa | 2.7V | 00:00:00 | 00:00:00 | 00:00:00 | |
| PG1ADW-2 | 2026-09-05 23:53:37 | 49.56558 | 15.33035 | 127° | 115km/h | 14201m | 4.9m/s | -57.9°C | 5.4% | 0hPa | 2.7V | 00:00:00 | 00:00:00 | 00:00:00 | |
| ANDY1245 | 2026-09-05 23:53:34 | 49.56593 | 15.32967 | 130° | 111km/h | 14191m | 4.8m/s | -58.1°C | 2.5% | 0hPa | 2.7V | 00:00:00 | 00:00:00 | 00:00:00 | |
| OE5MMP-10 | 2026-09-05 23:53:33 | 49.56627 | 15.32899 | 127° | 115km/h | 14180m | 4.6m/s | -58.3°C | 5.6% | 0hPa | 2.7V | 00:00:00 | 01:07:29 | 00:00:00 | |
| SP3BTT-10 | 2026-09-05 23:53:32 | 49.56644 | 15.32863 | 127° | 124km/h | 14175m | 4.0m/s | -58.2°C | 5.6% | 0hPa | 2.7V | 00:00:00 | 00:00:00 | 00:00:00 | |
| ANDY1245 | 2026-09-05 23:53:29 | 49.56677 | 15.32793 | 128° | 115km/h | 14164m | 5.4m/s | -58.3°C | 2.6% | 0hPa | 2.7V | 00:00:00 | 00:00:00 | 00:00:00 | |
| EDDB2-11 | 2026-09-05 23:53:27 | 49.56728 | 15.32682 | 124° | 119km/h | 14147m | 4.6m/s | -58.5°C | 2.6% | -1.0hPa | 2.7V | 00:00:00 | 00:00:00 | 00:00:00 | |
| DO3MHA-11 | 2026-09-05 23:53:25 | 49.56762 | 15.32606 | 125° | 117km/h | 14137m | 4.0m/s | -58.6°C | 5.8% | 0hPa | 2.7V | 00:00:00 | 01:07:21 | 00:00:00 | |
| OE5MMP-10 | 2026-09-05 23:53:23 | 49.56795 | 15.32531 | 123° | 117km/h | 14128m | 5.9m/s | -58.6°C | 6.1% | 0hPa | 2.7V | 00:00:00 | 01:07:19 | 00:00:00 | |
| OK1SLM-15 | 2026-09-05 23:53:22 | 49.56810 | 15.32493 | 123° | 115km/h | 14123m | 4.1m/s | 0°C | 0% | 0hPa | 2.6V | 00:00:00 | 00:00:00 | 00:00:00 | |
| OE3MUC-15 | 2026-09-05 23:53:21 | 49.56826 | 15.32455 | 123° | 117km/h | 14118m | 3.4m/s | -58.7°C | 6.1% | 0hPa | 2.6V | 00:00:00 | 00:00:00 | 00:00:00 | |
| OE5DRO-10 | 2026-09-05 23:53:20 | 49.56842 | 15.32417 | 125° | 122km/h | 14113m | 5.7m/s | -58.8°C | 6.2% | 0hPa | 2.6V | 00:00:00 | 00:00:00 | 00:00:00 | |
| PETON7-10 | 2026-09-05 23:53:18 | 49.56875 | 15.32343 | 125° | 122km/h | 14103m | 4.7m/s | -58.9°C | 6.3% | 0hPa | 2.6V | 00:00:00 | 00:00:00 | 08:30:00 | |
| ANDY1245 | 2026-09-05 23:53:17 | 49.56891 | 15.32306 | 125° | 115km/h | 14098m | 4.9m/s | -59.0°C | 3.2% | 0hPa | 2.7V | 00:00:00 | 00:00:00 | 00:00:00 | |
| OE5DXL-15 | 2026-09-05 23:53:16 | 49.56907 | 15.32268 | 124° | 126km/h | 14094m | 3.7m/s | -59.1°C | 6.4% | 0hPa | 2.7V | 00:00:00 | 00:00:00 | 08:30:00 | |
| OE5MMP-10 | 2026-09-05 23:53:14 | 49.56958 | 15.32151 | 123° | 124km/h | 14077m | 5.4m/s | -59.4°C | 6.8% | 0hPa | 2.7V | 00:00:00 | 01:07:09 | 00:00:00 | |
| DO3MHA-11 | 2026-09-05 23:53:13 | 49.56958 | 15.32151 | 123° | 124km/h | 14077m | 5.4m/s | -59.4°C | 6.8% | 0hPa | 2.7V | 00:00:00 | 01:07:09 | 00:00:00 | |
| ANDY1245 | 2026-09-05 23:53:10 | 49.56990 | 15.32067 | 121° | 128km/h | 14067m | 4.9m/s | -59.5°C | 3.5% | 0hPa | 2.7V | 00:00:00 | 00:00:00 | 00:00:00 | |
| OE3MUC-15 | 2026-09-05 23:53:09 | 49.57022 | 15.31980 | 119° | 124km/h | 14055m | 5.0m/s | -59.5°C | 6.9% | 0hPa | 2.7V | 00:00:00 | 00:00:00 | 00:00:00 | |
| OE3MUC-15 | 2026-09-05 23:53:05 | 49.57082 | 15.31811 | 122° | 122km/h | 14035m | 5.8m/s | -59.6°C | 7.0% | 0hPa | 2.7V | 00:00:00 | 00:00:00 | 00:00:00 | |
| NBG1-10 | 2026-09-05 23:53:04 | 49.57098 | 15.31771 | 121° | 128km/h | 14029m | 5.1m/s | -59.6°C | 7.0% | 0hPa | 2.7V | 00:00:00 | 01:07:00 | 00:00:00 | |
| OE5MMP-10 | 2026-09-05 23:53:03 | 49.57114 | 15.31730 | 121° | 128km/h | 14023m | 5.6m/s | -59.7°C | 7.0% | 0hPa | 2.7V | 00:00:00 | 01:06:59 | 00:00:00 | |
| EDDB2-11 | 2026-09-05 23:52:56 | 49.57232 | 15.31437 | 121° | 130km/h | 13986m | 4.4m/s | -60.2°C | 3.7% | -1.0hPa | 2.7V | 00:00:00 | 00:00:00 | 00:00:00 | |
| OE5MMP-10 | 2026-09-05 23:52:53 | 49.57283 | 15.31307 | 121° | 126km/h | 13972m | 5.9m/s | -60.1°C | 7.4% | 0hPa | 2.7V | 00:00:00 | 01:06:49 | 08:30:00 | |
| OE3MUC-15 | 2026-09-05 23:52:49 | 49.57349 | 15.31136 | 122° | 124km/h | 13949m | 4.3m/s | -60.1°C | 7.6% | 0hPa | 2.6V | 00:00:00 | 00:00:00 | 00:00:00 | |
| PETON7-10 | 2026-09-05 23:52:48 | 49.57366 | 15.31094 | 122° | 130km/h | 13944m | 6.1m/s | -60.1°C | 7.6% | 0hPa | 2.7V | 00:00:00 | 01:06:44 | 00:00:00 | |
| S52SK | 2026-09-05 23:52:46 | 49.57398 | 15.31012 | 123° | 124km/h | 13934m | 4.9m/s | 0°C | 0% | 0hPa | 2.7V | 00:00:00 | 00:00:00 | 00:00:00 | |
| DO3MHA-11 | 2026-09-05 23:52:43 | 49.57449 | 15.30888 | 121° | 131km/h | 13919m | 5.3m/s | -59.9°C | 7.8% | 0hPa | 2.7V | 00:00:00 | 01:06:39 | 00:00:00 | |
| OE5DRO-10 | 2026-09-05 23:52:42 | 49.57465 | 15.30845 | 120° | 130km/h | 13914m | 4.9m/s | -59.9°C | 7.8% | 0hPa | 2.7V | 00:00:00 | 00:00:00 | 00:00:00 | |
| OE3MUC-15 | 2026-09-05 23:52:40 | 49.57497 | 15.30756 | 120° | 133km/h | 13904m | 5.5m/s | -59.8°C | 7.8% | 0hPa | 2.7V | 00:00:00 | 00:00:00 | 00:00:00 | |
| S52SK | 2026-09-05 23:52:39 | 49.57497 | 15.30756 | 120° | 133km/h | 13904m | 5.5m/s | 0°C | 0% | 0hPa | 2.7V | 00:00:00 | 00:00:00 | 00:00:00 | |
| PG1ADW-2 | 2026-09-05 23:52:37 | 49.57549 | 15.30622 | 121° | 128km/h | 13889m | 6.2m/s | -59.8°C | 7.8% | 0hPa | 2.7V | 00:00:00 | 00:00:00 | 00:00:00 | |
| OE3MUC-15 | 2026-09-05 23:52:36 | 49.57565 | 15.30578 | 121° | 131km/h | 13883m | 5.5m/s | -59.8°C | 8.0% | 0hPa | 2.7V | 00:00:00 | 00:00:00 | 08:30:00 | |
| ANDY1245 | 2026-09-05 23:52:34 | 49.57582 | 15.30534 | 123° | 133km/h | 13878m | 5.1m/s | -59.8°C | 4.5% | 0hPa | 2.6V | 00:00:00 | 00:00:00 | 00:00:00 | |
| DO3MHA-11 | 2026-09-05 23:52:33 | 49.57617 | 15.30447 | 121° | 128km/h | 13869m | 4.3m/s | -59.8°C | 8.3% | 0hPa | 2.6V | 00:00:00 | 01:06:29 | 00:00:00 | |
| OE3MUC-15 | 2026-09-05 23:52:32 | 49.57633 | 15.30404 | 120° | 128km/h | 13864m | 5.7m/s | -59.8°C | 8.3% | 0hPa | 2.6V | 00:00:00 | 00:00:00 | 00:00:00 | |
| NBG1-10 | 2026-09-05 23:52:31 | 49.57648 | 15.30361 | 119° | 130km/h | 13858m | 4.4m/s | -59.8°C | 8.3% | 0hPa | 2.6V | 00:00:00 | 01:06:27 | 00:00:00 | |
| ANDY1245 | 2026-09-05 23:52:29 | 49.57680 | 15.30274 | 121° | 128km/h | 13848m | 4.7m/s | -59.9°C | 4.8% | 0hPa | 2.6V | 00:00:00 | 00:00:00 | 00:00:00 | |
| OE3MUC-15 | 2026-09-05 23:52:28 | 49.57696 | 15.30232 | 121° | 126km/h | 13844m | 4.5m/s | -59.8°C | 8.3% | 0hPa | 2.6V | 00:00:00 | 00:00:00 | 00:00:00 | |
| EDDB2-11 | 2026-09-05 23:52:25 | 49.57744 | 15.30105 | 121° | 124km/h | 13827m | 5.9m/s | -59.9°C | 4.7% | -1.0hPa | 2.6V | 00:00:00 | 00:00:00 | 00:00:00 | |
| OE3MUC-15 | 2026-09-05 23:52:24 | 49.57760 | 15.30063 | 123° | 128km/h | 13821m | 4.5m/s | -59.8°C | 8.7% | 0hPa | 2.6V | 00:00:00 | 00:00:00 | 00:00:00 | |
| OE5MMP-10 | 2026-09-05 23:52:23 | 49.57777 | 15.30021 | 122° | 128km/h | 13817m | 4.5m/s | -59.8°C | 8.6% | 0hPa | 2.7V | 00:00:00 | 01:06:19 | 00:00:00 | |
| ANDY1245 | 2026-09-05 23:52:22 | 49.57777 | 15.30021 | 123° | 126km/h | 13817m | 4.6m/s | -59.9°C | 5.1% | 0hPa | 2.7V | 00:00:00 | 00:00:00 | 00:00:00 | |
| OE3MUC-15 | 2026-09-05 23:52:20 | 49.57830 | 15.29895 | 124° | 130km/h | 13801m | 5.8m/s | -59.9°C | 9.0% | 0hPa | 2.7V | 00:00:00 | 00:00:00 | 00:00:00 | |
| PETON7-10 | 2026-09-05 23:52:18 | 49.57865 | 15.29812 | 125° | 130km/h | 13791m | 5.1m/s | -59.8°C | 9.1% | 0hPa | 2.7V | 00:00:00 | 00:00:00 | 00:00:00 | |
| SP3BTT-10 | 2026-09-05 23:52:16 | 49.57901 | 15.29731 | 124° | 131km/h | 13781m | 3.7m/s | -59.8°C | 9.3% | 0hPa | 2.7V | 00:00:00 | 00:00:00 | 00:00:00 | |
| DO3MHA-11 | 2026-09-05 23:52:13 | 49.57957 | 15.29610 | 127° | 131km/h | 13766m | 4.2m/s | -59.8°C | 9.6% | 0hPa | 2.6V | 00:00:00 | 01:06:09 | 00:00:00 | |
| OE3MUC-15 | 2026-09-05 23:52:10 | 49.58015 | 15.29487 | 128° | 133km/h | 13750m | 5.7m/s | -59.7°C | 10.0% | 0hPa | 2.6V | 00:00:00 | 00:00:00 | 00:00:00 | |
| OE3MUC-15 | 2026-09-05 23:52:06 | 49.58095 | 15.29322 | 126° | 131km/h | 13730m | 3.7m/s | -59.7°C | 10.6% | 0hPa | 2.6V | 00:00:00 | 00:00:00 | 00:00:00 | |
| OE5DRO-10 | 2026-09-05 23:52:04 | 49.58134 | 15.29240 | 128° | 133km/h | 13720m | 5.1m/s | -59.7°C | 11.0% | 0hPa | 2.7V | 00:00:00 | 00:00:00 | 00:00:00 | |
| DO3MHA-11 | 2026-09-05 23:52:03 | 49.58154 | 15.29199 | 128° | 135km/h | 13716m | 3.3m/s | -59.7°C | 11.2% | 0hPa | 2.7V | 00:00:00 | 01:05:59 | 00:00:00 | |
| OE3MUC-15 | 2026-09-05 23:52:02 | 49.58175 | 15.29159 | 127° | 133km/h | 13711m | 5.7m/s | -59.7°C | 11.4% | 0hPa | 2.7V | 00:00:00 | 00:00:00 | 00:00:00 | |
| EDDB2-11 | 2026-09-05 23:51:54 | 49.58367 | 15.28789 | 128° | 133km/h | 13669m | 3.6m/s | -59.8°C | 8.6% | -1.0hPa | 2.7V | 00:00:00 | 00:00:00 | 00:00:00 | |
| DO3MHA-11 | 2026-09-05 23:51:53 | 49.58367 | 15.28789 | 129° | 133km/h | 13669m | 3.5m/s | -59.7°C | 13.0% | 0hPa | 2.7V | 00:00:00 | 01:05:49 | 00:00:00 | |
| ANDY1245 | 2026-09-05 23:51:51 | 49.58388 | 15.28748 | 130° | 133km/h | 13665m | 5.0m/s | -59.9°C | 9.1% | 0hPa | 2.7V | 00:00:00 | 00:00:00 | 00:00:00 | |
| OE3MUC-15 | 2026-09-05 23:51:49 | 49.58453 | 15.28630 | 132° | 131km/h | 13650m | 5.6m/s | -59.9°C | 14.3% | 0hPa | 2.7V | 00:00:00 | 00:00:00 | 00:00:00 | |
| OE3JTB-15 | 2026-09-05 23:51:47 | 49.58498 | 15.28557 | 135° | 168km/h | 13641m | 4.9m/s | -59.9°C | 14.5% | 0hPa | 2.7V | 00:00:00 | 00:00:00 | 08:30:00 | |
| OE5DXL-15 | 2026-09-05 23:51:46 | 49.58521 | 15.28520 | 134° | 137km/h | 13636m | 3.9m/s | -59.9°C | 14.8% | 0hPa | 2.7V | 00:00:00 | 00:00:00 | 00:00:00 | |
| OE3MUC-15 | 2026-09-05 23:51:45 | 49.58545 | 15.28482 | 134° | 135km/h | 13632m | 4.6m/s | -59.9°C | 14.8% | 0hPa | 2.6V | 00:00:00 | 00:00:00 | 00:00:00 | |
| DL2RXE-15 | 2026-09-05 23:51:44 | 49.58545 | 15.28482 | 134° | 135km/h | 13632m | 4.7m/s | -60.0°C | 0% | 0hPa | 2.6V | 00:00:00 | 00:00:00 | 00:00:00 | |
| OE5MMP-10 | 2026-09-05 23:51:43 | 49.58590 | 15.28405 | 133° | 141km/h | 13622m | 4.6m/s | -59.9°C | 15.3% | 0hPa | 2.6V | 00:00:00 | 01:05:39 | 00:00:00 | |
| OK1ALN | 2026-09-05 23:51:42 | 49.58590 | 15.28405 | 133° | 133km/h | 13622m | 4.6m/s | -60.0°C | 10.8% | 0hPa | 2.6V | 00:00:00 | 00:00:00 | 00:00:00 | |
| ANDY1245 | 2026-09-05 23:51:40 | 49.58638 | 15.28328 | 135° | 139km/h | 13611m | 4.7m/s | -60.1°C | 11.5% | 0hPa | 2.6V | 00:00:00 | 00:00:00 | 00:00:00 | |
| PG1ADW-2 | 2026-09-05 23:51:37 | 49.58736 | 15.28170 | 134° | 139km/h | 13591m | 6.2m/s | -60.1°C | 16.8% | 0hPa | 2.6V | 00:00:00 | 00:00:00 | 00:00:00 | |
| OE5MMP-10 | 2026-09-05 23:51:33 | 49.58834 | 15.28011 | 133° | 139km/h | 13572m | 3.0m/s | -60.0°C | 17.6% | 0hPa | 2.6V | 00:00:00 | 01:05:29 | 00:00:00 | |
| OE5DRO-10 | 2026-09-05 23:51:26 | 49.59001 | 15.27740 | 133° | 137km/h | 13540m | 4.6m/s | -59.9°C | 18.2% | 0hPa | 2.6V | 00:00:00 | 00:00:00 | 00:00:00 | |
| NBG1-10 | 2026-09-05 23:51:25 | 49.59026 | 15.27699 | 133° | 137km/h | 13536m | 4.0m/s | -59.9°C | 18.3% | 0hPa | 2.6V | 00:00:00 | 01:05:21 | 00:00:00 | |
| DL2RXE-15 | 2026-09-05 23:51:24 | 49.59025 | 15.27699 | 133° | 142km/h | 13536m | 4.0m/s | -60.0°C | 0% | 0hPa | 2.6V | 00:00:00 | 00:00:00 | 00:00:00 | |
| DO3MHA-11 | 2026-09-05 23:51:23 | 49.59074 | 15.27615 | 131° | 135km/h | 13528m | 4.5m/s | -59.9°C | 18.5% | 0hPa | 2.6V | 00:00:00 | 01:05:19 | 08:30:00 | |
| OK1ALN | 2026-09-05 23:51:22 | 49.59073 | 15.27615 | 131° | 142km/h | 13528m | 4.6m/s | -59.9°C | 13.6% | 0hPa | 2.6V | 00:00:00 | 00:00:00 | 00:00:00 | |
| OE3MUC-15 | 2026-09-05 23:51:21 | 49.59120 | 15.27532 | 132° | 137km/h | 13519m | 4.0m/s | -59.8°C | 18.7% | 0hPa | 2.6V | 00:00:00 | 00:00:00 | 00:00:00 | |
| OE3MUC-15 | 2026-09-05 23:51:17 | 49.59213 | 15.27378 | 134° | 130km/h | 13501m | 5.9m/s | -59.8°C | 19.5% | 0hPa | 2.6V | 00:00:00 | 00:00:00 | 08:30:00 | |
| OE5DXL-15 | 2026-09-05 23:51:16 | 49.59236 | 15.27341 | 134° | 137km/h | 13496m | 3.5m/s | -59.8°C | 19.9% | 0hPa | 2.7V | 00:00:00 | 00:00:00 | 00:00:00 | |
| DO3MHA-11 | 2026-09-05 23:51:13 | 49.59305 | 15.27233 | 136° | 139km/h | 13484m | 4.7m/s | -59.7°C | 20.1% | 0hPa | 2.7V | 00:00:00 | 01:05:09 | 00:00:00 | |
| S52SK | 2026-09-05 23:51:11 | 49.59329 | 15.27196 | 136° | 133km/h | 13479m | 4.8m/s | 0°C | 0% | 0hPa | 2.7V | 00:00:00 | 00:00:00 | 00:00:00 | |
| OE3MUC-15 | 2026-09-05 23:51:09 | 49.59402 | 15.27081 | 135° | 142km/h | 13465m | 5.9m/s | -59.7°C | 20.4% | 0hPa | 2.7V | 00:00:00 | 00:00:00 | 00:00:00 | |
| PETON7-10 | 2026-09-05 23:51:08 | 49.59427 | 15.27042 | 136° | 137km/h | 13460m | 4.3m/s | -59.7°C | 20.7% | 0hPa | 2.7V | 00:00:00 | 00:00:00 | 00:00:00 | |
| OE5DRO-10 | 2026-09-05 23:51:07 | 49.59452 | 15.27003 | 135° | 137km/h | 13455m | 5.3m/s | -59.7°C | 20.9% | 0hPa | 2.7V | 00:00:00 | 00:00:00 | 08:30:00 | |
| S52SK | 2026-09-05 23:51:06 | 49.59452 | 15.27003 | 135° | 142km/h | 13455m | 5.4m/s | 0°C | 0% | 0hPa | 2.6V | 00:00:00 | 00:00:00 | 00:00:00 | |
| OE3MUC-15 | 2026-09-05 23:51:05 | 49.59502 | 15.26923 | 135° | 137km/h | 13446m | 3.4m/s | -59.7°C | 21.3% | 0hPa | 2.6V | 00:00:00 | 00:00:00 | 00:00:00 | |
| OE5MMP-10 | 2026-09-05 23:51:03 | 49.59552 | 15.26847 | 137° | 135km/h | 13437m | 3.9m/s | -59.7°C | 22.0% | 0hPa | 2.6V | 00:00:00 | 01:04:59 | 00:00:00 | |
| ANDY1245 | 2026-09-05 23:51:01 | 49.59576 | 15.26811 | 137° | 133km/h | 13433m | 4.1m/s | -59.8°C | 16.9% | 0hPa | 2.6V | 00:00:00 | 00:00:00 | 00:00:00 | |
| EDDB2-11 | 2026-09-05 23:50:52 | 49.59851 | 15.26410 | 138° | 139km/h | 13381m | 6.7m/s | -59.8°C | 19.6% | -1.0hPa | 2.6V | 00:00:00 | 00:00:00 | 00:00:00 | |
| OE3MUC-15 | 2026-09-05 23:50:49 | 49.59903 | 15.26338 | 139° | 139km/h | 13371m | 4.8m/s | -59.8°C | 26.1% | 0hPa | 2.6V | 00:00:00 | 00:00:00 | 00:00:00 | |
| OE5DRO-10 | 2026-09-05 23:50:48 | 49.59929 | 15.26303 | 140° | 144km/h | 13366m | 5.6m/s | -59.9°C | 26.4% | 0hPa | 2.6V | 00:00:00 | 00:00:00 | 00:00:00 | |
| OE5DXL-15 | 2026-09-05 23:50:46 | 49.59984 | 15.26234 | 141° | 148km/h | 13357m | 5.4m/s | -60.0°C | 26.7% | 0hPa | 2.6V | 00:00:00 | 00:00:00 | 00:00:00 | |
| OE3MUC-15 | 2026-09-05 23:50:45 | 49.60010 | 15.26200 | 141° | 141km/h | 13352m | 4.8m/s | -60.0°C | 27.1% | 0hPa | 2.6V | 00:00:00 | 00:00:00 | 00:00:00 | |
| DO3MHA-11 | 2026-09-05 23:50:43 | 49.60065 | 15.26131 | 142° | 144km/h | 13342m | 5.9m/s | -60.0°C | 27.3% | 0hPa | 2.6V | 00:00:00 | 01:04:39 | 00:00:00 | |
| OE3MUC-15 | 2026-09-05 23:50:41 | 49.60121 | 15.26062 | 142° | 144km/h | 13333m | 4.4m/s | -60.0°C | 27.6% | 0hPa | 2.6V | 00:00:00 | 00:00:00 | 08:30:00 | |
| OK1ALN | 2026-09-05 23:50:40 | 49.60121 | 15.26062 | 142° | 144km/h | 13333m | 4.5m/s | -60.0°C | 21.9% | 0hPa | 2.6V | 00:00:00 | 00:00:00 | 00:00:00 | |
| OE3MUC-15 | 2026-09-05 23:50:38 | 49.60232 | 15.25913 | 139° | 146km/h | 13314m | 6.3m/s | -60.0°C | 28.6% | 0hPa | 2.6V | 00:00:00 | 00:00:00 | 00:00:00 | |
| DO3MHA-11 | 2026-09-05 23:50:33 | 49.60343 | 15.25765 | 142° | 151km/h | 13294m | 5.1m/s | -60.1°C | 30.2% | 0hPa | 2.6V | 00:00:00 | 01:04:29 | 00:00:00 | |
| SP3BTT-10 | 2026-09-05 23:50:31 | 49.60404 | 15.25697 | 146° | 173km/h | 13283m | 4.0m/s | -60.1°C | 31.3% | 0hPa | 2.6V | 00:00:00 | 00:00:00 | 00:00:00 | |
| OE3MUC-15 | 2026-09-05 23:50:29 | 49.60469 | 15.25628 | 144° | 153km/h | 13276m | 3.3m/s | -60.2°C | 31.2% | 0hPa | 2.6V | 00:00:00 | 00:00:00 | 00:00:00 | |
| OE3MUC-15 | 2026-09-05 23:50:25 | 49.60592 | 15.25486 | 143° | 148km/h | 13248m | 8.3m/s | -60.9°C | 32.3% | 0hPa | 2.7V | 00:00:00 | 00:00:00 | 00:00:00 | |
| OE5MMP-10 | 2026-09-05 23:50:23 | 49.60651 | 15.25418 | 143° | 157km/h | 13236m | 4.7m/s | -60.9°C | 32.8% | 0hPa | 2.7V | 00:00:00 | 01:04:19 | 00:00:00 | |
| EDDB2-11 | 2026-09-05 23:50:21 | 49.60742 | 15.25307 | 139° | 159km/h | 13221m | 6.4m/s | -61.0°C | 25.5% | -1.0hPa | 2.7V | 00:00:00 | 00:00:00 | 00:00:00 | |
| NBG1-10 | 2026-09-05 23:50:19 | 49.60772 | 15.25265 | 137° | 175km/h | 13213m | 8.8m/s | -61.0°C | 32.1% | 0hPa | 2.7V | 00:00:00 | 01:04:15 | 08:30:00 | |
| PG1ADW-2 | 2026-09-05 23:50:17 | 49.60828 | 15.25175 | 133° | 173km/h | 13197m | 9.8m/s | -60.9°C | 31.6% | 0hPa | 2.7V | 00:00:00 | 00:00:00 | 00:00:00 | |
| OE3MUC-15 | 2026-09-05 23:50:16 | 49.60855 | 15.25129 | 131° | 159km/h | 13187m | 10.8m/s | -60.9°C | 32.1% | 0hPa | 2.7V | 00:00:00 | 00:00:00 | 00:00:00 | |
| ANDY1245 | 2026-09-05 23:50:14 | 49.60881 | 15.25082 | 132° | 157km/h | 13177m | 9.0m/s | -61.0°C | 26.3% | 0hPa | 2.7V | 00:00:00 | 00:00:00 | 00:00:00 | |
| OE5MMP-10 | 2026-09-05 23:50:13 | 49.60935 | 15.24990 | 133° | 179km/h | 13164m | 5.2m/s | -60.9°C | 33.8% | 0hPa | 2.7V | 00:00:00 | 01:04:09 | 00:00:00 | |
| OE3MUC-15 | 2026-09-05 23:50:12 | 49.60963 | 15.24942 | 133° | 179km/h | 13159m | 5.7m/s | -60.9°C | 33.5% | 0hPa | 2.7V | 00:00:00 | 00:00:00 | 00:00:00 | |
| OE5DRO-10 | 2026-09-05 23:50:10 | 49.61024 | 15.24841 | 135° | 179km/h | 13147m | 7.7m/s | -61.0°C | 34.2% | 0hPa | 2.7V | 00:00:00 | 00:00:00 | 00:00:00 | |
| OE3MUC-15 | 2026-09-05 23:50:08 | 49.61090 | 15.24738 | 136° | 183km/h | 13132m | 7.7m/s | -61.1°C | 35.0% | 0hPa | 2.7V | 00:00:00 | 00:00:00 | 00:00:00 | |
| OE3MUC-15 | 2026-09-05 23:50:04 | 49.61222 | 15.24543 | 138° | 175km/h | 13100m | 7.8m/s | -61.2°C | 37.7% | 0hPa | 2.7V | 00:00:00 | 00:00:00 | 08:30:00 | |
| DO3MHA-11 | 2026-09-05 23:50:03 | 49.61255 | 15.24496 | 137° | 177km/h | 13094m | 4.7m/s | -61.2°C | 38.1% | 0hPa | 2.6V | 00:00:00 | 01:03:59 | 00:00:00 | |
| EDDB2-11 | 2026-09-05 23:49:50 | 49.61672 | 15.23768 | 124° | 181km/h | 12986m | 7.7m/s | -62.6°C | 37.6% | -1.0hPa | 2.6V | 00:00:00 | 00:00:00 | 00:00:00 | |
| OE3MUC-15 | 2026-09-05 23:49:47 | 49.61722 | 15.23654 | 125° | 175km/h | 12972m | 6.9m/s | -62.9°C | 50.7% | 0hPa | 2.6V | 00:00:00 | 00:00:00 | 00:00:00 | |
| OE5DXL-15 | 2026-09-05 23:49:46 | 49.61747 | 15.23599 | 125° | 184km/h | 12966m | 5.0m/s | -63.0°C | 51.0% | 0hPa | 2.6V | 00:00:00 | 00:00:00 | 00:00:00 | |
| OE5MMP-10 | 2026-09-05 23:49:43 | 49.61822 | 15.23427 | 124° | 190km/h | 12944m | 6.7m/s | -63.0°C | 52.8% | 0hPa | 2.6V | 00:00:00 | 01:03:39 | 00:00:00 | |
| OE3JTB-15 | 2026-09-05 23:49:42 | 49.61849 | 15.23367 | 125° | 184km/h | 12937m | 7.3m/s | -63.0°C | 51.9% | 0hPa | 2.6V | 00:00:00 | 00:00:00 | 00:00:00 | |
| PETON7-10 | 2026-09-05 23:49:38 | 49.61961 | 15.23119 | 126° | 186km/h | 12909m | 10.2m/s | -62.8°C | 48.6% | 0hPa | 2.6V | 00:00:00 | 00:00:00 | 00:00:00 | |
| PG1ADW-2 | 2026-09-05 23:49:37 | 49.61989 | 15.23056 | 125° | 184km/h | 12899m | 7.6m/s | -62.7°C | 49.1% | 0hPa | 2.6V | 00:00:00 | 00:00:00 | 00:00:00 | |
| OE5MMP-10 | 2026-09-05 23:49:33 | 49.62093 | 15.22816 | 125° | 186km/h | 12870m | 8.6m/s | -62.5°C | 46.4% | 0hPa | 2.6V | 00:00:00 | 01:03:29 | 00:00:00 | |
| OE5DRO-10 | 2026-09-05 23:49:32 | 49.62119 | 15.22758 | 125° | 183km/h | 12861m | 8.8m/s | -62.4°C | 46.3% | 0hPa | 2.6V | 00:00:00 | 00:00:00 | 00:00:00 | |
| ANDY1245 | 2026-09-05 23:49:28 | 49.62199 | 15.22580 | 125° | 190km/h | 12844m | 6.3m/s | -62.4°C | 38.4% | 0hPa | 2.6V | 00:00:00 | 00:00:00 | 00:00:00 | |
| DO3MHA-11 | 2026-09-05 23:49:23 | 49.62357 | 15.22218 | 122° | 181km/h | 12806m | 8.7m/s | -62.0°C | 47.9% | 0hPa | 2.6V | 00:00:00 | 01:03:19 | 00:00:00 | |
| ANDY1245 | 2026-09-05 23:49:22 | 49.62357 | 15.22218 | 122° | 179km/h | 12806m | 8.7m/s | -62.0°C | 39.8% | 0hPa | 2.6V | 00:00:00 | 00:00:00 | 00:00:00 | |
| OE3MUC-15 | 2026-09-05 23:49:21 | 49.62403 | 15.22097 | 120° | 175km/h | 12796m | 2.8m/s | -62.0°C | 46.6% | 0hPa | 2.6V | 00:00:00 | 00:00:00 | 00:00:00 | |
| EDDB2-11 | 2026-09-05 23:49:19 | 49.62468 | 15.21918 | 119° | 175km/h | 12773m | 5.7m/s | -61.9°C | 37.2% | -1.0hPa | 2.6V | 00:00:00 | 00:00:00 | 00:00:00 | |
| ANDY1245 | 2026-09-05 23:49:17 | 49.62490 | 15.21858 | 120° | 179km/h | 12767m | 7.7m/s | -61.8°C | 37.7% | 0hPa | 2.6V | 00:00:00 | 00:00:00 | 00:00:00 | |
| OE5DXL-15 | 2026-09-05 23:49:16 | 49.62512 | 15.21796 | 120° | 183km/h | 12760m | 6.3m/s | -61.7°C | 44.7% | 0hPa | 2.6V | 00:00:00 | 00:00:00 | 00:00:00 | |
| DO3MHA-11 | 2026-09-05 23:49:13 | 49.62583 | 15.21606 | 121° | 184km/h | 12738m | 8.8m/s | -61.6°C | 44.1% | 0hPa | 2.6V | 00:00:00 | 01:03:09 | 00:00:00 | |
| OE3JTB-15 | 2026-09-05 23:49:12 | 49.62607 | 15.21544 | 122° | 184km/h | 12731m | 5.1m/s | -61.5°C | 44.4% | 0hPa | 2.6V | 00:00:00 | 01:03:08 | 00:00:00 | |
| OE3MUC-15 | 2026-09-05 23:49:11 | 49.62631 | 15.21483 | 122° | 184km/h | 12725m | 7.2m/s | -61.5°C | 44.5% | 0hPa | 2.6V | 00:00:00 | 00:00:00 | 00:00:00 | |
| ANDY1245 | 2026-09-05 23:49:10 | 49.62631 | 15.21483 | 122° | 183km/h | 12725m | 7.2m/s | -61.5°C | 36.9% | 0hPa | 2.7V | 00:00:00 | 00:00:00 | 00:00:00 | |
| PETON7-10 | 2026-09-05 23:49:08 | 49.62703 | 15.21299 | 121° | 181km/h | 12707m | 6.0m/s | -61.3°C | 44.9% | 0hPa | 2.7V | 00:00:00 | 00:00:00 | 00:00:00 | |
| OE3MUC-15 | 2026-09-05 23:49:07 | 49.62727 | 15.21237 | 121° | 184km/h | 12702m | 5.2m/s | -61.3°C | 45.5% | 0hPa | 2.6V | 00:00:00 | 00:00:00 | 00:00:00 | |
| ANDY1245 | 2026-09-05 23:49:04 | 49.62774 | 15.21112 | 121° | 183km/h | 12692m | 5.8m/s | -61.2°C | 37.6% | 0hPa | 2.6V | 00:00:00 | 00:00:00 | 00:00:00 | |
| OE5MMP-10 | 2026-09-05 23:49:03 | 49.62820 | 15.20990 | 120° | 179km/h | 12681m | 8.5m/s | -61.1°C | 44.3% | 0hPa | 2.6V | 00:00:00 | 01:02:59 | 00:00:00 | |
| PG1ADW-2 | 2026-09-05 23:48:57 | 49.62968 | 15.20641 | 128° | 186km/h | 12642m | 5.4m/s | -60.8°C | 46.1% | 0hPa | 2.6V | 00:00:00 | 00:00:00 | 08:30:00 | |
| OE3MUC-15 | 2026-09-05 23:48:55 | 49.63022 | 15.20530 | 127° | 181km/h | 12635m | 2.6m/s | -60.7°C | 44.5% | 0hPa | 2.7V | 00:00:00 | 00:00:00 | 00:00:00 | |
| OE5DRO-10 | 2026-09-05 23:48:54 | 49.63049 | 15.20472 | 126° | 186km/h | 12631m | 6.5m/s | -60.7°C | 42.6% | 0hPa | 2.7V | 00:00:00 | 00:00:00 | 00:00:00 | |
| OE5MMP-10 | 2026-09-05 23:48:53 | 49.63075 | 15.20414 | 124° | 188km/h | 12624m | 8.5m/s | -60.6°C | 41.4% | 0hPa | 2.7V | 00:00:00 | 01:02:49 | 00:00:00 | |
| OK1ALN | 2026-09-05 23:48:52 | 49.63075 | 15.20414 | 125° | 181km/h | 12624m | 8.5m/s | -60.7°C | 34.3% | 0hPa | 2.6V | 00:00:00 | 00:00:00 | 00:00:00 | |
| OE3MUC-15 | 2026-09-05 23:48:51 | 49.63123 | 15.20297 | 122° | 183km/h | 12605m | 6.9m/s | -60.4°C | 40.9% | 0hPa | 2.6V | 00:00:00 | 00:00:00 | 00:00:00 | |
| S52SK | 2026-09-05 23:48:50 | 49.63123 | 15.20297 | 123° | 177km/h | 12605m | 7.0m/s | 0°C | 0% | 0hPa | 2.6V | 00:00:00 | 00:00:00 | 00:00:00 | |
| OE3MUC-15 | 2026-09-05 23:48:47 | 49.63227 | 15.20051 | 125° | 199km/h | 12574m | 5.9m/s | -60.2°C | 41.8% | 0hPa | 2.6V | 00:00:00 | 00:00:00 | 00:00:00 | |
| OE5DXL-15 | 2026-09-05 23:48:46 | 49.63255 | 15.19987 | 125° | 186km/h | 12568m | 6.5m/s | -60.1°C | 42.3% | 0hPa | 2.6V | 00:00:00 | 00:00:00 | 08:30:00 | |
| S52SK | 2026-09-05 23:48:45 | 49.63255 | 15.19987 | 125° | 195km/h | 12568m | 6.6m/s | 0°C | 0% | 0hPa | 2.7V | 00:00:00 | 00:00:00 | 00:00:00 | |
| DO3MHA-11 | 2026-09-05 23:48:43 | 49.63336 | 15.19801 | 125° | 184km/h | 12550m | 6.4m/s | -59.9°C | 42.0% | 0hPa | 2.7V | 00:00:00 | 01:02:39 | 00:00:00 | |
| NBG1-10 | 2026-09-05 23:48:40 | 49.63417 | 15.19621 | 126° | 188km/h | 12531m | 6.9m/s | -59.8°C | 43.2% | 0hPa | 2.7V | 00:00:00 | 01:02:36 | 00:00:00 | |
| OE3JTB-15 | 2026-09-05 23:48:39 | 49.63443 | 15.19562 | 124° | 188km/h | 12525m | 4.7m/s | -59.7°C | 43.7% | 0hPa | 2.7V | 00:00:00 | 00:00:00 | 00:00:00 | |
| PETON7-10 | 2026-09-05 23:48:38 | 49.63468 | 15.19502 | 122° | 184km/h | 12520m | 6.8m/s | -59.7°C | 43.1% | 0hPa | 2.6V | 00:00:00 | 01:02:34 | 00:00:00 | |
| PG1ADW-2 | 2026-09-05 23:48:37 | 49.63491 | 15.19441 | 120° | 186km/h | 12513m | 6.2m/s | -59.6°C | 42.9% | 0hPa | 2.6V | 00:00:00 | 00:00:00 | 00:00:00 | |
| OE3MUC-15 | 2026-09-05 23:48:35 | 49.63534 | 15.19316 | 117° | 177km/h | 12502m | 3.9m/s | -59.5°C | 42.1% | 0hPa | 2.6V | 00:00:00 | 00:00:00 | 00:00:00 | |
| ANDY1245 | 2026-09-05 23:48:34 | 49.63534 | 15.19316 | 118° | 183km/h | 12502m | 4.0m/s | -59.6°C | 35.1% | 0hPa | 2.6V | 00:00:00 | 00:00:00 | 00:00:00 | |
| DO3MHA-11 | 2026-09-05 23:48:33 | 49.63575 | 15.19193 | 120° | 188km/h | 12489m | 7.8m/s | -59.4°C | 42.0% | 0hPa | 2.6V | 00:00:00 | 01:02:29 | 00:00:00 | |
| OE3MUC-15 | 2026-09-05 23:48:31 | 49.63623 | 15.19077 | 126° | 188km/h | 12475m | 7.8m/s | -59.2°C | 42.0% | 0hPa | 2.6V | 00:00:00 | 00:00:00 | 00:00:00 | |
| SP3BTT-10 | 2026-09-05 23:48:30 | 49.63650 | 15.19020 | 127° | 188km/h | 12467m | 8.4m/s | -59.2°C | 41.8% | 0hPa | 2.6V | 00:00:00 | 00:00:00 | 00:00:00 | |
| ANDY1245 | 2026-09-05 23:48:29 | 49.63650 | 15.19020 | 128° | 184km/h | 12467m | 8.4m/s | -59.2°C | 34.9% | 0hPa | 2.6V | 00:00:00 | 00:00:00 | 00:00:00 | |
| OK1ALN | 2026-09-05 23:48:28 | 49.63679 | 15.18961 | 128° | 193km/h | 12460m | 5.7m/s | -59.2°C | 34.8% | 0hPa | 2.6V | 00:00:00 | 00:00:00 | 00:00:00 | |
| OE3MUC-15 | 2026-09-05 23:48:27 | 49.63736 | 15.18837 | 124° | 192km/h | 12443m | 7.7m/s | -59.0°C | 41.1% | 0hPa | 2.6V | 00:00:00 | 00:00:00 | 00:00:00 | |
| OE5MMP-10 | 2026-09-05 23:48:23 | 49.63838 | 15.18584 | 123° | 188km/h | 12415m | 5.9m/s | -58.7°C | 40.5% | 0hPa | 2.7V | 00:00:00 | 01:02:19 | 08:30:00 | |
| OE3MUC-15 | 2026-09-05 23:48:18 | 49.63974 | 15.18285 | 127° | 188km/h | 12382m | 8.5m/s | -58.4°C | 39.6% | 0hPa | 2.7V | 00:00:00 | 00:00:00 | 00:00:00 | |
| EDDB2-11 | 2026-09-05 23:48:17 | 49.64030 | 15.18167 | 125° | 186km/h | 12369m | 5.1m/s | -58.3°C | 32.6% | -1.0hPa | 2.7V | 00:00:00 | 00:00:00 | 00:00:00 | |
| OE5DRO-10 | 2026-09-05 23:48:16 | 49.64030 | 15.18167 | 126° | 188km/h | 12369m | 5.0m/s | -58.3°C | 39.4% | 0hPa | 2.7V | 00:00:00 | 00:00:00 | 08:30:00 | |
| OE3MUC-15 | 2026-09-05 23:48:14 | 49.64085 | 15.18046 | 125° | 195km/h | 12357m | 5.2m/s | -58.1°C | 39.7% | 0hPa | 2.6V | 00:00:00 | 00:00:00 | 00:00:00 | |
| OE5MMP-10 | 2026-09-05 23:48:13 | 49.64112 | 15.17984 | 125° | 192km/h | 12351m | 7.0m/s | -58.1°C | 39.7% | 0hPa | 2.6V | 00:00:00 | 01:02:09 | 00:00:00 | |
| OE3MUC-15 | 2026-09-05 23:48:10 | 49.64197 | 15.17793 | 125° | 199km/h | 12333m | 6.9m/s | -57.9°C | 41.0% | 0hPa | 2.6V | 00:00:00 | 00:00:00 | 00:00:00 | |
| OE3JTB-15 | 2026-09-05 23:48:09 | 49.64226 | 15.17728 | 124° | 188km/h | 12329m | 2.4m/s | -57.9°C | 42.3% | 0hPa | 2.6V | 00:00:00 | 00:00:00 | 00:00:00 | |
| PETON7-10 | 2026-09-05 23:48:08 | 49.64254 | 15.17663 | 124° | 186km/h | 12326m | 3.4m/s | -57.8°C | 42.2% | 0hPa | 2.6V | 00:00:00 | 00:00:00 | 00:00:00 | |
| NBG1-10 | 2026-09-05 23:48:07 | 49.64282 | 15.17600 | 125° | 188km/h | 12322m | 6.1m/s | -57.8°C | 42.4% | 0hPa | 2.6V | 00:00:00 | 01:02:03 | 00:00:00 | |
| OE3MUC-15 | 2026-09-05 23:48:06 | 49.64309 | 15.17540 | 126° | 179km/h | 12316m | 5.8m/s | -57.7°C | 42.9% | 0hPa | 2.6V | 00:00:00 | 00:00:00 | 00:00:00 | |
| OK1ALN | 2026-09-05 23:48:04 | 49.64337 | 15.17482 | 128° | 179km/h | 12311m | 5.7m/s | -57.8°C | 36.6% | 0hPa | 2.6V | 00:00:00 | 00:00:00 | 00:00:00 | |
| DO3MHA-11 | 2026-09-05 23:48:03 | 49.64392 | 15.17377 | 131° | 188km/h | 12301m | 5.7m/s | -57.6°C | 43.5% | 0hPa | 2.6V | 00:00:00 | 01:01:59 | 00:00:00 | |
| EDDB2-11 | 2026-09-05 23:47:46 | 49.64900 | 15.16321 | 124° | 199km/h | 12173m | 6.8m/s | -57.2°C | 38.1% | -1.0hPa | 2.6V | 00:00:00 | 00:00:00 | 00:00:00 | |
| OK1ALN | 2026-09-05 23:47:44 | 49.64900 | 15.16321 | 125° | 201km/h | 12173m | 6.8m/s | -57.2°C | 38.4% | 0hPa | 2.6V | 00:00:00 | 00:00:00 | 00:00:00 | |
| OE5MMP-10 | 2026-09-05 23:47:43 | 49.64959 | 15.16192 | 127° | 190km/h | 12163m | 5.9m/s | -57.4°C | 46.8% | 0hPa | 2.6V | 00:00:00 | 01:01:39 | 00:00:00 | |
| OE5DRO-10 | 2026-09-05 23:47:38 | 49.65111 | 15.15897 | 129° | 183km/h | 12127m | 6.2m/s | -58.2°C | 48.8% | 0hPa | 2.6V | 00:00:00 | 00:00:00 | 00:00:00 | |
| PG1ADW-2 | 2026-09-05 23:47:37 | 49.65140 | 15.15840 | 129° | 181km/h | 12120m | 8.1m/s | -58.4°C | 49.2% | 0hPa | 2.6V | 00:00:00 | 00:00:00 | 00:00:00 | |
| NBG1-10 | 2026-09-05 23:47:34 | 49.65229 | 15.15668 | 129° | 179km/h | 12101m | 7.0m/s | -58.6°C | 50.3% | 0hPa | 2.6V | 00:00:00 | 01:01:30 | 00:00:00 | |
| OE5MMP-10 | 2026-09-05 23:47:33 | 49.65259 | 15.15610 | 129° | 184km/h | 12093m | 8.1m/s | -58.6°C | 50.5% | 0hPa | 2.6V | 00:00:00 | 01:01:29 | 00:00:00 | |
| DO3MHA-11 | 2026-09-05 23:47:23 | 49.65542 | 15.15041 | 127° | 175km/h | 12027m | 6.9m/s | -58.8°C | 51.9% | 0hPa | 2.6V | 00:00:00 | 01:01:19 | 00:00:00 | |
| OK1ALN | 2026-09-05 23:47:21 | 49.65567 | 15.14986 | 126° | 170km/h | 12021m | 6.7m/s | -58.8°C | 44.7% | 0hPa | 2.6V | 00:00:00 | 00:00:00 | 00:00:00 | |
| OE3MUC-15 | 2026-09-05 23:47:19 | 49.65642 | 15.14825 | 128° | 177km/h | 12003m | 4.6m/s | -58.6°C | 54.2% | 0hPa | 2.6V | 00:00:00 | 00:00:00 | 00:00:00 | |
| ANDY1245 | 2026-09-05 23:47:18 | 49.65642 | 15.14825 | 128° | 172km/h | 12003m | 4.7m/s | -58.6°C | 46.6% | 0hPa | 2.7V | 00:00:00 | 00:00:00 | 00:00:00 | |
| PG1ADW-2 | 2026-09-05 23:47:17 | 49.65698 | 15.14718 | 130° | 179km/h | 11994m | 5.9m/s | -58.5°C | 53.0% | 0hPa | 2.7V | 00:00:00 | 00:00:00 | 00:00:00 | |
| OE5DXL-15 | 2026-09-05 23:47:16 | 49.65727 | 15.14664 | 130° | 177km/h | 11988m | 5.5m/s | -58.4°C | 52.7% | 0hPa | 2.7V | 00:00:00 | 00:00:00 | 00:00:00 | |
| OE3MUC-15 | 2026-09-05 23:47:15 | 49.65756 | 15.14609 | 130° | 183km/h | 11982m | 6.8m/s | -58.4°C | 52.4% | 0hPa | 2.6V | 00:00:00 | 00:00:00 | 00:00:00 | |
| EDDB2-11 | 2026-09-05 23:47:14 | 49.65786 | 15.14554 | 128° | 183km/h | 11975m | 7.4m/s | -58.4°C | 44.1% | -1.0hPa | 2.6V | 00:00:00 | 00:00:00 | 00:00:00 | |
| DO3MHA-11 | 2026-09-05 23:47:13 | 49.65814 | 15.14498 | 127° | 175km/h | 11968m | 6.8m/s | -58.3°C | 52.1% | 0hPa | 2.6V | 00:00:00 | 01:01:09 | 00:00:00 | |
| ANDY1245 | 2026-09-05 23:47:12 | 49.65814 | 15.14498 | 128° | 181km/h | 11968m | 6.8m/s | -58.4°C | 44.8% | 0hPa | 2.6V | 00:00:00 | 00:00:00 | 00:00:00 | |
| OE3MUC-15 | 2026-09-05 23:47:11 | 49.65868 | 15.14384 | 126° | 173km/h | 11955m | 6.7m/s | -58.2°C | 52.4% | 0hPa | 2.6V | 00:00:00 | 00:00:00 | 00:00:00 | |
| PETON7-10 | 2026-09-05 23:47:08 | 49.65949 | 15.14223 | 130° | 179km/h | 11936m | 4.6m/s | -58.1°C | 52.1% | 0hPa | 2.6V | 00:00:00 | 01:01:04 | 00:00:00 | |
| ANDY1245 | 2026-09-05 23:47:07 | 49.65976 | 15.14174 | 131° | 168km/h | 11930m | 6.4m/s | -58.1°C | 44.4% | 0hPa | 2.6V | 00:00:00 | 00:00:00 | 00:00:00 | |
| OE5MMP-10 | 2026-09-05 23:47:03 | 49.66092 | 15.13964 | 131° | 181km/h | 11904m | 6.7m/s | -57.9°C | 50.6% | 0hPa | 2.6V | 00:00:00 | 01:00:59 | 00:00:00 | |
| NBG1-10 | 2026-09-05 23:47:01 | 49.66151 | 15.13852 | 128° | 175km/h | 11889m | 5.2m/s | -57.7°C | 50.7% | 0hPa | 2.6V | 00:00:00 | 01:00:57 | 00:00:00 | |
| OE5DRO-10 | 2026-09-05 23:47:00 | 49.66180 | 15.13795 | 129° | 175km/h | 11884m | 5.6m/s | -57.7°C | 50.4% | 0hPa | 2.6V | 00:00:00 | 00:00:00 | 00:00:00 | |
| PG1ADW-2 | 2026-09-05 23:46:57 | 49.66266 | 15.13630 | 131° | 175km/h | 11866m | 4.0m/s | -57.6°C | 49.2% | 0hPa | 2.6V | 00:00:00 | 00:00:00 | 00:00:00 | |
| OE3MUC-15 | 2026-09-05 23:46:55 | 49.66325 | 15.13526 | 133° | 179km/h | 11852m | 8.9m/s | -57.4°C | 48.3% | 0hPa | 2.7V | 00:00:00 | 00:00:00 | 00:00:00 | |
| DO3MHA-11 | 2026-09-05 23:46:53 | 49.66386 | 15.13424 | 133° | 173km/h | 11835m | 7.6m/s | -57.3°C | 49.3% | 0hPa | 2.7V | 00:00:00 | 01:00:49 | 08:30:00 | |
| OE3MUC-15 | 2026-09-05 23:46:51 | 49.66446 | 15.13319 | 131° | 175km/h | 11822m | 7.3m/s | -57.2°C | 50.7% | 0hPa | 2.7V | 00:00:00 | 00:00:00 | 00:00:00 | |
| OE3MUC-15 | 2026-09-05 23:46:47 | 49.66557 | 15.13107 | 129° | 168km/h | 11798m | 7.5m/s | -57.0°C | 49.2% | 0hPa | 2.7V | 00:00:00 | 00:00:00 | 00:00:00 | |
| OE5WHR-10 | 2026-09-05 23:46:45 | 49.66611 | 15.13006 | 130° | 177km/h | 11783m | 6.4m/s | -56.9°C | 49.2% | 0hPa | 2.7V | 00:00:00 | 01:00:41 | 00:00:00 | |
| DO3MHA-11 | 2026-09-05 23:46:43 | 49.66665 | 15.12905 | 130° | 173km/h | 11770m | 8.7m/s | -56.8°C | 49.0% | 0hPa | 2.7V | 00:00:00 | 01:00:39 | 00:00:00 | |
| OE5DRO-10 | 2026-09-05 23:46:41 | 49.66721 | 15.12800 | 131° | 177km/h | 11757m | 5.2m/s | -56.7°C | 47.4% | 0hPa | 2.7V | 00:00:00 | 00:00:00 | 00:00:00 | |
| OE3MUC-15 | 2026-09-05 23:46:39 | 49.66781 | 15.12694 | 133° | 173km/h | 11743m | 7.8m/s | -56.5°C | 45.7% | 0hPa | 2.7V | 00:00:00 | 00:00:00 | 00:00:00 | |
| PETON7-10 | 2026-09-05 23:46:38 | 49.66812 | 15.12643 | 133° | 177km/h | 11735m | 8.2m/s | -56.5°C | 45.4% | 0hPa | 2.7V | 00:00:00 | 00:00:00 | 00:00:00 | |
| PG1ADW-2 | 2026-09-05 23:46:37 | 49.66842 | 15.12593 | 133° | 177km/h | 11727m | 7.3m/s | -56.4°C | 45.7% | 0hPa | 2.7V | 00:00:00 | 01:00:33 | 00:00:00 | |
| OK1ALN | 2026-09-05 23:46:36 | 49.66842 | 15.12593 | 134° | 173km/h | 11727m | 7.3m/s | -56.4°C | 39.2% | 0hPa | 2.7V | 00:00:00 | 00:00:00 | 00:00:00 | |
| OE3MUC-15 | 2026-09-05 23:46:35 | 49.66898 | 15.12496 | 132° | 168km/h | 11715m | 7.0m/s | -56.3°C | 45.6% | 0hPa | 2.7V | 00:00:00 | 00:00:00 | 00:00:00 | |
| DO3MHA-11 | 2026-09-05 23:46:33 | 49.66953 | 15.12397 | 131° | 181km/h | 11703m | 6.1m/s | -56.2°C | 45.6% | 0hPa | 2.7V | 00:00:00 | 01:00:29 | 00:00:00 | |
| OE3MUC-15 | 2026-09-05 23:46:31 | 49.67010 | 15.12293 | 130° | 177km/h | 11692m | 6.2m/s | -56.1°C | 45.6% | 0hPa | 2.7V | 00:00:00 | 00:00:00 | 08:30:00 | |
| ANDY1245 | 2026-09-05 23:46:30 | 49.67010 | 15.12293 | 130° | 177km/h | 11692m | 6.3m/s | -56.1°C | 39.2% | 0hPa | 2.6V | 00:00:00 | 00:00:00 | 00:00:00 | |
| NBG1-10 | 2026-09-05 23:46:28 | 49.67099 | 15.12128 | 131° | 179km/h | 11675m | 4.3m/s | -55.9°C | 46.6% | 0hPa | 2.6V | 00:00:00 | 01:00:24 | 00:00:00 | |
| OE3MUC-15 | 2026-09-05 23:46:27 | 49.67130 | 15.12072 | 131° | 190km/h | 11670m | 4.7m/s | -55.9°C | 46.4% | 0hPa | 2.6V | 00:00:00 | 00:00:00 | 00:00:00 | |
| ANDY1245 | 2026-09-05 23:46:25 | 49.67190 | 15.11961 | 131° | 181km/h | 11660m | 5.0m/s | -55.9°C | 40.4% | 0hPa | 2.6V | 00:00:00 | 00:00:00 | 00:00:00 | |
| OE5MMP-10 | 2026-09-05 23:46:23 | 49.67247 | 15.11857 | 131° | 181km/h | 11649m | 8.1m/s | -55.7°C | 45.0% | 0hPa | 2.6V | 00:00:00 | 01:00:19 | 00:00:00 | |
| OE3MUC-15 | 2026-09-05 23:46:22 | 49.67276 | 15.11806 | 131° | 179km/h | 11642m | 8.1m/s | -55.7°C | 45.3% | 0hPa | 2.7V | 00:00:00 | 01:00:18 | 00:00:00 | |
| OE3MUC-15 | 2026-09-05 23:46:18 | 49.67397 | 15.11595 | 132° | 184km/h | 11615m | 6.8m/s | -55.4°C | 45.1% | 0hPa | 2.7V | 00:00:00 | 00:00:00 | 00:00:00 | |
| PG1ADW-2 | 2026-09-05 23:46:17 | 49.67429 | 15.11541 | 133° | 177km/h | 11609m | 4.9m/s | -55.4°C | 45.2% | 0hPa | 2.7V | 00:00:00 | 00:00:00 | 00:00:00 | |
| OE5DXL-15 | 2026-09-05 23:46:15 | 49.67492 | 15.11434 | 133° | 177km/h | 11599m | 4.8m/s | -55.3°C | 44.7% | 0hPa | 2.7V | 00:00:00 | 00:00:00 | 00:00:00 | |
| OE3MUC-15 | 2026-09-05 23:46:14 | 49.67522 | 15.11383 | 132° | 177km/h | 11593m | 5.3m/s | -55.2°C | 43.2% | 0hPa | 2.7V | 00:00:00 | 00:00:00 | 00:00:00 | |
| ANDY1245 | 2026-09-05 23:46:13 | 49.67552 | 15.11331 | 132° | 177km/h | 11587m | 7.2m/s | -55.2°C | 0% | 0hPa | 2.7V | 00:00:00 | 00:00:00 | 00:00:00 | |
| EDDB2-11 | 2026-09-05 23:46:12 | 49.67581 | 15.11279 | 130° | 175km/h | 11580m | 7.7m/s | -55.2°C | 36.1% | -1.0hPa | 2.7V | 00:00:00 | 00:00:00 | 00:00:00 | |
| OE3MUC-15 | 2026-09-05 23:46:10 | 49.67639 | 15.11176 | 132° | 170km/h | 11564m | 5.9m/s | -55.0°C | 42.7% | 0hPa | 2.7V | 00:00:00 | 00:00:00 | 00:00:00 | |
| PETON7-10 | 2026-09-05 23:46:08 | 49.67697 | 15.11077 | 132° | 173km/h | 11554m | 6.4m/s | -54.9°C | 42.3% | 0hPa | 2.7V | 00:00:00 | 00:00:00 | 08:30:00 | |
| OE3MUC-15 | 2026-09-05 23:46:06 | 49.67753 | 15.10978 | 130° | 173km/h | 11543m | 4.2m/s | -54.8°C | 43.0% | 0hPa | 2.7V | 00:00:00 | 00:00:00 | 00:00:00 | |
| DO3MHA-11 | 2026-09-05 23:46:03 | 49.67839 | 15.10824 | 133° | 175km/h | 11528m | 5.2m/s | -54.7°C | 43.3% | 0hPa | 2.7V | 00:00:00 | 00:59:59 | 00:00:00 | |
| OE5WHR-10 | 2026-09-05 23:46:00 | 49.67934 | 15.10666 | 133° | 175km/h | 11513m | 4.8m/s | -54.6°C | 43.3% | 0hPa | 2.7V | 00:00:00 | 00:00:00 | 08:30:00 | |
| OE3MUC-15 | 2026-09-05 23:45:58 | 49.67996 | 15.10564 | 135° | 170km/h | 11504m | 5.8m/s | -54.5°C | 41.3% | 0hPa | 2.7V | 00:00:00 | 00:00:00 | 00:00:00 | |
| PG1ADW-2 | 2026-09-05 23:45:57 | 49.68027 | 15.10516 | 135° | 175km/h | 11498m | 7.6m/s | -54.4°C | 40.9% | 0hPa | 2.7V | 00:00:00 | 00:00:00 | 08:30:00 | |
| NBG1-10 | 2026-09-05 23:45:55 | 49.68086 | 15.10423 | 135° | 177km/h | 11486m | 8.2m/s | -54.3°C | 39.8% | 0hPa | 2.7V | 00:00:00 | 00:59:51 | 00:00:00 | |
| OE3MUC-15 | 2026-09-05 23:45:54 | 49.68114 | 15.10376 | 132° | 177km/h | 11478m | 7.1m/s | -54.2°C | 40.2% | 0hPa | 2.7V | 00:00:00 | 00:00:00 | 08:30:00 | |
| DO3MHA-11 | 2026-09-05 23:45:53 | 49.68142 | 15.10325 | 130° | 179km/h | 11473m | 4.5m/s | -54.2°C | 40.4% | 0hPa | 2.6V | 00:00:00 | 00:59:49 | 00:00:00 | |
| OE3MUC-15 | 2026-09-05 23:45:50 | 49.68232 | 15.10162 | 132° | 186km/h | 11455m | 5.0m/s | -54.0°C | 41.1% | 0hPa | 2.7V | 00:00:00 | 00:00:00 | 00:00:00 | |
| OE3MUC-15 | 2026-09-05 23:45:46 | 49.68359 | 15.09954 | 133° | 170km/h | 11436m | 7.9m/s | -53.8°C | 39.1% | 0hPa | 2.7V | 00:00:00 | 00:00:00 | 00:00:00 | |
| OE5DXL-15 | 2026-09-05 23:45:45 | 49.68388 | 15.09904 | 131° | 177km/h | 11428m | 8.0m/s | -53.8°C | 38.8% | 0hPa | 2.7V | 00:00:00 | 00:00:00 | 00:00:00 | |
| OE5DRO-10 | 2026-09-05 23:45:44 | 49.68416 | 15.09853 | 130° | 177km/h | 11421m | 6.4m/s | -53.7°C | 38.5% | 0hPa | 2.7V | 00:00:00 | 00:00:00 | 00:00:00 | |
| OE5MMP-10 | 2026-09-05 23:45:43 | 49.68442 | 15.09803 | 130° | 181km/h | 11415m | 5.5m/s | -53.7°C | 38.4% | 0hPa | 2.7V | 00:00:00 | 00:59:39 | 00:00:00 | |
| OE3MUC-15 | 2026-09-05 23:45:42 | 49.68470 | 15.09753 | 131° | 175km/h | 11410m | 7.1m/s | -53.6°C | 38.2% | 0hPa | 2.7V | 00:00:00 | 00:00:00 | 00:00:00 | |
| OE5WHR-10 | 2026-09-05 23:45:39 | 49.68560 | 15.09603 | 135° | 177km/h | 11389m | 8.7m/s | -53.4°C | 38.4% | 0hPa | 2.7V | 00:00:00 | 00:00:00 | 00:00:00 | |
| PETON7-10 | 2026-09-05 23:45:38 | 49.68593 | 15.09552 | 136° | 179km/h | 11382m | 5.7m/s | -53.3°C | 38.0% | 0hPa | 2.7V | 00:00:00 | 00:59:34 | 00:00:00 | |
| PG1ADW-2 | 2026-09-05 23:45:37 | 49.68627 | 15.09501 | 136° | 181km/h | 11374m | 9.2m/s | -53.3°C | 38.0% | 0hPa | 2.7V | 00:00:00 | 00:00:00 | 00:00:00 | |
| DO3MHA-11 | 2026-09-05 23:45:33 | 49.68756 | 15.09290 | 133° | 175km/h | 11350m | 6.2m/s | -53.1°C | 36.2% | 0hPa | 2.7V | 00:00:00 | 00:59:29 | 00:00:00 | |
| OE5MMP-10 | 2026-09-05 23:45:29 | 49.68878 | 15.09096 | 137° | 179km/h | 11321m | 7.7m/s | -52.8°C | 35.3% | 0hPa | 2.7V | 00:00:00 | 00:59:25 | 00:00:00 | |
| OE5DRO-10 | 2026-09-05 23:45:25 | 49.69004 | 15.08910 | 137° | 179km/h | 11296m | 6.6m/s | -52.5°C | 34.5% | 0hPa | 2.7V | 00:00:00 | 00:00:00 | 08:30:00 | |
| DO3MHA-11 | 2026-09-05 23:45:23 | 49.69069 | 15.08810 | 135° | 179km/h | 11284m | 5.5m/s | -52.4°C | 34.8% | 0hPa | 2.6V | 00:00:00 | 00:59:19 | 08:30:00 | |
| NBG1-10 | 2026-09-05 23:45:22 | 49.69102 | 15.08757 | 134° | 175km/h | 11277m | 7.3m/s | -52.4°C | 34.4% | 0hPa | 2.7V | 00:00:00 | 00:59:18 | 08:30:00 | |
| OE5MMP-10 | 2026-09-05 23:45:19 | 49.69196 | 15.08592 | 132° | 173km/h | 11259m | 6.4m/s | -52.2°C | 33.9% | 0hPa | 2.7V | 00:00:00 | 00:59:15 | 08:30:00 | |
| OE3MUC-15 | 2026-09-05 23:45:18 | 49.69227 | 15.08540 | 134° | 172km/h | 11254m | 3.4m/s | -52.2°C | 34.1% | 0hPa | 2.7V | 00:00:00 | 00:00:00 | 08:30:00 | |
| PG1ADW-2 | 2026-09-05 23:45:17 | 49.69258 | 15.08490 | 134° | 173km/h | 11249m | 7.7m/s | -52.1°C | 33.2% | 0hPa | 2.7V | 00:00:00 | 00:59:13 | 00:00:00 | |
| OE3MUC-15 | 2026-09-05 23:45:14 | 49.69346 | 15.08348 | 134° | 170km/h | 11229m | 7.2m/s | -51.9°C | 32.7% | 0hPa | 2.7V | 00:00:00 | 00:00:00 | 00:00:00 | |
| DO3MHA-11 | 2026-09-05 23:45:13 | 49.69375 | 15.08300 | 133° | 175km/h | 11222m | 7.2m/s | -51.8°C | 33.0% | 0hPa | 2.7V | 00:00:00 | 00:59:09 | 00:00:00 | |
| OE5WHR-10 | 2026-09-05 23:45:12 | 49.69404 | 15.08250 | 132° | 170km/h | 11215m | 6.8m/s | -51.8°C | 33.0% | 0hPa | 2.7V | 00:00:00 | 00:59:08 | 00:00:00 | |
| OE3MUC-15 | 2026-09-05 23:45:10 | 49.69463 | 15.08145 | 131° | 181km/h | 11203m | 4.3m/s | -51.7°C | 33.0% | 0hPa | 2.7V | 00:00:00 | 00:00:00 | 00:00:00 | |
| OE5MMP-10 | 2026-09-05 23:45:09 | 49.69493 | 15.08091 | 132° | 173km/h | 11198m | 4.4m/s | -51.6°C | 32.4% | 0hPa | 2.7V | 00:00:00 | 00:59:05 | 00:00:00 | |
| S52SK | 2026-09-05 23:45:08 | 49.69493 | 15.08091 | 132° | 183km/h | 11198m | 4.4m/s | 0°C | 0% | 0hPa | 2.7V | 00:00:00 | 00:00:00 | 00:00:00 | |
| OE5DXL-15 | 2026-09-05 23:45:07 | 49.69553 | 15.07985 | 131° | 173km/h | 11185m | 8.4m/s | -51.5°C | 31.4% | 0hPa | 2.7V | 00:00:00 | 00:00:00 | 00:00:00 | |
| OE3MUC-15 | 2026-09-05 23:45:06 | 49.69581 | 15.07934 | 132° | 168km/h | 11177m | 7.2m/s | -51.4°C | 31.2% | 0hPa | 2.7V | 00:00:00 | 00:00:00 | 00:00:00 | |
| S52SK | 2026-09-05 23:45:03 | 49.69639 | 15.07837 | 135° | 168km/h | 11165m | 4.1m/s | 0°C | 0% | 0hPa | 2.7V | 00:00:00 | 00:00:00 | 00:00:00 | |
| OK1ALN | 2026-09-05 23:45:02 | 49.69698 | 15.07743 | 135° | 168km/h | 11151m | 8.5m/s | -51.2°C | 26.0% | 0hPa | 2.7V | 00:00:00 | 00:00:00 | 00:00:00 | |
| SP3BTT-10 | 2026-09-05 23:44:59 | 49.69788 | 15.07596 | 132° | 173km/h | 11130m | 7.7m/s | -51.0°C | 30.3% | 0hPa | 2.7V | 00:00:00 | 00:00:00 | 00:00:00 | |
| OE3MUC-15 | 2026-09-05 23:44:58 | 49.69818 | 15.07543 | 132° | 179km/h | 11123m | 6.4m/s | -50.9°C | 30.1% | 0hPa | 2.7V | 00:00:00 | 00:00:00 | 00:00:00 | |
| PG1ADW-2 | 2026-09-05 23:44:57 | 49.69848 | 15.07490 | 132° | 173km/h | 11116m | 7.5m/s | -50.8°C | 29.9% | 0hPa | 2.7V | 00:00:00 | 00:00:00 | 00:00:00 | |
| OE3MUC-15 | 2026-09-05 23:44:54 | 49.69938 | 15.07337 | 133° | 172km/h | 11097m | 5.3m/s | -50.7°C | 29.4% | 0hPa | 2.7V | 00:00:00 | 00:00:00 | 00:00:00 | |
| DO3MHA-11 | 2026-09-05 23:44:53 | 49.69968 | 15.07287 | 133° | 172km/h | 11091m | 6.5m/s | -50.6°C | 28.5% | 0hPa | 2.7V | 00:00:00 | 00:58:49 | 00:00:00 | |
| OE5MMP-10 | 2026-09-05 23:44:49 | 49.70084 | 15.07089 | 134° | 172km/h | 11064m | 6.7m/s | -50.4°C | 28.8% | 0hPa | 2.7V | 00:00:00 | 00:58:45 | 00:00:00 | |
| OE5DRO-10 | 2026-09-05 23:44:47 | 49.70145 | 15.06994 | 136° | 172km/h | 11053m | 7.6m/s | -50.3°C | 28.5% | 0hPa | 2.7V | 00:00:00 | 00:00:00 | 00:00:00 | |
| OE3MUC-15 | 2026-09-05 23:44:46 | 49.70176 | 15.06947 | 136° | 173km/h | 11046m | 5.7m/s | -50.2°C | 28.2% | 0hPa | 2.7V | 00:00:00 | 00:00:00 | 00:00:00 | |
| ANDY1245 | 2026-09-05 23:44:44 | 49.70207 | 15.06899 | 136° | 173km/h | 11041m | 4.2m/s | -50.2°C | 0% | 0hPa | 2.7V | 00:00:00 | 00:00:00 | 00:00:00 | |
| DO3MHA-11 | 2026-09-05 23:44:43 | 49.70269 | 15.06805 | 136° | 170km/h | 11027m | 7.2m/s | -50.0°C | 27.4% | 0hPa | 2.7V | 00:00:00 | 00:58:39 | 00:00:00 | |
| OE3MUC-15 | 2026-09-05 23:44:42 | 49.70300 | 15.06758 | 135° | 173km/h | 11021m | 6.5m/s | -50.0°C | 27.3% | 0hPa | 2.7V | 00:00:00 | 00:00:00 | 08:30:00 | |
| OK1ALN | 2026-09-05 23:44:40 | 49.70330 | 15.06708 | 133° | 173km/h | 11015m | 5.1m/s | -50.0°C | 23.6% | 0hPa | 2.7V | 00:00:00 | 00:00:00 | 00:00:00 | |
| OE5MMP-10 | 2026-09-05 23:44:39 | 49.70388 | 15.06607 | 131° | 170km/h | 11004m | 6.4m/s | -49.8°C | 27.2% | 0hPa | 2.7V | 00:00:00 | 00:58:35 | 00:00:00 | |
| PETON7-10 | 2026-09-05 23:44:38 | 49.70416 | 15.06557 | 132° | 170km/h | 10998m | 5.1m/s | -49.8°C | 27.3% | 0hPa | 2.7V | 00:00:00 | 00:00:00 | 00:00:00 | |
| PG1ADW-2 | 2026-09-05 23:44:37 | 49.70445 | 15.06508 | 133° | 172km/h | 10994m | 4.5m/s | -49.7°C | 27.3% | 0hPa | 2.7V | 00:00:00 | 00:00:00 | 00:00:00 | |
| OE3MUC-15 | 2026-09-05 23:44:34 | 49.70530 | 15.06365 | 133° | 170km/h | 10978m | 4.2m/s | -49.5°C | 26.5% | 0hPa | 2.7V | 00:00:00 | 00:00:00 | 00:00:00 | |
| DO3MHA-11 | 2026-09-05 23:44:33 | 49.70558 | 15.06317 | 133° | 172km/h | 10973m | 6.7m/s | -49.5°C | 26.2% | 0hPa | 2.7V | 00:00:00 | 00:58:29 | 00:00:00 | |
| OE3MUC-15 | 2026-09-05 23:44:30 | 49.70647 | 15.06170 | 134° | 173km/h | 10958m | 4.9m/s | -49.4°C | 26.1% | 0hPa | 2.7V | 00:00:00 | 00:00:00 | 00:00:00 | |
| OE5MMP-10 | 2026-09-05 23:44:29 | 49.70677 | 15.06120 | 134° | 173km/h | 10954m | 4.1m/s | -49.3°C | 26.0% | 0hPa | 2.7V | 00:00:00 | 00:58:25 | 00:00:00 | |
| OE5DRO-10 | 2026-09-05 23:44:28 | 49.70707 | 15.06071 | 134° | 173km/h | 10948m | 5.6m/s | -49.3°C | 26.0% | 0hPa | 2.7V | 00:00:00 | 00:00:00 | 00:00:00 | |
| OE3MUC-15 | 2026-09-05 23:44:26 | 49.70766 | 15.05974 | 134° | 173km/h | 10940m | 4.1m/s | -49.2°C | 25.2% | 0hPa | 2.7V | 00:00:00 | 00:00:00 | 00:00:00 | |
| PETON7-10 | 2026-09-05 23:44:23 | 49.70858 | 15.05830 | 136° | 175km/h | 10924m | 5.1m/s | -49.1°C | 25.1% | 0hPa | 2.7V | 00:00:00 | 00:00:00 | 00:00:00 | |
| OE3MUC-15 | 2026-09-05 23:44:22 | 49.70890 | 15.05781 | 135° | 175km/h | 10919m | 4.7m/s | -49.0°C | 25.3% | 0hPa | 2.7V | 00:00:00 | 00:00:00 | 00:00:00 | |
| OE5MMP-10 | 2026-09-05 23:44:19 | 49.70982 | 15.05636 | 135° | 173km/h | 10906m | 6.8m/s | -48.9°C | 23.9% | 0hPa | 2.7V | 00:00:00 | 00:58:15 | 00:00:00 | |
| OE3MUC-15 | 2026-09-05 23:44:18 | 49.71013 | 15.05588 | 135° | 172km/h | 10900m | 5.3m/s | -48.8°C | 24.2% | 0hPa | 2.7V | 00:00:00 | 00:00:00 | 00:00:00 | |
| PG1ADW-2 | 2026-09-05 23:44:17 | 49.71043 | 15.05540 | 134° | 170km/h | 10894m | 5.0m/s | -48.8°C | 24.1% | 0hPa | 2.7V | 00:00:00 | 00:00:00 | 00:00:00 | |
| NBG1-10 | 2026-09-05 23:44:16 | 49.71073 | 15.05491 | 133° | 172km/h | 10890m | 5.0m/s | -48.7°C | 24.1% | 0hPa | 2.7V | 00:00:00 | 00:58:12 | 00:00:00 | |
| OK1ALN | 2026-09-05 23:44:15 | 49.71073 | 15.05491 | 134° | 172km/h | 10890m | 5.1m/s | -48.8°C | 20.5% | 0hPa | 2.7V | 00:00:00 | 00:00:00 | 00:00:00 | |
| OE3MUC-15 | 2026-09-05 23:44:14 | 49.71130 | 15.05391 | 131° | 173km/h | 10880m | 6.4m/s | -48.6°C | 23.7% | 0hPa | 2.7V | 00:00:00 | 00:00:00 | 00:00:00 | |
| DO3MHA-11 | 2026-09-05 23:44:13 | 49.71158 | 15.05341 | 132° | 173km/h | 10875m | 4.8m/s | -48.6°C | 24.0% | 0hPa | 2.7V | 00:00:00 | 00:58:09 | 00:00:00 | |
| OE5MMP-10 | 2026-09-05 23:44:09 | 49.71278 | 15.05137 | 133° | 166km/h | 10855m | 6.0m/s | -48.4°C | 23.9% | 0hPa | 2.7V | 00:00:00 | 00:58:05 | 00:00:00 | |
| PETON7-10 | 2026-09-05 23:44:08 | 49.71309 | 15.05087 | 134° | 168km/h | 10851m | 3.7m/s | -48.4°C | 24.1% | 0hPa | 2.7V | 00:00:00 | 00:58:04 | 00:00:00 | |
| OE5DXL-15 | 2026-09-05 23:44:07 | 49.71340 | 15.05039 | 137° | 172km/h | 10846m | 6.1m/s | -48.3°C | 23.6% | 0hPa | 2.7V | 00:00:00 | 00:00:00 | 08:30:00 | |
| OE3MUC-15 | 2026-09-05 23:44:06 | 49.71372 | 15.04993 | 138° | 166km/h | 10841m | 6.4m/s | -48.3°C | 23.6% | 0hPa | 2.7V | 00:00:00 | 00:00:00 | 08:30:00 | |
| DO3MHA-11 | 2026-09-05 23:44:03 | 49.71465 | 15.04863 | 136° | 168km/h | 10828m | 2.5m/s | -48.1°C | 23.2% | 0hPa | 2.7V | 00:00:00 | 00:57:59 | 00:00:00 | |
| OE3MUC-15 | 2026-09-05 23:44:02 | 49.71493 | 15.04820 | 135° | 161km/h | 10823m | 6.4m/s | -48.1°C | 22.4% | 0hPa | 2.7V | 00:00:00 | 00:00:00 | 00:00:00 | |
| OE5MMP-10 | 2026-09-05 23:43:59 | 49.71574 | 15.04681 | 131° | 173km/h | 10801m | 7.4m/s | -47.9°C | 21.8% | 0hPa | 2.7V | 00:00:00 | 00:57:55 | 00:00:00 | |
| OE3MUC-15 | 2026-09-05 23:43:58 | 49.71602 | 15.04629 | 130° | 177km/h | 10794m | 5.3m/s | -47.8°C | 21.7% | 0hPa | 2.7V | 00:00:00 | 00:00:00 | 00:00:00 | |
| PG1ADW-2 | 2026-09-05 23:43:57 | 49.71630 | 15.04576 | 129° | 173km/h | 10789m | 5.6m/s | -47.8°C | 21.3% | 0hPa | 2.7V | 00:00:00 | 00:57:53 | 00:00:00 | |
| OE3MUC-15 | 2026-09-05 23:43:54 | 49.71714 | 15.04416 | 132° | 172km/h | 10769m | 4.8m/s | -47.6°C | 21.5% | 0hPa | 2.7V | 00:00:00 | 00:00:00 | 00:00:00 | |
| DO3MHA-11 | 2026-09-05 23:43:53 | 49.71742 | 15.04367 | 133° | 173km/h | 10764m | 4.4m/s | -47.5°C | 21.2% | 0hPa | 2.7V | 00:00:00 | 00:57:49 | 08:30:00 | |
| OE3MUC-15 | 2026-09-05 23:43:50 | 49.71832 | 15.04221 | 134° | 172km/h | 10750m | 5.8m/s | -47.4°C | 21.0% | 0hPa | 2.7V | 00:00:00 | 00:00:00 | 00:00:00 | |
| OE5MMP-10 | 2026-09-05 23:43:49 | 49.71862 | 15.04173 | 134° | 177km/h | 10745m | 5.9m/s | -47.3°C | 21.3% | 0hPa | 2.7V | 00:00:00 | 00:57:45 | 08:30:00 | |
| OE3MUC-15 | 2026-09-05 23:43:46 | 49.71951 | 15.04025 | 133° | 181km/h | 10730m | 4.0m/s | -47.2°C | 21.5% | 0hPa | 2.7V | 00:00:00 | 00:00:00 | 00:00:00 | |
| NBG1-10 | 2026-09-05 23:43:43 | 49.72040 | 15.03863 | 128° | 179km/h | 10713m | 5.0m/s | -47.1°C | 21.2% | 0hPa | 2.7V | 00:00:00 | 00:57:39 | 00:00:00 | |
| OE5MMP-10 | 2026-09-05 23:43:39 | 49.72146 | 15.03647 | 130° | 177km/h | 10695m | 5.9m/s | -47.0°C | 21.1% | 0hPa | 2.7V | 00:00:00 | 00:57:35 | 00:00:00 | |
| PG1ADW-2 | 2026-09-05 23:43:37 | 49.72200 | 15.03551 | 132° | 175km/h | 10683m | 6.4m/s | -46.9°C | 21.3% | 0hPa | 2.7V | 00:00:00 | 00:00:00 | 00:00:00 | |
| S52SK | 2026-09-05 23:43:36 | 49.72200 | 15.03551 | 133° | 164km/h | 10683m | 6.5m/s | 0°C | 0% | 0hPa | 2.7V | 00:00:00 | 00:00:00 | 00:00:00 | |
| DO3MHA-11 | 2026-09-05 23:43:33 | 49.72320 | 15.03344 | 131° | 179km/h | 10658m | 5.3m/s | -46.8°C | 23.9% | 0hPa | 2.7V | 00:00:00 | 00:57:29 | 00:00:00 | |
| OK1ALN | 2026-09-05 23:43:32 | 49.72320 | 15.03344 | 131° | 186km/h | 10658m | 5.4m/s | -46.8°C | 20.5% | 0hPa | 2.7V | 00:00:00 | 00:00:00 | 00:00:00 | |
| OE5DRO-10 | 2026-09-05 23:43:31 | 49.72380 | 15.03232 | 130° | 177km/h | 10649m | 2.7m/s | -46.7°C | 25.5% | 0hPa | 2.7V | 00:00:00 | 00:00:00 | 00:00:00 | |
| OE5MMP-10 | 2026-09-05 23:43:29 | 49.72441 | 15.03126 | 133° | 172km/h | 10641m | 4.6m/s | -46.7°C | 27.6% | 0hPa | 2.7V | 00:00:00 | 00:57:25 | 00:00:00 | |
| S52SK | 2026-09-05 23:43:26 | 49.72503 | 15.03024 | 134° | 175km/h | 10632m | 5.1m/s | 0°C | 0% | 0hPa | 2.7V | 00:00:00 | 00:00:00 | 00:00:00 | |
| DO3MHA-11 | 2026-09-05 23:43:23 | 49.72617 | 15.02819 | 129° | 175km/h | 10613m | 6.0m/s | -46.9°C | 36.4% | 0hPa | 2.7V | 00:00:00 | 00:57:19 | 00:00:00 | |
| PETON7-10 | 2026-09-05 23:43:22 | 49.72643 | 15.02768 | 128° | 181km/h | 10608m | 4.2m/s | -46.8°C | 36.9% | 0hPa | 2.7V | 00:00:00 | 00:57:18 | 00:00:00 | |
| OE5WHR-10 | 2026-09-05 23:43:20 | 49.72695 | 15.02666 | 131° | 179km/h | 10600m | 3.7m/s | -46.7°C | 37.2% | 0hPa | 2.7V | 00:00:00 | 00:00:00 | 00:00:00 | |
| OE5MMP-10 | 2026-09-05 23:43:19 | 49.72724 | 15.02615 | 133° | 183km/h | 10595m | 5.9m/s | -46.7°C | 36.5% | 0hPa | 2.7V | 00:00:00 | 00:57:15 | 00:00:00 | |
| OE3MUC-15 | 2026-09-05 23:43:18 | 49.72755 | 15.02564 | 134° | 183km/h | 10589m | 6.7m/s | -46.6°C | 36.0% | 0hPa | 2.7V | 00:00:00 | 00:00:00 | 00:00:00 | |
| PG1ADW-2 | 2026-09-05 23:43:17 | 49.72787 | 15.02513 | 135° | 181km/h | 10581m | 8.3m/s | -46.6°C | 35.5% | 0hPa | 2.7V | 00:00:00 | 00:00:00 | 00:00:00 | |
| OE3MUC-15 | 2026-09-05 23:43:14 | 49.72882 | 15.02359 | 133° | 183km/h | 10558m | 6.1m/s | -46.4°C | 36.8% | 0hPa | 2.7V | 00:00:00 | 00:00:00 | 00:00:00 | |
| DO3MHA-11 | 2026-09-05 23:43:13 | 49.72913 | 15.02307 | 133° | 183km/h | 10552m | 7.7m/s | -46.3°C | 36.9% | 0hPa | 2.7V | 00:00:00 | 00:57:09 | 00:00:00 | |
| OE5DRO-10 | 2026-09-05 23:43:12 | 49.72944 | 15.02255 | 133° | 179km/h | 10544m | 7.0m/s | -46.3°C | 37.4% | 0hPa | 2.7V | 00:00:00 | 00:00:00 | 00:00:00 | |
| OE3MUC-15 | 2026-09-05 23:43:10 | 49.73008 | 15.02150 | 133° | 188km/h | 10531m | 5.7m/s | -46.3°C | 38.4% | 0hPa | 2.7V | 00:00:00 | 00:00:00 | 00:00:00 | |
| OE5MMP-10 | 2026-09-05 23:43:09 | 49.73040 | 15.02095 | 133° | 179km/h | 10525m | 6.1m/s | -46.2°C | 38.4% | 0hPa | 2.7V | 00:00:00 | 00:57:05 | 00:00:00 | |
| NBG1-10 | 2026-09-05 23:43:08 | 49.73072 | 15.02040 | 131° | 177km/h | 10519m | 6.9m/s | -46.2°C | 38.6% | 0hPa | 2.7V | 00:00:00 | 00:57:04 | 00:00:00 | |
| PETON7-10 | 2026-09-05 23:43:07 | 49.73103 | 15.01983 | 130° | 175km/h | 10513m | 6.7m/s | -46.1°C | 38.9% | 0hPa | 2.7V | 00:00:00 | 00:00:00 | 00:00:00 | |
| OE5DXL-15 | 2026-09-05 23:43:06 | 49.73132 | 15.01928 | 129° | 175km/h | 10507m | 4.7m/s | 0°C | 0% | 0hPa | 2.7V | 00:00:00 | 00:00:00 | 00:00:00 | |
| DO3MHA-11 | 2026-09-05 23:43:03 | 49.73215 | 15.01773 | 132° | 177km/h | 10490m | 7.6m/s | -45.9°C | 37.8% | 0hPa | 2.7V | 00:00:00 | 00:56:59 | 00:00:00 | |
| OE3MUC-15 | 2026-09-05 23:43:02 | 49.73244 | 15.01723 | 134° | 179km/h | 10483m | 7.3m/s | -45.9°C | 37.2% | 0hPa | 2.7V | 00:00:00 | 00:00:00 | 00:00:00 | |
| OE5MMP-10 | 2026-09-05 23:42:59 | 49.73340 | 15.01574 | 137° | 177km/h | 10462m | 8.1m/s | -45.6°C | 36.5% | 0hPa | 2.7V | 00:00:00 | 00:56:55 | 00:00:00 | |
| OE3MUC-15 | 2026-09-05 23:42:58 | 49.73373 | 15.01525 | 138° | 177km/h | 10454m | 7.8m/s | -45.6°C | 36.2% | 0hPa | 2.7V | 00:00:00 | 00:00:00 | 00:00:00 | |
| PG1ADW-2 | 2026-09-05 23:42:57 | 49.73407 | 15.01476 | 137° | 177km/h | 10447m | 6.3m/s | -45.5°C | 36.1% | 0hPa | 2.7V | 00:00:00 | 00:00:00 | 08:30:00 | |
| OE3MUC-15 | 2026-09-05 23:42:54 | 49.73499 | 15.01332 | 134° | 175km/h | 10429m | 7.7m/s | -45.3°C | 35.0% | 0hPa | 2.7V | 00:00:00 | 00:00:00 | 08:30:00 | |
| DO3MHA-11 | 2026-09-05 23:42:53 | 49.73528 | 15.01283 | 132° | 175km/h | 10421m | 7.4m/s | -45.3°C | 34.9% | 0hPa | 2.7V | 00:00:00 | 00:56:49 | 00:00:00 | |
| PETON7-10 | 2026-09-05 23:42:52 | 49.73558 | 15.01232 | 132° | 179km/h | 10414m | 7.0m/s | -45.2°C | 34.9% | 0hPa | 2.7V | 00:00:00 | 00:00:00 | 00:00:00 | |
| OE3MUC-15 | 2026-09-05 23:42:50 | 49.73619 | 15.01127 | 133° | 173km/h | 10403m | 6.4m/s | -45.1°C | 34.7% | 0hPa | 2.7V | 00:00:00 | 00:00:00 | 00:00:00 | |
| OE5MMP-10 | 2026-09-05 23:42:49 | 49.73649 | 15.01077 | 135° | 179km/h | 10396m | 8.1m/s | -45.0°C | 34.8% | 0hPa | 2.7V | 00:00:00 | 00:56:45 | 00:00:00 | |
| OE3MUC-15 | 2026-09-05 23:42:46 | 49.73743 | 15.00937 | 136° | 177km/h | 10380m | 4.4m/s | -44.9°C | 36.2% | 0hPa | 2.7V | 00:00:00 | 00:00:00 | 00:00:00 | |
| DO3MHA-11 | 2026-09-05 23:42:43 | 49.73834 | 15.00784 | 131° | 181km/h | 10365m | 6.0m/s | -44.7°C | 34.0% | 0hPa | 2.7V | 00:00:00 | 00:56:39 | 00:00:00 | |
| OE3MUC-15 | 2026-09-05 23:42:42 | 49.73864 | 15.00728 | 131° | 184km/h | 10358m | 8.2m/s | -44.6°C | 33.3% | 0hPa | 2.7V | 00:00:00 | 00:00:00 | 00:00:00 | |
| OE5WHR-10 | 2026-09-05 23:42:41 | 49.73895 | 15.00673 | 131° | 179km/h | 10350m | 8.9m/s | -44.6°C | 33.3% | 0hPa | 2.7V | 00:00:00 | 00:56:37 | 00:00:00 | |
| OE5MMP-10 | 2026-09-05 23:42:39 | 49.73957 | 15.00565 | 134° | 179km/h | 10335m | 7.1m/s | -44.4°C | 33.7% | 0hPa | 2.7V | 00:00:00 | 00:56:35 | 00:00:00 | |
| OE3MUC-15 | 2026-09-05 23:42:38 | 49.73988 | 15.00515 | 135° | 177km/h | 10327m | 7.2m/s | -44.4°C | 33.6% | 0hPa | 2.7V | 00:00:00 | 00:00:00 | 00:00:00 | |
| PETON7-10 | 2026-09-05 23:42:37 | 49.74021 | 15.00467 | 137° | 179km/h | 10320m | 7.2m/s | 0°C | 0% | 0hPa | 2.7V | 00:00:00 | 00:56:33 | 00:00:00 | |
| OE5DXL-15 | 2026-09-05 23:42:36 | 49.74053 | 15.00420 | 137° | 179km/h | 10314m | 4.6m/s | 0°C | 0% | 0hPa | 2.7V | 00:00:00 | 00:00:00 | 00:00:00 | |
| NBG1-10 | 2026-09-05 23:42:35 | 49.74085 | 15.00372 | 136° | 177km/h | 10309m | 5.0m/s | -44.2°C | 33.4% | 0hPa | 2.7V | 00:00:00 | 00:56:31 | 00:00:00 | |
| OE3MUC-15 | 2026-09-05 23:42:34 | 49.74116 | 15.00322 | 134° | 177km/h | 10303m | 7.1m/s | -44.1°C | 33.2% | 0hPa | 2.7V | 00:00:00 | 00:00:00 | 00:00:00 | |
| DO3MHA-11 | 2026-09-05 23:42:33 | 49.74146 | 15.00271 | 132° | 181km/h | 10297m | 6.5m/s | -44.1°C | 32.8% | 0hPa | 2.7V | 00:00:00 | 00:56:29 | 00:00:00 | |
| OE3MUC-15 | 2026-09-05 23:42:30 | 49.74234 | 15.00111 | 131° | 184km/h | 10276m | 5.4m/s | -43.9°C | 32.1% | 0hPa | 2.7V | 00:00:00 | 00:00:00 | 00:00:00 | |
| OE5MMP-10 | 2026-09-05 23:42:29 | 49.74264 | 15.00056 | 131° | 179km/h | 10270m | 6.2m/s | -43.8°C | 31.9% | 0hPa | 2.7V | 00:00:00 | 00:56:25 | 00:00:00 | |
| OE3MUC-15 | 2026-09-05 23:42:26 | 49.74358 | 14.99897 | 134° | 177km/h | 10253m | 5.0m/s | -43.7°C | 31.3% | 0hPa | 2.7V | 00:00:00 | 00:00:00 | 00:00:00 | |
| DO3MHA-11 | 2026-09-05 23:42:23 | 49.74451 | 14.99750 | 135° | 175km/h | 10236m | 6.5m/s | -43.5°C | 30.4% | 0hPa | 2.7V | 00:00:00 | 00:56:19 | 08:30:00 | |
| PETON7-10 | 2026-09-05 23:42:22 | 49.74482 | 14.99700 | 134° | 179km/h | 10231m | 5.0m/s | 0°C | 0% | 0hPa | 2.7V | 00:00:00 | 00:00:00 | 00:00:00 | |
| OE5WHR-10 | 2026-09-05 23:42:20 | 49.74543 | 14.99599 | 133° | 177km/h | 10221m | 6.4m/s | 0°C | 0% | 0hPa | 2.7V | 00:00:00 | 00:00:00 | 00:00:00 | |
| OE5MMP-10 | 2026-09-05 23:42:19 | 49.74573 | 14.99549 | 132° | 179km/h | 10215m | 6.3m/s | -43.3°C | 30.4% | 0hPa | 2.7V | 00:00:00 | 00:56:15 | 08:30:00 | |
| OE3MUC-15 | 2026-09-05 23:42:18 | 49.74601 | 14.99499 | 131° | 173km/h | 10209m | 4.0m/s | -43.3°C | 30.6% | 0hPa | 2.7V | 00:00:00 | 00:00:00 | 08:30:00 | |
| PG1ADW-2 | 2026-09-05 23:42:17 | 49.74629 | 14.99448 | 131° | 179km/h | 10204m | 5.8m/s | -43.2°C | 30.9% | 0hPa | 2.7V | 00:00:00 | 00:00:00 | 00:00:00 | |
| OE5DRO-10 | 2026-09-05 23:42:15 | 49.74686 | 14.99344 | 130° | 179km/h | 10196m | 3.6m/s | -43.1°C | 31.2% | 0hPa | 2.7V | 00:00:00 | 00:00:00 | 00:00:00 | |
| OE3MUC-15 | 2026-09-05 23:42:14 | 49.74715 | 14.99289 | 129° | 184km/h | 10191m | 6.2m/s | -43.1°C | 31.3% | 0hPa | 2.7V | 00:00:00 | 00:00:00 | 00:00:00 | |
| OK1ALN | 2026-09-05 23:42:13 | 49.74744 | 14.99233 | 130° | 186km/h | 10186m | 3.2m/s | -43.1°C | 28.4% | 0hPa | 2.7V | 00:00:00 | 00:00:00 | 00:00:00 | |
| OE3JTB-15 | 2026-09-05 23:42:12 | 49.74775 | 14.99177 | 131° | 179km/h | 10182m | 4.9m/s | -43.0°C | 31.4% | 0hPa | 2.7V | 00:00:00 | 00:00:00 | 00:00:00 | |
| OE3MUC-15 | 2026-09-05 23:42:10 | 49.74838 | 14.99069 | 134° | 186km/h | 10173m | 4.9m/s | -42.9°C | 30.0% | 0hPa | 2.7V | 00:00:00 | 00:00:00 | 00:00:00 | |
| OE5MMP-10 | 2026-09-05 23:42:09 | 49.74871 | 14.99016 | 135° | 175km/h | 10166m | 8.8m/s | -42.8°C | 29.4% | 0hPa | 2.7V | 00:00:00 | 00:56:05 | 00:00:00 | |
| PETON7-10 | 2026-09-05 23:42:07 | 49.74936 | 14.98913 | 134° | 175km/h | 10150m | 6.9m/s | 0°C | 0% | 0hPa | 2.7V | 00:00:00 | 00:00:00 | 00:00:00 | |
| OE3MUC-15 | 2026-09-05 23:42:06 | 49.74967 | 14.98864 | 134° | 168km/h | 10144m | 7.1m/s | -42.6°C | 29.4% | 0hPa | 2.7V | 00:00:00 | 00:00:00 | 00:00:00 | |
| ANDY1245 | 2026-09-05 23:42:05 | 49.74967 | 14.98864 | 134° | 173km/h | 10144m | 7.2m/s | -42.7°C | 0% | 0hPa | 2.7V | 00:00:00 | 00:00:00 | 00:00:00 | |
| EDDB2-11 | 2026-09-05 23:42:04 | 49.75025 | 14.98767 | 131° | 162km/h | 10129m | 8.0m/s | -42.5°C | 26.2% | -1.0hPa | 2.7V | 00:00:00 | 00:00:00 | 00:00:00 | |
| DO3MHA-11 | 2026-09-05 23:42:03 | 49.75052 | 14.98719 | 131° | 179km/h | 10122m | 6.5m/s | -42.4°C | 29.7% | 0hPa | 2.7V | 00:00:00 | 00:55:59 | 00:00:00 | |
| OE3MUC-15 | 2026-09-05 23:42:02 | 49.75079 | 14.98669 | 131° | 177km/h | 10117m | 4.4m/s | -42.4°C | 29.8% | 0hPa | 2.7V | 00:00:00 | 00:00:00 | 00:00:00 | |
| OE5MMP-10 | 2026-09-05 23:41:59 | 49.75168 | 14.98512 | 133° | 179km/h | 10100m | 7.8m/s | -42.2°C | 28.4% | 0hPa | 2.7V | 00:00:00 | 00:55:55 | 00:00:00 | |
| OE3MUC-15 | 2026-09-05 23:41:58 | 49.75200 | 14.98458 | 133° | 183km/h | 10093m | 7.0m/s | -42.1°C | 27.9% | 0hPa | 2.7V | 00:00:00 | 00:00:00 | 00:00:00 | |
| PG1ADW-2 | 2026-09-05 23:41:57 | 49.75232 | 14.98403 | 132° | 184km/h | 10085m | 9.0m/s | -42.0°C | 27.6% | 0hPa | 2.7V | 00:00:00 | 00:00:00 | 00:00:00 | |
| OE5DRO-10 | 2026-09-05 23:41:56 | 49.75263 | 14.98349 | 131° | 184km/h | 10077m | 7.7m/s | -42.0°C | 27.6% | 0hPa | 2.7V | 00:00:00 | 00:00:00 | 00:00:00 | |
| OE3MUC-15 | 2026-09-05 23:41:54 | 49.75322 | 14.98245 | 132° | 175km/h | 10064m | 6.3m/s | -41.9°C | 27.1% | 0hPa | 2.7V | 00:00:00 | 00:00:00 | 00:00:00 | |
| DO3MHA-11 | 2026-09-05 23:41:53 | 49.75352 | 14.98194 | 133° | 183km/h | 10058m | 7.6m/s | -41.8°C | 27.0% | 0hPa | 2.7V | 00:00:00 | 00:55:49 | 00:00:00 | |
| PETON7-10 | 2026-09-05 23:41:52 | 49.75382 | 14.98143 | 132° | 183km/h | 10052m | 6.7m/s | 0°C | 0% | 0hPa | 2.7V | 00:00:00 | 00:55:48 | 00:00:00 | |
| OE3MUC-15 | 2026-09-05 23:41:50 | 49.75440 | 14.98040 | 130° | 177km/h | 10038m | 8.1m/s | -41.6°C | 26.7% | 0hPa | 2.7V | 00:00:00 | 00:00:00 | 00:00:00 | |
| OE5MMP-10 | 2026-09-05 23:41:49 | 49.75469 | 14.97988 | 130° | 190km/h | 10032m | 5.7m/s | -41.6°C | 27.0% | 0hPa | 2.7V | 00:00:00 | 00:55:45 | 00:00:00 | |
| OE3MUC-15 | 2026-09-05 23:41:46 | 49.75560 | 14.97828 | 133° | 197km/h | 10015m | 5.1m/s | -41.4°C | 26.8% | 0hPa | 2.7V | 00:00:00 | 00:00:00 | 00:00:00 | |
| DO3MHA-11 | 2026-09-05 23:41:43 | 49.75663 | 14.97660 | 134° | 181km/h | 10000m | 4.2m/s | -41.3°C | 26.9% | 0hPa | 2.7V | 00:00:00 | 00:55:39 | 00:00:00 | |
| OE5MMP-10 | 2026-09-05 23:41:39 | 49.75794 | 14.97434 | 129° | 177km/h | 9979m | 9.1m/s | -41.0°C | 25.0% | 0hPa | 2.7V | 00:00:00 | 00:55:35 | 00:00:00 | |
| OE5WHR-10 | 2026-09-05 23:41:38 | 49.75822 | 14.97379 | 129° | 181km/h | 9971m | 9.1m/s | 0°C | 0% | 0hPa | 2.7V | 00:00:00 | 00:55:34 | 00:00:00 | |
| OE5DRO-10 | 2026-09-05 23:41:37 | 49.75850 | 14.97325 | 129° | 181km/h | 9962m | 9.1m/s | -40.9°C | 24.8% | 0hPa | 2.7V | 00:00:00 | 00:00:00 | 00:00:00 | |
| OE5DXL-15 | 2026-09-05 23:41:36 | 49.75876 | 14.97275 | 129° | 173km/h | 9954m | 7.0m/s | 0°C | 0% | 0hPa | 2.7V | 00:00:00 | 00:00:00 | 00:00:00 | |
| DO3MHA-11 | 2026-09-05 23:41:33 | 49.75958 | 14.97125 | 132° | 188km/h | 9938m | 5.8m/s | -40.7°C | 24.9% | 0hPa | 2.7V | 00:00:00 | 00:55:29 | 00:00:00 | |
| S52SK | 2026-09-05 23:41:31 | 49.75988 | 14.97072 | 132° | 184km/h | 9931m | 7.3m/s | 0°C | 0% | 0hPa | 2.7V | 00:00:00 | 00:00:00 | 00:00:00 | |
| OE5MMP-10 | 2026-09-05 23:41:29 | 49.76083 | 14.96899 | 131° | 184km/h | 9911m | 6.1m/s | -40.5°C | 25.0% | 0hPa | 2.7V | 00:00:00 | 00:55:25 | 00:00:00 | |
| SP3BTT-10 | 2026-09-05 23:41:28 | 49.76116 | 14.96841 | 133° | 184km/h | 9905m | 5.1m/s | 0°C | 0% | 0hPa | 2.7V | 00:00:00 | 00:00:00 | 00:00:00 | |
| S52SK | 2026-09-05 23:41:26 | 49.76150 | 14.96786 | 134° | 190km/h | 9901m | 4.5m/s | 0°C | 0% | 0hPa | 2.7V | 00:00:00 | 00:00:00 | 00:00:00 | |
| DO3MHA-11 | 2026-09-05 23:41:23 | 49.76274 | 14.96581 | 133° | 184km/h | 9873m | 7.5m/s | -40.1°C | 24.0% | 0hPa | 2.7V | 00:00:00 | 00:55:19 | 00:00:00 | |
| OE5MMP-10 | 2026-09-05 23:41:19 | 49.76401 | 14.96381 | 136° | 184km/h | 9842m | 5.9m/s | -39.8°C | 24.1% | 0hPa | 2.7V | 00:00:00 | 00:55:15 | 00:00:00 | |
| OE3MUC-15 | 2026-09-05 23:41:18 | 49.76435 | 14.96329 | 136° | 190km/h | 9836m | 6.4m/s | -39.8°C | 23.6% | 0hPa | 2.7V | 00:00:00 | 00:00:00 | 00:00:00 | |
| OE5WHR-10 | 2026-09-05 23:41:17 | 49.76469 | 14.96276 | 135° | 188km/h | 9830m | 6.4m/s | 0°C | 0% | 0hPa | 2.7V | 00:00:00 | 00:00:00 | 00:00:00 | |
| OE3MUC-15 | 2026-09-05 23:41:14 | 49.76569 | 14.96117 | 135° | 177km/h | 9809m | 9.0m/s | -39.5°C | 21.8% | 0hPa | 2.7V | 00:00:00 | 00:00:00 | 00:00:00 | |
| DO3MHA-11 | 2026-09-05 23:41:13 | 49.76601 | 14.96067 | 136° | 179km/h | 9801m | 7.7m/s | -39.5°C | 21.7% | 0hPa | 2.7V | 00:00:00 | 00:55:09 | 00:00:00 | |
| OK1ALN | 2026-09-05 23:41:10 | 49.76665 | 14.95971 | 137° | 173km/h | 9789m | 6.0m/s | -39.4°C | 19.0% | 0hPa | 2.7V | 00:00:00 | 00:00:00 | 00:00:00 | |
| OE5MMP-10 | 2026-09-05 23:41:09 | 49.76728 | 14.95875 | 136° | 181km/h | 9777m | 5.3m/s | -39.3°C | 21.0% | 0hPa | 2.7V | 00:00:00 | 00:55:05 | 00:00:00 | |
| OE5DXL-15 | 2026-09-05 23:41:06 | 49.76825 | 14.95725 | 136° | 179km/h | 9762m | 7.0m/s | 0°C | 0% | 0hPa | 2.7V | 00:00:00 | 00:00:00 | 00:00:00 | |
| OE3MUC-15 | 2026-09-05 23:41:05 | 49.76858 | 14.95674 | 135° | 183km/h | 9756m | 4.3m/s | -39.1°C | 20.5% | 0hPa | 2.7V | 00:00:00 | 00:00:00 | 08:30:00 | |
| DO3MHA-11 | 2026-09-05 23:41:03 | 49.76923 | 14.95571 | 132° | 175km/h | 9745m | 6.1m/s | -39.0°C | 19.9% | 0hPa | 2.7V | 00:00:00 | 00:54:59 | 00:00:00 | |
| EDDB2-11 | 2026-09-05 23:41:02 | 49.76953 | 14.95517 | 129° | 179km/h | 9739m | 5.9m/s | -39.0°C | 17.3% | -1.0hPa | 2.7V | 00:00:00 | 00:00:00 | 00:00:00 | |
| OE3MUC-15 | 2026-09-05 23:41:01 | 49.76982 | 14.95462 | 129° | 177km/h | 9735m | 4.8m/s | -38.9°C | 19.7% | 0hPa | 2.7V | 00:00:00 | 00:00:00 | 00:00:00 | |
| OE5MMP-10 | 2026-09-05 23:40:59 | 49.77039 | 14.95353 | 131° | 175km/h | 9726m | 3.3m/s | -38.8°C | 19.5% | 0hPa | 2.7V | 00:00:00 | 00:54:55 | 00:00:00 | |
| SP3BTT-10 | 2026-09-05 23:40:58 | 49.77068 | 14.95301 | 132° | 172km/h | 9722m | 6.4m/s | 0°C | 0% | 0hPa | 2.7V | 00:00:00 | 00:00:00 | 08:30:00 | |
| PG1ADW-2 | 2026-09-05 23:40:57 | 49.77097 | 14.95253 | 134° | 179km/h | 9715m | 6.8m/s | -38.7°C | 18.9% | 0hPa | 2.7V | 00:00:00 | 00:00:00 | 00:00:00 | |
| NBG1-10 | 2026-09-05 23:40:56 | 49.77127 | 14.95207 | 136° | 179km/h | 9709m | 6.5m/s | -38.6°C | 18.8% | 0hPa | 2.7V | 00:00:00 | 00:54:52 | 00:00:00 | |
| OE3MUC-15 | 2026-09-05 23:40:53 | 49.77221 | 14.95067 | 135° | 183km/h | 9688m | 6.3m/s | -38.4°C | 18.1% | 0hPa | 2.7V | 00:00:00 | 00:00:00 | 00:00:00 | |
| OE3MUC-15 | 2026-09-05 23:40:49 | 49.77344 | 14.94852 | 131° | 186km/h | 9660m | 5.3m/s | -38.2°C | 17.8% | 0hPa | 2.7V | 00:00:00 | 00:00:00 | 00:00:00 | |
| ANDY1245 | 2026-09-05 23:40:47 | 49.77375 | 14.94797 | 133° | 186km/h | 9655m | 4.4m/s | -38.2°C | 0% | 0hPa | 2.7V | 00:00:00 | 00:00:00 | 00:00:00 | |
| OE3MUC-15 | 2026-09-05 23:40:45 | 49.77473 | 14.94641 | 136° | 186km/h | 9640m | 7.5m/s | -38.0°C | 16.5% | 0hPa | 2.7V | 00:00:00 | 00:00:00 | 00:00:00 | |
| OE3MUC-15 | 2026-09-05 23:40:41 | 49.77603 | 14.94431 | 131° | 175km/h | 9611m | 6.4m/s | -37.7°C | 15.7% | 0hPa | 2.7V | 00:00:00 | 00:00:00 | 00:00:00 | |
| OE5DRO-10 | 2026-09-05 23:40:40 | 49.77632 | 14.94378 | 131° | 177km/h | 9605m | 5.2m/s | -37.6°C | 15.6% | 0hPa | 2.7V | 00:00:00 | 00:00:00 | 00:00:00 | |
| OE5MMP-10 | 2026-09-05 23:40:39 | 49.77661 | 14.94327 | 132° | 170km/h | 9599m | 6.7m/s | -37.6°C | 15.5% | 0hPa | 2.7V | 00:00:00 | 00:54:35 | 00:00:00 | |
| OE3MUC-15 | 2026-09-05 23:40:37 | 49.77721 | 14.94229 | 136° | 170km/h | 9590m | 5.5m/s | -37.5°C | 14.9% | 0hPa | 2.7V | 00:00:00 | 00:00:00 | 00:00:00 | |
| OE5DXL-15 | 2026-09-05 23:40:36 | 49.77752 | 14.94182 | 136° | 175km/h | 9584m | 6.4m/s | 0°C | 0% | 0hPa | 2.7V | 00:00:00 | 00:00:00 | 00:00:00 | |
| DO3MHA-11 | 2026-09-05 23:40:33 | 49.77843 | 14.94044 | 134° | 183km/h | 9565m | 8.7m/s | -37.3°C | 14.4% | 0hPa | 2.7V | 00:00:00 | 00:54:29 | 00:00:00 | |
| EDDB2-11 | 2026-09-05 23:40:31 | 49.77928 | 14.93896 | 130° | 177km/h | 9548m | 6.8m/s | -37.2°C | 12.6% | -1.0hPa | 2.7V | 00:00:00 | 00:00:00 | 00:00:00 | |
| OE5MMP-10 | 2026-09-05 23:40:29 | 49.77958 | 14.93842 | 133° | 181km/h | 9542m | 5.5m/s | -37.1°C | 14.3% | 0hPa | 2.7V | 00:00:00 | 00:54:25 | 00:00:00 | |
| OK1ALN | 2026-09-05 23:40:28 | 49.77959 | 14.93842 | 134° | 188km/h | 9542m | 5.6m/s | -37.2°C | 12.4% | 0hPa | 2.7V | 00:00:00 | 00:00:00 | 00:00:00 | |
| OE3MUC-15 | 2026-09-05 23:40:27 | 49.78025 | 14.93731 | 133° | 193km/h | 9526m | 9.4m/s | -36.9°C | 14.1% | 0hPa | 2.7V | 00:00:00 | 00:54:23 | 08:30:00 | |
| ANDY1245 | 2026-09-05 23:40:25 | 49.78059 | 14.93675 | 135° | 195km/h | 9517m | 8.2m/s | -36.9°C | 0% | 0hPa | 2.7V | 00:00:00 | 00:00:00 | 00:00:00 | |
| DO3MHA-11 | 2026-09-05 23:40:23 | 49.78157 | 14.93521 | 134° | 172km/h | 9497m | 10.2m/s | -36.7°C | 14.6% | 0hPa | 2.7V | 00:00:00 | 00:54:19 | 00:00:00 | |
| OE3MUC-15 | 2026-09-05 23:40:22 | 49.78187 | 14.93472 | 133° | 166km/h | 9487m | 10.3m/s | -36.6°C | 15.0% | 0hPa | 2.7V | 00:00:00 | 00:00:00 | 00:00:00 | |
| OE5DRO-10 | 2026-09-05 23:40:21 | 49.78216 | 14.93425 | 134° | 179km/h | 9479m | 7.4m/s | -36.7°C | 15.7% | 0hPa | 2.7V | 00:00:00 | 00:00:00 | 00:00:00 | |
| OE5MMP-10 | 2026-09-05 23:40:19 | 49.78275 | 14.93336 | 139° | 175km/h | 9463m | 8.8m/s | -36.6°C | 15.8% | 0hPa | 2.7V | 00:00:00 | 00:54:15 | 00:00:00 | |
| OE3MUC-15 | 2026-09-05 23:40:18 | 49.78308 | 14.93292 | 141° | 181km/h | 9456m | 5.6m/s | -36.5°C | 15.6% | 0hPa | 2.7V | 00:00:00 | 00:00:00 | 00:00:00 | |
| PG1ADW-2 | 2026-09-05 23:40:17 | 49.78343 | 14.93247 | 142° | 179km/h | 9449m | 8.5m/s | -36.4°C | 15.1% | 0hPa | 2.7V | 00:00:00 | 00:00:00 | 00:00:00 | |
| OE3MUC-15 | 2026-09-05 23:40:14 | 49.78447 | 14.93112 | 138° | 172km/h | 9423m | 9.2m/s | -36.2°C | 14.8% | 0hPa | 2.7V | 00:00:00 | 00:00:00 | 00:00:00 | |
| PETON7-10 | 2026-09-05 23:40:13 | 49.78478 | 14.93066 | 136° | 175km/h | 9415m | 7.8m/s | 0°C | 0% | 0hPa | 2.7V | 00:00:00 | 00:00:00 | 00:00:00 | |
| OE3MUC-15 | 2026-09-05 23:40:10 | 49.78568 | 14.92919 | 133° | 188km/h | 9394m | 7.8m/s | -35.9°C | 14.7% | 0hPa | 2.7V | 00:00:00 | 00:00:00 | 00:00:00 | |
| OE5MMP-10 | 2026-09-05 23:40:09 | 49.78600 | 14.92867 | 135° | 186km/h | 9388m | 5.1m/s | -35.9°C | 14.8% | 0hPa | 2.7V | 00:00:00 | 00:54:05 | 00:00:00 | |
| OK1ALN | 2026-09-05 23:40:08 | 49.78634 | 14.92814 | 137° | 192km/h | 9382m | 7.1m/s | -35.9°C | 12.8% | 0hPa | 2.7V | 00:00:00 | 00:00:00 | 00:00:00 | |
| OE3MUC-15 | 2026-09-05 23:40:06 | 49.78706 | 14.92713 | 139° | 190km/h | 9367m | 6.6m/s | -35.7°C | 14.6% | 0hPa | 2.7V | 00:00:00 | 00:00:00 | 00:00:00 | |
| OE3JTB-15 | 2026-09-05 23:40:04 | 49.78778 | 14.92616 | 139° | 172km/h | 9354m | 8.4m/s | -35.5°C | 14.3% | 0hPa | 2.7V | 00:00:00 | 00:54:00 | 00:00:00 | |
| DO3MHA-11 | 2026-09-05 23:40:03 | 49.78814 | 14.92566 | 138° | 175km/h | 9346m | 9.4m/s | -35.4°C | 14.3% | 0hPa | 2.7V | 00:00:00 | 00:53:59 | 00:00:00 | |
| OE3MUC-15 | 2026-09-05 23:40:02 | 49.78849 | 14.92516 | 137° | 184km/h | 9338m | 7.5m/s | -35.4°C | 14.6% | 0hPa | 2.7V | 00:00:00 | 00:00:00 | 00:00:00 | |
| EDDB2-11 | 2026-09-05 23:40:00 | 49.78943 | 14.92377 | 138° | 162km/h | 9318m | 6.2m/s | -35.2°C | 12.3% | -1.0hPa | 2.7V | 00:00:00 | 00:00:00 | 00:00:00 | |
| OE5MMP-10 | 2026-09-05 23:39:59 | 49.78943 | 14.92377 | 139° | 177km/h | 9318m | 6.2m/s | -35.2°C | 14.1% | 0hPa | 2.7V | 00:00:00 | 00:53:55 | 00:00:00 | |
| OE3MUC-15 | 2026-09-05 23:39:58 | 49.78973 | 14.92335 | 139° | 173km/h | 9311m | 9.9m/s | -35.1°C | 13.8% | 0hPa | 2.7V | 00:00:00 | 00:00:00 | 00:00:00 | |
| PG1ADW-2 | 2026-09-05 23:39:57 | 49.79005 | 14.92294 | 141° | 175km/h | 9301m | 10.5m/s | -35.0°C | 13.7% | 0hPa | 2.7V | 00:00:00 | 00:53:53 | 08:30:00 | |
| ANDY1245 | 2026-09-05 23:39:55 | 49.79038 | 14.92251 | 141° | 177km/h | 9292m | 9.5m/s | -35.0°C | 0% | 0hPa | 2.7V | 00:00:00 | 00:00:00 | 00:00:00 | |
| OE3MUC-15 | 2026-09-05 23:39:54 | 49.79109 | 14.92156 | 139° | 186km/h | 9275m | 8.5m/s | -34.8°C | 13.7% | 0hPa | 2.7V | 00:00:00 | 00:00:00 | 00:00:00 | |
| DO3MHA-11 | 2026-09-05 23:39:53 | 49.79144 | 14.92106 | 137° | 173km/h | 9267m | 8.1m/s | -34.7°C | 13.7% | 0hPa | 2.7V | 00:00:00 | 00:53:49 | 00:00:00 | |
| OE3MUC-15 | 2026-09-05 23:39:50 | 49.79242 | 14.91953 | 133° | 170km/h | 9245m | 7.2m/s | -34.5°C | 13.8% | 0hPa | 2.7V | 00:00:00 | 00:00:00 | 08:30:00 | |
| OE5MMP-10 | 2026-09-05 23:39:49 | 49.79271 | 14.91903 | 132° | 170km/h | 9238m | 5.4m/s | -34.5°C | 13.9% | 0hPa | 2.7V | 00:00:00 | 00:53:45 | 00:00:00 | |
| OK1ALN | 2026-09-05 23:39:47 | 49.79300 | 14.91854 | 134° | 168km/h | 9233m | 5.7m/s | -34.5°C | 12.3% | 0hPa | 2.7V | 00:00:00 | 00:00:00 | 00:00:00 | |
| OE3MUC-15 | 2026-09-05 23:39:46 | 49.79360 | 14.91761 | 137° | 168km/h | 9223m | 5.5m/s | -34.3°C | 13.8% | 0hPa | 2.7V | 00:00:00 | 00:00:00 | 00:00:00 | |
| ANDY1245 | 2026-09-05 23:39:45 | 49.79391 | 14.91717 | 139° | 166km/h | 9217m | 6.7m/s | -34.3°C | 0% | 0hPa | 2.7V | 00:00:00 | 00:00:00 | 00:00:00 | |
| OE5DRO-10 | 2026-09-05 23:39:43 | 49.79454 | 14.91632 | 140° | 173km/h | 9204m | 7.6m/s | -34.1°C | 13.5% | 0hPa | 2.7V | 00:00:00 | 00:00:00 | 08:30:00 | |
| SP3BTT-10 | 2026-09-05 23:39:42 | 49.79487 | 14.91588 | 138° | 168km/h | 9197m | 7.3m/s | 0°C | 0% | 0hPa | 2.7V | 00:00:00 | 00:00:00 | 00:00:00 | |
| OE5MMP-10 | 2026-09-05 23:39:39 | 49.79585 | 14.91442 | 135° | 173km/h | 9178m | 6.4m/s | -33.9°C | 14.0% | 0hPa | 2.7V | 00:00:00 | 00:53:35 | 00:00:00 | |
| PG1ADW-2 | 2026-09-05 23:39:37 | 49.79649 | 14.91342 | 137° | 170km/h | 9167m | 5.0m/s | -33.9°C | 14.9% | 0hPa | 2.7V | 00:00:00 | 00:00:00 | 00:00:00 | |
| DO3MHA-11 | 2026-09-05 23:39:33 | 49.79783 | 14.91156 | 141° | 168km/h | 9146m | 6.3m/s | -33.8°C | 16.2% | 0hPa | 2.7V | 00:00:00 | 00:53:29 | 00:00:00 | |
| OE5DXL-15 | 2026-09-05 23:39:32 | 49.79816 | 14.91115 | 142° | 172km/h | 9141m | 5.2m/s | 0°C | 0% | 0hPa | 2.7V | 00:00:00 | 00:00:00 | 00:00:00 | |
| EDDB2-11 | 2026-09-05 23:39:29 | 49.79966 | 14.90895 | 130° | 168km/h | 9116m | 6.9m/s | -33.8°C | 16.0% | -1.0hPa | 2.7V | 00:00:00 | 00:00:00 | 00:00:00 | |
| OK1ALN | 2026-09-05 23:39:27 | 49.79966 | 14.90895 | 132° | 168km/h | 9116m | 6.9m/s | -33.8°C | 16.1% | 0hPa | 2.7V | 00:00:00 | 00:00:00 | 00:00:00 | |
| OE5DRO-10 | 2026-09-05 23:39:24 | 49.80054 | 14.90741 | 134° | 172km/h | 9094m | 9.1m/s | -33.5°C | 17.7% | 0hPa | 2.7V | 00:00:00 | 00:00:00 | 00:00:00 | |
| DO3MHA-11 | 2026-09-05 23:39:23 | 49.80085 | 14.90693 | 137° | 164km/h | 9085m | 8.6m/s | -33.4°C | 17.6% | 0hPa | 2.7V | 00:00:00 | 00:53:19 | 08:30:00 | |
| OE3MUC-15 | 2026-09-05 23:39:22 | 49.80372 | 14.90322 | 137° | 170km/h | 9026m | 8.5m/s | -33.0°C | 17.6% | 0hPa | 2.7V | 00:00:00 | 00:00:00 | 08:30:00 | |
| SP3BTT-10 | 2026-09-05 23:39:21 | 49.80432 | 14.90228 | 133° | 177km/h | 9008m | 9.7m/s | 0°C | 0% | 0hPa | 2.7V | 00:00:00 | 00:00:00 | 00:00:00 | |
| OE3MUC-15 | 2026-09-05 23:39:16 | 49.80491 | 14.90125 | 132° | 186km/h | 8991m | 6.9m/s | -32.7°C | 17.4% | 0hPa | 2.7V | 00:00:00 | 00:00:00 | 00:00:00 | |
| OE3MUC-15 | 2026-09-05 23:39:06 | 49.80617 | 14.89908 | 134° | 177km/h | 8968m | 5.5m/s | -32.4°C | 17.4% | 0hPa | 2.7V | 00:00:00 | 00:00:00 | 00:00:00 | |
| OE5MMP-10 | 2026-09-05 23:39:05 | 49.80649 | 14.89856 | 135° | 170km/h | 8963m | 6.0m/s | -32.4°C | 17.2% | 0hPa | 2.7V | 00:00:00 | 00:53:01 | 00:00:00 | |
| DO3MHA-11 | 2026-09-05 23:39:03 | 49.80714 | 14.89763 | 139° | 168km/h | 8950m | 9.5m/s | -32.2°C | 16.8% | 0hPa | 2.7V | 00:00:00 | 00:52:59 | 00:00:00 | |
| OE3MUC-15 | 2026-09-05 23:39:02 | 49.80746 | 14.89721 | 141° | 161km/h | 8941m | 12.5m/s | -32.2°C | 16.8% | 0hPa | 2.7V | 00:00:00 | 00:00:00 | 00:00:00 | |
| EDDB2-11 | 2026-09-05 23:38:58 | 49.80896 | 14.89504 | 132° | 170km/h | 8905m | 8.7m/s | -31.9°C | 15.0% | -1.0hPa | 2.7V | 00:00:00 | 00:00:00 | 00:00:00 | |
| PG1ADW-2 | 2026-09-05 23:38:57 | 49.80896 | 14.89503 | 133° | 173km/h | 8905m | 8.6m/s | -31.8°C | 16.7% | 0hPa | 2.7V | 00:00:00 | 00:00:00 | 00:00:00 | |
| OE3MUC-15 | 2026-09-05 23:38:54 | 49.80985 | 14.89349 | 131° | 168km/h | 8884m | 5.6m/s | 0°C | 0% | 0hPa | 2.7V | 00:00:00 | 00:00:00 | 00:00:00 | |
| DO3MHA-11 | 2026-09-05 23:38:53 | 49.81013 | 14.89298 | 132° | 175km/h | 8878m | 7.3m/s | -31.6°C | 16.8% | 0hPa | 2.7V | 00:00:00 | 00:52:49 | 00:00:00 | |
| OE5MMP-10 | 2026-09-05 23:38:52 | 49.81042 | 14.89250 | 133° | 172km/h | 8872m | 5.6m/s | -31.5°C | 16.8% | 0hPa | 2.7V | 00:00:00 | 00:52:48 | 00:00:00 | |
| ANDY1245 | 2026-09-05 23:38:51 | 49.81042 | 14.89250 | 134° | 166km/h | 8872m | 5.7m/s | -31.6°C | 0% | 0hPa | 2.7V | 00:00:00 | 00:00:00 | 00:00:00 | |
| OE3MUC-15 | 2026-09-05 23:38:50 | 49.81101 | 14.89158 | 138° | 179km/h | 8859m | 7.8m/s | 0°C | 0% | 0hPa | 2.7V | 00:00:00 | 00:00:00 | 00:00:00 | |
| OE3MUC-15 | 2026-09-05 23:38:46 | 49.81233 | 14.88961 | 133° | 175km/h | 8833m | 5.8m/s | 0°C | 0% | 0hPa | 2.7V | 00:00:00 | 00:00:00 | 00:00:00 | |
| ANDY1245 | 2026-09-05 23:38:45 | 49.81233 | 14.88961 | 134° | 184km/h | 8833m | 5.8m/s | -31.2°C | 0% | 0hPa | 2.7V | 00:00:00 | 00:00:00 | 00:00:00 | |
| NBG1-10 | 2026-09-05 23:38:44 | 49.81293 | 14.88857 | 132° | 168km/h | 8821m | 6.3m/s | -31.1°C | 16.3% | 0hPa | 2.7V | 00:00:00 | 00:52:40 | 00:00:00 | |
| DO3MHA-11 | 2026-09-05 23:38:43 | 49.81321 | 14.88807 | 132° | 170km/h | 8814m | 8.4m/s | -31.0°C | 16.0% | 0hPa | 2.7V | 00:00:00 | 00:52:39 | 00:00:00 | |
| OE3MUC-15 | 2026-09-05 23:38:42 | 49.81349 | 14.88760 | 134° | 168km/h | 8805m | 9.8m/s | 0°C | 0% | 0hPa | 2.7V | 00:00:00 | 00:00:00 | 00:00:00 | |
| OE5MMP-10 | 2026-09-05 23:38:38 | 49.81470 | 14.88575 | 135° | 168km/h | 8775m | 5.5m/s | -30.6°C | 16.3% | 0hPa | 2.7V | 00:00:00 | 00:52:34 | 00:00:00 | |
| PG1ADW-2 | 2026-09-05 23:38:37 | 49.81500 | 14.88526 | 133° | 170km/h | 8771m | 4.9m/s | -30.6°C | 16.3% | 0hPa | 2.7V | 00:00:00 | 00:52:33 | 00:00:00 | |
| OE3MUC-15 | 2026-09-05 23:38:34 | 49.81588 | 14.88374 | 133° | 168km/h | 8752m | 5.3m/s | 0°C | 0% | 0hPa | 2.7V | 00:00:00 | 00:00:00 | 00:00:00 | |
| DO3MHA-11 | 2026-09-05 23:38:33 | 49.81618 | 14.88326 | 135° | 168km/h | 8746m | 6.9m/s | -30.4°C | 16.5% | 0hPa | 2.7V | 00:00:00 | 00:52:29 | 00:00:00 | |
| OE3MUC-15 | 2026-09-05 23:38:30 | 49.81708 | 14.88193 | 137° | 161km/h | 8728m | 7.7m/s | 0°C | 0% | 0hPa | 2.7V | 00:00:00 | 00:00:00 | 00:00:00 | |
| OE5MMP-10 | 2026-09-05 23:38:28 | 49.81766 | 14.88105 | 135° | 173km/h | 8717m | 5.1m/s | 0°C | 0% | 0hPa | 2.7V | 00:00:00 | 00:52:24 | 00:00:00 | |
| EDDB2-11 | 2026-09-05 23:38:27 | 49.81824 | 14.88013 | 133° | 166km/h | 8704m | 7.5m/s | -30.1°C | 15.9% | -1.0hPa | 2.7V | 00:00:00 | 00:00:00 | 00:00:00 | |
| OE3MUC-15 | 2026-09-05 23:38:26 | 49.81823 | 14.88013 | 134° | 170km/h | 8704m | 7.5m/s | 0°C | 0% | 0hPa | 2.7V | 00:00:00 | 00:00:00 | 00:00:00 | |
| OK1ALN | 2026-09-05 23:38:25 | 49.81853 | 14.87965 | 134° | 170km/h | 8696m | 9.9m/s | -30.0°C | 16.0% | 0hPa | 2.7V | 00:00:00 | 00:00:00 | 00:00:00 | |
| OE3MUC-15 | 2026-09-05 23:38:22 | 49.81943 | 14.87819 | 136° | 181km/h | 8669m | 8.6m/s | 0°C | 0% | 0hPa | 2.7V | 00:00:00 | 00:00:00 | 00:00:00 | |
| OE5MMP-10 | 2026-09-05 23:38:18 | 49.82077 | 14.87627 | 137° | 168km/h | 8641m | 5.8m/s | -29.6°C | 18.7% | 0hPa | 2.7V | 00:00:00 | 00:52:14 | 00:00:00 | |
| PG1ADW-2 | 2026-09-05 23:38:17 | 49.82108 | 14.87580 | 136° | 172km/h | 8635m | 5.9m/s | -29.5°C | 18.8% | 0hPa | 2.7V | 00:00:00 | 00:00:00 | 00:00:00 | |
| OE3MUC-15 | 2026-09-05 23:38:14 | 49.82192 | 14.87445 | 135° | 170km/h | 8615m | 7.5m/s | 0°C | 0% | 0hPa | 2.7V | 00:00:00 | 00:00:00 | 00:00:00 | |
| NBG1-10 | 2026-09-05 23:38:11 | 49.82281 | 14.87307 | 136° | 172km/h | 8594m | 8.5m/s | -29.2°C | 18.4% | 0hPa | 2.7V | 00:00:00 | 00:52:07 | 00:00:00 | |
| ANDY1245 | 2026-09-05 23:38:09 | 49.82312 | 14.87259 | 135° | 172km/h | 8585m | 9.0m/s | -29.2°C | 0% | 0hPa | 2.7V | 00:00:00 | 00:00:00 | 00:00:00 | |
| OE5MMP-10 | 2026-09-05 23:38:08 | 49.82371 | 14.87159 | 130° | 175km/h | 8567m | 8.0m/s | -29.1°C | 19.3% | 0hPa | 2.7V | 00:00:00 | 00:52:04 | 00:00:00 | |
| DO3MHA-11 | 2026-09-05 23:38:05 | 49.82455 | 14.87002 | 132° | 172km/h | 8549m | 5.8m/s | -29.0°C | 20.4% | 0hPa | 2.7V | 00:00:00 | 00:52:01 | 00:00:00 | |
| OE3MUC-15 | 2026-09-05 23:38:04 | 49.82484 | 14.86953 | 134° | 181km/h | 8544m | 5.9m/s | 0°C | 0% | 0hPa | 2.7V | 00:00:00 | 00:00:00 | 00:00:00 | |
| OK1ALN | 2026-09-05 23:38:03 | 49.82484 | 14.86953 | 134° | 168km/h | 8544m | 6.0m/s | -29.0°C | 19.1% | 0hPa | 2.7V | 00:00:00 | 00:00:00 | 00:00:00 | |
| EDDB2-11 | 2026-09-05 23:37:56 | 49.82770 | 14.86503 | 133° | 173km/h | 8478m | 9.8m/s | 0°C | -1.0% | -1.0hPa | 2.7V | 00:00:00 | 00:00:00 | 00:00:00 | |
| OE3MUC-15 | 2026-09-05 23:37:54 | 49.82799 | 14.86454 | 134° | 162km/h | 8468m | 11.1m/s | 0°C | 0% | 0hPa | 2.7V | 00:00:00 | 00:00:00 | 00:00:00 | |
| ANDY1245 | 2026-09-05 23:37:52 | 49.82829 | 14.86405 | 133° | 166km/h | 8457m | 11.2m/s | -28.6°C | 0% | 0hPa | 2.7V | 00:00:00 | 00:00:00 | 00:00:00 | |
| OE3MUC-15 | 2026-09-05 23:37:50 | 49.82907 | 14.86267 | 131° | 159km/h | 8431m | 7.2m/s | 0°C | 0% | 0hPa | 2.7V | 00:00:00 | 00:00:00 | 00:00:00 | |
| OE5DRO-10 | 2026-09-05 23:37:49 | 49.82932 | 14.86222 | 131° | 168km/h | 8424m | 7.4m/s | -28.4°C | 27.0% | 0hPa | 2.7V | 00:00:00 | 00:00:00 | 00:00:00 | |
| OE5MMP-10 | 2026-09-05 23:37:48 | 49.82959 | 14.86175 | 132° | 172km/h | 8418m | 5.7m/s | -28.4°C | 27.2% | 0hPa | 2.7V | 00:00:00 | 00:51:44 | 00:00:00 | |
| OE3MUC-15 | 2026-09-05 23:37:46 | 49.83014 | 14.86078 | 132° | 173km/h | 8402m | 10.5m/s | 0°C | 0% | 0hPa | 2.7V | 00:00:00 | 00:00:00 | 00:00:00 | |
| OK1ALN | 2026-09-05 23:37:42 | 49.83104 | 14.85929 | 134° | 177km/h | 8377m | 8.3m/s | -28.1°C | 25.2% | 0hPa | 2.7V | 00:00:00 | 00:00:00 | 00:00:00 | |
| OE5MMP-10 | 2026-09-05 23:37:38 | 49.83253 | 14.85678 | 136° | 166km/h | 8345m | 6.6m/s | -27.8°C | 28.0% | 0hPa | 2.7V | 00:00:00 | 00:51:34 | 08:30:00 | |
| PG1ADW-2 | 2026-09-05 23:37:37 | 49.83283 | 14.85633 | 136° | 162km/h | 8338m | 7.2m/s | -27.7°C | 28.1% | 0hPa | 2.7V | 00:00:00 | 00:00:00 | 00:00:00 | |
| OE5DRO-10 | 2026-09-05 23:37:30 | 49.83486 | 14.85308 | 138° | 159km/h | 8283m | 9.0m/s | -27.4°C | 30.3% | 0hPa | 2.7V | 00:00:00 | 00:00:00 | 00:00:00 | |
| OE5MMP-10 | 2026-09-05 23:37:28 | 49.83546 | 14.85221 | 138° | 162km/h | 8265m | 5.8m/s | -27.3°C | 30.8% | 0hPa | 2.7V | 00:00:00 | 00:51:24 | 00:00:00 | |
| OE3JTB-15 | 2026-09-05 23:37:25 | 49.83632 | 14.85094 | 136° | 148km/h | 8239m | 9.6m/s | -27.1°C | 30.5% | 0hPa | 2.7V | 00:00:00 | 00:00:00 | 00:00:00 | |
| ANDY1245 | 2026-09-05 23:37:23 | 49.83662 | 14.85049 | 138° | 170km/h | 8231m | 8.1m/s | -27.1°C | 0% | 0hPa | 2.7V | 00:00:00 | 00:00:00 | 00:00:00 | |
| OK1ALN | 2026-09-05 23:37:22 | 49.83694 | 14.85003 | 138° | 175km/h | 8224m | 5.1m/s | -27.0°C | 29.5% | 0hPa | 2.7V | 00:00:00 | 00:00:00 | 00:00:00 | |
| OE5MMP-10 | 2026-09-05 23:37:18 | 49.83844 | 14.84784 | 136° | 150km/h | 8197m | 6.7m/s | -26.7°C | 32.3% | 0hPa | 2.7V | 00:00:00 | 00:51:14 | 00:00:00 | |
| PG1ADW-2 | 2026-09-05 23:37:17 | 49.83870 | 14.84743 | 135° | 151km/h | 8189m | 9.2m/s | -26.7°C | 32.6% | 0hPa | 2.7V | 00:00:00 | 00:51:13 | 00:00:00 | |
| DO3MHA-11 | 2026-09-05 23:37:11 | 49.84032 | 14.84481 | 134° | 153km/h | 8136m | 9.6m/s | -26.3°C | 33.3% | 0hPa | 2.7V | 00:00:00 | 00:51:07 | 00:00:00 | |
| OE5MMP-10 | 2026-09-05 23:37:08 | 49.84106 | 14.84356 | 132° | 153km/h | 8116m | 6.5m/s | -26.1°C | 33.6% | 0hPa | 2.7V | 00:00:00 | 00:51:04 | 00:00:00 | |
| ANDY1245 | 2026-09-05 23:37:06 | 49.84132 | 14.84313 | 134° | 153km/h | 8110m | 5.7m/s | -26.1°C | 0% | 0hPa | 2.7V | 00:00:00 | 00:00:00 | 00:00:00 | |
| NBG1-10 | 2026-09-05 23:37:05 | 49.84187 | 14.84225 | 136° | 155km/h | 8097m | 6.9m/s | -25.9°C | 32.8% | 0hPa | 2.7V | 00:00:00 | 00:51:01 | 00:00:00 | |
| OK1ALN | 2026-09-05 23:37:02 | 49.84247 | 14.84140 | 140° | 161km/h | 8085m | 5.1m/s | -25.9°C | 31.5% | 0hPa | 2.9V | 00:00:00 | 00:00:00 | 00:00:00 | |
| DO3MHA-11 | 2026-09-05 23:37:01 | 49.84307 | 14.84060 | 139° | 153km/h | 8076m | 4.6m/s | -25.8°C | 34.2% | 0hPa | 2.9V | 00:00:00 | 00:50:57 | 08:30:00 | |
| ANDY1245 | 2026-09-05 23:37:00 | 49.84307 | 14.84060 | 139° | 150km/h | 8076m | 4.7m/s | -25.8°C | 0% | 0hPa | 2.7V | 00:00:00 | 00:00:00 | 00:00:00 | |
| OE5MMP-10 | 2026-09-05 23:36:58 | 49.84386 | 14.83938 | 132° | 157km/h | 8060m | 7.5m/s | -25.7°C | 34.7% | 0hPa | 2.7V | 00:00:00 | 00:50:54 | 00:00:00 | |
| PG1ADW-2 | 2026-09-05 23:36:57 | 49.84410 | 14.83895 | 131° | 155km/h | 8052m | 7.4m/s | -25.6°C | 35.5% | 0hPa | 2.7V | 00:00:00 | 00:00:00 | 08:30:00 | |
| OE5DRO-10 | 2026-09-05 23:36:52 | 49.84547 | 14.83667 | 132° | 155km/h | 8011m | 9.6m/s | -25.5°C | 39.6% | 0hPa | 2.7V | 00:00:00 | 00:00:00 | 08:30:00 | |
| DO3MHA-11 | 2026-09-05 23:36:51 | 49.84574 | 14.83618 | 131° | 151km/h | 8003m | 7.6m/s | -25.5°C | 41.3% | 0hPa | 2.7V | 00:00:00 | 00:50:47 | 00:00:00 | |
| OE5MMP-10 | 2026-09-05 23:36:48 | 49.84652 | 14.83485 | 137° | 151km/h | 7981m | 6.7m/s | -25.5°C | 45.4% | 0hPa | 2.7V | 00:00:00 | 00:50:44 | 00:00:00 | |
| DO3MHA-11 | 2026-09-05 23:36:41 | 49.84856 | 14.83219 | 141° | 159km/h | 7934m | 9.6m/s | -25.4°C | 48.9% | 0hPa | 2.7V | 00:00:00 | 00:50:37 | 00:00:00 | |
| OE5MMP-10 | 2026-09-05 23:36:38 | 49.84943 | 14.83096 | 137° | 155km/h | 7914m | 8.4m/s | -25.2°C | 47.2% | 0hPa | 2.7V | 00:00:00 | 00:50:34 | 00:00:00 | |
| PG1ADW-2 | 2026-09-05 23:36:37 | 49.84972 | 14.83053 | 138° | 150km/h | 7905m | 8.3m/s | -25.1°C | 46.4% | 0hPa | 2.9V | 00:00:00 | 00:00:00 | 00:00:00 | |
| OE5DRO-10 | 2026-09-05 23:36:33 | 49.85097 | 14.82890 | 140° | 148km/h | 7879m | 7.7m/s | -25.0°C | 46.8% | 0hPa | 2.9V | 00:00:00 | 00:00:00 | 00:00:00 | |
| NBG1-10 | 2026-09-05 23:36:32 | 49.85127 | 14.82850 | 139° | 150km/h | 7872m | 7.5m/s | -24.9°C | 47.5% | 0hPa | 2.9V | 00:00:00 | 00:50:28 | 00:00:00 | |
| DO3MHA-11 | 2026-09-05 23:36:31 | 49.85155 | 14.82810 | 137° | 146km/h | 7865m | 5.1m/s | -24.9°C | 47.8% | 0hPa | 2.9V | 00:00:00 | 00:50:27 | 00:00:00 | |
| OE5MMP-10 | 2026-09-05 23:36:28 | 49.85232 | 14.82692 | 137° | 146km/h | 7849m | 6.0m/s | -24.8°C | 48.0% | 0hPa | 2.9V | 00:00:00 | 00:50:24 | 00:00:00 | |
| ANDY1245 | 2026-09-05 23:36:27 | 49.85232 | 14.82692 | 137° | 141km/h | 7849m | 6.1m/s | -24.8°C | 0% | 0hPa | 2.9V | 00:00:00 | 00:00:00 | 00:00:00 | |
| DO3MHA-11 | 2026-09-05 23:36:21 | 49.85435 | 14.82442 | 140° | 146km/h | 7803m | 6.9m/s | -24.5°C | 51.0% | 0hPa | 2.9V | 00:00:00 | 00:50:17 | 00:00:00 | |
| OK1ALN | 2026-09-05 23:36:20 | 49.85435 | 14.82442 | 140° | 148km/h | 7803m | 6.9m/s | -24.5°C | 49.0% | 0hPa | 2.9V | 00:00:00 | 00:00:00 | 00:00:00 | |
| OE5MMP-10 | 2026-09-05 23:36:18 | 49.85516 | 14.82322 | 135° | 144km/h | 7785m | 7.6m/s | -24.4°C | 51.3% | 0hPa | 2.9V | 00:00:00 | 00:50:14 | 00:00:00 | |
| PG1ADW-2 | 2026-09-05 23:36:17 | 49.85542 | 14.82282 | 137° | 151km/h | 7778m | 8.0m/s | -24.3°C | 51.5% | 0hPa | 2.9V | 00:00:00 | 00:00:00 | 00:00:00 | |
| OE5DRO-10 | 2026-09-05 23:36:14 | 49.85628 | 14.82174 | 143° | 150km/h | 7757m | 6.6m/s | -24.2°C | 52.6% | 0hPa | 2.9V | 00:00:00 | 00:00:00 | 00:00:00 | |
| DO3MHA-11 | 2026-09-05 23:36:11 | 49.85710 | 14.82065 | 136° | 151km/h | 7736m | 6.8m/s | -24.0°C | 52.3% | 0hPa | 2.9V | 00:00:00 | 00:50:07 | 00:00:00 | |
| OE5MMP-10 | 2026-09-05 23:36:08 | 49.85786 | 14.81945 | 135° | 159km/h | 7715m | 7.4m/s | -23.9°C | 51.5% | 0hPa | 2.9V | 00:00:00 | 00:50:04 | 08:30:00 | |
| DO3MHA-11 | 2026-09-05 23:36:01 | 49.85997 | 14.81649 | 138° | 142km/h | 7665m | 6.6m/s | -23.6°C | 52.3% | 0hPa | 2.7V | 00:00:00 | 00:49:57 | 00:00:00 | |
| OK1ALN | 2026-09-05 23:36:00 | 49.85997 | 14.81649 | 139° | 164km/h | 7665m | 6.7m/s | -23.7°C | 50.3% | 0hPa | 2.7V | 00:00:00 | 00:00:00 | 00:00:00 | |
| NBG1-10 | 2026-09-05 23:35:59 | 49.86056 | 14.81570 | 141° | 146km/h | 7652m | 7.9m/s | -23.5°C | 52.6% | 0hPa | 2.7V | 00:00:00 | 00:49:55 | 00:00:00 | |
| OE5MMP-10 | 2026-09-05 23:35:58 | 49.86085 | 14.81534 | 141° | 137km/h | 7645m | 6.1m/s | -23.5°C | 53.1% | 0hPa | 2.7V | 00:00:00 | 00:49:54 | 00:00:00 | |
| PG1ADW-2 | 2026-09-05 23:35:57 | 49.86112 | 14.81501 | 141° | 148km/h | 7639m | 7.7m/s | -23.4°C | 52.7% | 0hPa | 2.7V | 00:00:00 | 00:49:53 | 00:00:00 | |
| OE5DRO-10 | 2026-09-05 23:35:55 | 49.86163 | 14.81431 | 139° | 148km/h | 7625m | 5.5m/s | -23.3°C | 52.5% | 0hPa | 2.9V | 00:00:00 | 00:00:00 | 00:00:00 | |
| DO3MHA-11 | 2026-09-05 23:35:51 | 49.86269 | 14.81293 | 141° | 151km/h | 7593m | 8.5m/s | -23.1°C | 51.4% | 0hPa | 2.7V | 00:00:00 | 00:49:47 | 00:00:00 | |
| ANDY1245 | 2026-09-05 23:35:45 | 49.86409 | 14.81090 | 138° | 161km/h | 7563m | 6.4m/s | -22.9°C | 0% | 0hPa | 2.7V | 00:00:00 | 00:00:00 | 00:00:00 | |
| DO3MHA-11 | 2026-09-05 23:35:41 | 49.86553 | 14.80889 | 138° | 146km/h | 7532m | 10.0m/s | -22.6°C | 48.4% | 0hPa | 2.7V | 00:00:00 | 00:49:37 | 00:00:00 | |
| ANDY1245 | 2026-09-05 23:35:40 | 49.86553 | 14.80889 | 138° | 151km/h | 7532m | 10.1m/s | -22.7°C | 0% | 0hPa | 2.7V | 00:00:00 | 00:00:00 | 00:00:00 | |
| OK1ALN | 2026-09-05 23:35:39 | 49.86581 | 14.80849 | 140° | 153km/h | 7522m | 9.1m/s | -22.6°C | 46.2% | 0hPa | 2.7V | 00:00:00 | 00:00:00 | 00:00:00 | |
| PG1ADW-2 | 2026-09-05 23:35:37 | 49.86670 | 14.80740 | 142° | 146km/h | 7503m | 4.4m/s | -22.5°C | 47.9% | 0hPa | 2.7V | 00:00:00 | 00:00:00 | 00:00:00 | |
| OE5DRO-10 | 2026-09-05 23:35:36 | 49.86697 | 14.80705 | 140° | 146km/h | 7498m | 6.4m/s | -22.5°C | 47.6% | 0hPa | 2.7V | 00:00:00 | 00:00:00 | 00:00:00 | |
| ANDY1245 | 2026-09-05 23:35:35 | 49.86697 | 14.80705 | 141° | 141km/h | 7498m | 6.5m/s | -22.5°C | 0% | 0hPa | 2.7V | 00:00:00 | 00:00:00 | 00:00:00 | |
| DO3MHA-11 | 2026-09-05 23:35:31 | 49.86821 | 14.80494 | 133° | 148km/h | 7468m | 5.9m/s | -22.3°C | 45.5% | 0hPa | 2.7V | 00:00:00 | 00:49:27 | 08:30:00 | |
| ANDY1245 | 2026-09-05 23:35:29 | 49.86849 | 14.80450 | 136° | 157km/h | 7462m | 6.9m/s | -22.4°C | 0% | 0hPa | 2.9V | 00:00:00 | 00:00:00 | 00:00:00 | |
| OE5MMP-10 | 2026-09-05 23:35:27 | 49.86932 | 14.80332 | 141° | 141km/h | 7440m | 8.9m/s | -22.2°C | 43.8% | 0hPa | 2.9V | 00:00:00 | 00:49:23 | 00:00:00 | |
| NBG1-10 | 2026-09-05 23:35:26 | 49.86959 | 14.80297 | 141° | 141km/h | 7433m | 7.7m/s | -22.2°C | 43.7% | 0hPa | 2.9V | 00:00:00 | 00:49:22 | 08:30:00 | |
| ANDY1245 | 2026-09-05 23:35:24 | 49.86986 | 14.80262 | 141° | 141km/h | 7425m | 7.8m/s | 0°C | 0% | 0hPa | 2.9V | 00:00:00 | 00:00:00 | 00:00:00 | |
| DO3MHA-11 | 2026-09-05 23:35:21 | 49.87099 | 14.80110 | 140° | 137km/h | 7402m | 8.5m/s | -22.1°C | 45.4% | 0hPa | 2.9V | 00:00:00 | 00:49:17 | 00:00:00 | |
| OK1ALN | 2026-09-05 23:35:19 | 49.87128 | 14.80072 | 141° | 146km/h | 7393m | 9.3m/s | -22.1°C | 44.0% | 0hPa | 2.9V | 00:00:00 | 00:00:00 | 00:00:00 | |
| ANDY1245 | 2026-09-05 23:35:18 | 49.87156 | 14.80036 | 141° | 141km/h | 7386m | 6.1m/s | 0°C | 0% | 0hPa | 2.9V | 00:00:00 | 00:00:00 | 00:00:00 | |
| PG1ADW-2 | 2026-09-05 23:35:17 | 49.87208 | 14.79968 | 139° | 141km/h | 7373m | 7.9m/s | -21.9°C | 46.1% | 0hPa | 2.9V | 00:00:00 | 00:00:00 | 00:00:00 | |
| OE5MMP-10 | 2026-09-05 23:35:14 | 49.87282 | 14.79864 | 139° | 144km/h | 7351m | 9.0m/s | -21.8°C | 45.6% | 0hPa | 2.9V | 00:00:00 | 00:49:10 | 00:00:00 | |
| ANDY1245 | 2026-09-05 23:35:13 | 49.87282 | 14.79864 | 140° | 130km/h | 7351m | 9.0m/s | 0°C | 0% | 0hPa | 2.9V | 00:00:00 | 00:00:00 | 00:00:00 | |
| DO3MHA-11 | 2026-09-05 23:35:11 | 49.87355 | 14.79762 | 137° | 148km/h | 7332m | 5.8m/s | -21.7°C | 47.0% | 0hPa | 2.9V | 00:00:00 | 00:49:07 | 00:00:00 | |
| ANDY1245 | 2026-09-05 23:35:07 | 49.87430 | 14.79644 | 134° | 148km/h | 7313m | 7.2m/s | 0°C | 0% | 0hPa | 2.9V | 00:00:00 | 00:00:00 | 00:00:00 | |
| OE5MMP-10 | 2026-09-05 23:35:04 | 49.87538 | 14.79468 | 135° | 139km/h | 7291m | 3.1m/s | -21.7°C | 49.5% | 0hPa | 2.9V | 00:00:00 | 00:49:00 | 00:00:00 | |
| DO3MHA-11 | 2026-09-05 23:35:01 | 49.87615 | 14.79348 | 136° | 139km/h | 7273m | 8.4m/s | -21.6°C | 48.5% | 0hPa | 2.9V | 00:00:00 | 00:48:57 | 00:00:00 | |
| ANDY1245 | 2026-09-05 23:35:00 | 49.87615 | 14.79348 | 137° | 137km/h | 7273m | 8.4m/s | 0°C | 0% | 0hPa | 2.9V | 00:00:00 | 00:00:00 | 00:00:00 | |
| OK1ALN | 2026-09-05 23:34:59 | 49.87639 | 14.79312 | 137° | 133km/h | 7266m | 6.6m/s | -21.7°C | 47.0% | 0hPa | 2.9V | 00:00:00 | 00:00:00 | 00:00:00 | |
| OE5DRO-10 | 2026-09-05 23:34:58 | 49.87687 | 14.79239 | 135° | 144km/h | 7253m | 5.6m/s | -21.5°C | 49.1% | 0hPa | 2.9V | 00:00:00 | 00:00:00 | 00:00:00 | |
| PG1ADW-2 | 2026-09-05 23:34:57 | 49.87710 | 14.79200 | 132° | 144km/h | 7248m | 6.2m/s | -21.5°C | 48.9% | 0hPa | 2.9V | 00:00:00 | 00:00:00 | 00:00:00 | |
| SP3BTT-10 | 2026-09-05 23:34:56 | 49.87733 | 14.79160 | 133° | 131km/h | 7241m | 7.7m/s | 0°C | 0% | 0hPa | 2.9V | 00:00:00 | 00:00:00 | 00:00:00 | |
| ANDY1245 | 2026-09-05 23:34:55 | 49.87733 | 14.79160 | 133° | 135km/h | 7241m | 7.8m/s | 0°C | 0% | 0hPa | 2.9V | 00:00:00 | 00:00:00 | 00:00:00 | |
| OE5MMP-10 | 2026-09-05 23:34:54 | 49.87781 | 14.79079 | 133° | 146km/h | 7224m | 8.3m/s | -21.4°C | 48.8% | 0hPa | 2.9V | 00:00:00 | 00:48:50 | 00:00:00 | |
| NBG1-10 | 2026-09-05 23:34:53 | 49.87806 | 14.79038 | 136° | 139km/h | 7218m | 5.7m/s | -21.4°C | 49.1% | 0hPa | 2.9V | 00:00:00 | 00:48:49 | 00:00:00 | |
| DO3MHA-11 | 2026-09-05 23:34:51 | 49.87858 | 14.78960 | 136° | 148km/h | 7208m | 4.4m/s | -21.3°C | 50.6% | 0hPa | 2.9V | 00:00:00 | 00:48:47 | 00:00:00 | |
| ANDY1245 | 2026-09-05 23:34:50 | 49.87858 | 14.78960 | 137° | 144km/h | 7208m | 4.4m/s | 0°C | 0% | 0hPa | 2.9V | 00:00:00 | 00:00:00 | 00:00:00 | |
| OE5MMP-10 | 2026-09-05 23:34:44 | 49.88035 | 14.78663 | 127° | 133km/h | 7164m | 6.8m/s | -21.4°C | 55.4% | 0hPa | 2.9V | 00:00:00 | 00:48:40 | 00:00:00 | |
| DO3MHA-11 | 2026-09-05 23:34:41 | 49.88097 | 14.78519 | 123° | 135km/h | 7145m | 6.8m/s | -21.5°C | 58.5% | 0hPa | 2.9V | 00:00:00 | 00:48:37 | 00:00:00 | |
| OE5DRO-10 | 2026-09-05 23:34:39 | 49.88138 | 14.78430 | 128° | 133km/h | 7131m | 6.5m/s | 0°C | 0% | 0hPa | 2.9V | 00:00:00 | 00:00:00 | 00:00:00 | |
| PG1ADW-2 | 2026-09-05 23:34:37 | 49.88182 | 14.78349 | 132° | 131km/h | 7118m | 6.6m/s | 0°C | 0% | 0hPa | 2.9V | 00:00:00 | 00:48:33 | 00:00:00 | |
| DO3MHA-11 | 2026-09-05 23:34:31 | 49.88314 | 14.78114 | 130° | 133km/h | 7086m | 6.6m/s | -21.2°C | 56.5% | 0hPa | 2.9V | 00:00:00 | 00:48:27 | 00:00:00 | |
| DO3MHA-11 | 2026-09-05 23:34:21 | 49.88487 | 14.77665 | 121° | 126km/h | 7020m | 8.4m/s | -21.1°C | 45.3% | 0hPa | 2.9V | 00:00:00 | 00:48:17 | 00:00:00 | |
| OE5DRO-10 | 2026-09-05 23:34:20 | 49.88504 | 14.77620 | 121° | 130km/h | 7011m | 10.1m/s | 0°C | 0% | 0hPa | 2.9V | 00:00:00 | 00:00:00 | 00:00:00 | |
| OK1ALN | 2026-09-05 23:34:18 | 49.88520 | 14.77576 | 121° | 124km/h | 7002m | 9.3m/s | -21.0°C | 41.6% | 0hPa | 2.9V | 00:00:00 | 00:00:00 | 00:00:00 | |
| PG1ADW-2 | 2026-09-05 23:34:17 | 49.88550 | 14.77496 | 121° | 128km/h | 6987m | 7.6m/s | 0°C | 0% | 0hPa | 2.9V | 00:00:00 | 00:00:00 | 00:00:00 | |
| DO3MHA-11 | 2026-09-05 23:34:11 | 49.88664 | 14.77257 | 129° | 131km/h | 6948m | 6.6m/s | -20.6°C | 33.5% | 0hPa | 2.9V | 00:00:00 | 00:48:07 | 00:00:00 | |
| SP3BTT-10 | 2026-09-05 23:34:10 | 49.88686 | 14.77213 | 126° | 135km/h | 6942m | 6.9m/s | 0°C | 0% | 0hPa | 2.9V | 00:00:00 | 00:00:00 | 00:00:00 | |
| ANDY1245 | 2026-09-05 23:34:09 | 49.88686 | 14.77213 | 127° | 141km/h | 6942m | 7.0m/s | 0°C | 0% | 0hPa | 2.9V | 00:00:00 | 00:00:00 | 00:00:00 | |
| ANDY1245 | 2026-09-05 23:34:04 | 49.88769 | 14.76981 | 118° | 130km/h | 6910m | 6.5m/s | 0°C | 0% | 0hPa | 2.9V | 00:00:00 | 00:00:00 | 00:00:00 | |
| DO3MHA-11 | 2026-09-05 23:34:01 | 49.88832 | 14.76818 | 125° | 126km/h | 6886m | 8.0m/s | -20.1°C | 31.7% | 0hPa | 2.9V | 00:00:00 | 00:47:57 | 08:30:00 | |
| OE5MMP-10 | 2026-09-05 23:33:58 | 49.88888 | 14.76697 | 126° | 130km/h | 6865m | 8.1m/s | -19.9°C | 30.8% | 0hPa | 2.9V | 00:00:00 | 00:47:54 | 00:00:00 | |
| PG1ADW-2 | 2026-09-05 23:33:57 | 49.88907 | 14.76656 | 127° | 128km/h | 6858m | 7.6m/s | 0°C | 0% | 0hPa | 2.9V | 00:00:00 | 00:00:00 | 00:00:00 | |
| DO3MHA-11 | 2026-09-05 23:33:51 | 49.89021 | 14.76420 | 125° | 135km/h | 6828m | 5.4m/s | -19.6°C | 30.4% | 0hPa | 2.9V | 00:00:00 | 00:47:47 | 00:00:00 | |
| OE5MMP-10 | 2026-09-05 23:33:48 | 49.89075 | 14.76279 | 118° | 130km/h | 6809m | 8.1m/s | -19.4°C | 29.1% | 0hPa | 2.9V | 00:00:00 | 00:47:44 | 00:00:00 | |
| NBG1-10 | 2026-09-05 23:33:47 | 49.89090 | 14.76229 | 115° | 131km/h | 6802m | 7.1m/s | -19.4°C | 29.0% | 0hPa | 2.9V | 00:00:00 | 00:47:43 | 00:00:00 | |
| DO3MHA-11 | 2026-09-05 23:33:41 | 49.89184 | 14.75957 | 125° | 126km/h | 6764m | 7.5m/s | -19.0°C | 28.4% | 0hPa | 2.9V | 00:00:00 | 00:47:37 | 00:00:00 | |
| SP3BTT-10 | 2026-09-05 23:33:40 | 49.89201 | 14.75917 | 124° | 126km/h | 6757m | 7.6m/s | 0°C | 0% | 0hPa | 2.9V | 00:00:00 | 00:00:00 | 00:00:00 | |
| OE5MMP-10 | 2026-09-05 23:33:38 | 49.89233 | 14.75838 | 119° | 128km/h | 6744m | 5.2m/s | -18.9°C | 29.1% | 0hPa | 2.9V | 00:00:00 | 00:47:34 | 08:30:00 | |
| DO3MHA-11 | 2026-09-05 23:33:31 | 49.89347 | 14.75534 | 121° | 139km/h | 6693m | 9.5m/s | -18.4°C | 29.4% | 0hPa | 2.9V | 00:00:00 | 00:47:27 | 00:00:00 | |
| OE5MMP-10 | 2026-09-05 23:33:28 | 49.89403 | 14.75391 | 124° | 133km/h | 6672m | 5.0m/s | -18.3°C | 30.3% | 0hPa | 2.9V | 00:00:00 | 00:47:24 | 00:00:00 | |
| DO3MHA-11 | 2026-09-05 23:33:21 | 49.89533 | 14.75074 | 126° | 126km/h | 6631m | 7.6m/s | -17.9°C | 31.7% | 0hPa | 2.9V | 00:00:00 | 00:47:17 | 00:00:00 | |
| OE5MMP-10 | 2026-09-05 23:33:18 | 49.89589 | 14.74959 | 126° | 126km/h | 6614m | 4.6m/s | -17.8°C | 32.3% | 0hPa | 2.9V | 00:00:00 | 00:47:14 | 00:00:00 | |
| NBG1-10 | 2026-09-05 23:33:14 | 49.89661 | 14.74791 | 124° | 126km/h | 6591m | 7.5m/s | -17.5°C | 25.8% | 0hPa | 2.9V | 00:00:00 | 00:47:10 | 00:00:00 | |
| OE3JTB-15 | 2026-09-05 23:33:12 | 49.89697 | 14.74710 | 126° | 126km/h | 6577m | 7.0m/s | -17.4°C | 31.2% | 0hPa | 2.9V | 00:00:00 | 00:00:00 | 00:00:00 | |
| DO3MHA-11 | 2026-09-05 23:33:11 | 49.89715 | 14.74672 | 127° | 128km/h | 6571m | 4.9m/s | -17.4°C | 34.6% | 0hPa | 2.9V | 00:00:00 | 00:47:07 | 00:00:00 | |
| OE5MMP-10 | 2026-09-05 23:33:08 | 49.89772 | 14.74555 | 127° | 126km/h | 6556m | 5.7m/s | -17.3°C | 36.1% | 0hPa | 2.9V | 00:00:00 | 00:47:04 | 00:00:00 | |
| DO3MHA-11 | 2026-09-05 23:33:01 | 49.89887 | 14.74253 | 120° | 126km/h | 6513m | 6.3m/s | -16.9°C | 33.1% | 0hPa | 2.9V | 00:00:00 | 00:46:57 | 00:00:00 | |
| DO3MHA-11 | 2026-09-05 23:32:51 | 49.90050 | 14.73830 | 127° | 128km/h | 6450m | 7.1m/s | -16.4°C | 26.3% | 0hPa | 2.7V | 00:00:00 | 00:46:47 | 00:00:00 | |
| OE5MMP-10 | 2026-09-05 23:32:48 | 49.90099 | 14.73707 | 117° | 124km/h | 6432m | 6.5m/s | -16.2°C | 24.9% | 0hPa | 2.7V | 00:00:00 | 00:46:44 | 00:00:00 | |
| OE3JTB-15 | 2026-09-05 23:32:43 | 49.90173 | 14.73476 | 119° | 126km/h | 6396m | 8.3m/s | -15.8°C | 20.9% | 0hPa | 2.7V | 00:00:00 | 00:00:00 | 00:00:00 | |
| DO3MHA-11 | 2026-09-05 23:32:41 | 49.90202 | 14.73393 | 121° | 124km/h | 6380m | 6.6m/s | -15.7°C | 20.2% | 0hPa | 2.7V | 00:00:00 | 00:46:37 | 00:00:00 | |
| OE5MMP-10 | 2026-09-05 23:32:38 | 49.90251 | 14.73275 | 125° | 130km/h | 6359m | 5.5m/s | -15.5°C | 19.0% | 0hPa | 2.7V | 00:00:00 | 00:46:34 | 00:00:00 | |
| OK1ALN | 2026-09-05 23:32:36 | 49.90270 | 14.73233 | 126° | 133km/h | 6354m | 4.7m/s | -15.5°C | 18.1% | 0hPa | 2.9V | 00:00:00 | 00:00:00 | 00:00:00 | |
| DO3MHA-11 | 2026-09-05 23:32:31 | 49.90382 | 14.72996 | 123° | 130km/h | 6321m | 6.3m/s | -15.1°C | 16.9% | 0hPa | 2.9V | 00:00:00 | 00:46:27 | 08:30:00 | |
| OE5MMP-10 | 2026-09-05 23:32:28 | 49.90431 | 14.72869 | 119° | 133km/h | 6298m | 6.4m/s | -14.9°C | 14.0% | 0hPa | 2.9V | 00:00:00 | 00:46:24 | 00:00:00 | |
| SP3BTT-10 | 2026-09-05 23:32:25 | 49.90476 | 14.72730 | 117° | 133km/h | 6277m | 6.2m/s | 0°C | 0% | 0hPa | 2.9V | 00:00:00 | 00:00:00 | 00:00:00 | |
| DO3MHA-11 | 2026-09-05 23:32:21 | 49.90541 | 14.72545 | 123° | 122km/h | 6255m | 6.7m/s | -14.5°C | 9.0% | 0hPa | 2.9V | 00:00:00 | 00:46:17 | 00:00:00 | |
| OE5MMP-10 | 2026-09-05 23:32:18 | 49.90597 | 14.72414 | 125° | 120km/h | 6234m | 6.4m/s | -14.3°C | 8.6% | 0hPa | 2.9V | 00:00:00 | 00:46:14 | 00:00:00 | |
| OK1ALN | 2026-09-05 23:32:16 | 49.90615 | 14.72375 | 125° | 117km/h | 6227m | 6.9m/s | -14.3°C | 8.1% | 0hPa | 2.9V | 00:00:00 | 00:00:00 | 00:00:00 | |
| OE3JTB-15 | 2026-09-05 23:32:14 | 49.90664 | 14.72270 | 129° | 122km/h | 6210m | 6.0m/s | -14.2°C | 8.1% | 0hPa | 2.9V | 00:00:00 | 00:46:10 | 00:00:00 | |
| DO3MHA-11 | 2026-09-05 23:32:11 | 49.90721 | 14.72158 | 127° | 130km/h | 6194m | 6.7m/s | -14.0°C | 7.9% | 0hPa | 2.9V | 00:00:00 | 00:46:07 | 00:00:00 | |
| OE5MMP-10 | 2026-09-05 23:32:08 | 49.90773 | 14.72030 | 119° | 130km/h | 6175m | 6.8m/s | -13.9°C | 8.2% | 0hPa | 2.9V | 00:00:00 | 00:46:04 | 08:30:00 | |
| DO3MHA-11 | 2026-09-05 23:32:01 | 49.90898 | 14.71735 | 135° | 126km/h | 6132m | 9.4m/s | -13.6°C | 13.0% | 0hPa | 2.9V | 00:00:00 | 00:45:57 | 00:00:00 | |
| OE5MMP-10 | 2026-09-05 23:31:58 | 49.90965 | 14.71625 | 131° | 120km/h | 6108m | 6.7m/s | -13.5°C | 8.5% | 0hPa | 2.9V | 00:00:00 | 00:45:54 | 00:00:00 | |
| OK1ALN | 2026-09-05 23:31:55 | 49.91003 | 14.71546 | 124° | 126km/h | 6096m | 5.6m/s | -13.4°C | 7.6% | 0hPa | 2.9V | 00:00:00 | 00:00:00 | 00:00:00 | |
| DO3MHA-11 | 2026-09-05 23:31:51 | 49.91084 | 14.71339 | 125° | 115km/h | 6067m | 6.2m/s | -13.2°C | 9.0% | 0hPa | 2.9V | 00:00:00 | 00:45:47 | 00:00:00 | |
| OE5MMP-10 | 2026-09-05 23:31:48 | 49.91133 | 14.71234 | 126° | 119km/h | 6048m | 7.0m/s | -13.2°C | 8.8% | 0hPa | 2.9V | 00:00:00 | 00:45:44 | 00:00:00 | |
| OE3JTB-15 | 2026-09-05 23:31:45 | 49.91182 | 14.71122 | 124° | 117km/h | 6030m | 7.3m/s | -13.0°C | 8.6% | 0hPa | 2.9V | 00:00:00 | 00:00:00 | 08:30:00 | |
| DO3MHA-11 | 2026-09-05 23:31:41 | 49.91259 | 14.70973 | 133° | 128km/h | 6007m | 6.0m/s | -12.9°C | 8.4% | 0hPa | 2.9V | 00:00:00 | 00:45:37 | 00:00:00 | |
| OE5MMP-10 | 2026-09-05 23:31:38 | 49.91319 | 14.70864 | 130° | 126km/h | 5995m | 4.5m/s | -12.8°C | 7.7% | 0hPa | 2.9V | 00:00:00 | 00:45:34 | 00:00:00 | |
| NBG1-10 | 2026-09-05 23:31:35 | 49.91379 | 14.70745 | 127° | 120km/h | 5973m | 8.9m/s | -12.8°C | 6.3% | 0hPa | 2.9V | 00:00:00 | 00:45:31 | 00:00:00 | |
| DO3MHA-11 | 2026-09-05 23:31:31 | 49.91460 | 14.70580 | 129° | 115km/h | 5943m | 7.3m/s | -12.7°C | 6.4% | 0hPa | 2.9V | 00:00:00 | 00:45:27 | 00:00:00 | |
| OE5MMP-10 | 2026-09-05 23:31:28 | 49.91510 | 14.70473 | 122° | 117km/h | 5925m | 5.2m/s | -12.6°C | 5.3% | 0hPa | 2.9V | 00:00:00 | 00:45:24 | 00:00:00 | |
| DO3MHA-11 | 2026-09-05 23:31:21 | 49.91626 | 14.70209 | 129° | 122km/h | 5884m | 5.4m/s | -12.4°C | 5.1% | 0hPa | 2.9V | 00:00:00 | 00:45:17 | 00:00:00 | |
| OE5MMP-10 | 2026-09-05 23:31:18 | 49.91679 | 14.70094 | 123° | 119km/h | 5869m | 6.6m/s | -12.3°C | 5.4% | 0hPa | 2.9V | 00:00:00 | 00:45:14 | 00:00:00 | |
| ANDY1245 | 2026-09-05 23:31:17 | 49.91679 | 14.70094 | 123° | 120km/h | 5869m | 6.6m/s | 0°C | 0% | 0hPa | 2.9V | 00:00:00 | 00:00:00 | 00:00:00 | |
| OE3JTB-15 | 2026-09-05 23:31:14 | 49.91745 | 14.69927 | 124° | 119km/h | 5842m | 5.9m/s | -12.1°C | 4.1% | 0hPa | 2.9V | 00:00:00 | 00:00:00 | 00:00:00 | |
| DO3MHA-11 | 2026-09-05 23:31:11 | 49.91796 | 14.69814 | 124° | 117km/h | 5828m | 5.9m/s | -12.0°C | 3.4% | 0hPa | 2.9V | 00:00:00 | 00:45:07 | 00:00:00 | |
| OE5MMP-10 | 2026-09-05 23:31:08 | 49.91837 | 14.69700 | 116° | 119km/h | 5809m | 5.8m/s | -12.0°C | 3.7% | 0hPa | 2.9V | 00:00:00 | 00:45:04 | 00:00:00 | |
| NBG1-10 | 2026-09-05 23:31:02 | 49.91935 | 14.69458 | 129° | 117km/h | 5776m | 4.9m/s | 0°C | 0% | 0hPa | 2.9V | 00:00:00 | 00:44:58 | 00:00:00 | |
| DO3MHA-11 | 2026-09-05 23:31:01 | 49.91953 | 14.69423 | 129° | 122km/h | 5772m | 4.8m/s | -11.7°C | 3.2% | 0hPa | 2.9V | 00:00:00 | 00:44:57 | 08:30:00 | |
| OE5MMP-10 | 2026-09-05 23:30:58 | 49.92004 | 14.69310 | 123° | 124km/h | 5754m | 7.2m/s | -11.6°C | 3.4% | 0hPa | 2.9V | 00:00:00 | 00:44:54 | 00:00:00 | |
| OK1ALN | 2026-09-05 23:30:53 | 49.92065 | 14.69137 | 121° | 128km/h | 5732m | 5.9m/s | -11.5°C | 2.5% | 0hPa | 2.9V | 00:00:00 | 00:00:00 | 00:00:00 | |
| DO3MHA-11 | 2026-09-05 23:30:51 | 49.92120 | 14.69013 | 128° | 119km/h | 5712m | 8.2m/s | 0°C | 0% | 0hPa | 2.9V | 00:00:00 | 00:44:47 | 00:00:00 | |
| OE5MMP-10 | 2026-09-05 23:30:48 | 49.92171 | 14.68901 | 122° | 120km/h | 5693m | 5.7m/s | -11.3°C | 2.6% | 0hPa | 2.9V | 00:00:00 | 00:44:44 | 00:00:00 | |
| OE3JTB-15 | 2026-09-05 23:30:43 | 49.92241 | 14.68697 | 121° | 111km/h | 5663m | 5.2m/s | -11.2°C | 2.8% | 0hPa | 2.9V | 00:00:00 | 00:44:39 | 00:00:00 | |
| DO3MHA-11 | 2026-09-05 23:30:41 | 49.92277 | 14.68616 | 128° | 111km/h | 5654m | 5.7m/s | 0°C | 0% | 0hPa | 2.9V | 00:00:00 | 00:44:37 | 00:00:00 | |
| OE5MMP-10 | 2026-09-05 23:30:38 | 49.92335 | 14.68509 | 129° | 108km/h | 5638m | 4.8m/s | -11.1°C | 2.8% | 0hPa | 2.9V | 00:00:00 | 00:44:34 | 08:30:00 | |
| OK1ALN | 2026-09-05 23:30:32 | 49.92402 | 14.68334 | 118° | 110km/h | 5609m | 6.1m/s | -11.0°C | 2.6% | 0hPa | 2.9V | 00:00:00 | 00:00:00 | 00:00:00 | |
| DO3MHA-11 | 2026-09-05 23:30:31 | 49.92429 | 14.68256 | 120° | 115km/h | 5599m | 4.9m/s | 0°C | 0% | 0hPa | 2.9V | 00:00:00 | 00:44:27 | 00:00:00 | |
| NBG1-10 | 2026-09-05 23:30:29 | 49.92457 | 14.68178 | 120° | 117km/h | 5588m | 6.7m/s | 0°C | 0% | 0hPa | 2.9V | 00:00:00 | 00:44:25 | 00:00:00 | |
| OE5MMP-10 | 2026-09-05 23:30:28 | 49.92471 | 14.68139 | 120° | 111km/h | 5581m | 7.0m/s | -10.8°C | 2.7% | 0hPa | 2.9V | 00:00:00 | 00:44:24 | 00:00:00 | |
| ANDY1245 | 2026-09-05 23:30:26 | 49.92485 | 14.68100 | 119° | 115km/h | 5575m | 5.4m/s | 0°C | 0% | 0hPa | 2.9V | 00:00:00 | 00:00:00 | 00:00:00 | |
| DO3MHA-11 | 2026-09-05 23:30:21 | 49.92583 | 14.67874 | 128° | 102km/h | 5545m | 5.2m/s | 0°C | 0% | 0hPa | 2.9V | 00:00:00 | 00:44:17 | 00:00:00 | |
| ANDY1245 | 2026-09-05 23:30:20 | 49.92583 | 14.67874 | 129° | 100km/h | 5545m | 5.3m/s | 0°C | 0% | 0hPa | 2.9V | 00:00:00 | 00:00:00 | 00:00:00 | |
| OE5MMP-10 | 2026-09-05 23:30:18 | 49.92624 | 14.67779 | 121° | 104km/h | 5528m | 4.5m/s | -10.4°C | 2.4% | 0hPa | 2.9V | 00:00:00 | 00:44:14 | 00:00:00 | |
| OE3JTB-15 | 2026-09-05 23:30:14 | 49.92682 | 14.67637 | 127° | 108km/h | 5506m | 4.5m/s | -10.3°C | 2.9% | 0hPa | 2.9V | 00:00:00 | 00:00:00 | 00:00:00 | |
| OK1ALN | 2026-09-05 23:30:11 | 49.92714 | 14.67570 | 126° | 100km/h | 5493m | 7.8m/s | -10.2°C | 3.1% | 0hPa | 2.9V | 00:00:00 | 00:00:00 | 00:00:00 | |
| OE5MMP-10 | 2026-09-05 23:30:08 | 49.92763 | 14.67431 | 117° | 110km/h | 5472m | 4.3m/s | -10.1°C | 3.7% | 0hPa | 2.9V | 00:00:00 | 00:44:04 | 00:00:00 | |
| DO3MHA-11 | 2026-09-05 23:30:01 | 49.92863 | 14.67175 | 126° | 108km/h | 5431m | 8.0m/s | 0°C | 0% | 0hPa | 2.9V | 00:00:00 | 00:43:57 | 00:00:00 | |
| OE5MMP-10 | 2026-09-05 23:29:58 | 49.92915 | 14.67073 | 132° | 110km/h | 5411m | 5.4m/s | -9.8°C | 3.5% | 0hPa | 2.9V | 00:00:00 | 00:43:54 | 00:00:00 | |
| DO3MHA-11 | 2026-09-05 23:29:51 | 49.93018 | 14.66826 | 123° | 117km/h | 5377m | 4.9m/s | 0°C | 0% | 0hPa | 2.9V | 00:00:00 | 00:43:47 | 00:00:00 | |
| OE5MMP-10 | 2026-09-05 23:29:48 | 49.93068 | 14.66719 | 128° | 108km/h | 5363m | 5.9m/s | -9.4°C | 3.6% | 0hPa | 2.9V | 00:00:00 | 00:43:44 | 00:00:00 | |
| OE3JTB-15 | 2026-09-05 23:29:45 | 49.93112 | 14.66624 | 124° | 110km/h | 5345m | 6.8m/s | -9.3°C | 3.4% | 0hPa | 2.9V | 00:00:00 | 00:00:00 | 00:00:00 | |
| DO3MHA-11 | 2026-09-05 23:29:38 | 49.93216 | 14.66362 | 114° | 99km/h | 5299m | 6.0m/s | 0°C | 0% | 0hPa | 2.9V | 00:00:00 | 00:43:34 | 00:00:00 | |
| OK1ALN | 2026-09-05 23:29:31 | 49.93307 | 14.66122 | 129° | 117km/h | 5266m | 8.0m/s | -8.8°C | 2.9% | 0hPa | 2.9V | 00:00:00 | 00:00:00 | 00:00:00 | |
| OE5MMP-10 | 2026-09-05 23:29:28 | 49.93369 | 14.65992 | 124° | 97km/h | 5243m | 6.4m/s | -8.6°C | 3.1% | 0hPa | 2.9V | 00:00:00 | 00:43:24 | 00:00:00 | |
| DO3MHA-11 | 2026-09-05 23:29:21 | 49.93447 | 14.65759 | 114° | 104km/h | 5210m | 4.3m/s | 0°C | 0% | 0hPa | 2.9V | 00:00:00 | 00:43:17 | 00:00:00 | |
| OE5MMP-10 | 2026-09-05 23:29:18 | 49.93479 | 14.65647 | 114° | 111km/h | 5190m | 8.2m/s | -8.3°C | 2.8% | 0hPa | 2.9V | 00:00:00 | 00:43:14 | 00:00:00 | |
| OK1ALN | 2026-09-05 23:29:10 | 49.93582 | 14.65384 | 121° | 102km/h | 5156m | 5.3m/s | -8.2°C | 2.4% | 0hPa | 2.9V | 00:00:00 | 00:00:00 | 00:00:00 | |
| OE5MMP-10 | 2026-09-05 23:28:58 | 49.93744 | 14.64904 | 111° | 108km/h | 5087m | 5.5m/s | -7.8°C | 2.5% | 0hPa | 2.9V | 00:00:00 | 00:42:54 | 00:00:00 | |
| OK1ALN | 2026-09-05 23:28:50 | 49.93846 | 14.64641 | 127° | 99km/h | 5053m | 5.7m/s | -7.7°C | 2.4% | 0hPa | 2.9V | 00:00:00 | 00:00:00 | 00:00:00 | |
| OE5MMP-10 | 2026-09-05 23:28:48 | 49.93884 | 14.64544 | 118° | 111km/h | 5039m | 4.3m/s | -7.6°C | 2.5% | 0hPa | 2.9V | 00:00:00 | 00:42:44 | 00:00:00 | |
| OE5MMP-10 | 2026-09-05 23:28:38 | 49.94029 | 14.64171 | 123° | 102km/h | 4984m | 5.0m/s | -7.5°C | 2.8% | 0hPa | 2.9V | 00:00:00 | 00:42:34 | 00:00:00 | |
| OK1ALN | 2026-09-05 23:28:29 | 49.94143 | 14.63900 | 118° | 108km/h | 4947m | 5.6m/s | -7.4°C | 2.8% | 0hPa | 0V | 00:00:00 | 00:00:00 | 00:00:00 | |
| OE5MMP-10 | 2026-09-05 23:28:28 | 49.94168 | 14.63828 | 121° | 106km/h | 4934m | 7.3m/s | -7.3°C | 3.0% | 0hPa | 0V | 00:00:00 | 00:42:24 | 00:00:00 | |
| OE5MMP-10 | 2026-09-05 23:28:18 | 49.94321 | 14.63487 | 119° | 110km/h | 4872m | 6.9m/s | 0°C | 0% | 0hPa | 0V | 00:00:00 | 00:42:14 | 00:00:00 | |
| ANDY1245 | 2026-09-05 23:28:12 | 49.94395 | 14.63303 | 120° | 99km/h | 4846m | 6.1m/s | 0°C | 0% | 0hPa | 0V | 00:00:00 | 00:00:00 | 00:00:00 | |
| OK1ALN | 2026-09-05 23:28:09 | 49.94429 | 14.63192 | 114° | 113km/h | 4831m | 5.4m/s | -7.0°C | 4.0% | 0hPa | 0V | 00:00:00 | 00:00:00 | 00:00:00 | |
| OE5MMP-10 | 2026-09-05 23:28:08 | 49.94455 | 14.63109 | 120° | 111km/h | 4821m | 4.8m/s | 0°C | 0% | 0hPa | 0V | 00:00:00 | 00:42:04 | 00:00:00 | |
| ANDY1245 | 2026-09-05 23:28:07 | 49.94455 | 14.63109 | 120° | 120km/h | 4821m | 4.9m/s | 0°C | 0% | 0hPa | 0V | 00:00:00 | 00:00:00 | 00:00:00 | |
| OE3JTB-15 | 2026-09-05 23:28:03 | 49.94525 | 14.62925 | 116° | 108km/h | 4795m | 6.2m/s | -6.8°C | 5.2% | 0hPa | 0V | 00:00:00 | 00:41:59 | 00:00:00 | |
| OE5MMP-10 | 2026-09-05 23:27:58 | 49.94585 | 14.62724 | 120° | 113km/h | 4770m | 5.1m/s | 0°C | 0% | 0hPa | 0V | 00:00:00 | 00:41:54 | 00:00:00 | |
| OE5MMP-10 | 2026-09-05 23:27:48 | 49.94716 | 14.62335 | 122° | 106km/h | 4717m | 5.0m/s | 0°C | 0% | 0hPa | 0V | 00:00:00 | 00:41:44 | 00:00:00 | |
| OE3JTB-15 | 2026-09-05 23:27:33 | 49.94890 | 14.61776 | 111° | 110km/h | 4638m | 5.4m/s | 0°C | 0% | 0hPa | 0V | 00:00:00 | 00:00:00 | 00:00:00 | |
| OK1ALN | 2026-09-05 23:27:28 | 49.94936 | 14.61618 | 116° | 113km/h | 4620m | 8.4m/s | -5.9°C | 4.9% | 0hPa | 0V | 00:00:00 | 00:00:00 | 00:00:00 | |
| OK1ALN | 2026-09-05 23:27:08 | 49.95197 | 14.60869 | 122° | 104km/h | 4493m | 6.3m/s | -5.3°C | 4.9% | 0hPa | 0V | 00:00:00 | 00:00:00 | 00:00:00 | |
| OE3JTB-15 | 2026-09-05 23:27:04 | 49.95264 | 14.60678 | 122° | 100km/h | 4467m | 6.5m/s | 0°C | 0% | 0hPa | 0V | 00:00:00 | 00:00:00 | 00:00:00 | |
| OK1ALN | 2026-09-05 23:26:48 | 49.95477 | 14.60153 | 118° | 102km/h | 4381m | 8.3m/s | -5.0°C | 6.6% | 0hPa | 0V | 00:00:00 | 00:00:00 | 00:00:00 | |
| ANDY1245 | 2026-09-05 23:26:45 | 49.95517 | 14.60038 | 123° | 115km/h | 4362m | 6.0m/s | 0°C | 0% | 0hPa | 0V | 00:00:00 | 00:00:00 | 00:00:00 | |
| OK1ALN | 2026-09-05 23:26:27 | 49.95757 | 14.59404 | 119° | 117km/h | 4267m | 4.4m/s | -4.5°C | 1.9% | 0hPa | 0V | 00:00:00 | 00:00:00 | 00:00:00 | |
| OK1ALN | 2026-09-05 23:26:07 | 49.96006 | 14.58719 | 109° | 89km/h | 4163m | 5.3m/s | -4.3°C | 3.0% | 0hPa | 0V | 00:00:00 | 00:00:00 | 00:00:00 | |
| OK1ALN | 2026-09-05 23:25:46 | 49.96230 | 14.58042 | 118° | 93km/h | 4035m | 7.7m/s | -3.9°C | 3.2% | 0hPa | 0V | 00:00:00 | 00:00:00 | 00:00:00 | |
| OK1ALN | 2026-09-05 23:25:25 | 49.96440 | 14.57382 | 117° | 84km/h | 3920m | 5.9m/s | -3.4°C | 3.6% | 0hPa | 0V | 00:00:00 | 00:00:00 | 00:00:00 | |
| OK1ALN | 2026-09-05 23:25:04 | 49.96638 | 14.56669 | 103° | 95km/h | 3799m | 9.3m/s | -3.6°C | 11.3% | 0hPa | 0V | 00:00:00 | 00:00:00 | 00:00:00 | |
| OK1ALN | 2026-09-05 23:24:44 | 49.96801 | 14.55996 | 109° | 91km/h | 3683m | 5.8m/s | -4.2°C | 29.2% | 0hPa | 0V | 00:00:00 | 00:00:00 | 00:00:00 | |
| OK1ALN | 2026-09-05 23:24:24 | 49.96931 | 14.55396 | 105° | 69km/h | 3568m | 5.6m/s | -3.6°C | 31.0% | 0hPa | 0V | 00:00:00 | 00:00:00 | 00:00:00 | |
| OK1ALN | 2026-09-05 23:24:03 | 49.97079 | 14.54829 | 110° | 64km/h | 3460m | 6.0m/s | -2.6°C | 25.7% | 0hPa | 0V | 00:00:00 | 00:00:00 | 00:00:00 | |
| OK1ALN | 2026-09-05 23:23:42 | 49.97235 | 14.54238 | 114° | 91km/h | 3333m | 6.7m/s | -1.4°C | 24.3% | 0hPa | 0V | 00:00:00 | 00:00:00 | 00:00:00 | |
| OK1ALN | 2026-09-05 23:23:21 | 49.97384 | 14.53645 | 118° | 86km/h | 3217m | 6.6m/s | -0.5°C | 25.1% | 0hPa | 0V | 00:00:00 | 00:00:00 | 00:00:00 | |
| OK1ALN | 2026-09-05 23:23:01 | 49.97540 | 14.53116 | 118° | 78km/h | 3098m | 6.0m/s | 0.4°C | 26.1% | 0hPa | 0V | 00:00:00 | 00:00:00 | 00:00:00 | |
| OE3JTB-15 | 2026-09-05 23:22:42 | 49.97693 | 14.52593 | 119° | 71km/h | 2980m | 5.5m/s | 0°C | 0% | 0hPa | 0V | 00:00:00 | 00:36:38 | 00:00:00 | |
| OK1ALN | 2026-09-05 23:22:40 | 49.97700 | 14.52572 | 115° | 60km/h | 2974m | 6.2m/s | 1.5°C | 23.2% | 0hPa | 0V | 00:00:00 | 00:00:00 | 00:00:00 | |
| OK1ALN | 2026-09-05 23:22:19 | 49.97845 | 14.52048 | 118° | 62km/h | 2853m | 5.1m/s | 2.1°C | 25.7% | 0hPa | 0V | 00:00:00 | 00:00:00 | 00:00:00 | |
| OE3JTB-15 | 2026-09-05 23:22:00 | 49.97989 | 14.51528 | 120° | 62km/h | 2733m | 6.8m/s | 0°C | 0% | 0hPa | 0V | 00:00:00 | 00:00:00 | 00:00:00 | |
| OK1ALN | 2026-09-05 23:21:59 | 49.97989 | 14.51528 | 120° | 71km/h | 2733m | 6.8m/s | 2.5°C | 22.1% | 0hPa | 0V | 00:00:00 | 00:00:00 | 00:00:00 | |
| OK1ALN | 2026-09-05 23:21:38 | 49.98158 | 14.51076 | 123° | 58km/h | 2609m | 5.6m/s | 2.7°C | 23.0% | 0hPa | 0V | 00:00:00 | 00:00:00 | 00:00:00 | |
| OK1ALN | 2026-09-05 23:21:18 | 49.98306 | 14.50660 | 115° | 49km/h | 2506m | 4.8m/s | -0.2°C | 81.2% | 0hPa | 0V | 00:00:00 | 00:00:00 | 00:00:00 | |
| OK1ALN | 2026-09-05 23:20:57 | 49.98422 | 14.50213 | 120° | 64km/h | 2385m | 4.7m/s | 0.4°C | 86.1% | 0hPa | 0V | 00:00:00 | 00:00:00 | 00:00:00 | |
| OK1ALN | 2026-09-05 23:20:37 | 49.98527 | 14.49812 | 106° | 57km/h | 2279m | 6.5m/s | 1.3°C | 83.4% | 0hPa | 0V | 00:00:00 | 00:00:00 | 00:00:00 | |
| OK1ALN | 2026-09-05 23:20:16 | 49.98623 | 14.49378 | 106° | 51km/h | 2139m | 6.2m/s | 2.5°C | 77.1% | 0hPa | 0V | 00:00:00 | 00:00:00 | 00:00:00 | |
| OK1ALN | 2026-09-05 23:19:56 | 49.98742 | 14.48979 | 121° | 60km/h | 2010m | 7.1m/s | 3.6°C | 70.6% | 0hPa | 0V | 00:00:00 | 00:00:00 | 00:00:00 | |
| OK1ALN | 2026-09-05 23:19:15 | 49.99072 | 14.48132 | 116° | 64km/h | 1757m | 5.3m/s | 0°C | 0% | 0hPa | 0V | 00:00:00 | 00:00:00 | 00:00:00 | |
| OK1ALN | 2026-09-05 23:18:55 | 49.99230 | 14.47765 | 133° | 58km/h | 1637m | 7.3m/s | 0°C | 0% | 0hPa | 0V | 00:00:00 | 00:00:00 | 00:00:00 | |
| OK1ALN | 2026-09-05 23:18:21 | 49.99521 | 14.47215 | 124° | 55km/h | 1433m | 6.5m/s | 0°C | 0% | 0hPa | 0V | 00:00:00 | 00:00:00 | 00:00:00 |